<?xml version="1.0" encoding="UTF-8" standalone="no" ?>
<gpx xmlns="http://www.topografix.com/GPX/1/1" xmlns:xsi="http://www.w3.org/2001/XMLSchema-instance" xsi:schemaLocation="http://www.topografix.com/GPX/1/1 http://www.topografix.com/GPX/1/1/gpx.xsd" version="1.1" creator="VisuGPX - https://www.visugpx.com">
  <metadata>
    <name>Pic de Portarras</name>
    <desc><![CDATA[Pic de Portarras depuis les granges de Lurgues]]></desc>
  </metadata>
  <trk>
    <name><![CDATA[null]]></name>
    <trkseg>
      <trkpt lat="42.85139" lon="0.27298">
        <ele>1376.4</ele>
        <time>2017-02-20T07:48:33Z</time>
      </trkpt>
      <trkpt lat="42.8514" lon="0.27299">
        <ele>1376.2</ele>
        <time>2017-02-20T07:48:38Z</time>
      </trkpt>
      <trkpt lat="42.8514" lon="0.27298">
        <ele>1376</ele>
        <time>2017-02-20T07:48:43Z</time>
      </trkpt>
      <trkpt lat="42.8514" lon="0.27297">
        <ele>1375.8</ele>
        <time>2017-02-20T07:48:48Z</time>
      </trkpt>
      <trkpt lat="42.85141" lon="0.27295">
        <ele>1375</ele>
        <time>2017-02-20T07:48:53Z</time>
      </trkpt>
      <trkpt lat="42.8514" lon="0.27295">
        <ele>1374.4</ele>
        <time>2017-02-20T07:48:58Z</time>
      </trkpt>
      <trkpt lat="42.85139" lon="0.27295">
        <ele>1375.8</ele>
        <time>2017-02-20T07:49:08Z</time>
      </trkpt>
      <trkpt lat="42.85136" lon="0.27294">
        <ele>1371.6</ele>
        <time>2017-02-20T07:49:13Z</time>
      </trkpt>
      <trkpt lat="42.85136" lon="0.27293">
        <ele>1371.6</ele>
        <time>2017-02-20T07:49:33Z</time>
      </trkpt>
      <trkpt lat="42.85136" lon="0.27293">
        <ele>1374.8</ele>
        <time>2017-02-20T07:49:43Z</time>
      </trkpt>
      <trkpt lat="42.85136" lon="0.27293">
        <ele>1373.6</ele>
        <time>2017-02-20T07:49:48Z</time>
      </trkpt>
      <trkpt lat="42.85135" lon="0.27294">
        <ele>1371.6</ele>
        <time>2017-02-20T07:50:08Z</time>
      </trkpt>
      <trkpt lat="42.85135" lon="0.27294">
        <ele>1371.6</ele>
        <time>2017-02-20T07:50:14Z</time>
      </trkpt>
      <trkpt lat="42.85132" lon="0.27292">
        <ele>1372.4</ele>
        <time>2017-02-20T07:50:19Z</time>
      </trkpt>
      <trkpt lat="42.8513" lon="0.27285">
        <ele>1370.2</ele>
        <time>2017-02-20T07:50:24Z</time>
      </trkpt>
      <trkpt lat="42.85131" lon="0.27282">
        <ele>1370.2</ele>
        <time>2017-02-20T07:50:29Z</time>
      </trkpt>
      <trkpt lat="42.85131" lon="0.27281">
        <ele>1371.8</ele>
        <time>2017-02-20T07:50:34Z</time>
      </trkpt>
      <trkpt lat="42.85133" lon="0.27278">
        <ele>1371.6</ele>
        <time>2017-02-20T07:50:39Z</time>
      </trkpt>
      <trkpt lat="42.85135" lon="0.27276">
        <ele>1369</ele>
        <time>2017-02-20T07:50:44Z</time>
      </trkpt>
      <trkpt lat="42.85139" lon="0.27273">
        <ele>1374.4</ele>
        <time>2017-02-20T07:50:49Z</time>
      </trkpt>
      <trkpt lat="42.85143" lon="0.27267">
        <ele>1373.2</ele>
        <time>2017-02-20T07:50:54Z</time>
      </trkpt>
      <trkpt lat="42.85146" lon="0.27263">
        <ele>1373.2</ele>
        <time>2017-02-20T07:50:59Z</time>
      </trkpt>
      <trkpt lat="42.8515" lon="0.27259">
        <ele>1374</ele>
        <time>2017-02-20T07:51:04Z</time>
      </trkpt>
      <trkpt lat="42.85153" lon="0.27255">
        <ele>1373.4</ele>
        <time>2017-02-20T07:51:09Z</time>
      </trkpt>
      <trkpt lat="42.85157" lon="0.27252">
        <ele>1375</ele>
        <time>2017-02-20T07:51:14Z</time>
      </trkpt>
      <trkpt lat="42.8516" lon="0.27249">
        <ele>1372.6</ele>
        <time>2017-02-20T07:51:19Z</time>
      </trkpt>
      <trkpt lat="42.85162" lon="0.27247">
        <ele>1375</ele>
        <time>2017-02-20T07:51:24Z</time>
      </trkpt>
      <trkpt lat="42.85166" lon="0.27243">
        <ele>1375.4</ele>
        <time>2017-02-20T07:51:29Z</time>
      </trkpt>
      <trkpt lat="42.85168" lon="0.27239">
        <ele>1375.6</ele>
        <time>2017-02-20T07:51:34Z</time>
      </trkpt>
      <trkpt lat="42.85171" lon="0.27235">
        <ele>1376.2</ele>
        <time>2017-02-20T07:51:39Z</time>
      </trkpt>
      <trkpt lat="42.85173" lon="0.27231">
        <ele>1374.4</ele>
        <time>2017-02-20T07:51:44Z</time>
      </trkpt>
      <trkpt lat="42.85174" lon="0.27228">
        <ele>1378.6</ele>
        <time>2017-02-20T07:51:49Z</time>
      </trkpt>
      <trkpt lat="42.85175" lon="0.27225">
        <ele>1378.6</ele>
        <time>2017-02-20T07:51:54Z</time>
      </trkpt>
      <trkpt lat="42.85177" lon="0.2722">
        <ele>1381.4</ele>
        <time>2017-02-20T07:51:59Z</time>
      </trkpt>
      <trkpt lat="42.85179" lon="0.27214">
        <ele>1382.8</ele>
        <time>2017-02-20T07:52:04Z</time>
      </trkpt>
      <trkpt lat="42.85182" lon="0.2721">
        <ele>1385.6</ele>
        <time>2017-02-20T07:52:09Z</time>
      </trkpt>
      <trkpt lat="42.85183" lon="0.27208">
        <ele>1385.8</ele>
        <time>2017-02-20T07:52:14Z</time>
      </trkpt>
      <trkpt lat="42.85184" lon="0.27207">
        <ele>1387.6</ele>
        <time>2017-02-20T07:52:19Z</time>
      </trkpt>
      <trkpt lat="42.85183" lon="0.27208">
        <ele>1387.2</ele>
        <time>2017-02-20T07:52:24Z</time>
      </trkpt>
      <trkpt lat="42.85183" lon="0.27207">
        <ele>1387</ele>
        <time>2017-02-20T07:52:29Z</time>
      </trkpt>
      <trkpt lat="42.85183" lon="0.27207">
        <ele>1387</ele>
        <time>2017-02-20T07:52:44Z</time>
      </trkpt>
      <trkpt lat="42.85183" lon="0.27207">
        <ele>1386.8</ele>
        <time>2017-02-20T07:52:54Z</time>
      </trkpt>
      <trkpt lat="42.85183" lon="0.27206">
        <ele>1386.6</ele>
        <time>2017-02-20T07:53:09Z</time>
      </trkpt>
      <trkpt lat="42.85184" lon="0.27206">
        <ele>1386.4</ele>
        <time>2017-02-20T07:53:19Z</time>
      </trkpt>
      <trkpt lat="42.85184" lon="0.27205">
        <ele>1386.4</ele>
        <time>2017-02-20T07:53:24Z</time>
      </trkpt>
      <trkpt lat="42.85185" lon="0.27203">
        <ele>1386.2</ele>
        <time>2017-02-20T07:53:40Z</time>
      </trkpt>
      <trkpt lat="42.85185" lon="0.27203">
        <ele>1385.8</ele>
        <time>2017-02-20T07:53:45Z</time>
      </trkpt>
      <trkpt lat="42.85185" lon="0.27202">
        <ele>1385.4</ele>
        <time>2017-02-20T07:53:50Z</time>
      </trkpt>
      <trkpt lat="42.85186" lon="0.27201">
        <ele>1384.4</ele>
        <time>2017-02-20T07:53:55Z</time>
      </trkpt>
      <trkpt lat="42.85186" lon="0.272">
        <ele>1383.6</ele>
        <time>2017-02-20T07:54:00Z</time>
      </trkpt>
      <trkpt lat="42.85189" lon="0.27196">
        <ele>1379.2</ele>
        <time>2017-02-20T07:54:05Z</time>
      </trkpt>
      <trkpt lat="42.85194" lon="0.27192">
        <ele>1384</ele>
        <time>2017-02-20T07:54:10Z</time>
      </trkpt>
      <trkpt lat="42.85199" lon="0.27187">
        <ele>1380.6</ele>
        <time>2017-02-20T07:54:15Z</time>
      </trkpt>
      <trkpt lat="42.85202" lon="0.27182">
        <ele>1385.2</ele>
        <time>2017-02-20T07:54:20Z</time>
      </trkpt>
      <trkpt lat="42.85205" lon="0.27177">
        <ele>1384.6</ele>
        <time>2017-02-20T07:54:25Z</time>
      </trkpt>
      <trkpt lat="42.85207" lon="0.27171">
        <ele>1388</ele>
        <time>2017-02-20T07:54:30Z</time>
      </trkpt>
      <trkpt lat="42.85209" lon="0.27165">
        <ele>1387.6</ele>
        <time>2017-02-20T07:54:35Z</time>
      </trkpt>
      <trkpt lat="42.85212" lon="0.2716">
        <ele>1387.6</ele>
        <time>2017-02-20T07:54:40Z</time>
      </trkpt>
      <trkpt lat="42.85215" lon="0.27155">
        <ele>1388.4</ele>
        <time>2017-02-20T07:54:45Z</time>
      </trkpt>
      <trkpt lat="42.85218" lon="0.2715">
        <ele>1390.4</ele>
        <time>2017-02-20T07:54:50Z</time>
      </trkpt>
      <trkpt lat="42.85221" lon="0.27145">
        <ele>1390.8</ele>
        <time>2017-02-20T07:54:55Z</time>
      </trkpt>
      <trkpt lat="42.85225" lon="0.2714">
        <ele>1390</ele>
        <time>2017-02-20T07:55:00Z</time>
      </trkpt>
      <trkpt lat="42.85228" lon="0.27137">
        <ele>1389.2</ele>
        <time>2017-02-20T07:55:05Z</time>
      </trkpt>
      <trkpt lat="42.85233" lon="0.27136">
        <ele>1387.2</ele>
        <time>2017-02-20T07:55:10Z</time>
      </trkpt>
      <trkpt lat="42.85237" lon="0.27136">
        <ele>1389.2</ele>
        <time>2017-02-20T07:55:15Z</time>
      </trkpt>
      <trkpt lat="42.8524" lon="0.27135">
        <ele>1390.8</ele>
        <time>2017-02-20T07:55:20Z</time>
      </trkpt>
      <trkpt lat="42.85244" lon="0.27133">
        <ele>1392.6</ele>
        <time>2017-02-20T07:55:25Z</time>
      </trkpt>
      <trkpt lat="42.85247" lon="0.27132">
        <ele>1395</ele>
        <time>2017-02-20T07:55:30Z</time>
      </trkpt>
      <trkpt lat="42.85251" lon="0.27131">
        <ele>1393.2</ele>
        <time>2017-02-20T07:55:35Z</time>
      </trkpt>
      <trkpt lat="42.85254" lon="0.27129">
        <ele>1396</ele>
        <time>2017-02-20T07:55:40Z</time>
      </trkpt>
      <trkpt lat="42.85258" lon="0.27127">
        <ele>1397.8</ele>
        <time>2017-02-20T07:55:45Z</time>
      </trkpt>
      <trkpt lat="42.85262" lon="0.27126">
        <ele>1396.2</ele>
        <time>2017-02-20T07:55:50Z</time>
      </trkpt>
      <trkpt lat="42.85265" lon="0.27125">
        <ele>1397.8</ele>
        <time>2017-02-20T07:55:55Z</time>
      </trkpt>
      <trkpt lat="42.85268" lon="0.27124">
        <ele>1398</ele>
        <time>2017-02-20T07:56:00Z</time>
      </trkpt>
      <trkpt lat="42.85271" lon="0.27124">
        <ele>1399.4</ele>
        <time>2017-02-20T07:56:05Z</time>
      </trkpt>
      <trkpt lat="42.85274" lon="0.27123">
        <ele>1398.2</ele>
        <time>2017-02-20T07:56:10Z</time>
      </trkpt>
      <trkpt lat="42.85278" lon="0.27123">
        <ele>1400.2</ele>
        <time>2017-02-20T07:56:15Z</time>
      </trkpt>
      <trkpt lat="42.85281" lon="0.27122">
        <ele>1402</ele>
        <time>2017-02-20T07:56:20Z</time>
      </trkpt>
      <trkpt lat="42.85284" lon="0.2712">
        <ele>1404.8</ele>
        <time>2017-02-20T07:56:25Z</time>
      </trkpt>
      <trkpt lat="42.85288" lon="0.27118">
        <ele>1403</ele>
        <time>2017-02-20T07:56:30Z</time>
      </trkpt>
      <trkpt lat="42.85291" lon="0.27117">
        <ele>1405.4</ele>
        <time>2017-02-20T07:56:35Z</time>
      </trkpt>
      <trkpt lat="42.85294" lon="0.27116">
        <ele>1406.2</ele>
        <time>2017-02-20T07:56:40Z</time>
      </trkpt>
      <trkpt lat="42.85297" lon="0.27115">
        <ele>1406.6</ele>
        <time>2017-02-20T07:56:45Z</time>
      </trkpt>
      <trkpt lat="42.853" lon="0.27115">
        <ele>1409.4</ele>
        <time>2017-02-20T07:56:50Z</time>
      </trkpt>
      <trkpt lat="42.85303" lon="0.27115">
        <ele>1406.6</ele>
        <time>2017-02-20T07:56:55Z</time>
      </trkpt>
      <trkpt lat="42.85307" lon="0.27114">
        <ele>1408.8</ele>
        <time>2017-02-20T07:57:00Z</time>
      </trkpt>
      <trkpt lat="42.8531" lon="0.2711">
        <ele>1408.6</ele>
        <time>2017-02-20T07:57:05Z</time>
      </trkpt>
      <trkpt lat="42.85312" lon="0.27106">
        <ele>1409.8</ele>
        <time>2017-02-20T07:57:10Z</time>
      </trkpt>
      <trkpt lat="42.85314" lon="0.27103">
        <ele>1409.2</ele>
        <time>2017-02-20T07:57:15Z</time>
      </trkpt>
      <trkpt lat="42.85317" lon="0.27099">
        <ele>1411.2</ele>
        <time>2017-02-20T07:57:20Z</time>
      </trkpt>
      <trkpt lat="42.85318" lon="0.27095">
        <ele>1410</ele>
        <time>2017-02-20T07:57:25Z</time>
      </trkpt>
      <trkpt lat="42.8532" lon="0.2709">
        <ele>1411.4</ele>
        <time>2017-02-20T07:57:30Z</time>
      </trkpt>
      <trkpt lat="42.85321" lon="0.27085">
        <ele>1412.2</ele>
        <time>2017-02-20T07:57:35Z</time>
      </trkpt>
      <trkpt lat="42.85323" lon="0.27081">
        <ele>1413.2</ele>
        <time>2017-02-20T07:57:40Z</time>
      </trkpt>
      <trkpt lat="42.85324" lon="0.27077">
        <ele>1413.6</ele>
        <time>2017-02-20T07:57:45Z</time>
      </trkpt>
      <trkpt lat="42.85326" lon="0.27073">
        <ele>1414</ele>
        <time>2017-02-20T07:57:50Z</time>
      </trkpt>
      <trkpt lat="42.8533" lon="0.27071">
        <ele>1416.6</ele>
        <time>2017-02-20T07:57:55Z</time>
      </trkpt>
      <trkpt lat="42.85333" lon="0.27068">
        <ele>1414.8</ele>
        <time>2017-02-20T07:58:00Z</time>
      </trkpt>
      <trkpt lat="42.85336" lon="0.27066">
        <ele>1415.8</ele>
        <time>2017-02-20T07:58:05Z</time>
      </trkpt>
      <trkpt lat="42.8534" lon="0.27065">
        <ele>1415.6</ele>
        <time>2017-02-20T07:58:10Z</time>
      </trkpt>
      <trkpt lat="42.85343" lon="0.27063">
        <ele>1417.2</ele>
        <time>2017-02-20T07:58:15Z</time>
      </trkpt>
      <trkpt lat="42.85346" lon="0.27062">
        <ele>1417.8</ele>
        <time>2017-02-20T07:58:20Z</time>
      </trkpt>
      <trkpt lat="42.85349" lon="0.2706">
        <ele>1417.8</ele>
        <time>2017-02-20T07:58:25Z</time>
      </trkpt>
      <trkpt lat="42.85353" lon="0.27058">
        <ele>1419</ele>
        <time>2017-02-20T07:58:30Z</time>
      </trkpt>
      <trkpt lat="42.85356" lon="0.27057">
        <ele>1420</ele>
        <time>2017-02-20T07:58:35Z</time>
      </trkpt>
      <trkpt lat="42.85359" lon="0.27055">
        <ele>1419.2</ele>
        <time>2017-02-20T07:58:40Z</time>
      </trkpt>
      <trkpt lat="42.85362" lon="0.27054">
        <ele>1422.6</ele>
        <time>2017-02-20T07:58:45Z</time>
      </trkpt>
      <trkpt lat="42.85365" lon="0.27051">
        <ele>1420.2</ele>
        <time>2017-02-20T07:58:50Z</time>
      </trkpt>
      <trkpt lat="42.85369" lon="0.27049">
        <ele>1422</ele>
        <time>2017-02-20T07:58:55Z</time>
      </trkpt>
      <trkpt lat="42.85371" lon="0.27046">
        <ele>1424</ele>
        <time>2017-02-20T07:59:00Z</time>
      </trkpt>
      <trkpt lat="42.85374" lon="0.27043">
        <ele>1423.2</ele>
        <time>2017-02-20T07:59:05Z</time>
      </trkpt>
      <trkpt lat="42.85377" lon="0.2704">
        <ele>1425.2</ele>
        <time>2017-02-20T07:59:10Z</time>
      </trkpt>
      <trkpt lat="42.8538" lon="0.27038">
        <ele>1426</ele>
        <time>2017-02-20T07:59:15Z</time>
      </trkpt>
      <trkpt lat="42.85383" lon="0.27037">
        <ele>1423.4</ele>
        <time>2017-02-20T07:59:20Z</time>
      </trkpt>
      <trkpt lat="42.85386" lon="0.27034">
        <ele>1428.2</ele>
        <time>2017-02-20T07:59:25Z</time>
      </trkpt>
      <trkpt lat="42.85388" lon="0.27032">
        <ele>1426.2</ele>
        <time>2017-02-20T07:59:30Z</time>
      </trkpt>
      <trkpt lat="42.8539" lon="0.27029">
        <ele>1428.6</ele>
        <time>2017-02-20T07:59:35Z</time>
      </trkpt>
      <trkpt lat="42.85393" lon="0.27027">
        <ele>1426.4</ele>
        <time>2017-02-20T07:59:40Z</time>
      </trkpt>
      <trkpt lat="42.85396" lon="0.27025">
        <ele>1426.4</ele>
        <time>2017-02-20T07:59:45Z</time>
      </trkpt>
      <trkpt lat="42.85399" lon="0.27025">
        <ele>1429.4</ele>
        <time>2017-02-20T07:59:50Z</time>
      </trkpt>
      <trkpt lat="42.85402" lon="0.27023">
        <ele>1431.6</ele>
        <time>2017-02-20T07:59:55Z</time>
      </trkpt>
      <trkpt lat="42.85404" lon="0.27021">
        <ele>1431.2</ele>
        <time>2017-02-20T08:00:00Z</time>
      </trkpt>
      <trkpt lat="42.85406" lon="0.27018">
        <ele>1434.6</ele>
        <time>2017-02-20T08:00:05Z</time>
      </trkpt>
      <trkpt lat="42.85409" lon="0.27014">
        <ele>1431.4</ele>
        <time>2017-02-20T08:00:10Z</time>
      </trkpt>
      <trkpt lat="42.85411" lon="0.27012">
        <ele>1432</ele>
        <time>2017-02-20T08:00:15Z</time>
      </trkpt>
      <trkpt lat="42.85413" lon="0.2701">
        <ele>1434.4</ele>
        <time>2017-02-20T08:00:20Z</time>
      </trkpt>
      <trkpt lat="42.85415" lon="0.27008">
        <ele>1435</ele>
        <time>2017-02-20T08:00:25Z</time>
      </trkpt>
      <trkpt lat="42.85418" lon="0.27005">
        <ele>1434.4</ele>
        <time>2017-02-20T08:00:30Z</time>
      </trkpt>
      <trkpt lat="42.8542" lon="0.27003">
        <ele>1436.4</ele>
        <time>2017-02-20T08:00:35Z</time>
      </trkpt>
      <trkpt lat="42.85423" lon="0.27002">
        <ele>1435.6</ele>
        <time>2017-02-20T08:00:40Z</time>
      </trkpt>
      <trkpt lat="42.85425" lon="0.27002">
        <ele>1439.6</ele>
        <time>2017-02-20T08:00:45Z</time>
      </trkpt>
      <trkpt lat="42.85428" lon="0.27">
        <ele>1439.6</ele>
        <time>2017-02-20T08:00:51Z</time>
      </trkpt>
      <trkpt lat="42.8543" lon="0.26997">
        <ele>1440.2</ele>
        <time>2017-02-20T08:00:56Z</time>
      </trkpt>
      <trkpt lat="42.85432" lon="0.26994">
        <ele>1438.2</ele>
        <time>2017-02-20T08:01:01Z</time>
      </trkpt>
      <trkpt lat="42.85433" lon="0.2699">
        <ele>1441.4</ele>
        <time>2017-02-20T08:01:06Z</time>
      </trkpt>
      <trkpt lat="42.85435" lon="0.26987">
        <ele>1440.6</ele>
        <time>2017-02-20T08:01:11Z</time>
      </trkpt>
      <trkpt lat="42.85437" lon="0.26985">
        <ele>1438.8</ele>
        <time>2017-02-20T08:01:16Z</time>
      </trkpt>
      <trkpt lat="42.85438" lon="0.26983">
        <ele>1441.6</ele>
        <time>2017-02-20T08:01:21Z</time>
      </trkpt>
      <trkpt lat="42.85441" lon="0.26981">
        <ele>1446.4</ele>
        <time>2017-02-20T08:01:26Z</time>
      </trkpt>
      <trkpt lat="42.85442" lon="0.26979">
        <ele>1444.4</ele>
        <time>2017-02-20T08:01:31Z</time>
      </trkpt>
      <trkpt lat="42.85444" lon="0.26977">
        <ele>1446.2</ele>
        <time>2017-02-20T08:01:36Z</time>
      </trkpt>
      <trkpt lat="42.85447" lon="0.26977">
        <ele>1448.2</ele>
        <time>2017-02-20T08:01:41Z</time>
      </trkpt>
      <trkpt lat="42.85449" lon="0.26978">
        <ele>1444</ele>
        <time>2017-02-20T08:01:46Z</time>
      </trkpt>
      <trkpt lat="42.85451" lon="0.26978">
        <ele>1446.6</ele>
        <time>2017-02-20T08:01:51Z</time>
      </trkpt>
      <trkpt lat="42.85454" lon="0.26979">
        <ele>1448.4</ele>
        <time>2017-02-20T08:01:56Z</time>
      </trkpt>
      <trkpt lat="42.85455" lon="0.2698">
        <ele>1447.4</ele>
        <time>2017-02-20T08:02:01Z</time>
      </trkpt>
      <trkpt lat="42.85457" lon="0.2698">
        <ele>1448</ele>
        <time>2017-02-20T08:02:11Z</time>
      </trkpt>
      <trkpt lat="42.85457" lon="0.2698">
        <ele>1448.4</ele>
        <time>2017-02-20T08:02:16Z</time>
      </trkpt>
      <trkpt lat="42.85459" lon="0.2698">
        <ele>1446.4</ele>
        <time>2017-02-20T08:02:21Z</time>
      </trkpt>
      <trkpt lat="42.8546" lon="0.2698">
        <ele>1449.8</ele>
        <time>2017-02-20T08:02:26Z</time>
      </trkpt>
      <trkpt lat="42.85461" lon="0.2698">
        <ele>1449.8</ele>
        <time>2017-02-20T08:02:31Z</time>
      </trkpt>
      <trkpt lat="42.85463" lon="0.26981">
        <ele>1449.6</ele>
        <time>2017-02-20T08:02:36Z</time>
      </trkpt>
      <trkpt lat="42.85466" lon="0.26982">
        <ele>1451</ele>
        <time>2017-02-20T08:02:41Z</time>
      </trkpt>
      <trkpt lat="42.85469" lon="0.2698">
        <ele>1450.8</ele>
        <time>2017-02-20T08:02:46Z</time>
      </trkpt>
      <trkpt lat="42.85471" lon="0.26977">
        <ele>1451.6</ele>
        <time>2017-02-20T08:02:51Z</time>
      </trkpt>
      <trkpt lat="42.85473" lon="0.26973">
        <ele>1454.8</ele>
        <time>2017-02-20T08:02:56Z</time>
      </trkpt>
      <trkpt lat="42.85474" lon="0.26973">
        <ele>1455.8</ele>
        <time>2017-02-20T08:03:01Z</time>
      </trkpt>
      <trkpt lat="42.85475" lon="0.26973">
        <ele>1455.6</ele>
        <time>2017-02-20T08:03:06Z</time>
      </trkpt>
      <trkpt lat="42.85474" lon="0.26972">
        <ele>1455.6</ele>
        <time>2017-02-20T08:03:11Z</time>
      </trkpt>
      <trkpt lat="42.85474" lon="0.26972">
        <ele>1455.4</ele>
        <time>2017-02-20T08:04:06Z</time>
      </trkpt>
      <trkpt lat="42.85474" lon="0.26971">
        <ele>1455.6</ele>
        <time>2017-02-20T08:04:11Z</time>
      </trkpt>
      <trkpt lat="42.85474" lon="0.26971">
        <ele>1455.4</ele>
        <time>2017-02-20T08:04:16Z</time>
      </trkpt>
      <trkpt lat="42.85474" lon="0.26971">
        <ele>1455.2</ele>
        <time>2017-02-20T08:04:21Z</time>
      </trkpt>
      <trkpt lat="42.85474" lon="0.26971">
        <ele>1454.8</ele>
        <time>2017-02-20T08:04:52Z</time>
      </trkpt>
      <trkpt lat="42.85476" lon="0.26969">
        <ele>1456.6</ele>
        <time>2017-02-20T08:04:57Z</time>
      </trkpt>
      <trkpt lat="42.85478" lon="0.26966">
        <ele>1458</ele>
        <time>2017-02-20T08:05:02Z</time>
      </trkpt>
      <trkpt lat="42.8548" lon="0.26963">
        <ele>1458</ele>
        <time>2017-02-20T08:05:07Z</time>
      </trkpt>
      <trkpt lat="42.85482" lon="0.26959">
        <ele>1458.6</ele>
        <time>2017-02-20T08:05:12Z</time>
      </trkpt>
      <trkpt lat="42.85484" lon="0.26955">
        <ele>1459.2</ele>
        <time>2017-02-20T08:05:17Z</time>
      </trkpt>
      <trkpt lat="42.85486" lon="0.26951">
        <ele>1461.2</ele>
        <time>2017-02-20T08:05:22Z</time>
      </trkpt>
      <trkpt lat="42.85488" lon="0.26947">
        <ele>1462.6</ele>
        <time>2017-02-20T08:05:27Z</time>
      </trkpt>
      <trkpt lat="42.8549" lon="0.26944">
        <ele>1463.4</ele>
        <time>2017-02-20T08:05:32Z</time>
      </trkpt>
      <trkpt lat="42.85492" lon="0.26942">
        <ele>1462.4</ele>
        <time>2017-02-20T08:05:37Z</time>
      </trkpt>
      <trkpt lat="42.85496" lon="0.26941">
        <ele>1465.4</ele>
        <time>2017-02-20T08:05:42Z</time>
      </trkpt>
      <trkpt lat="42.85499" lon="0.26941">
        <ele>1465.2</ele>
        <time>2017-02-20T08:05:47Z</time>
      </trkpt>
      <trkpt lat="42.85503" lon="0.2694">
        <ele>1468.4</ele>
        <time>2017-02-20T08:05:52Z</time>
      </trkpt>
      <trkpt lat="42.85506" lon="0.26938">
        <ele>1465</ele>
        <time>2017-02-20T08:05:57Z</time>
      </trkpt>
      <trkpt lat="42.85508" lon="0.26935">
        <ele>1465.2</ele>
        <time>2017-02-20T08:06:02Z</time>
      </trkpt>
      <trkpt lat="42.85509" lon="0.26932">
        <ele>1467.4</ele>
        <time>2017-02-20T08:06:07Z</time>
      </trkpt>
      <trkpt lat="42.8551" lon="0.26928">
        <ele>1469</ele>
        <time>2017-02-20T08:06:12Z</time>
      </trkpt>
      <trkpt lat="42.8551" lon="0.26923">
        <ele>1468.2</ele>
        <time>2017-02-20T08:06:17Z</time>
      </trkpt>
      <trkpt lat="42.8551" lon="0.26919">
        <ele>1470.2</ele>
        <time>2017-02-20T08:06:22Z</time>
      </trkpt>
      <trkpt lat="42.8551" lon="0.26915">
        <ele>1470.8</ele>
        <time>2017-02-20T08:06:27Z</time>
      </trkpt>
      <trkpt lat="42.8551" lon="0.26908">
        <ele>1472.8</ele>
        <time>2017-02-20T08:06:37Z</time>
      </trkpt>
      <trkpt lat="42.85511" lon="0.26905">
        <ele>1473</ele>
        <time>2017-02-20T08:06:42Z</time>
      </trkpt>
      <trkpt lat="42.85512" lon="0.269">
        <ele>1477.2</ele>
        <time>2017-02-20T08:06:47Z</time>
      </trkpt>
      <trkpt lat="42.85513" lon="0.26897">
        <ele>1480</ele>
        <time>2017-02-20T08:06:52Z</time>
      </trkpt>
      <trkpt lat="42.85514" lon="0.26894">
        <ele>1477.8</ele>
        <time>2017-02-20T08:06:57Z</time>
      </trkpt>
      <trkpt lat="42.85515" lon="0.26891">
        <ele>1480.6</ele>
        <time>2017-02-20T08:07:02Z</time>
      </trkpt>
      <trkpt lat="42.85516" lon="0.26887">
        <ele>1483.8</ele>
        <time>2017-02-20T08:07:07Z</time>
      </trkpt>
      <trkpt lat="42.85517" lon="0.26884">
        <ele>1484.6</ele>
        <time>2017-02-20T08:07:12Z</time>
      </trkpt>
      <trkpt lat="42.85517" lon="0.26881">
        <ele>1484</ele>
        <time>2017-02-20T08:07:17Z</time>
      </trkpt>
      <trkpt lat="42.85518" lon="0.26878">
        <ele>1482</ele>
        <time>2017-02-20T08:07:22Z</time>
      </trkpt>
      <trkpt lat="42.8552" lon="0.26875">
        <ele>1487.4</ele>
        <time>2017-02-20T08:07:27Z</time>
      </trkpt>
      <trkpt lat="42.85522" lon="0.26871">
        <ele>1484.8</ele>
        <time>2017-02-20T08:07:33Z</time>
      </trkpt>
      <trkpt lat="42.85523" lon="0.26868">
        <ele>1487.4</ele>
        <time>2017-02-20T08:07:38Z</time>
      </trkpt>
      <trkpt lat="42.85524" lon="0.26865">
        <ele>1488</ele>
        <time>2017-02-20T08:07:43Z</time>
      </trkpt>
      <trkpt lat="42.85527" lon="0.26865">
        <ele>1485</ele>
        <time>2017-02-20T08:07:48Z</time>
      </trkpt>
      <trkpt lat="42.85529" lon="0.26866">
        <ele>1485</ele>
        <time>2017-02-20T08:07:53Z</time>
      </trkpt>
      <trkpt lat="42.85532" lon="0.26867">
        <ele>1487.6</ele>
        <time>2017-02-20T08:07:58Z</time>
      </trkpt>
      <trkpt lat="42.85534" lon="0.26866">
        <ele>1489.6</ele>
        <time>2017-02-20T08:08:03Z</time>
      </trkpt>
      <trkpt lat="42.85536" lon="0.26865">
        <ele>1488.2</ele>
        <time>2017-02-20T08:08:08Z</time>
      </trkpt>
      <trkpt lat="42.85539" lon="0.26863">
        <ele>1490.8</ele>
        <time>2017-02-20T08:08:13Z</time>
      </trkpt>
      <trkpt lat="42.85542" lon="0.26862">
        <ele>1489.6</ele>
        <time>2017-02-20T08:08:18Z</time>
      </trkpt>
      <trkpt lat="42.85547" lon="0.26861">
        <ele>1492</ele>
        <time>2017-02-20T08:08:28Z</time>
      </trkpt>
      <trkpt lat="42.85548" lon="0.26857">
        <ele>1494.4</ele>
        <time>2017-02-20T08:08:33Z</time>
      </trkpt>
      <trkpt lat="42.85549" lon="0.26848">
        <ele>1493</ele>
        <time>2017-02-20T08:08:44Z</time>
      </trkpt>
      <trkpt lat="42.8555" lon="0.26845">
        <ele>1496.8</ele>
        <time>2017-02-20T08:08:49Z</time>
      </trkpt>
      <trkpt lat="42.85551" lon="0.26843">
        <ele>1495.6</ele>
        <time>2017-02-20T08:08:54Z</time>
      </trkpt>
      <trkpt lat="42.85552" lon="0.26839">
        <ele>1497.8</ele>
        <time>2017-02-20T08:08:59Z</time>
      </trkpt>
      <trkpt lat="42.85553" lon="0.26834">
        <ele>1499.4</ele>
        <time>2017-02-20T08:09:09Z</time>
      </trkpt>
      <trkpt lat="42.85555" lon="0.26832">
        <ele>1499.4</ele>
        <time>2017-02-20T08:09:14Z</time>
      </trkpt>
      <trkpt lat="42.85557" lon="0.2683">
        <ele>1500.2</ele>
        <time>2017-02-20T08:09:19Z</time>
      </trkpt>
      <trkpt lat="42.8556" lon="0.26829">
        <ele>1500.4</ele>
        <time>2017-02-20T08:09:24Z</time>
      </trkpt>
      <trkpt lat="42.85563" lon="0.26829">
        <ele>1502.8</ele>
        <time>2017-02-20T08:09:29Z</time>
      </trkpt>
      <trkpt lat="42.85568" lon="0.26828">
        <ele>1501.2</ele>
        <time>2017-02-20T08:09:39Z</time>
      </trkpt>
      <trkpt lat="42.8557" lon="0.26827">
        <ele>1502</ele>
        <time>2017-02-20T08:09:44Z</time>
      </trkpt>
      <trkpt lat="42.85574" lon="0.26825">
        <ele>1502</ele>
        <time>2017-02-20T08:09:50Z</time>
      </trkpt>
      <trkpt lat="42.85576" lon="0.26823">
        <ele>1504</ele>
        <time>2017-02-20T08:09:55Z</time>
      </trkpt>
      <trkpt lat="42.85578" lon="0.26821">
        <ele>1504.6</ele>
        <time>2017-02-20T08:10:00Z</time>
      </trkpt>
      <trkpt lat="42.85581" lon="0.2682">
        <ele>1503.2</ele>
        <time>2017-02-20T08:10:05Z</time>
      </trkpt>
      <trkpt lat="42.85583" lon="0.26819">
        <ele>1503.4</ele>
        <time>2017-02-20T08:10:10Z</time>
      </trkpt>
      <trkpt lat="42.85585" lon="0.26817">
        <ele>1504</ele>
        <time>2017-02-20T08:10:15Z</time>
      </trkpt>
      <trkpt lat="42.85586" lon="0.26814">
        <ele>1503.6</ele>
        <time>2017-02-20T08:10:20Z</time>
      </trkpt>
      <trkpt lat="42.85587" lon="0.26811">
        <ele>1504</ele>
        <time>2017-02-20T08:10:25Z</time>
      </trkpt>
      <trkpt lat="42.85587" lon="0.26807">
        <ele>1506.2</ele>
        <time>2017-02-20T08:10:30Z</time>
      </trkpt>
      <trkpt lat="42.85588" lon="0.26805">
        <ele>1507.8</ele>
        <time>2017-02-20T08:10:35Z</time>
      </trkpt>
      <trkpt lat="42.85589" lon="0.26802">
        <ele>1508.4</ele>
        <time>2017-02-20T08:10:40Z</time>
      </trkpt>
      <trkpt lat="42.8559" lon="0.26799">
        <ele>1509</ele>
        <time>2017-02-20T08:10:45Z</time>
      </trkpt>
      <trkpt lat="42.85591" lon="0.26797">
        <ele>1507.6</ele>
        <time>2017-02-20T08:10:50Z</time>
      </trkpt>
      <trkpt lat="42.85592" lon="0.26794">
        <ele>1510.4</ele>
        <time>2017-02-20T08:11:47Z</time>
      </trkpt>
      <trkpt lat="42.85594" lon="0.26791">
        <ele>1508.6</ele>
        <time>2017-02-20T08:11:52Z</time>
      </trkpt>
      <trkpt lat="42.85596" lon="0.26787">
        <ele>1511.4</ele>
        <time>2017-02-20T08:11:57Z</time>
      </trkpt>
      <trkpt lat="42.85598" lon="0.26785">
        <ele>1511.2</ele>
        <time>2017-02-20T08:12:02Z</time>
      </trkpt>
      <trkpt lat="42.856" lon="0.26782">
        <ele>1510.6</ele>
        <time>2017-02-20T08:12:08Z</time>
      </trkpt>
      <trkpt lat="42.85602" lon="0.26778">
        <ele>1511.6</ele>
        <time>2017-02-20T08:12:13Z</time>
      </trkpt>
      <trkpt lat="42.85604" lon="0.26775">
        <ele>1512.4</ele>
        <time>2017-02-20T08:12:18Z</time>
      </trkpt>
      <trkpt lat="42.85605" lon="0.26772">
        <ele>1514.2</ele>
        <time>2017-02-20T08:12:23Z</time>
      </trkpt>
      <trkpt lat="42.85607" lon="0.26768">
        <ele>1514.4</ele>
        <time>2017-02-20T08:12:28Z</time>
      </trkpt>
      <trkpt lat="42.85608" lon="0.26764">
        <ele>1513.8</ele>
        <time>2017-02-20T08:12:33Z</time>
      </trkpt>
      <trkpt lat="42.85608" lon="0.26764">
        <ele>1513.8</ele>
        <time>2017-02-20T08:12:38Z</time>
      </trkpt>
      <trkpt lat="42.85609" lon="0.26761">
        <ele>1516.6</ele>
        <time>2017-02-20T08:12:43Z</time>
      </trkpt>
      <trkpt lat="42.85609" lon="0.26757">
        <ele>1513.6</ele>
        <time>2017-02-20T08:12:48Z</time>
      </trkpt>
      <trkpt lat="42.8561" lon="0.26756">
        <ele>1515</ele>
        <time>2017-02-20T08:12:53Z</time>
      </trkpt>
      <trkpt lat="42.8561" lon="0.26754">
        <ele>1516.8</ele>
        <time>2017-02-20T08:12:58Z</time>
      </trkpt>
      <trkpt lat="42.8561" lon="0.26751">
        <ele>1517.4</ele>
        <time>2017-02-20T08:13:03Z</time>
      </trkpt>
      <trkpt lat="42.85611" lon="0.26747">
        <ele>1517.8</ele>
        <time>2017-02-20T08:13:08Z</time>
      </trkpt>
      <trkpt lat="42.85612" lon="0.26745">
        <ele>1518.6</ele>
        <time>2017-02-20T08:13:13Z</time>
      </trkpt>
      <trkpt lat="42.85613" lon="0.26742">
        <ele>1520.8</ele>
        <time>2017-02-20T08:13:18Z</time>
      </trkpt>
      <trkpt lat="42.85615" lon="0.26739">
        <ele>1517.8</ele>
        <time>2017-02-20T08:13:23Z</time>
      </trkpt>
      <trkpt lat="42.85618" lon="0.26736">
        <ele>1518.4</ele>
        <time>2017-02-20T08:13:29Z</time>
      </trkpt>
      <trkpt lat="42.85621" lon="0.26733">
        <ele>1518.8</ele>
        <time>2017-02-20T08:13:34Z</time>
      </trkpt>
      <trkpt lat="42.85623" lon="0.26731">
        <ele>1522.8</ele>
        <time>2017-02-20T08:13:39Z</time>
      </trkpt>
      <trkpt lat="42.85625" lon="0.26729">
        <ele>1522.4</ele>
        <time>2017-02-20T08:13:44Z</time>
      </trkpt>
      <trkpt lat="42.85627" lon="0.26727">
        <ele>1520.8</ele>
        <time>2017-02-20T08:13:49Z</time>
      </trkpt>
      <trkpt lat="42.85629" lon="0.26726">
        <ele>1523.6</ele>
        <time>2017-02-20T08:13:54Z</time>
      </trkpt>
      <trkpt lat="42.85631" lon="0.26724">
        <ele>1522.4</ele>
        <time>2017-02-20T08:13:59Z</time>
      </trkpt>
      <trkpt lat="42.85633" lon="0.26723">
        <ele>1525.6</ele>
        <time>2017-02-20T08:14:04Z</time>
      </trkpt>
      <trkpt lat="42.85635" lon="0.26721">
        <ele>1526.4</ele>
        <time>2017-02-20T08:14:09Z</time>
      </trkpt>
      <trkpt lat="42.85637" lon="0.26719">
        <ele>1527.4</ele>
        <time>2017-02-20T08:14:14Z</time>
      </trkpt>
      <trkpt lat="42.85639" lon="0.26718">
        <ele>1530.4</ele>
        <time>2017-02-20T08:14:19Z</time>
      </trkpt>
      <trkpt lat="42.85641" lon="0.26716">
        <ele>1529.2</ele>
        <time>2017-02-20T08:14:24Z</time>
      </trkpt>
      <trkpt lat="42.85643" lon="0.26714">
        <ele>1530.2</ele>
        <time>2017-02-20T08:14:29Z</time>
      </trkpt>
      <trkpt lat="42.85645" lon="0.26712">
        <ele>1529.8</ele>
        <time>2017-02-20T08:14:35Z</time>
      </trkpt>
      <trkpt lat="42.85647" lon="0.2671">
        <ele>1528.2</ele>
        <time>2017-02-20T08:14:40Z</time>
      </trkpt>
      <trkpt lat="42.85648" lon="0.26708">
        <ele>1531.8</ele>
        <time>2017-02-20T08:14:45Z</time>
      </trkpt>
      <trkpt lat="42.85649" lon="0.26705">
        <ele>1532.4</ele>
        <time>2017-02-20T08:14:50Z</time>
      </trkpt>
      <trkpt lat="42.85651" lon="0.26704">
        <ele>1534</ele>
        <time>2017-02-20T08:14:55Z</time>
      </trkpt>
      <trkpt lat="42.85653" lon="0.26702">
        <ele>1533.6</ele>
        <time>2017-02-20T08:15:00Z</time>
      </trkpt>
      <trkpt lat="42.85655" lon="0.267">
        <ele>1535.6</ele>
        <time>2017-02-20T08:15:05Z</time>
      </trkpt>
      <trkpt lat="42.85658" lon="0.26699">
        <ele>1536.4</ele>
        <time>2017-02-20T08:15:10Z</time>
      </trkpt>
      <trkpt lat="42.8566" lon="0.26697">
        <ele>1538.4</ele>
        <time>2017-02-20T08:15:15Z</time>
      </trkpt>
      <trkpt lat="42.85662" lon="0.26695">
        <ele>1537</ele>
        <time>2017-02-20T08:15:20Z</time>
      </trkpt>
      <trkpt lat="42.85665" lon="0.26694">
        <ele>1537.8</ele>
        <time>2017-02-20T08:15:25Z</time>
      </trkpt>
      <trkpt lat="42.85667" lon="0.26692">
        <ele>1541</ele>
        <time>2017-02-20T08:15:30Z</time>
      </trkpt>
      <trkpt lat="42.85669" lon="0.26689">
        <ele>1538</ele>
        <time>2017-02-20T08:15:35Z</time>
      </trkpt>
      <trkpt lat="42.85671" lon="0.26688">
        <ele>1539</ele>
        <time>2017-02-20T08:15:40Z</time>
      </trkpt>
      <trkpt lat="42.85673" lon="0.26687">
        <ele>1539.6</ele>
        <time>2017-02-20T08:15:45Z</time>
      </trkpt>
      <trkpt lat="42.85675" lon="0.26685">
        <ele>1540.8</ele>
        <time>2017-02-20T08:15:50Z</time>
      </trkpt>
      <trkpt lat="42.85678" lon="0.26683">
        <ele>1540</ele>
        <time>2017-02-20T08:15:55Z</time>
      </trkpt>
      <trkpt lat="42.8568" lon="0.26681">
        <ele>1542.2</ele>
        <time>2017-02-20T08:16:00Z</time>
      </trkpt>
      <trkpt lat="42.85682" lon="0.26679">
        <ele>1543.2</ele>
        <time>2017-02-20T08:16:05Z</time>
      </trkpt>
      <trkpt lat="42.85685" lon="0.26678">
        <ele>1543.6</ele>
        <time>2017-02-20T08:16:11Z</time>
      </trkpt>
      <trkpt lat="42.85687" lon="0.26679">
        <ele>1544.4</ele>
        <time>2017-02-20T08:16:16Z</time>
      </trkpt>
      <trkpt lat="42.85689" lon="0.26678">
        <ele>1545.6</ele>
        <time>2017-02-20T08:16:21Z</time>
      </trkpt>
      <trkpt lat="42.85691" lon="0.26677">
        <ele>1544.4</ele>
        <time>2017-02-20T08:16:26Z</time>
      </trkpt>
      <trkpt lat="42.85694" lon="0.26676">
        <ele>1546</ele>
        <time>2017-02-20T08:16:31Z</time>
      </trkpt>
      <trkpt lat="42.85696" lon="0.26675">
        <ele>1546.8</ele>
        <time>2017-02-20T08:16:36Z</time>
      </trkpt>
      <trkpt lat="42.85698" lon="0.26674">
        <ele>1548.6</ele>
        <time>2017-02-20T08:16:41Z</time>
      </trkpt>
      <trkpt lat="42.857" lon="0.26671">
        <ele>1546.6</ele>
        <time>2017-02-20T08:16:46Z</time>
      </trkpt>
      <trkpt lat="42.85702" lon="0.26668">
        <ele>1549.2</ele>
        <time>2017-02-20T08:16:51Z</time>
      </trkpt>
      <trkpt lat="42.85704" lon="0.26666">
        <ele>1549.2</ele>
        <time>2017-02-20T08:16:56Z</time>
      </trkpt>
      <trkpt lat="42.85707" lon="0.26663">
        <ele>1547</ele>
        <time>2017-02-20T08:17:01Z</time>
      </trkpt>
      <trkpt lat="42.85709" lon="0.2666">
        <ele>1549.2</ele>
        <time>2017-02-20T08:17:06Z</time>
      </trkpt>
      <trkpt lat="42.85711" lon="0.26657">
        <ele>1549.2</ele>
        <time>2017-02-20T08:17:11Z</time>
      </trkpt>
      <trkpt lat="42.85713" lon="0.26656">
        <ele>1549.6</ele>
        <time>2017-02-20T08:17:16Z</time>
      </trkpt>
      <trkpt lat="42.85715" lon="0.26654">
        <ele>1549.6</ele>
        <time>2017-02-20T08:17:21Z</time>
      </trkpt>
      <trkpt lat="42.85718" lon="0.26653">
        <ele>1551.2</ele>
        <time>2017-02-20T08:17:26Z</time>
      </trkpt>
      <trkpt lat="42.85721" lon="0.26652">
        <ele>1554.2</ele>
        <time>2017-02-20T08:17:31Z</time>
      </trkpt>
      <trkpt lat="42.85724" lon="0.26651">
        <ele>1551.6</ele>
        <time>2017-02-20T08:17:36Z</time>
      </trkpt>
      <trkpt lat="42.85727" lon="0.2665">
        <ele>1556.2</ele>
        <time>2017-02-20T08:17:41Z</time>
      </trkpt>
      <trkpt lat="42.8573" lon="0.26651">
        <ele>1554.4</ele>
        <time>2017-02-20T08:17:46Z</time>
      </trkpt>
      <trkpt lat="42.85733" lon="0.2665">
        <ele>1557</ele>
        <time>2017-02-20T08:17:51Z</time>
      </trkpt>
      <trkpt lat="42.85736" lon="0.26649">
        <ele>1558</ele>
        <time>2017-02-20T08:17:56Z</time>
      </trkpt>
      <trkpt lat="42.85738" lon="0.26648">
        <ele>1557</ele>
        <time>2017-02-20T08:18:01Z</time>
      </trkpt>
      <trkpt lat="42.8574" lon="0.26645">
        <ele>1556.8</ele>
        <time>2017-02-20T08:18:06Z</time>
      </trkpt>
      <trkpt lat="42.85742" lon="0.26643">
        <ele>1556.8</ele>
        <time>2017-02-20T08:18:11Z</time>
      </trkpt>
      <trkpt lat="42.85744" lon="0.2664">
        <ele>1558.8</ele>
        <time>2017-02-20T08:18:16Z</time>
      </trkpt>
      <trkpt lat="42.85745" lon="0.26638">
        <ele>1559.6</ele>
        <time>2017-02-20T08:18:21Z</time>
      </trkpt>
      <trkpt lat="42.85745" lon="0.26638">
        <ele>1561.4</ele>
        <time>2017-02-20T08:18:36Z</time>
      </trkpt>
      <trkpt lat="42.85745" lon="0.26638">
        <ele>1560.8</ele>
        <time>2017-02-20T08:18:41Z</time>
      </trkpt>
      <trkpt lat="42.85745" lon="0.26638">
        <ele>1560.2</ele>
        <time>2017-02-20T08:18:51Z</time>
      </trkpt>
      <trkpt lat="42.85745" lon="0.26638">
        <ele>1559.6</ele>
        <time>2017-02-20T08:19:26Z</time>
      </trkpt>
      <trkpt lat="42.85745" lon="0.26637">
        <ele>1559.6</ele>
        <time>2017-02-20T08:19:31Z</time>
      </trkpt>
      <trkpt lat="42.85746" lon="0.26636">
        <ele>1559.6</ele>
        <time>2017-02-20T08:19:36Z</time>
      </trkpt>
      <trkpt lat="42.85748" lon="0.26634">
        <ele>1557.4</ele>
        <time>2017-02-20T08:19:41Z</time>
      </trkpt>
      <trkpt lat="42.85749" lon="0.2663">
        <ele>1560.2</ele>
        <time>2017-02-20T08:19:46Z</time>
      </trkpt>
      <trkpt lat="42.85751" lon="0.26626">
        <ele>1563.4</ele>
        <time>2017-02-20T08:19:51Z</time>
      </trkpt>
      <trkpt lat="42.85752" lon="0.26622">
        <ele>1563.6</ele>
        <time>2017-02-20T08:19:56Z</time>
      </trkpt>
      <trkpt lat="42.85753" lon="0.26618">
        <ele>1562.4</ele>
        <time>2017-02-20T08:20:01Z</time>
      </trkpt>
      <trkpt lat="42.85754" lon="0.26613">
        <ele>1563</ele>
        <time>2017-02-20T08:20:06Z</time>
      </trkpt>
      <trkpt lat="42.85755" lon="0.2661">
        <ele>1564.4</ele>
        <time>2017-02-20T08:20:11Z</time>
      </trkpt>
      <trkpt lat="42.85756" lon="0.26607">
        <ele>1566.8</ele>
        <time>2017-02-20T08:20:16Z</time>
      </trkpt>
      <trkpt lat="42.85755" lon="0.26603">
        <ele>1564.4</ele>
        <time>2017-02-20T08:20:21Z</time>
      </trkpt>
      <trkpt lat="42.85753" lon="0.26602">
        <ele>1564.4</ele>
        <time>2017-02-20T08:20:26Z</time>
      </trkpt>
      <trkpt lat="42.85751" lon="0.26605">
        <ele>1563.2</ele>
        <time>2017-02-20T08:20:31Z</time>
      </trkpt>
      <trkpt lat="42.8575" lon="0.26601">
        <ele>1566.4</ele>
        <time>2017-02-20T08:20:36Z</time>
      </trkpt>
      <trkpt lat="42.8575" lon="0.26597">
        <ele>1563</ele>
        <time>2017-02-20T08:20:41Z</time>
      </trkpt>
      <trkpt lat="42.85748" lon="0.26593">
        <ele>1566.8</ele>
        <time>2017-02-20T08:20:46Z</time>
      </trkpt>
      <trkpt lat="42.85749" lon="0.26588">
        <ele>1564.6</ele>
        <time>2017-02-20T08:20:56Z</time>
      </trkpt>
      <trkpt lat="42.85749" lon="0.26586">
        <ele>1564</ele>
        <time>2017-02-20T08:21:01Z</time>
      </trkpt>
      <trkpt lat="42.8575" lon="0.26585">
        <ele>1565</ele>
        <time>2017-02-20T08:21:06Z</time>
      </trkpt>
      <trkpt lat="42.8575" lon="0.26585">
        <ele>1565.8</ele>
        <time>2017-02-20T08:21:11Z</time>
      </trkpt>
      <trkpt lat="42.8575" lon="0.26584">
        <ele>1566.2</ele>
        <time>2017-02-20T08:21:16Z</time>
      </trkpt>
      <trkpt lat="42.8575" lon="0.26585">
        <ele>1567</ele>
        <time>2017-02-20T08:21:36Z</time>
      </trkpt>
      <trkpt lat="42.85751" lon="0.26586">
        <ele>1567.2</ele>
        <time>2017-02-20T08:21:56Z</time>
      </trkpt>
      <trkpt lat="42.8575" lon="0.26585">
        <ele>1567</ele>
        <time>2017-02-20T08:22:06Z</time>
      </trkpt>
      <trkpt lat="42.8575" lon="0.26586">
        <ele>1567</ele>
        <time>2017-02-20T08:22:21Z</time>
      </trkpt>
      <trkpt lat="42.8575" lon="0.26586">
        <ele>1567</ele>
        <time>2017-02-20T08:22:41Z</time>
      </trkpt>
      <trkpt lat="42.85749" lon="0.26584">
        <ele>1566.6</ele>
        <time>2017-02-20T08:23:06Z</time>
      </trkpt>
      <trkpt lat="42.8575" lon="0.2658">
        <ele>1568.4</ele>
        <time>2017-02-20T08:23:11Z</time>
      </trkpt>
      <trkpt lat="42.8575" lon="0.26576">
        <ele>1567.2</ele>
        <time>2017-02-20T08:23:16Z</time>
      </trkpt>
      <trkpt lat="42.85751" lon="0.26572">
        <ele>1568.4</ele>
        <time>2017-02-20T08:23:21Z</time>
      </trkpt>
      <trkpt lat="42.85751" lon="0.26568">
        <ele>1569.4</ele>
        <time>2017-02-20T08:23:26Z</time>
      </trkpt>
      <trkpt lat="42.85752" lon="0.26566">
        <ele>1569.8</ele>
        <time>2017-02-20T08:23:31Z</time>
      </trkpt>
      <trkpt lat="42.85753" lon="0.26563">
        <ele>1571.8</ele>
        <time>2017-02-20T08:23:36Z</time>
      </trkpt>
      <trkpt lat="42.85754" lon="0.2656">
        <ele>1570.6</ele>
        <time>2017-02-20T08:23:41Z</time>
      </trkpt>
      <trkpt lat="42.85756" lon="0.26557">
        <ele>1569.6</ele>
        <time>2017-02-20T08:23:46Z</time>
      </trkpt>
      <trkpt lat="42.85756" lon="0.26553">
        <ele>1572.8</ele>
        <time>2017-02-20T08:23:51Z</time>
      </trkpt>
      <trkpt lat="42.85756" lon="0.2655">
        <ele>1570.8</ele>
        <time>2017-02-20T08:23:56Z</time>
      </trkpt>
      <trkpt lat="42.85757" lon="0.26547">
        <ele>1571.8</ele>
        <time>2017-02-20T08:24:01Z</time>
      </trkpt>
      <trkpt lat="42.85758" lon="0.2654">
        <ele>1570.2</ele>
        <time>2017-02-20T08:24:06Z</time>
      </trkpt>
      <trkpt lat="42.85758" lon="0.26535">
        <ele>1569.4</ele>
        <time>2017-02-20T08:24:11Z</time>
      </trkpt>
      <trkpt lat="42.85759" lon="0.26531">
        <ele>1572.2</ele>
        <time>2017-02-20T08:24:16Z</time>
      </trkpt>
      <trkpt lat="42.8576" lon="0.26527">
        <ele>1573</ele>
        <time>2017-02-20T08:24:21Z</time>
      </trkpt>
      <trkpt lat="42.85761" lon="0.26523">
        <ele>1572</ele>
        <time>2017-02-20T08:24:26Z</time>
      </trkpt>
      <trkpt lat="42.85761" lon="0.26519">
        <ele>1574</ele>
        <time>2017-02-20T08:24:31Z</time>
      </trkpt>
      <trkpt lat="42.85762" lon="0.26514">
        <ele>1570</ele>
        <time>2017-02-20T08:24:36Z</time>
      </trkpt>
      <trkpt lat="42.85763" lon="0.26511">
        <ele>1571.8</ele>
        <time>2017-02-20T08:24:41Z</time>
      </trkpt>
      <trkpt lat="42.85764" lon="0.26505">
        <ele>1573.4</ele>
        <time>2017-02-20T08:24:46Z</time>
      </trkpt>
      <trkpt lat="42.85764" lon="0.265">
        <ele>1573.6</ele>
        <time>2017-02-20T08:24:51Z</time>
      </trkpt>
      <trkpt lat="42.85765" lon="0.26496">
        <ele>1574.8</ele>
        <time>2017-02-20T08:24:56Z</time>
      </trkpt>
      <trkpt lat="42.85765" lon="0.26491">
        <ele>1575.8</ele>
        <time>2017-02-20T08:25:01Z</time>
      </trkpt>
      <trkpt lat="42.85765" lon="0.26487">
        <ele>1577.8</ele>
        <time>2017-02-20T08:25:06Z</time>
      </trkpt>
      <trkpt lat="42.85766" lon="0.26483">
        <ele>1575.4</ele>
        <time>2017-02-20T08:25:11Z</time>
      </trkpt>
      <trkpt lat="42.85766" lon="0.26479">
        <ele>1575</ele>
        <time>2017-02-20T08:25:16Z</time>
      </trkpt>
      <trkpt lat="42.85767" lon="0.26474">
        <ele>1577.6</ele>
        <time>2017-02-20T08:25:21Z</time>
      </trkpt>
      <trkpt lat="42.85767" lon="0.26469">
        <ele>1578.6</ele>
        <time>2017-02-20T08:25:26Z</time>
      </trkpt>
      <trkpt lat="42.85767" lon="0.26464">
        <ele>1577.8</ele>
        <time>2017-02-20T08:25:31Z</time>
      </trkpt>
      <trkpt lat="42.85769" lon="0.2646">
        <ele>1580</ele>
        <time>2017-02-20T08:25:36Z</time>
      </trkpt>
      <trkpt lat="42.8577" lon="0.26456">
        <ele>1579</ele>
        <time>2017-02-20T08:25:41Z</time>
      </trkpt>
      <trkpt lat="42.8577" lon="0.26452">
        <ele>1580.4</ele>
        <time>2017-02-20T08:25:46Z</time>
      </trkpt>
      <trkpt lat="42.85771" lon="0.26448">
        <ele>1582.2</ele>
        <time>2017-02-20T08:25:51Z</time>
      </trkpt>
      <trkpt lat="42.85772" lon="0.26442">
        <ele>1580.8</ele>
        <time>2017-02-20T08:25:57Z</time>
      </trkpt>
      <trkpt lat="42.85772" lon="0.26439">
        <ele>1582.6</ele>
        <time>2017-02-20T08:26:02Z</time>
      </trkpt>
      <trkpt lat="42.85772" lon="0.26432">
        <ele>1584.2</ele>
        <time>2017-02-20T08:26:12Z</time>
      </trkpt>
      <trkpt lat="42.85773" lon="0.26427">
        <ele>1584.8</ele>
        <time>2017-02-20T08:26:17Z</time>
      </trkpt>
      <trkpt lat="42.85774" lon="0.26422">
        <ele>1583.4</ele>
        <time>2017-02-20T08:26:22Z</time>
      </trkpt>
      <trkpt lat="42.85775" lon="0.26418">
        <ele>1582.8</ele>
        <time>2017-02-20T08:26:27Z</time>
      </trkpt>
      <trkpt lat="42.85776" lon="0.26414">
        <ele>1585</ele>
        <time>2017-02-20T08:26:32Z</time>
      </trkpt>
      <trkpt lat="42.85777" lon="0.26409">
        <ele>1586</ele>
        <time>2017-02-20T08:26:37Z</time>
      </trkpt>
      <trkpt lat="42.85777" lon="0.26405">
        <ele>1585.2</ele>
        <time>2017-02-20T08:26:42Z</time>
      </trkpt>
      <trkpt lat="42.85777" lon="0.26402">
        <ele>1583.2</ele>
        <time>2017-02-20T08:26:47Z</time>
      </trkpt>
      <trkpt lat="42.85778" lon="0.264">
        <ele>1586</ele>
        <time>2017-02-20T08:26:52Z</time>
      </trkpt>
      <trkpt lat="42.85778" lon="0.26398">
        <ele>1586.6</ele>
        <time>2017-02-20T08:26:57Z</time>
      </trkpt>
      <trkpt lat="42.8578" lon="0.26394">
        <ele>1589.2</ele>
        <time>2017-02-20T08:27:02Z</time>
      </trkpt>
      <trkpt lat="42.85781" lon="0.2639">
        <ele>1590</ele>
        <time>2017-02-20T08:27:07Z</time>
      </trkpt>
      <trkpt lat="42.85782" lon="0.26386">
        <ele>1590</ele>
        <time>2017-02-20T08:27:12Z</time>
      </trkpt>
      <trkpt lat="42.85783" lon="0.2638">
        <ele>1592</ele>
        <time>2017-02-20T08:27:18Z</time>
      </trkpt>
      <trkpt lat="42.85784" lon="0.26376">
        <ele>1589.8</ele>
        <time>2017-02-20T08:27:23Z</time>
      </trkpt>
      <trkpt lat="42.85784" lon="0.26374">
        <ele>1592.2</ele>
        <time>2017-02-20T08:27:29Z</time>
      </trkpt>
      <trkpt lat="42.85785" lon="0.26373">
        <ele>1592.4</ele>
        <time>2017-02-20T08:27:34Z</time>
      </trkpt>
      <trkpt lat="42.85786" lon="0.26371">
        <ele>1593.8</ele>
        <time>2017-02-20T08:27:39Z</time>
      </trkpt>
      <trkpt lat="42.85787" lon="0.26369">
        <ele>1595.4</ele>
        <time>2017-02-20T08:27:44Z</time>
      </trkpt>
      <trkpt lat="42.85789" lon="0.26366">
        <ele>1596.6</ele>
        <time>2017-02-20T08:27:49Z</time>
      </trkpt>
      <trkpt lat="42.8579" lon="0.26362">
        <ele>1594.4</ele>
        <time>2017-02-20T08:27:54Z</time>
      </trkpt>
      <trkpt lat="42.85791" lon="0.26359">
        <ele>1597</ele>
        <time>2017-02-20T08:27:59Z</time>
      </trkpt>
      <trkpt lat="42.85792" lon="0.26356">
        <ele>1600.6</ele>
        <time>2017-02-20T08:28:04Z</time>
      </trkpt>
      <trkpt lat="42.85793" lon="0.26352">
        <ele>1598.2</ele>
        <time>2017-02-20T08:28:09Z</time>
      </trkpt>
      <trkpt lat="42.85794" lon="0.2635">
        <ele>1598.6</ele>
        <time>2017-02-20T08:28:14Z</time>
      </trkpt>
      <trkpt lat="42.85794" lon="0.26345">
        <ele>1601.6</ele>
        <time>2017-02-20T08:28:19Z</time>
      </trkpt>
      <trkpt lat="42.85795" lon="0.2634">
        <ele>1600.2</ele>
        <time>2017-02-20T08:28:24Z</time>
      </trkpt>
      <trkpt lat="42.85796" lon="0.26336">
        <ele>1601</ele>
        <time>2017-02-20T08:28:30Z</time>
      </trkpt>
      <trkpt lat="42.85798" lon="0.26333">
        <ele>1602.4</ele>
        <time>2017-02-20T08:28:35Z</time>
      </trkpt>
      <trkpt lat="42.85799" lon="0.26329">
        <ele>1602.2</ele>
        <time>2017-02-20T08:28:40Z</time>
      </trkpt>
      <trkpt lat="42.858" lon="0.26325">
        <ele>1604.2</ele>
        <time>2017-02-20T08:28:45Z</time>
      </trkpt>
      <trkpt lat="42.85801" lon="0.26323">
        <ele>1603.6</ele>
        <time>2017-02-20T08:28:50Z</time>
      </trkpt>
      <trkpt lat="42.85803" lon="0.2632">
        <ele>1607.2</ele>
        <time>2017-02-20T08:28:55Z</time>
      </trkpt>
      <trkpt lat="42.85804" lon="0.26317">
        <ele>1603.8</ele>
        <time>2017-02-20T08:29:00Z</time>
      </trkpt>
      <trkpt lat="42.85806" lon="0.26314">
        <ele>1605</ele>
        <time>2017-02-20T08:29:05Z</time>
      </trkpt>
      <trkpt lat="42.85807" lon="0.26313">
        <ele>1606.2</ele>
        <time>2017-02-20T08:29:10Z</time>
      </trkpt>
      <trkpt lat="42.85806" lon="0.26313">
        <ele>1604.8</ele>
        <time>2017-02-20T08:29:55Z</time>
      </trkpt>
      <trkpt lat="42.85806" lon="0.26312">
        <ele>1605</ele>
        <time>2017-02-20T08:30:25Z</time>
      </trkpt>
      <trkpt lat="42.85806" lon="0.26311">
        <ele>1605.2</ele>
        <time>2017-02-20T08:30:40Z</time>
      </trkpt>
      <trkpt lat="42.85806" lon="0.26311">
        <ele>1605.2</ele>
        <time>2017-02-20T08:30:45Z</time>
      </trkpt>
      <trkpt lat="42.85806" lon="0.2631">
        <ele>1604.2</ele>
        <time>2017-02-20T08:30:55Z</time>
      </trkpt>
      <trkpt lat="42.85807" lon="0.26307">
        <ele>1605.4</ele>
        <time>2017-02-20T08:31:01Z</time>
      </trkpt>
      <trkpt lat="42.85809" lon="0.26304">
        <ele>1605.2</ele>
        <time>2017-02-20T08:31:06Z</time>
      </trkpt>
      <trkpt lat="42.8581" lon="0.26301">
        <ele>1609</ele>
        <time>2017-02-20T08:31:11Z</time>
      </trkpt>
      <trkpt lat="42.8581" lon="0.26299">
        <ele>1608.8</ele>
        <time>2017-02-20T08:31:16Z</time>
      </trkpt>
      <trkpt lat="42.8581" lon="0.26297">
        <ele>1606.6</ele>
        <time>2017-02-20T08:31:21Z</time>
      </trkpt>
      <trkpt lat="42.85811" lon="0.26293">
        <ele>1607.8</ele>
        <time>2017-02-20T08:31:26Z</time>
      </trkpt>
      <trkpt lat="42.8581" lon="0.26287">
        <ele>1606.2</ele>
        <time>2017-02-20T08:31:31Z</time>
      </trkpt>
      <trkpt lat="42.8581" lon="0.26283">
        <ele>1607.4</ele>
        <time>2017-02-20T08:31:36Z</time>
      </trkpt>
      <trkpt lat="42.85811" lon="0.2628">
        <ele>1609.8</ele>
        <time>2017-02-20T08:31:41Z</time>
      </trkpt>
      <trkpt lat="42.85812" lon="0.26277">
        <ele>1607.6</ele>
        <time>2017-02-20T08:31:46Z</time>
      </trkpt>
      <trkpt lat="42.85812" lon="0.26276">
        <ele>1607.8</ele>
        <time>2017-02-20T08:31:51Z</time>
      </trkpt>
      <trkpt lat="42.85812" lon="0.26274">
        <ele>1606</ele>
        <time>2017-02-20T08:31:56Z</time>
      </trkpt>
      <trkpt lat="42.85813" lon="0.26269">
        <ele>1606.6</ele>
        <time>2017-02-20T08:32:01Z</time>
      </trkpt>
      <trkpt lat="42.85812" lon="0.26263">
        <ele>1606</ele>
        <time>2017-02-20T08:32:06Z</time>
      </trkpt>
      <trkpt lat="42.85811" lon="0.26255">
        <ele>1607.6</ele>
        <time>2017-02-20T08:32:11Z</time>
      </trkpt>
      <trkpt lat="42.85811" lon="0.26249">
        <ele>1605.8</ele>
        <time>2017-02-20T08:32:16Z</time>
      </trkpt>
      <trkpt lat="42.8581" lon="0.26244">
        <ele>1605.8</ele>
        <time>2017-02-20T08:32:21Z</time>
      </trkpt>
      <trkpt lat="42.85811" lon="0.2624">
        <ele>1607.4</ele>
        <time>2017-02-20T08:32:26Z</time>
      </trkpt>
      <trkpt lat="42.85811" lon="0.26235">
        <ele>1607.4</ele>
        <time>2017-02-20T08:32:31Z</time>
      </trkpt>
      <trkpt lat="42.85812" lon="0.26228">
        <ele>1605.4</ele>
        <time>2017-02-20T08:32:37Z</time>
      </trkpt>
      <trkpt lat="42.85812" lon="0.26217">
        <ele>1605.4</ele>
        <time>2017-02-20T08:32:47Z</time>
      </trkpt>
      <trkpt lat="42.85813" lon="0.26212">
        <ele>1603.2</ele>
        <time>2017-02-20T08:32:52Z</time>
      </trkpt>
      <trkpt lat="42.85814" lon="0.26207">
        <ele>1604.4</ele>
        <time>2017-02-20T08:32:57Z</time>
      </trkpt>
      <trkpt lat="42.85814" lon="0.26204">
        <ele>1604.4</ele>
        <time>2017-02-20T08:33:02Z</time>
      </trkpt>
      <trkpt lat="42.85814" lon="0.26202">
        <ele>1602.6</ele>
        <time>2017-02-20T08:33:07Z</time>
      </trkpt>
      <trkpt lat="42.85815" lon="0.26198">
        <ele>1602.6</ele>
        <time>2017-02-20T08:33:12Z</time>
      </trkpt>
      <trkpt lat="42.85817" lon="0.26193">
        <ele>1604.2</ele>
        <time>2017-02-20T08:33:17Z</time>
      </trkpt>
      <trkpt lat="42.85819" lon="0.2619">
        <ele>1606.6</ele>
        <time>2017-02-20T08:33:22Z</time>
      </trkpt>
      <trkpt lat="42.85819" lon="0.26185">
        <ele>1604.8</ele>
        <time>2017-02-20T08:33:27Z</time>
      </trkpt>
      <trkpt lat="42.85821" lon="0.26183">
        <ele>1604.6</ele>
        <time>2017-02-20T08:33:32Z</time>
      </trkpt>
      <trkpt lat="42.85822" lon="0.26182">
        <ele>1601.6</ele>
        <time>2017-02-20T08:33:37Z</time>
      </trkpt>
      <trkpt lat="42.85824" lon="0.2618">
        <ele>1604</ele>
        <time>2017-02-20T08:33:42Z</time>
      </trkpt>
      <trkpt lat="42.85827" lon="0.26178">
        <ele>1607</ele>
        <time>2017-02-20T08:33:47Z</time>
      </trkpt>
      <trkpt lat="42.85828" lon="0.26176">
        <ele>1604.8</ele>
        <time>2017-02-20T08:33:52Z</time>
      </trkpt>
      <trkpt lat="42.85828" lon="0.26174">
        <ele>1605.6</ele>
        <time>2017-02-20T08:33:57Z</time>
      </trkpt>
      <trkpt lat="42.85828" lon="0.26174">
        <ele>1605.8</ele>
        <time>2017-02-20T08:34:02Z</time>
      </trkpt>
      <trkpt lat="42.85828" lon="0.26173">
        <ele>1603.6</ele>
        <time>2017-02-20T08:34:07Z</time>
      </trkpt>
      <trkpt lat="42.8583" lon="0.2617">
        <ele>1603.6</ele>
        <time>2017-02-20T08:34:12Z</time>
      </trkpt>
      <trkpt lat="42.85831" lon="0.26167">
        <ele>1603.4</ele>
        <time>2017-02-20T08:34:17Z</time>
      </trkpt>
      <trkpt lat="42.85833" lon="0.26162">
        <ele>1603.8</ele>
        <time>2017-02-20T08:34:22Z</time>
      </trkpt>
      <trkpt lat="42.85834" lon="0.26156">
        <ele>1607</ele>
        <time>2017-02-20T08:34:27Z</time>
      </trkpt>
      <trkpt lat="42.85836" lon="0.2615">
        <ele>1603.6</ele>
        <time>2017-02-20T08:34:32Z</time>
      </trkpt>
      <trkpt lat="42.85838" lon="0.26146">
        <ele>1609</ele>
        <time>2017-02-20T08:34:37Z</time>
      </trkpt>
      <trkpt lat="42.85839" lon="0.26143">
        <ele>1608.6</ele>
        <time>2017-02-20T08:34:42Z</time>
      </trkpt>
      <trkpt lat="42.8584" lon="0.26141">
        <ele>1609.6</ele>
        <time>2017-02-20T08:34:47Z</time>
      </trkpt>
      <trkpt lat="42.85841" lon="0.26138">
        <ele>1606.4</ele>
        <time>2017-02-20T08:34:52Z</time>
      </trkpt>
      <trkpt lat="42.85842" lon="0.26132">
        <ele>1612.2</ele>
        <time>2017-02-20T08:34:57Z</time>
      </trkpt>
      <trkpt lat="42.85843" lon="0.26129">
        <ele>1609.4</ele>
        <time>2017-02-20T08:35:02Z</time>
      </trkpt>
      <trkpt lat="42.85844" lon="0.26125">
        <ele>1608</ele>
        <time>2017-02-20T08:35:07Z</time>
      </trkpt>
      <trkpt lat="42.85846" lon="0.26121">
        <ele>1612.8</ele>
        <time>2017-02-20T08:35:12Z</time>
      </trkpt>
      <trkpt lat="42.85848" lon="0.26117">
        <ele>1610.4</ele>
        <time>2017-02-20T08:35:18Z</time>
      </trkpt>
      <trkpt lat="42.85851" lon="0.26112">
        <ele>1613.2</ele>
        <time>2017-02-20T08:35:23Z</time>
      </trkpt>
      <trkpt lat="42.85853" lon="0.26107">
        <ele>1609.2</ele>
        <time>2017-02-20T08:35:28Z</time>
      </trkpt>
      <trkpt lat="42.85854" lon="0.26105">
        <ele>1613.6</ele>
        <time>2017-02-20T08:35:33Z</time>
      </trkpt>
      <trkpt lat="42.85854" lon="0.26104">
        <ele>1612.8</ele>
        <time>2017-02-20T08:35:38Z</time>
      </trkpt>
      <trkpt lat="42.85854" lon="0.26104">
        <ele>1611.8</ele>
        <time>2017-02-20T08:36:03Z</time>
      </trkpt>
      <trkpt lat="42.85854" lon="0.26104">
        <ele>1611.6</ele>
        <time>2017-02-20T08:36:08Z</time>
      </trkpt>
      <trkpt lat="42.85855" lon="0.26104">
        <ele>1611.6</ele>
        <time>2017-02-20T08:36:13Z</time>
      </trkpt>
      <trkpt lat="42.85855" lon="0.26103">
        <ele>1612.6</ele>
        <time>2017-02-20T08:36:53Z</time>
      </trkpt>
      <trkpt lat="42.85856" lon="0.26099">
        <ele>1608.8</ele>
        <time>2017-02-20T08:36:58Z</time>
      </trkpt>
      <trkpt lat="42.85857" lon="0.26098">
        <ele>1610.8</ele>
        <time>2017-02-20T08:37:03Z</time>
      </trkpt>
      <trkpt lat="42.85857" lon="0.26097">
        <ele>1610</ele>
        <time>2017-02-20T08:37:08Z</time>
      </trkpt>
      <trkpt lat="42.85859" lon="0.26093">
        <ele>1615.8</ele>
        <time>2017-02-20T08:37:13Z</time>
      </trkpt>
      <trkpt lat="42.85862" lon="0.26089">
        <ele>1613.4</ele>
        <time>2017-02-20T08:37:18Z</time>
      </trkpt>
      <trkpt lat="42.85865" lon="0.26087">
        <ele>1613.2</ele>
        <time>2017-02-20T08:37:23Z</time>
      </trkpt>
      <trkpt lat="42.85867" lon="0.26085">
        <ele>1613.6</ele>
        <time>2017-02-20T08:37:28Z</time>
      </trkpt>
      <trkpt lat="42.8587" lon="0.26081">
        <ele>1611.2</ele>
        <time>2017-02-20T08:37:33Z</time>
      </trkpt>
      <trkpt lat="42.85872" lon="0.26077">
        <ele>1610.6</ele>
        <time>2017-02-20T08:37:38Z</time>
      </trkpt>
      <trkpt lat="42.85874" lon="0.26074">
        <ele>1610.8</ele>
        <time>2017-02-20T08:37:43Z</time>
      </trkpt>
      <trkpt lat="42.85877" lon="0.26073">
        <ele>1614.6</ele>
        <time>2017-02-20T08:37:48Z</time>
      </trkpt>
      <trkpt lat="42.85878" lon="0.26073">
        <ele>1615.6</ele>
        <time>2017-02-20T08:37:53Z</time>
      </trkpt>
      <trkpt lat="42.85881" lon="0.26074">
        <ele>1614.6</ele>
        <time>2017-02-20T08:37:58Z</time>
      </trkpt>
      <trkpt lat="42.85883" lon="0.26075">
        <ele>1614.6</ele>
        <time>2017-02-20T08:38:03Z</time>
      </trkpt>
      <trkpt lat="42.85886" lon="0.26073">
        <ele>1613.6</ele>
        <time>2017-02-20T08:38:09Z</time>
      </trkpt>
      <trkpt lat="42.85887" lon="0.2607">
        <ele>1612.6</ele>
        <time>2017-02-20T08:38:14Z</time>
      </trkpt>
      <trkpt lat="42.85888" lon="0.26066">
        <ele>1617.2</ele>
        <time>2017-02-20T08:38:19Z</time>
      </trkpt>
      <trkpt lat="42.85887" lon="0.26061">
        <ele>1614.8</ele>
        <time>2017-02-20T08:38:24Z</time>
      </trkpt>
      <trkpt lat="42.85887" lon="0.26056">
        <ele>1616.4</ele>
        <time>2017-02-20T08:38:29Z</time>
      </trkpt>
      <trkpt lat="42.85887" lon="0.26051">
        <ele>1617.8</ele>
        <time>2017-02-20T08:38:34Z</time>
      </trkpt>
      <trkpt lat="42.85887" lon="0.26046">
        <ele>1617.6</ele>
        <time>2017-02-20T08:38:39Z</time>
      </trkpt>
      <trkpt lat="42.85887" lon="0.26042">
        <ele>1617</ele>
        <time>2017-02-20T08:38:44Z</time>
      </trkpt>
      <trkpt lat="42.85888" lon="0.2604">
        <ele>1617</ele>
        <time>2017-02-20T08:38:49Z</time>
      </trkpt>
      <trkpt lat="42.85888" lon="0.26039">
        <ele>1617.2</ele>
        <time>2017-02-20T08:38:54Z</time>
      </trkpt>
      <trkpt lat="42.85888" lon="0.26037">
        <ele>1616</ele>
        <time>2017-02-20T08:39:09Z</time>
      </trkpt>
      <trkpt lat="42.85891" lon="0.26035">
        <ele>1620.8</ele>
        <time>2017-02-20T08:39:14Z</time>
      </trkpt>
      <trkpt lat="42.85893" lon="0.26031">
        <ele>1618.4</ele>
        <time>2017-02-20T08:39:19Z</time>
      </trkpt>
      <trkpt lat="42.85895" lon="0.26028">
        <ele>1622.4</ele>
        <time>2017-02-20T08:39:24Z</time>
      </trkpt>
      <trkpt lat="42.85897" lon="0.26024">
        <ele>1622</ele>
        <time>2017-02-20T08:39:29Z</time>
      </trkpt>
      <trkpt lat="42.85899" lon="0.26021">
        <ele>1619.8</ele>
        <time>2017-02-20T08:39:34Z</time>
      </trkpt>
      <trkpt lat="42.85902" lon="0.26018">
        <ele>1621.4</ele>
        <time>2017-02-20T08:39:39Z</time>
      </trkpt>
      <trkpt lat="42.85904" lon="0.26015">
        <ele>1624.8</ele>
        <time>2017-02-20T08:39:44Z</time>
      </trkpt>
      <trkpt lat="42.85906" lon="0.26012">
        <ele>1624.6</ele>
        <time>2017-02-20T08:39:49Z</time>
      </trkpt>
      <trkpt lat="42.85908" lon="0.2601">
        <ele>1626</ele>
        <time>2017-02-20T08:39:54Z</time>
      </trkpt>
      <trkpt lat="42.8591" lon="0.26007">
        <ele>1626.4</ele>
        <time>2017-02-20T08:39:59Z</time>
      </trkpt>
      <trkpt lat="42.85912" lon="0.26003">
        <ele>1626.2</ele>
        <time>2017-02-20T08:40:04Z</time>
      </trkpt>
      <trkpt lat="42.85914" lon="0.26">
        <ele>1626</ele>
        <time>2017-02-20T08:40:09Z</time>
      </trkpt>
      <trkpt lat="42.85916" lon="0.25996">
        <ele>1626.8</ele>
        <time>2017-02-20T08:40:14Z</time>
      </trkpt>
      <trkpt lat="42.85918" lon="0.25992">
        <ele>1629.6</ele>
        <time>2017-02-20T08:40:19Z</time>
      </trkpt>
      <trkpt lat="42.85919" lon="0.25988">
        <ele>1628</ele>
        <time>2017-02-20T08:40:24Z</time>
      </trkpt>
      <trkpt lat="42.85921" lon="0.25985">
        <ele>1627.8</ele>
        <time>2017-02-20T08:40:29Z</time>
      </trkpt>
      <trkpt lat="42.85923" lon="0.25982">
        <ele>1631</ele>
        <time>2017-02-20T08:40:34Z</time>
      </trkpt>
      <trkpt lat="42.85925" lon="0.2598">
        <ele>1630.8</ele>
        <time>2017-02-20T08:40:39Z</time>
      </trkpt>
      <trkpt lat="42.85926" lon="0.25977">
        <ele>1632.2</ele>
        <time>2017-02-20T08:40:44Z</time>
      </trkpt>
      <trkpt lat="42.85928" lon="0.25975">
        <ele>1632.4</ele>
        <time>2017-02-20T08:40:49Z</time>
      </trkpt>
      <trkpt lat="42.8593" lon="0.25973">
        <ele>1635.6</ele>
        <time>2017-02-20T08:40:54Z</time>
      </trkpt>
      <trkpt lat="42.85932" lon="0.2597">
        <ele>1633.2</ele>
        <time>2017-02-20T08:40:59Z</time>
      </trkpt>
      <trkpt lat="42.85933" lon="0.25968">
        <ele>1635.4</ele>
        <time>2017-02-20T08:41:04Z</time>
      </trkpt>
      <trkpt lat="42.85935" lon="0.25966">
        <ele>1636.2</ele>
        <time>2017-02-20T08:41:09Z</time>
      </trkpt>
      <trkpt lat="42.85937" lon="0.25964">
        <ele>1634.6</ele>
        <time>2017-02-20T08:41:14Z</time>
      </trkpt>
      <trkpt lat="42.85939" lon="0.25962">
        <ele>1636</ele>
        <time>2017-02-20T08:41:19Z</time>
      </trkpt>
      <trkpt lat="42.85941" lon="0.2596">
        <ele>1636.8</ele>
        <time>2017-02-20T08:41:24Z</time>
      </trkpt>
      <trkpt lat="42.85943" lon="0.25957">
        <ele>1638.4</ele>
        <time>2017-02-20T08:41:29Z</time>
      </trkpt>
      <trkpt lat="42.85945" lon="0.25954">
        <ele>1638.6</ele>
        <time>2017-02-20T08:41:34Z</time>
      </trkpt>
      <trkpt lat="42.85946" lon="0.25951">
        <ele>1637.4</ele>
        <time>2017-02-20T08:41:39Z</time>
      </trkpt>
      <trkpt lat="42.85947" lon="0.25948">
        <ele>1641.2</ele>
        <time>2017-02-20T08:41:44Z</time>
      </trkpt>
      <trkpt lat="42.85948" lon="0.25945">
        <ele>1640.6</ele>
        <time>2017-02-20T08:41:49Z</time>
      </trkpt>
      <trkpt lat="42.85948" lon="0.25941">
        <ele>1643</ele>
        <time>2017-02-20T08:41:54Z</time>
      </trkpt>
      <trkpt lat="42.8595" lon="0.25939">
        <ele>1642.8</ele>
        <time>2017-02-20T08:41:59Z</time>
      </trkpt>
      <trkpt lat="42.8595" lon="0.25935">
        <ele>1642.8</ele>
        <time>2017-02-20T08:42:04Z</time>
      </trkpt>
      <trkpt lat="42.85952" lon="0.25932">
        <ele>1646</ele>
        <time>2017-02-20T08:42:09Z</time>
      </trkpt>
      <trkpt lat="42.85953" lon="0.25929">
        <ele>1642.4</ele>
        <time>2017-02-20T08:42:14Z</time>
      </trkpt>
      <trkpt lat="42.85953" lon="0.25926">
        <ele>1645</ele>
        <time>2017-02-20T08:42:19Z</time>
      </trkpt>
      <trkpt lat="42.85954" lon="0.25923">
        <ele>1645.4</ele>
        <time>2017-02-20T08:42:24Z</time>
      </trkpt>
      <trkpt lat="42.85955" lon="0.2592">
        <ele>1644.6</ele>
        <time>2017-02-20T08:42:29Z</time>
      </trkpt>
      <trkpt lat="42.85957" lon="0.25917">
        <ele>1643</ele>
        <time>2017-02-20T08:42:34Z</time>
      </trkpt>
      <trkpt lat="42.85958" lon="0.25915">
        <ele>1645</ele>
        <time>2017-02-20T08:42:39Z</time>
      </trkpt>
      <trkpt lat="42.85959" lon="0.25912">
        <ele>1645.8</ele>
        <time>2017-02-20T08:42:44Z</time>
      </trkpt>
      <trkpt lat="42.85959" lon="0.25911">
        <ele>1646</ele>
        <time>2017-02-20T08:42:59Z</time>
      </trkpt>
      <trkpt lat="42.85961" lon="0.25907">
        <ele>1649.4</ele>
        <time>2017-02-20T08:43:04Z</time>
      </trkpt>
      <trkpt lat="42.85961" lon="0.25903">
        <ele>1648.6</ele>
        <time>2017-02-20T08:43:09Z</time>
      </trkpt>
      <trkpt lat="42.85962" lon="0.259">
        <ele>1647.4</ele>
        <time>2017-02-20T08:43:14Z</time>
      </trkpt>
      <trkpt lat="42.85963" lon="0.25897">
        <ele>1650.4</ele>
        <time>2017-02-20T08:43:19Z</time>
      </trkpt>
      <trkpt lat="42.85964" lon="0.25896">
        <ele>1651.2</ele>
        <time>2017-02-20T08:43:24Z</time>
      </trkpt>
      <trkpt lat="42.85964" lon="0.25894">
        <ele>1655.4</ele>
        <time>2017-02-20T08:43:29Z</time>
      </trkpt>
      <trkpt lat="42.85966" lon="0.2589">
        <ele>1652.2</ele>
        <time>2017-02-20T08:43:34Z</time>
      </trkpt>
      <trkpt lat="42.85966" lon="0.25885">
        <ele>1654</ele>
        <time>2017-02-20T08:43:39Z</time>
      </trkpt>
      <trkpt lat="42.85967" lon="0.25881">
        <ele>1653.6</ele>
        <time>2017-02-20T08:43:44Z</time>
      </trkpt>
      <trkpt lat="42.85968" lon="0.25876">
        <ele>1655.4</ele>
        <time>2017-02-20T08:43:49Z</time>
      </trkpt>
      <trkpt lat="42.85969" lon="0.25871">
        <ele>1656.2</ele>
        <time>2017-02-20T08:43:54Z</time>
      </trkpt>
      <trkpt lat="42.8597" lon="0.25867">
        <ele>1656.2</ele>
        <time>2017-02-20T08:43:59Z</time>
      </trkpt>
      <trkpt lat="42.8597" lon="0.25862">
        <ele>1655.2</ele>
        <time>2017-02-20T08:44:04Z</time>
      </trkpt>
      <trkpt lat="42.8597" lon="0.25857">
        <ele>1655.8</ele>
        <time>2017-02-20T08:44:09Z</time>
      </trkpt>
      <trkpt lat="42.85969" lon="0.25852">
        <ele>1653.6</ele>
        <time>2017-02-20T08:44:14Z</time>
      </trkpt>
      <trkpt lat="42.85968" lon="0.25848">
        <ele>1656.8</ele>
        <time>2017-02-20T08:44:19Z</time>
      </trkpt>
      <trkpt lat="42.85967" lon="0.25845">
        <ele>1657.8</ele>
        <time>2017-02-20T08:44:24Z</time>
      </trkpt>
      <trkpt lat="42.85966" lon="0.2584">
        <ele>1660.8</ele>
        <time>2017-02-20T08:44:29Z</time>
      </trkpt>
      <trkpt lat="42.85965" lon="0.25836">
        <ele>1658.2</ele>
        <time>2017-02-20T08:44:34Z</time>
      </trkpt>
      <trkpt lat="42.85964" lon="0.25833">
        <ele>1661.2</ele>
        <time>2017-02-20T08:44:39Z</time>
      </trkpt>
      <trkpt lat="42.85962" lon="0.25829">
        <ele>1663.4</ele>
        <time>2017-02-20T08:44:44Z</time>
      </trkpt>
      <trkpt lat="42.85961" lon="0.25826">
        <ele>1661</ele>
        <time>2017-02-20T08:44:49Z</time>
      </trkpt>
      <trkpt lat="42.8596" lon="0.25823">
        <ele>1661.6</ele>
        <time>2017-02-20T08:44:54Z</time>
      </trkpt>
      <trkpt lat="42.85959" lon="0.25821">
        <ele>1662.4</ele>
        <time>2017-02-20T08:44:59Z</time>
      </trkpt>
      <trkpt lat="42.85957" lon="0.25818">
        <ele>1664</ele>
        <time>2017-02-20T08:45:04Z</time>
      </trkpt>
      <trkpt lat="42.85956" lon="0.25815">
        <ele>1669</ele>
        <time>2017-02-20T08:45:09Z</time>
      </trkpt>
      <trkpt lat="42.85954" lon="0.25812">
        <ele>1665</ele>
        <time>2017-02-20T08:45:14Z</time>
      </trkpt>
      <trkpt lat="42.85953" lon="0.25808">
        <ele>1669</ele>
        <time>2017-02-20T08:45:19Z</time>
      </trkpt>
      <trkpt lat="42.8595" lon="0.25806">
        <ele>1668.2</ele>
        <time>2017-02-20T08:45:24Z</time>
      </trkpt>
      <trkpt lat="42.8595" lon="0.25807">
        <ele>1669</ele>
        <time>2017-02-20T08:45:39Z</time>
      </trkpt>
      <trkpt lat="42.8595" lon="0.25806">
        <ele>1666.8</ele>
        <time>2017-02-20T08:45:44Z</time>
      </trkpt>
      <trkpt lat="42.8595" lon="0.25805">
        <ele>1668.4</ele>
        <time>2017-02-20T08:46:19Z</time>
      </trkpt>
      <trkpt lat="42.85951" lon="0.25804">
        <ele>1668.4</ele>
        <time>2017-02-20T08:46:24Z</time>
      </trkpt>
      <trkpt lat="42.85951" lon="0.25805">
        <ele>1661.8</ele>
        <time>2017-02-20T08:46:49Z</time>
      </trkpt>
      <trkpt lat="42.85951" lon="0.25805">
        <ele>1663.6</ele>
        <time>2017-02-20T08:46:54Z</time>
      </trkpt>
      <trkpt lat="42.85951" lon="0.25804">
        <ele>1668.2</ele>
        <time>2017-02-20T08:48:19Z</time>
      </trkpt>
      <trkpt lat="42.8595" lon="0.25805">
        <ele>1667.4</ele>
        <time>2017-02-20T08:49:25Z</time>
      </trkpt>
      <trkpt lat="42.8595" lon="0.25804">
        <ele>1669.4</ele>
        <time>2017-02-20T08:49:30Z</time>
      </trkpt>
      <trkpt lat="42.8595" lon="0.25804">
        <ele>1670.4</ele>
        <time>2017-02-20T08:49:45Z</time>
      </trkpt>
      <trkpt lat="42.85951" lon="0.25803">
        <ele>1672.6</ele>
        <time>2017-02-20T08:49:55Z</time>
      </trkpt>
      <trkpt lat="42.8595" lon="0.25803">
        <ele>1674.6</ele>
        <time>2017-02-20T08:50:10Z</time>
      </trkpt>
      <trkpt lat="42.85951" lon="0.25801">
        <ele>1673.2</ele>
        <time>2017-02-20T08:50:16Z</time>
      </trkpt>
      <trkpt lat="42.85951" lon="0.258">
        <ele>1675.8</ele>
        <time>2017-02-20T08:50:21Z</time>
      </trkpt>
      <trkpt lat="42.8595" lon="0.25796">
        <ele>1675.6</ele>
        <time>2017-02-20T08:50:26Z</time>
      </trkpt>
      <trkpt lat="42.8595" lon="0.25795">
        <ele>1673.8</ele>
        <time>2017-02-20T08:50:31Z</time>
      </trkpt>
      <trkpt lat="42.85949" lon="0.25792">
        <ele>1673.4</ele>
        <time>2017-02-20T08:50:36Z</time>
      </trkpt>
      <trkpt lat="42.85948" lon="0.25788">
        <ele>1672.6</ele>
        <time>2017-02-20T08:50:41Z</time>
      </trkpt>
      <trkpt lat="42.85946" lon="0.25784">
        <ele>1672.8</ele>
        <time>2017-02-20T08:50:46Z</time>
      </trkpt>
      <trkpt lat="42.85945" lon="0.25779">
        <ele>1673.6</ele>
        <time>2017-02-20T08:50:51Z</time>
      </trkpt>
      <trkpt lat="42.85944" lon="0.25775">
        <ele>1672.4</ele>
        <time>2017-02-20T08:50:56Z</time>
      </trkpt>
      <trkpt lat="42.85944" lon="0.25771">
        <ele>1675.2</ele>
        <time>2017-02-20T08:51:01Z</time>
      </trkpt>
      <trkpt lat="42.85943" lon="0.25767">
        <ele>1674</ele>
        <time>2017-02-20T08:51:06Z</time>
      </trkpt>
      <trkpt lat="42.85942" lon="0.25762">
        <ele>1676.2</ele>
        <time>2017-02-20T08:51:11Z</time>
      </trkpt>
      <trkpt lat="42.85942" lon="0.25758">
        <ele>1674</ele>
        <time>2017-02-20T08:51:16Z</time>
      </trkpt>
      <trkpt lat="42.85941" lon="0.25754">
        <ele>1676.2</ele>
        <time>2017-02-20T08:51:21Z</time>
      </trkpt>
      <trkpt lat="42.85941" lon="0.2575">
        <ele>1677</ele>
        <time>2017-02-20T08:51:26Z</time>
      </trkpt>
      <trkpt lat="42.8594" lon="0.25746">
        <ele>1677.6</ele>
        <time>2017-02-20T08:51:31Z</time>
      </trkpt>
      <trkpt lat="42.8594" lon="0.25743">
        <ele>1676</ele>
        <time>2017-02-20T08:51:36Z</time>
      </trkpt>
      <trkpt lat="42.8594" lon="0.25739">
        <ele>1678.8</ele>
        <time>2017-02-20T08:51:41Z</time>
      </trkpt>
      <trkpt lat="42.8594" lon="0.25736">
        <ele>1680.8</ele>
        <time>2017-02-20T08:51:46Z</time>
      </trkpt>
      <trkpt lat="42.85939" lon="0.25732">
        <ele>1681.8</ele>
        <time>2017-02-20T08:51:51Z</time>
      </trkpt>
      <trkpt lat="42.85939" lon="0.25728">
        <ele>1682.2</ele>
        <time>2017-02-20T08:51:56Z</time>
      </trkpt>
      <trkpt lat="42.85938" lon="0.25724">
        <ele>1682.6</ele>
        <time>2017-02-20T08:52:01Z</time>
      </trkpt>
      <trkpt lat="42.85938" lon="0.25719">
        <ele>1681</ele>
        <time>2017-02-20T08:52:06Z</time>
      </trkpt>
      <trkpt lat="42.85937" lon="0.25716">
        <ele>1683.8</ele>
        <time>2017-02-20T08:52:11Z</time>
      </trkpt>
      <trkpt lat="42.85936" lon="0.25711">
        <ele>1683.4</ele>
        <time>2017-02-20T08:52:16Z</time>
      </trkpt>
      <trkpt lat="42.85935" lon="0.25707">
        <ele>1685.6</ele>
        <time>2017-02-20T08:52:21Z</time>
      </trkpt>
      <trkpt lat="42.85934" lon="0.25704">
        <ele>1684.6</ele>
        <time>2017-02-20T08:52:26Z</time>
      </trkpt>
      <trkpt lat="42.85932" lon="0.257">
        <ele>1683.8</ele>
        <time>2017-02-20T08:52:31Z</time>
      </trkpt>
      <trkpt lat="42.85931" lon="0.25697">
        <ele>1688.6</ele>
        <time>2017-02-20T08:52:36Z</time>
      </trkpt>
      <trkpt lat="42.8593" lon="0.25693">
        <ele>1688.8</ele>
        <time>2017-02-20T08:52:41Z</time>
      </trkpt>
      <trkpt lat="42.85928" lon="0.25689">
        <ele>1687.2</ele>
        <time>2017-02-20T08:52:46Z</time>
      </trkpt>
      <trkpt lat="42.85927" lon="0.25685">
        <ele>1688.6</ele>
        <time>2017-02-20T08:52:51Z</time>
      </trkpt>
      <trkpt lat="42.85925" lon="0.25681">
        <ele>1688.4</ele>
        <time>2017-02-20T08:52:56Z</time>
      </trkpt>
      <trkpt lat="42.85924" lon="0.25677">
        <ele>1692.2</ele>
        <time>2017-02-20T08:53:01Z</time>
      </trkpt>
      <trkpt lat="42.85922" lon="0.25673">
        <ele>1692</ele>
        <time>2017-02-20T08:53:06Z</time>
      </trkpt>
      <trkpt lat="42.8592" lon="0.25668">
        <ele>1689.8</ele>
        <time>2017-02-20T08:53:12Z</time>
      </trkpt>
      <trkpt lat="42.8592" lon="0.25665">
        <ele>1695</ele>
        <time>2017-02-20T08:53:17Z</time>
      </trkpt>
      <trkpt lat="42.85919" lon="0.25661">
        <ele>1693.2</ele>
        <time>2017-02-20T08:53:22Z</time>
      </trkpt>
      <trkpt lat="42.85919" lon="0.25658">
        <ele>1695.6</ele>
        <time>2017-02-20T08:53:27Z</time>
      </trkpt>
      <trkpt lat="42.85918" lon="0.25654">
        <ele>1694</ele>
        <time>2017-02-20T08:53:32Z</time>
      </trkpt>
      <trkpt lat="42.85918" lon="0.2565">
        <ele>1695.2</ele>
        <time>2017-02-20T08:53:37Z</time>
      </trkpt>
      <trkpt lat="42.85917" lon="0.25647">
        <ele>1696</ele>
        <time>2017-02-20T08:53:42Z</time>
      </trkpt>
      <trkpt lat="42.85915" lon="0.25644">
        <ele>1698</ele>
        <time>2017-02-20T08:53:47Z</time>
      </trkpt>
      <trkpt lat="42.85914" lon="0.2564">
        <ele>1697</ele>
        <time>2017-02-20T08:53:52Z</time>
      </trkpt>
      <trkpt lat="42.85913" lon="0.25637">
        <ele>1698.8</ele>
        <time>2017-02-20T08:53:57Z</time>
      </trkpt>
      <trkpt lat="42.85912" lon="0.25634">
        <ele>1697.8</ele>
        <time>2017-02-20T08:54:02Z</time>
      </trkpt>
      <trkpt lat="42.85911" lon="0.2563">
        <ele>1699.6</ele>
        <time>2017-02-20T08:54:07Z</time>
      </trkpt>
      <trkpt lat="42.8591" lon="0.25626">
        <ele>1699</ele>
        <time>2017-02-20T08:54:12Z</time>
      </trkpt>
      <trkpt lat="42.85908" lon="0.25622">
        <ele>1700.4</ele>
        <time>2017-02-20T08:54:17Z</time>
      </trkpt>
      <trkpt lat="42.85906" lon="0.25617">
        <ele>1699.8</ele>
        <time>2017-02-20T08:54:23Z</time>
      </trkpt>
      <trkpt lat="42.85905" lon="0.25614">
        <ele>1702.2</ele>
        <time>2017-02-20T08:54:28Z</time>
      </trkpt>
      <trkpt lat="42.85904" lon="0.2561">
        <ele>1702.2</ele>
        <time>2017-02-20T08:54:33Z</time>
      </trkpt>
      <trkpt lat="42.85902" lon="0.25607">
        <ele>1701.2</ele>
        <time>2017-02-20T08:54:38Z</time>
      </trkpt>
      <trkpt lat="42.85901" lon="0.25603">
        <ele>1703</ele>
        <time>2017-02-20T08:54:43Z</time>
      </trkpt>
      <trkpt lat="42.859" lon="0.256">
        <ele>1705.6</ele>
        <time>2017-02-20T08:54:48Z</time>
      </trkpt>
      <trkpt lat="42.85899" lon="0.25597">
        <ele>1706</ele>
        <time>2017-02-20T08:54:53Z</time>
      </trkpt>
      <trkpt lat="42.85898" lon="0.25595">
        <ele>1705.8</ele>
        <time>2017-02-20T08:54:58Z</time>
      </trkpt>
      <trkpt lat="42.85897" lon="0.25592">
        <ele>1706.6</ele>
        <time>2017-02-20T08:55:03Z</time>
      </trkpt>
      <trkpt lat="42.85896" lon="0.25589">
        <ele>1708.6</ele>
        <time>2017-02-20T08:55:08Z</time>
      </trkpt>
      <trkpt lat="42.85894" lon="0.25587">
        <ele>1705</ele>
        <time>2017-02-20T08:55:13Z</time>
      </trkpt>
      <trkpt lat="42.85893" lon="0.25585">
        <ele>1709.2</ele>
        <time>2017-02-20T08:55:18Z</time>
      </trkpt>
      <trkpt lat="42.85891" lon="0.25584">
        <ele>1709.8</ele>
        <time>2017-02-20T08:55:23Z</time>
      </trkpt>
      <trkpt lat="42.85889" lon="0.25582">
        <ele>1707.6</ele>
        <time>2017-02-20T08:55:28Z</time>
      </trkpt>
      <trkpt lat="42.85887" lon="0.25581">
        <ele>1710.6</ele>
        <time>2017-02-20T08:55:33Z</time>
      </trkpt>
      <trkpt lat="42.85887" lon="0.25581">
        <ele>1710.4</ele>
        <time>2017-02-20T08:55:38Z</time>
      </trkpt>
      <trkpt lat="42.85887" lon="0.25581">
        <ele>1710.2</ele>
        <time>2017-02-20T08:55:43Z</time>
      </trkpt>
      <trkpt lat="42.85886" lon="0.25581">
        <ele>1709.6</ele>
        <time>2017-02-20T08:55:48Z</time>
      </trkpt>
      <trkpt lat="42.85888" lon="0.2558">
        <ele>1707.8</ele>
        <time>2017-02-20T08:55:53Z</time>
      </trkpt>
      <trkpt lat="42.8589" lon="0.25579">
        <ele>1709.4</ele>
        <time>2017-02-20T08:55:58Z</time>
      </trkpt>
      <trkpt lat="42.85893" lon="0.25579">
        <ele>1709.2</ele>
        <time>2017-02-20T08:56:03Z</time>
      </trkpt>
      <trkpt lat="42.85897" lon="0.25579">
        <ele>1709.4</ele>
        <time>2017-02-20T08:56:08Z</time>
      </trkpt>
      <trkpt lat="42.859" lon="0.25577">
        <ele>1713</ele>
        <time>2017-02-20T08:56:13Z</time>
      </trkpt>
      <trkpt lat="42.85902" lon="0.25576">
        <ele>1712</ele>
        <time>2017-02-20T08:56:18Z</time>
      </trkpt>
      <trkpt lat="42.85905" lon="0.25577">
        <ele>1713.2</ele>
        <time>2017-02-20T08:56:23Z</time>
      </trkpt>
      <trkpt lat="42.85908" lon="0.25577">
        <ele>1715.4</ele>
        <time>2017-02-20T08:56:28Z</time>
      </trkpt>
      <trkpt lat="42.85911" lon="0.25579">
        <ele>1717.2</ele>
        <time>2017-02-20T08:56:33Z</time>
      </trkpt>
      <trkpt lat="42.85912" lon="0.25579">
        <ele>1714.4</ele>
        <time>2017-02-20T08:56:38Z</time>
      </trkpt>
      <trkpt lat="42.85913" lon="0.2558">
        <ele>1715</ele>
        <time>2017-02-20T08:56:49Z</time>
      </trkpt>
      <trkpt lat="42.85913" lon="0.25582">
        <ele>1716.4</ele>
        <time>2017-02-20T08:56:54Z</time>
      </trkpt>
      <trkpt lat="42.85913" lon="0.25578">
        <ele>1720.4</ele>
        <time>2017-02-20T08:56:59Z</time>
      </trkpt>
      <trkpt lat="42.85911" lon="0.25574">
        <ele>1720.6</ele>
        <time>2017-02-20T08:57:04Z</time>
      </trkpt>
      <trkpt lat="42.8591" lon="0.2557">
        <ele>1720.6</ele>
        <time>2017-02-20T08:57:09Z</time>
      </trkpt>
      <trkpt lat="42.85908" lon="0.25566">
        <ele>1720.4</ele>
        <time>2017-02-20T08:57:14Z</time>
      </trkpt>
      <trkpt lat="42.85907" lon="0.25564">
        <ele>1721.8</ele>
        <time>2017-02-20T08:57:19Z</time>
      </trkpt>
      <trkpt lat="42.85905" lon="0.25561">
        <ele>1718.2</ele>
        <time>2017-02-20T08:57:24Z</time>
      </trkpt>
      <trkpt lat="42.85903" lon="0.2556">
        <ele>1718.2</ele>
        <time>2017-02-20T08:57:29Z</time>
      </trkpt>
      <trkpt lat="42.85902" lon="0.25559">
        <ele>1718.2</ele>
        <time>2017-02-20T08:57:34Z</time>
      </trkpt>
      <trkpt lat="42.859" lon="0.25557">
        <ele>1721.2</ele>
        <time>2017-02-20T08:57:39Z</time>
      </trkpt>
      <trkpt lat="42.85897" lon="0.25555">
        <ele>1720</ele>
        <time>2017-02-20T08:57:44Z</time>
      </trkpt>
      <trkpt lat="42.85894" lon="0.25554">
        <ele>1721.4</ele>
        <time>2017-02-20T08:57:49Z</time>
      </trkpt>
      <trkpt lat="42.85892" lon="0.25553">
        <ele>1720.4</ele>
        <time>2017-02-20T08:57:54Z</time>
      </trkpt>
      <trkpt lat="42.85891" lon="0.25553">
        <ele>1720.8</ele>
        <time>2017-02-20T08:57:59Z</time>
      </trkpt>
      <trkpt lat="42.8589" lon="0.25552">
        <ele>1720.8</ele>
        <time>2017-02-20T08:58:04Z</time>
      </trkpt>
      <trkpt lat="42.85887" lon="0.25551">
        <ele>1724.4</ele>
        <time>2017-02-20T08:58:09Z</time>
      </trkpt>
      <trkpt lat="42.85885" lon="0.2555">
        <ele>1721.8</ele>
        <time>2017-02-20T08:58:14Z</time>
      </trkpt>
      <trkpt lat="42.85883" lon="0.25548">
        <ele>1722.8</ele>
        <time>2017-02-20T08:58:19Z</time>
      </trkpt>
      <trkpt lat="42.85882" lon="0.25548">
        <ele>1721.2</ele>
        <time>2017-02-20T08:58:24Z</time>
      </trkpt>
      <trkpt lat="42.85879" lon="0.25546">
        <ele>1724.6</ele>
        <time>2017-02-20T08:58:29Z</time>
      </trkpt>
      <trkpt lat="42.85877" lon="0.25544">
        <ele>1722</ele>
        <time>2017-02-20T08:58:34Z</time>
      </trkpt>
      <trkpt lat="42.85875" lon="0.25542">
        <ele>1726</ele>
        <time>2017-02-20T08:58:39Z</time>
      </trkpt>
      <trkpt lat="42.85872" lon="0.25539">
        <ele>1725.8</ele>
        <time>2017-02-20T08:58:44Z</time>
      </trkpt>
      <trkpt lat="42.8587" lon="0.25537">
        <ele>1727</ele>
        <time>2017-02-20T08:58:49Z</time>
      </trkpt>
      <trkpt lat="42.85868" lon="0.25535">
        <ele>1727.2</ele>
        <time>2017-02-20T08:58:54Z</time>
      </trkpt>
      <trkpt lat="42.85865" lon="0.25533">
        <ele>1729.2</ele>
        <time>2017-02-20T08:58:59Z</time>
      </trkpt>
      <trkpt lat="42.85864" lon="0.25531">
        <ele>1729.6</ele>
        <time>2017-02-20T08:59:04Z</time>
      </trkpt>
      <trkpt lat="42.85862" lon="0.25528">
        <ele>1730.6</ele>
        <time>2017-02-20T08:59:09Z</time>
      </trkpt>
      <trkpt lat="42.85859" lon="0.25526">
        <ele>1732.2</ele>
        <time>2017-02-20T08:59:14Z</time>
      </trkpt>
      <trkpt lat="42.85856" lon="0.25523">
        <ele>1731.8</ele>
        <time>2017-02-20T08:59:19Z</time>
      </trkpt>
      <trkpt lat="42.85854" lon="0.25522">
        <ele>1731.4</ele>
        <time>2017-02-20T08:59:24Z</time>
      </trkpt>
      <trkpt lat="42.85851" lon="0.2552">
        <ele>1732.8</ele>
        <time>2017-02-20T08:59:29Z</time>
      </trkpt>
      <trkpt lat="42.85848" lon="0.25519">
        <ele>1738.8</ele>
        <time>2017-02-20T08:59:34Z</time>
      </trkpt>
      <trkpt lat="42.85845" lon="0.25517">
        <ele>1737.8</ele>
        <time>2017-02-20T08:59:39Z</time>
      </trkpt>
      <trkpt lat="42.85843" lon="0.25516">
        <ele>1737.8</ele>
        <time>2017-02-20T08:59:44Z</time>
      </trkpt>
      <trkpt lat="42.85841" lon="0.25514">
        <ele>1737</ele>
        <time>2017-02-20T08:59:49Z</time>
      </trkpt>
      <trkpt lat="42.85838" lon="0.25512">
        <ele>1739.2</ele>
        <time>2017-02-20T08:59:54Z</time>
      </trkpt>
      <trkpt lat="42.85835" lon="0.2551">
        <ele>1737.6</ele>
        <time>2017-02-20T08:59:59Z</time>
      </trkpt>
      <trkpt lat="42.85833" lon="0.25508">
        <ele>1739</ele>
        <time>2017-02-20T09:00:04Z</time>
      </trkpt>
      <trkpt lat="42.8583" lon="0.25506">
        <ele>1738.2</ele>
        <time>2017-02-20T09:00:09Z</time>
      </trkpt>
      <trkpt lat="42.85828" lon="0.25504">
        <ele>1742</ele>
        <time>2017-02-20T09:00:14Z</time>
      </trkpt>
      <trkpt lat="42.85825" lon="0.25502">
        <ele>1742.2</ele>
        <time>2017-02-20T09:00:20Z</time>
      </trkpt>
      <trkpt lat="42.85823" lon="0.255">
        <ele>1740.8</ele>
        <time>2017-02-20T09:00:25Z</time>
      </trkpt>
      <trkpt lat="42.8582" lon="0.25498">
        <ele>1742.6</ele>
        <time>2017-02-20T09:00:30Z</time>
      </trkpt>
      <trkpt lat="42.85818" lon="0.25497">
        <ele>1742</ele>
        <time>2017-02-20T09:00:35Z</time>
      </trkpt>
      <trkpt lat="42.85816" lon="0.25495">
        <ele>1744.2</ele>
        <time>2017-02-20T09:00:40Z</time>
      </trkpt>
      <trkpt lat="42.85813" lon="0.25493">
        <ele>1744.4</ele>
        <time>2017-02-20T09:00:45Z</time>
      </trkpt>
      <trkpt lat="42.8581" lon="0.25491">
        <ele>1746.4</ele>
        <time>2017-02-20T09:00:50Z</time>
      </trkpt>
      <trkpt lat="42.85808" lon="0.25489">
        <ele>1745.8</ele>
        <time>2017-02-20T09:00:55Z</time>
      </trkpt>
      <trkpt lat="42.85805" lon="0.25487">
        <ele>1746.2</ele>
        <time>2017-02-20T09:01:00Z</time>
      </trkpt>
      <trkpt lat="42.85803" lon="0.25485">
        <ele>1750</ele>
        <time>2017-02-20T09:01:05Z</time>
      </trkpt>
      <trkpt lat="42.85802" lon="0.25482">
        <ele>1747.6</ele>
        <time>2017-02-20T09:01:10Z</time>
      </trkpt>
      <trkpt lat="42.85802" lon="0.25479">
        <ele>1751.6</ele>
        <time>2017-02-20T09:01:15Z</time>
      </trkpt>
      <trkpt lat="42.85802" lon="0.25476">
        <ele>1749.8</ele>
        <time>2017-02-20T09:01:20Z</time>
      </trkpt>
      <trkpt lat="42.85801" lon="0.25473">
        <ele>1750.8</ele>
        <time>2017-02-20T09:01:25Z</time>
      </trkpt>
      <trkpt lat="42.85801" lon="0.2547">
        <ele>1749.2</ele>
        <time>2017-02-20T09:01:30Z</time>
      </trkpt>
      <trkpt lat="42.85802" lon="0.25467">
        <ele>1749</ele>
        <time>2017-02-20T09:01:35Z</time>
      </trkpt>
      <trkpt lat="42.85804" lon="0.25466">
        <ele>1755.8</ele>
        <time>2017-02-20T09:01:40Z</time>
      </trkpt>
      <trkpt lat="42.85805" lon="0.25464">
        <ele>1752.6</ele>
        <time>2017-02-20T09:01:45Z</time>
      </trkpt>
      <trkpt lat="42.85803" lon="0.25462">
        <ele>1754.2</ele>
        <time>2017-02-20T09:01:50Z</time>
      </trkpt>
      <trkpt lat="42.85802" lon="0.25459">
        <ele>1753.6</ele>
        <time>2017-02-20T09:01:55Z</time>
      </trkpt>
      <trkpt lat="42.858" lon="0.25457">
        <ele>1754</ele>
        <time>2017-02-20T09:02:00Z</time>
      </trkpt>
      <trkpt lat="42.85798" lon="0.25455">
        <ele>1755</ele>
        <time>2017-02-20T09:02:05Z</time>
      </trkpt>
      <trkpt lat="42.85796" lon="0.25453">
        <ele>1756.6</ele>
        <time>2017-02-20T09:02:10Z</time>
      </trkpt>
      <trkpt lat="42.85795" lon="0.2545">
        <ele>1757.4</ele>
        <time>2017-02-20T09:02:15Z</time>
      </trkpt>
      <trkpt lat="42.85792" lon="0.25447">
        <ele>1756.2</ele>
        <time>2017-02-20T09:02:20Z</time>
      </trkpt>
      <trkpt lat="42.8579" lon="0.25444">
        <ele>1756.4</ele>
        <time>2017-02-20T09:02:25Z</time>
      </trkpt>
      <trkpt lat="42.85789" lon="0.25442">
        <ele>1756.6</ele>
        <time>2017-02-20T09:02:30Z</time>
      </trkpt>
      <trkpt lat="42.85789" lon="0.25441">
        <ele>1755.8</ele>
        <time>2017-02-20T09:02:40Z</time>
      </trkpt>
      <trkpt lat="42.85788" lon="0.25437">
        <ele>1755.8</ele>
        <time>2017-02-20T09:02:45Z</time>
      </trkpt>
      <trkpt lat="42.85787" lon="0.25434">
        <ele>1760</ele>
        <time>2017-02-20T09:02:50Z</time>
      </trkpt>
      <trkpt lat="42.85786" lon="0.25431">
        <ele>1761.2</ele>
        <time>2017-02-20T09:02:55Z</time>
      </trkpt>
      <trkpt lat="42.85785" lon="0.25428">
        <ele>1757.4</ele>
        <time>2017-02-20T09:03:00Z</time>
      </trkpt>
      <trkpt lat="42.85784" lon="0.25425">
        <ele>1757.2</ele>
        <time>2017-02-20T09:03:05Z</time>
      </trkpt>
      <trkpt lat="42.85783" lon="0.25421">
        <ele>1759.2</ele>
        <time>2017-02-20T09:03:10Z</time>
      </trkpt>
      <trkpt lat="42.85782" lon="0.25418">
        <ele>1761.4</ele>
        <time>2017-02-20T09:03:15Z</time>
      </trkpt>
      <trkpt lat="42.85781" lon="0.25415">
        <ele>1760.6</ele>
        <time>2017-02-20T09:03:20Z</time>
      </trkpt>
      <trkpt lat="42.8578" lon="0.25412">
        <ele>1762</ele>
        <time>2017-02-20T09:03:25Z</time>
      </trkpt>
      <trkpt lat="42.85779" lon="0.25409">
        <ele>1760.4</ele>
        <time>2017-02-20T09:03:30Z</time>
      </trkpt>
      <trkpt lat="42.85778" lon="0.25406">
        <ele>1762.2</ele>
        <time>2017-02-20T09:03:35Z</time>
      </trkpt>
      <trkpt lat="42.85777" lon="0.25402">
        <ele>1764.4</ele>
        <time>2017-02-20T09:03:40Z</time>
      </trkpt>
      <trkpt lat="42.85776" lon="0.25399">
        <ele>1765.6</ele>
        <time>2017-02-20T09:03:45Z</time>
      </trkpt>
      <trkpt lat="42.85775" lon="0.25396">
        <ele>1764.2</ele>
        <time>2017-02-20T09:03:50Z</time>
      </trkpt>
      <trkpt lat="42.85773" lon="0.25393">
        <ele>1762.8</ele>
        <time>2017-02-20T09:03:55Z</time>
      </trkpt>
      <trkpt lat="42.85773" lon="0.2539">
        <ele>1767.2</ele>
        <time>2017-02-20T09:04:00Z</time>
      </trkpt>
      <trkpt lat="42.85772" lon="0.25388">
        <ele>1770</ele>
        <time>2017-02-20T09:04:05Z</time>
      </trkpt>
      <trkpt lat="42.85771" lon="0.25386">
        <ele>1770.8</ele>
        <time>2017-02-20T09:04:10Z</time>
      </trkpt>
      <trkpt lat="42.8577" lon="0.25383">
        <ele>1770.4</ele>
        <time>2017-02-20T09:04:15Z</time>
      </trkpt>
      <trkpt lat="42.85769" lon="0.2538">
        <ele>1770.6</ele>
        <time>2017-02-20T09:04:20Z</time>
      </trkpt>
      <trkpt lat="42.85768" lon="0.25377">
        <ele>1772</ele>
        <time>2017-02-20T09:04:25Z</time>
      </trkpt>
      <trkpt lat="42.85767" lon="0.25374">
        <ele>1772.6</ele>
        <time>2017-02-20T09:04:30Z</time>
      </trkpt>
      <trkpt lat="42.85766" lon="0.25371">
        <ele>1773.4</ele>
        <time>2017-02-20T09:04:35Z</time>
      </trkpt>
      <trkpt lat="42.85766" lon="0.25368">
        <ele>1775.6</ele>
        <time>2017-02-20T09:04:40Z</time>
      </trkpt>
      <trkpt lat="42.85765" lon="0.25365">
        <ele>1773</ele>
        <time>2017-02-20T09:04:45Z</time>
      </trkpt>
      <trkpt lat="42.85763" lon="0.25362">
        <ele>1775.4</ele>
        <time>2017-02-20T09:04:51Z</time>
      </trkpt>
      <trkpt lat="42.85762" lon="0.2536">
        <ele>1774.4</ele>
        <time>2017-02-20T09:04:56Z</time>
      </trkpt>
      <trkpt lat="42.85761" lon="0.25357">
        <ele>1774.2</ele>
        <time>2017-02-20T09:05:01Z</time>
      </trkpt>
      <trkpt lat="42.8576" lon="0.25354">
        <ele>1774.8</ele>
        <time>2017-02-20T09:05:06Z</time>
      </trkpt>
      <trkpt lat="42.85758" lon="0.25351">
        <ele>1776.4</ele>
        <time>2017-02-20T09:05:11Z</time>
      </trkpt>
      <trkpt lat="42.85757" lon="0.25349">
        <ele>1775.6</ele>
        <time>2017-02-20T09:05:16Z</time>
      </trkpt>
      <trkpt lat="42.85756" lon="0.25347">
        <ele>1779.6</ele>
        <time>2017-02-20T09:05:21Z</time>
      </trkpt>
      <trkpt lat="42.85755" lon="0.25345">
        <ele>1778.4</ele>
        <time>2017-02-20T09:05:26Z</time>
      </trkpt>
      <trkpt lat="42.85754" lon="0.25343">
        <ele>1781.2</ele>
        <time>2017-02-20T09:05:31Z</time>
      </trkpt>
      <trkpt lat="42.85753" lon="0.2534">
        <ele>1779.2</ele>
        <time>2017-02-20T09:05:36Z</time>
      </trkpt>
      <trkpt lat="42.85752" lon="0.25337">
        <ele>1781</ele>
        <time>2017-02-20T09:05:41Z</time>
      </trkpt>
      <trkpt lat="42.85751" lon="0.25335">
        <ele>1780.4</ele>
        <time>2017-02-20T09:05:46Z</time>
      </trkpt>
      <trkpt lat="42.8575" lon="0.25331">
        <ele>1779.8</ele>
        <time>2017-02-20T09:05:52Z</time>
      </trkpt>
      <trkpt lat="42.8575" lon="0.25328">
        <ele>1784.6</ele>
        <time>2017-02-20T09:05:57Z</time>
      </trkpt>
      <trkpt lat="42.85749" lon="0.25326">
        <ele>1784</ele>
        <time>2017-02-20T09:06:02Z</time>
      </trkpt>
      <trkpt lat="42.85748" lon="0.25325">
        <ele>1784.6</ele>
        <time>2017-02-20T09:06:07Z</time>
      </trkpt>
      <trkpt lat="42.85748" lon="0.25322">
        <ele>1785</ele>
        <time>2017-02-20T09:06:12Z</time>
      </trkpt>
      <trkpt lat="42.85747" lon="0.25319">
        <ele>1787.8</ele>
        <time>2017-02-20T09:06:17Z</time>
      </trkpt>
      <trkpt lat="42.85746" lon="0.25317">
        <ele>1785.4</ele>
        <time>2017-02-20T09:06:22Z</time>
      </trkpt>
      <trkpt lat="42.85745" lon="0.25314">
        <ele>1785.4</ele>
        <time>2017-02-20T09:06:27Z</time>
      </trkpt>
      <trkpt lat="42.85744" lon="0.25313">
        <ele>1785.8</ele>
        <time>2017-02-20T09:06:32Z</time>
      </trkpt>
      <trkpt lat="42.85743" lon="0.2531">
        <ele>1787.8</ele>
        <time>2017-02-20T09:06:37Z</time>
      </trkpt>
      <trkpt lat="42.85743" lon="0.25309">
        <ele>1787</ele>
        <time>2017-02-20T09:06:42Z</time>
      </trkpt>
      <trkpt lat="42.85743" lon="0.25308">
        <ele>1787.4</ele>
        <time>2017-02-20T09:06:47Z</time>
      </trkpt>
      <trkpt lat="42.85745" lon="0.25307">
        <ele>1788</ele>
        <time>2017-02-20T09:06:53Z</time>
      </trkpt>
      <trkpt lat="42.85748" lon="0.25307">
        <ele>1788.8</ele>
        <time>2017-02-20T09:06:58Z</time>
      </trkpt>
      <trkpt lat="42.8575" lon="0.25306">
        <ele>1791</ele>
        <time>2017-02-20T09:07:03Z</time>
      </trkpt>
      <trkpt lat="42.85753" lon="0.25306">
        <ele>1793</ele>
        <time>2017-02-20T09:07:13Z</time>
      </trkpt>
      <trkpt lat="42.85753" lon="0.25303">
        <ele>1794.8</ele>
        <time>2017-02-20T09:07:33Z</time>
      </trkpt>
      <trkpt lat="42.85752" lon="0.253">
        <ele>1793.6</ele>
        <time>2017-02-20T09:07:38Z</time>
      </trkpt>
      <trkpt lat="42.85751" lon="0.25297">
        <ele>1793.2</ele>
        <time>2017-02-20T09:07:43Z</time>
      </trkpt>
      <trkpt lat="42.85749" lon="0.25294">
        <ele>1797</ele>
        <time>2017-02-20T09:07:48Z</time>
      </trkpt>
      <trkpt lat="42.85748" lon="0.25292">
        <ele>1798.2</ele>
        <time>2017-02-20T09:07:53Z</time>
      </trkpt>
      <trkpt lat="42.85748" lon="0.25291">
        <ele>1797.2</ele>
        <time>2017-02-20T09:07:58Z</time>
      </trkpt>
      <trkpt lat="42.85746" lon="0.25289">
        <ele>1800</ele>
        <time>2017-02-20T09:08:03Z</time>
      </trkpt>
      <trkpt lat="42.85744" lon="0.25286">
        <ele>1797.8</ele>
        <time>2017-02-20T09:08:08Z</time>
      </trkpt>
      <trkpt lat="42.85743" lon="0.25284">
        <ele>1800</ele>
        <time>2017-02-20T09:08:13Z</time>
      </trkpt>
      <trkpt lat="42.85741" lon="0.25282">
        <ele>1799.2</ele>
        <time>2017-02-20T09:08:18Z</time>
      </trkpt>
      <trkpt lat="42.8574" lon="0.2528">
        <ele>1801.6</ele>
        <time>2017-02-20T09:08:23Z</time>
      </trkpt>
      <trkpt lat="42.85739" lon="0.25277">
        <ele>1797.6</ele>
        <time>2017-02-20T09:08:28Z</time>
      </trkpt>
      <trkpt lat="42.85737" lon="0.25276">
        <ele>1799.6</ele>
        <time>2017-02-20T09:08:33Z</time>
      </trkpt>
      <trkpt lat="42.85736" lon="0.25273">
        <ele>1800.2</ele>
        <time>2017-02-20T09:08:38Z</time>
      </trkpt>
      <trkpt lat="42.85734" lon="0.25271">
        <ele>1802.6</ele>
        <time>2017-02-20T09:08:43Z</time>
      </trkpt>
      <trkpt lat="42.85733" lon="0.25269">
        <ele>1802.2</ele>
        <time>2017-02-20T09:08:48Z</time>
      </trkpt>
      <trkpt lat="42.85732" lon="0.25268">
        <ele>1803.6</ele>
        <time>2017-02-20T09:08:53Z</time>
      </trkpt>
      <trkpt lat="42.85732" lon="0.25266">
        <ele>1802.6</ele>
        <time>2017-02-20T09:08:58Z</time>
      </trkpt>
      <trkpt lat="42.85731" lon="0.25266">
        <ele>1802.6</ele>
        <time>2017-02-20T09:09:03Z</time>
      </trkpt>
      <trkpt lat="42.85729" lon="0.25264">
        <ele>1802</ele>
        <time>2017-02-20T09:09:08Z</time>
      </trkpt>
      <trkpt lat="42.85727" lon="0.25262">
        <ele>1803</ele>
        <time>2017-02-20T09:09:13Z</time>
      </trkpt>
      <trkpt lat="42.85724" lon="0.2526">
        <ele>1806.2</ele>
        <time>2017-02-20T09:09:18Z</time>
      </trkpt>
      <trkpt lat="42.85722" lon="0.25258">
        <ele>1805.8</ele>
        <time>2017-02-20T09:09:23Z</time>
      </trkpt>
      <trkpt lat="42.8572" lon="0.25256">
        <ele>1805.2</ele>
        <time>2017-02-20T09:09:28Z</time>
      </trkpt>
      <trkpt lat="42.85718" lon="0.25255">
        <ele>1810.8</ele>
        <time>2017-02-20T09:09:33Z</time>
      </trkpt>
      <trkpt lat="42.85715" lon="0.25253">
        <ele>1809</ele>
        <time>2017-02-20T09:09:38Z</time>
      </trkpt>
      <trkpt lat="42.85712" lon="0.25252">
        <ele>1808.8</ele>
        <time>2017-02-20T09:09:43Z</time>
      </trkpt>
      <trkpt lat="42.8571" lon="0.25251">
        <ele>1809</ele>
        <time>2017-02-20T09:09:48Z</time>
      </trkpt>
      <trkpt lat="42.85706" lon="0.2525">
        <ele>1810.6</ele>
        <time>2017-02-20T09:09:54Z</time>
      </trkpt>
      <trkpt lat="42.85704" lon="0.25249">
        <ele>1806.8</ele>
        <time>2017-02-20T09:09:59Z</time>
      </trkpt>
      <trkpt lat="42.85702" lon="0.25248">
        <ele>1813.2</ele>
        <time>2017-02-20T09:10:04Z</time>
      </trkpt>
      <trkpt lat="42.85699" lon="0.25246">
        <ele>1812.2</ele>
        <time>2017-02-20T09:10:09Z</time>
      </trkpt>
      <trkpt lat="42.85697" lon="0.25243">
        <ele>1816</ele>
        <time>2017-02-20T09:10:14Z</time>
      </trkpt>
      <trkpt lat="42.85696" lon="0.25241">
        <ele>1813.4</ele>
        <time>2017-02-20T09:10:19Z</time>
      </trkpt>
      <trkpt lat="42.85694" lon="0.25238">
        <ele>1814</ele>
        <time>2017-02-20T09:10:24Z</time>
      </trkpt>
      <trkpt lat="42.85693" lon="0.25236">
        <ele>1812.2</ele>
        <time>2017-02-20T09:10:29Z</time>
      </trkpt>
      <trkpt lat="42.85692" lon="0.25233">
        <ele>1812.6</ele>
        <time>2017-02-20T09:10:34Z</time>
      </trkpt>
      <trkpt lat="42.85692" lon="0.25232">
        <ele>1813.6</ele>
        <time>2017-02-20T09:10:39Z</time>
      </trkpt>
      <trkpt lat="42.85691" lon="0.25229">
        <ele>1814.8</ele>
        <time>2017-02-20T09:10:44Z</time>
      </trkpt>
      <trkpt lat="42.85689" lon="0.25226">
        <ele>1815.8</ele>
        <time>2017-02-20T09:10:49Z</time>
      </trkpt>
      <trkpt lat="42.85688" lon="0.25223">
        <ele>1816</ele>
        <time>2017-02-20T09:10:54Z</time>
      </trkpt>
      <trkpt lat="42.85687" lon="0.2522">
        <ele>1816.4</ele>
        <time>2017-02-20T09:10:59Z</time>
      </trkpt>
      <trkpt lat="42.85685" lon="0.25218">
        <ele>1820.8</ele>
        <time>2017-02-20T09:11:04Z</time>
      </trkpt>
      <trkpt lat="42.85684" lon="0.25215">
        <ele>1815.8</ele>
        <time>2017-02-20T09:11:09Z</time>
      </trkpt>
      <trkpt lat="42.85683" lon="0.25212">
        <ele>1819.8</ele>
        <time>2017-02-20T09:11:14Z</time>
      </trkpt>
      <trkpt lat="42.85681" lon="0.25208">
        <ele>1819.8</ele>
        <time>2017-02-20T09:11:19Z</time>
      </trkpt>
      <trkpt lat="42.8568" lon="0.25205">
        <ele>1818.8</ele>
        <time>2017-02-20T09:11:24Z</time>
      </trkpt>
      <trkpt lat="42.85678" lon="0.25202">
        <ele>1818.8</ele>
        <time>2017-02-20T09:11:29Z</time>
      </trkpt>
      <trkpt lat="42.85677" lon="0.25199">
        <ele>1819.4</ele>
        <time>2017-02-20T09:11:34Z</time>
      </trkpt>
      <trkpt lat="42.85676" lon="0.25197">
        <ele>1819</ele>
        <time>2017-02-20T09:11:39Z</time>
      </trkpt>
      <trkpt lat="42.85675" lon="0.25194">
        <ele>1823.2</ele>
        <time>2017-02-20T09:11:44Z</time>
      </trkpt>
      <trkpt lat="42.85674" lon="0.25191">
        <ele>1823.2</ele>
        <time>2017-02-20T09:11:49Z</time>
      </trkpt>
      <trkpt lat="42.85673" lon="0.25188">
        <ele>1821.4</ele>
        <time>2017-02-20T09:11:54Z</time>
      </trkpt>
      <trkpt lat="42.85671" lon="0.25185">
        <ele>1821.4</ele>
        <time>2017-02-20T09:11:59Z</time>
      </trkpt>
      <trkpt lat="42.8567" lon="0.25182">
        <ele>1822.6</ele>
        <time>2017-02-20T09:12:04Z</time>
      </trkpt>
      <trkpt lat="42.85668" lon="0.25179">
        <ele>1825.8</ele>
        <time>2017-02-20T09:12:09Z</time>
      </trkpt>
      <trkpt lat="42.85667" lon="0.25176">
        <ele>1825.4</ele>
        <time>2017-02-20T09:12:14Z</time>
      </trkpt>
      <trkpt lat="42.85666" lon="0.25173">
        <ele>1825.2</ele>
        <time>2017-02-20T09:12:19Z</time>
      </trkpt>
      <trkpt lat="42.85665" lon="0.2517">
        <ele>1824</ele>
        <time>2017-02-20T09:12:24Z</time>
      </trkpt>
      <trkpt lat="42.85664" lon="0.25167">
        <ele>1825.6</ele>
        <time>2017-02-20T09:12:29Z</time>
      </trkpt>
      <trkpt lat="42.85662" lon="0.25164">
        <ele>1828.4</ele>
        <time>2017-02-20T09:12:34Z</time>
      </trkpt>
      <trkpt lat="42.85661" lon="0.25161">
        <ele>1827.8</ele>
        <time>2017-02-20T09:12:39Z</time>
      </trkpt>
      <trkpt lat="42.8566" lon="0.25158">
        <ele>1829.8</ele>
        <time>2017-02-20T09:12:44Z</time>
      </trkpt>
      <trkpt lat="42.85659" lon="0.25155">
        <ele>1830.4</ele>
        <time>2017-02-20T09:12:49Z</time>
      </trkpt>
      <trkpt lat="42.85658" lon="0.25152">
        <ele>1830.2</ele>
        <time>2017-02-20T09:12:54Z</time>
      </trkpt>
      <trkpt lat="42.85658" lon="0.25149">
        <ele>1832.6</ele>
        <time>2017-02-20T09:12:59Z</time>
      </trkpt>
      <trkpt lat="42.85657" lon="0.25142">
        <ele>1831.6</ele>
        <time>2017-02-20T09:13:09Z</time>
      </trkpt>
      <trkpt lat="42.85656" lon="0.2514">
        <ele>1835.8</ele>
        <time>2017-02-20T09:13:14Z</time>
      </trkpt>
      <trkpt lat="42.85656" lon="0.25136">
        <ele>1836.2</ele>
        <time>2017-02-20T09:13:19Z</time>
      </trkpt>
      <trkpt lat="42.85656" lon="0.25135">
        <ele>1835.8</ele>
        <time>2017-02-20T09:13:24Z</time>
      </trkpt>
      <trkpt lat="42.85656" lon="0.25134">
        <ele>1833.4</ele>
        <time>2017-02-20T09:13:49Z</time>
      </trkpt>
      <trkpt lat="42.85656" lon="0.25134">
        <ele>1834.2</ele>
        <time>2017-02-20T09:13:59Z</time>
      </trkpt>
      <trkpt lat="42.85656" lon="0.25133">
        <ele>1831.2</ele>
        <time>2017-02-20T09:14:14Z</time>
      </trkpt>
      <trkpt lat="42.85656" lon="0.25133">
        <ele>1833.6</ele>
        <time>2017-02-20T09:14:29Z</time>
      </trkpt>
      <trkpt lat="42.85656" lon="0.25133">
        <ele>1834</ele>
        <time>2017-02-20T09:14:34Z</time>
      </trkpt>
      <trkpt lat="42.85656" lon="0.25133">
        <ele>1834.4</ele>
        <time>2017-02-20T09:14:59Z</time>
      </trkpt>
      <trkpt lat="42.85657" lon="0.25133">
        <ele>1834.4</ele>
        <time>2017-02-20T09:15:24Z</time>
      </trkpt>
      <trkpt lat="42.85657" lon="0.25133">
        <ele>1834.2</ele>
        <time>2017-02-20T09:15:29Z</time>
      </trkpt>
      <trkpt lat="42.85656" lon="0.25134">
        <ele>1832.8</ele>
        <time>2017-02-20T09:15:49Z</time>
      </trkpt>
      <trkpt lat="42.85656" lon="0.25134">
        <ele>1833.2</ele>
        <time>2017-02-20T09:15:54Z</time>
      </trkpt>
      <trkpt lat="42.85656" lon="0.25134">
        <ele>1833.4</ele>
        <time>2017-02-20T09:15:59Z</time>
      </trkpt>
      <trkpt lat="42.85656" lon="0.25134">
        <ele>1833.6</ele>
        <time>2017-02-20T09:16:04Z</time>
      </trkpt>
      <trkpt lat="42.85657" lon="0.25134">
        <ele>1833.6</ele>
        <time>2017-02-20T09:16:09Z</time>
      </trkpt>
      <trkpt lat="42.85658" lon="0.25135">
        <ele>1833.4</ele>
        <time>2017-02-20T09:16:24Z</time>
      </trkpt>
      <trkpt lat="42.85658" lon="0.25135">
        <ele>1834.8</ele>
        <time>2017-02-20T09:17:20Z</time>
      </trkpt>
      <trkpt lat="42.85659" lon="0.25135">
        <ele>1835.2</ele>
        <time>2017-02-20T09:17:25Z</time>
      </trkpt>
      <trkpt lat="42.85659" lon="0.25135">
        <ele>1835.4</ele>
        <time>2017-02-20T09:17:30Z</time>
      </trkpt>
      <trkpt lat="42.8566" lon="0.25136">
        <ele>1835.8</ele>
        <time>2017-02-20T09:17:40Z</time>
      </trkpt>
      <trkpt lat="42.8566" lon="0.25136">
        <ele>1836.2</ele>
        <time>2017-02-20T09:17:45Z</time>
      </trkpt>
      <trkpt lat="42.8566" lon="0.25136">
        <ele>1836.8</ele>
        <time>2017-02-20T09:18:00Z</time>
      </trkpt>
      <trkpt lat="42.8566" lon="0.25136">
        <ele>1837.2</ele>
        <time>2017-02-20T09:18:25Z</time>
      </trkpt>
      <trkpt lat="42.8566" lon="0.25136">
        <ele>1837.4</ele>
        <time>2017-02-20T09:20:26Z</time>
      </trkpt>
      <trkpt lat="42.85661" lon="0.25136">
        <ele>1838.6</ele>
        <time>2017-02-20T09:20:41Z</time>
      </trkpt>
      <trkpt lat="42.85661" lon="0.25137">
        <ele>1838.6</ele>
        <time>2017-02-20T09:20:46Z</time>
      </trkpt>
      <trkpt lat="42.85661" lon="0.25137">
        <ele>1838.4</ele>
        <time>2017-02-20T09:20:51Z</time>
      </trkpt>
      <trkpt lat="42.85662" lon="0.25137">
        <ele>1838.4</ele>
        <time>2017-02-20T09:20:56Z</time>
      </trkpt>
      <trkpt lat="42.85662" lon="0.25138">
        <ele>1838.4</ele>
        <time>2017-02-20T09:21:01Z</time>
      </trkpt>
      <trkpt lat="42.85662" lon="0.25138">
        <ele>1838.6</ele>
        <time>2017-02-20T09:21:06Z</time>
      </trkpt>
      <trkpt lat="42.85662" lon="0.25138">
        <ele>1839.6</ele>
        <time>2017-02-20T09:22:12Z</time>
      </trkpt>
      <trkpt lat="42.85661" lon="0.25134">
        <ele>1841.8</ele>
        <time>2017-02-20T09:22:17Z</time>
      </trkpt>
      <trkpt lat="42.85661" lon="0.25129">
        <ele>1841.8</ele>
        <time>2017-02-20T09:22:22Z</time>
      </trkpt>
      <trkpt lat="42.8566" lon="0.25124">
        <ele>1844.2</ele>
        <time>2017-02-20T09:22:27Z</time>
      </trkpt>
      <trkpt lat="42.8566" lon="0.2512">
        <ele>1841.2</ele>
        <time>2017-02-20T09:22:32Z</time>
      </trkpt>
      <trkpt lat="42.8566" lon="0.25115">
        <ele>1841.4</ele>
        <time>2017-02-20T09:22:37Z</time>
      </trkpt>
      <trkpt lat="42.85659" lon="0.25111">
        <ele>1842.8</ele>
        <time>2017-02-20T09:22:42Z</time>
      </trkpt>
      <trkpt lat="42.85658" lon="0.25106">
        <ele>1842.6</ele>
        <time>2017-02-20T09:22:47Z</time>
      </trkpt>
      <trkpt lat="42.85658" lon="0.25101">
        <ele>1845.4</ele>
        <time>2017-02-20T09:22:53Z</time>
      </trkpt>
      <trkpt lat="42.85657" lon="0.25098">
        <ele>1844.2</ele>
        <time>2017-02-20T09:22:58Z</time>
      </trkpt>
      <trkpt lat="42.85656" lon="0.25094">
        <ele>1847.2</ele>
        <time>2017-02-20T09:23:03Z</time>
      </trkpt>
      <trkpt lat="42.85655" lon="0.2509">
        <ele>1846.4</ele>
        <time>2017-02-20T09:23:08Z</time>
      </trkpt>
      <trkpt lat="42.85653" lon="0.25086">
        <ele>1843.6</ele>
        <time>2017-02-20T09:23:13Z</time>
      </trkpt>
      <trkpt lat="42.85651" lon="0.25083">
        <ele>1845.8</ele>
        <time>2017-02-20T09:23:18Z</time>
      </trkpt>
      <trkpt lat="42.85649" lon="0.2508">
        <ele>1849</ele>
        <time>2017-02-20T09:23:23Z</time>
      </trkpt>
      <trkpt lat="42.85646" lon="0.25078">
        <ele>1847.6</ele>
        <time>2017-02-20T09:23:28Z</time>
      </trkpt>
      <trkpt lat="42.85645" lon="0.25076">
        <ele>1849.8</ele>
        <time>2017-02-20T09:23:33Z</time>
      </trkpt>
      <trkpt lat="42.85645" lon="0.25076">
        <ele>1849.2</ele>
        <time>2017-02-20T09:23:38Z</time>
      </trkpt>
      <trkpt lat="42.85643" lon="0.25074">
        <ele>1847</ele>
        <time>2017-02-20T09:23:48Z</time>
      </trkpt>
      <trkpt lat="42.8564" lon="0.2507">
        <ele>1847</ele>
        <time>2017-02-20T09:23:53Z</time>
      </trkpt>
      <trkpt lat="42.85637" lon="0.25066">
        <ele>1848.2</ele>
        <time>2017-02-20T09:23:58Z</time>
      </trkpt>
      <trkpt lat="42.85634" lon="0.25063">
        <ele>1849.2</ele>
        <time>2017-02-20T09:24:03Z</time>
      </trkpt>
      <trkpt lat="42.85632" lon="0.25058">
        <ele>1848.4</ele>
        <time>2017-02-20T09:24:08Z</time>
      </trkpt>
      <trkpt lat="42.85629" lon="0.25053">
        <ele>1850.2</ele>
        <time>2017-02-20T09:24:13Z</time>
      </trkpt>
      <trkpt lat="42.85626" lon="0.25046">
        <ele>1848</ele>
        <time>2017-02-20T09:24:18Z</time>
      </trkpt>
      <trkpt lat="42.85626" lon="0.25039">
        <ele>1847.4</ele>
        <time>2017-02-20T09:24:23Z</time>
      </trkpt>
      <trkpt lat="42.85626" lon="0.25035">
        <ele>1847</ele>
        <time>2017-02-20T09:24:28Z</time>
      </trkpt>
      <trkpt lat="42.85626" lon="0.25035">
        <ele>1845.6</ele>
        <time>2017-02-20T09:24:33Z</time>
      </trkpt>
      <trkpt lat="42.85626" lon="0.25035">
        <ele>1847.2</ele>
        <time>2017-02-20T09:24:48Z</time>
      </trkpt>
      <trkpt lat="42.85627" lon="0.25031">
        <ele>1848</ele>
        <time>2017-02-20T09:24:58Z</time>
      </trkpt>
      <trkpt lat="42.85628" lon="0.25022">
        <ele>1847.2</ele>
        <time>2017-02-20T09:25:03Z</time>
      </trkpt>
      <trkpt lat="42.85629" lon="0.25015">
        <ele>1845.4</ele>
        <time>2017-02-20T09:25:08Z</time>
      </trkpt>
      <trkpt lat="42.85631" lon="0.25007">
        <ele>1846.8</ele>
        <time>2017-02-20T09:25:13Z</time>
      </trkpt>
      <trkpt lat="42.85632" lon="0.25001">
        <ele>1844.6</ele>
        <time>2017-02-20T09:25:18Z</time>
      </trkpt>
      <trkpt lat="42.85633" lon="0.24994">
        <ele>1848.2</ele>
        <time>2017-02-20T09:25:23Z</time>
      </trkpt>
      <trkpt lat="42.85634" lon="0.24987">
        <ele>1847.6</ele>
        <time>2017-02-20T09:25:28Z</time>
      </trkpt>
      <trkpt lat="42.85635" lon="0.2498">
        <ele>1847.6</ele>
        <time>2017-02-20T09:25:33Z</time>
      </trkpt>
      <trkpt lat="42.85636" lon="0.24974">
        <ele>1846.8</ele>
        <time>2017-02-20T09:25:38Z</time>
      </trkpt>
      <trkpt lat="42.85637" lon="0.24966">
        <ele>1847.2</ele>
        <time>2017-02-20T09:25:44Z</time>
      </trkpt>
      <trkpt lat="42.85638" lon="0.24959">
        <ele>1847</ele>
        <time>2017-02-20T09:25:49Z</time>
      </trkpt>
      <trkpt lat="42.85639" lon="0.24953">
        <ele>1848.6</ele>
        <time>2017-02-20T09:25:54Z</time>
      </trkpt>
      <trkpt lat="42.85639" lon="0.24948">
        <ele>1849.8</ele>
        <time>2017-02-20T09:25:59Z</time>
      </trkpt>
      <trkpt lat="42.85641" lon="0.24941">
        <ele>1847.2</ele>
        <time>2017-02-20T09:26:04Z</time>
      </trkpt>
      <trkpt lat="42.85642" lon="0.24935">
        <ele>1847</ele>
        <time>2017-02-20T09:26:09Z</time>
      </trkpt>
      <trkpt lat="42.85643" lon="0.24928">
        <ele>1849</ele>
        <time>2017-02-20T09:26:14Z</time>
      </trkpt>
      <trkpt lat="42.85644" lon="0.24922">
        <ele>1849</ele>
        <time>2017-02-20T09:26:19Z</time>
      </trkpt>
      <trkpt lat="42.85645" lon="0.24917">
        <ele>1847.2</ele>
        <time>2017-02-20T09:26:24Z</time>
      </trkpt>
      <trkpt lat="42.85647" lon="0.24911">
        <ele>1849.6</ele>
        <time>2017-02-20T09:26:29Z</time>
      </trkpt>
      <trkpt lat="42.85648" lon="0.24906">
        <ele>1850</ele>
        <time>2017-02-20T09:26:34Z</time>
      </trkpt>
      <trkpt lat="42.85649" lon="0.24901">
        <ele>1850.8</ele>
        <time>2017-02-20T09:26:39Z</time>
      </trkpt>
      <trkpt lat="42.8565" lon="0.24896">
        <ele>1849.8</ele>
        <time>2017-02-20T09:26:44Z</time>
      </trkpt>
      <trkpt lat="42.85651" lon="0.24891">
        <ele>1851.4</ele>
        <time>2017-02-20T09:26:50Z</time>
      </trkpt>
      <trkpt lat="42.85651" lon="0.24886">
        <ele>1850.8</ele>
        <time>2017-02-20T09:26:55Z</time>
      </trkpt>
      <trkpt lat="42.85652" lon="0.24882">
        <ele>1852.6</ele>
        <time>2017-02-20T09:27:00Z</time>
      </trkpt>
      <trkpt lat="42.85652" lon="0.24877">
        <ele>1852.6</ele>
        <time>2017-02-20T09:27:05Z</time>
      </trkpt>
      <trkpt lat="42.85651" lon="0.24873">
        <ele>1851.6</ele>
        <time>2017-02-20T09:27:10Z</time>
      </trkpt>
      <trkpt lat="42.85651" lon="0.24868">
        <ele>1854.4</ele>
        <time>2017-02-20T09:27:15Z</time>
      </trkpt>
      <trkpt lat="42.8565" lon="0.24864">
        <ele>1857.2</ele>
        <time>2017-02-20T09:27:20Z</time>
      </trkpt>
      <trkpt lat="42.8565" lon="0.24859">
        <ele>1856.8</ele>
        <time>2017-02-20T09:27:25Z</time>
      </trkpt>
      <trkpt lat="42.85649" lon="0.24855">
        <ele>1857</ele>
        <time>2017-02-20T09:27:30Z</time>
      </trkpt>
      <trkpt lat="42.85648" lon="0.24851">
        <ele>1858.4</ele>
        <time>2017-02-20T09:27:35Z</time>
      </trkpt>
      <trkpt lat="42.85647" lon="0.24845">
        <ele>1858.6</ele>
        <time>2017-02-20T09:27:41Z</time>
      </trkpt>
      <trkpt lat="42.85646" lon="0.2484">
        <ele>1859.6</ele>
        <time>2017-02-20T09:27:46Z</time>
      </trkpt>
      <trkpt lat="42.85645" lon="0.24835">
        <ele>1859.8</ele>
        <time>2017-02-20T09:27:51Z</time>
      </trkpt>
      <trkpt lat="42.85645" lon="0.24829">
        <ele>1858.8</ele>
        <time>2017-02-20T09:27:56Z</time>
      </trkpt>
      <trkpt lat="42.85645" lon="0.24823">
        <ele>1857.8</ele>
        <time>2017-02-20T09:28:01Z</time>
      </trkpt>
      <trkpt lat="42.85645" lon="0.24817">
        <ele>1860</ele>
        <time>2017-02-20T09:28:06Z</time>
      </trkpt>
      <trkpt lat="42.85645" lon="0.24812">
        <ele>1859.8</ele>
        <time>2017-02-20T09:28:11Z</time>
      </trkpt>
      <trkpt lat="42.85646" lon="0.24806">
        <ele>1860.2</ele>
        <time>2017-02-20T09:28:16Z</time>
      </trkpt>
      <trkpt lat="42.85646" lon="0.24801">
        <ele>1858.2</ele>
        <time>2017-02-20T09:28:21Z</time>
      </trkpt>
      <trkpt lat="42.85646" lon="0.24796">
        <ele>1864.4</ele>
        <time>2017-02-20T09:28:26Z</time>
      </trkpt>
      <trkpt lat="42.85646" lon="0.24793">
        <ele>1860</ele>
        <time>2017-02-20T09:28:31Z</time>
      </trkpt>
      <trkpt lat="42.85646" lon="0.24793">
        <ele>1861</ele>
        <time>2017-02-20T09:29:01Z</time>
      </trkpt>
      <trkpt lat="42.85646" lon="0.24793">
        <ele>1861</ele>
        <time>2017-02-20T09:29:21Z</time>
      </trkpt>
      <trkpt lat="42.85646" lon="0.24793">
        <ele>1861</ele>
        <time>2017-02-20T09:29:36Z</time>
      </trkpt>
      <trkpt lat="42.85647" lon="0.24792">
        <ele>1860.2</ele>
        <time>2017-02-20T09:29:41Z</time>
      </trkpt>
      <trkpt lat="42.85647" lon="0.2479">
        <ele>1861.6</ele>
        <time>2017-02-20T09:29:46Z</time>
      </trkpt>
      <trkpt lat="42.85647" lon="0.24785">
        <ele>1860.2</ele>
        <time>2017-02-20T09:29:51Z</time>
      </trkpt>
      <trkpt lat="42.85648" lon="0.24779">
        <ele>1861</ele>
        <time>2017-02-20T09:29:56Z</time>
      </trkpt>
      <trkpt lat="42.85648" lon="0.24774">
        <ele>1863.8</ele>
        <time>2017-02-20T09:30:01Z</time>
      </trkpt>
      <trkpt lat="42.85649" lon="0.24769">
        <ele>1862.6</ele>
        <time>2017-02-20T09:30:06Z</time>
      </trkpt>
      <trkpt lat="42.85649" lon="0.24763">
        <ele>1862.4</ele>
        <time>2017-02-20T09:30:11Z</time>
      </trkpt>
      <trkpt lat="42.8565" lon="0.24758">
        <ele>1864.4</ele>
        <time>2017-02-20T09:30:16Z</time>
      </trkpt>
      <trkpt lat="42.8565" lon="0.24752">
        <ele>1865.8</ele>
        <time>2017-02-20T09:30:21Z</time>
      </trkpt>
      <trkpt lat="42.85651" lon="0.24747">
        <ele>1863.2</ele>
        <time>2017-02-20T09:30:26Z</time>
      </trkpt>
      <trkpt lat="42.85651" lon="0.24742">
        <ele>1861.4</ele>
        <time>2017-02-20T09:30:31Z</time>
      </trkpt>
      <trkpt lat="42.85651" lon="0.24737">
        <ele>1861.4</ele>
        <time>2017-02-20T09:30:36Z</time>
      </trkpt>
      <trkpt lat="42.85652" lon="0.2473">
        <ele>1863.4</ele>
        <time>2017-02-20T09:30:42Z</time>
      </trkpt>
      <trkpt lat="42.85652" lon="0.24725">
        <ele>1863.8</ele>
        <time>2017-02-20T09:30:47Z</time>
      </trkpt>
      <trkpt lat="42.85653" lon="0.24719">
        <ele>1862.4</ele>
        <time>2017-02-20T09:30:52Z</time>
      </trkpt>
      <trkpt lat="42.85653" lon="0.24713">
        <ele>1862.6</ele>
        <time>2017-02-20T09:30:57Z</time>
      </trkpt>
      <trkpt lat="42.85653" lon="0.24707">
        <ele>1865.6</ele>
        <time>2017-02-20T09:31:02Z</time>
      </trkpt>
      <trkpt lat="42.85654" lon="0.24701">
        <ele>1866.2</ele>
        <time>2017-02-20T09:31:07Z</time>
      </trkpt>
      <trkpt lat="42.85654" lon="0.24694">
        <ele>1865</ele>
        <time>2017-02-20T09:31:12Z</time>
      </trkpt>
      <trkpt lat="42.85654" lon="0.24683">
        <ele>1864.8</ele>
        <time>2017-02-20T09:31:22Z</time>
      </trkpt>
      <trkpt lat="42.85655" lon="0.2468">
        <ele>1867.2</ele>
        <time>2017-02-20T09:31:27Z</time>
      </trkpt>
      <trkpt lat="42.85656" lon="0.24679">
        <ele>1865.6</ele>
        <time>2017-02-20T09:31:32Z</time>
      </trkpt>
      <trkpt lat="42.85656" lon="0.24677">
        <ele>1870</ele>
        <time>2017-02-20T09:31:42Z</time>
      </trkpt>
      <trkpt lat="42.85656" lon="0.24672">
        <ele>1871.2</ele>
        <time>2017-02-20T09:31:47Z</time>
      </trkpt>
      <trkpt lat="42.85657" lon="0.24667">
        <ele>1867.8</ele>
        <time>2017-02-20T09:31:52Z</time>
      </trkpt>
      <trkpt lat="42.85658" lon="0.24663">
        <ele>1868.4</ele>
        <time>2017-02-20T09:31:57Z</time>
      </trkpt>
      <trkpt lat="42.85658" lon="0.24659">
        <ele>1869.2</ele>
        <time>2017-02-20T09:32:02Z</time>
      </trkpt>
      <trkpt lat="42.85659" lon="0.24654">
        <ele>1871.2</ele>
        <time>2017-02-20T09:32:07Z</time>
      </trkpt>
      <trkpt lat="42.8566" lon="0.2465">
        <ele>1872.2</ele>
        <time>2017-02-20T09:32:12Z</time>
      </trkpt>
      <trkpt lat="42.8566" lon="0.24646">
        <ele>1871.8</ele>
        <time>2017-02-20T09:32:17Z</time>
      </trkpt>
      <trkpt lat="42.85661" lon="0.24642">
        <ele>1871.6</ele>
        <time>2017-02-20T09:32:22Z</time>
      </trkpt>
      <trkpt lat="42.85662" lon="0.24638">
        <ele>1873.4</ele>
        <time>2017-02-20T09:32:27Z</time>
      </trkpt>
      <trkpt lat="42.85663" lon="0.24634">
        <ele>1873</ele>
        <time>2017-02-20T09:32:32Z</time>
      </trkpt>
      <trkpt lat="42.85664" lon="0.2463">
        <ele>1875.2</ele>
        <time>2017-02-20T09:32:37Z</time>
      </trkpt>
      <trkpt lat="42.85665" lon="0.24627">
        <ele>1873.8</ele>
        <time>2017-02-20T09:32:42Z</time>
      </trkpt>
      <trkpt lat="42.85666" lon="0.24623">
        <ele>1876.8</ele>
        <time>2017-02-20T09:32:47Z</time>
      </trkpt>
      <trkpt lat="42.85667" lon="0.2462">
        <ele>1880.2</ele>
        <time>2017-02-20T09:32:52Z</time>
      </trkpt>
      <trkpt lat="42.85668" lon="0.24617">
        <ele>1880.4</ele>
        <time>2017-02-20T09:32:57Z</time>
      </trkpt>
      <trkpt lat="42.85669" lon="0.24613">
        <ele>1876.8</ele>
        <time>2017-02-20T09:33:02Z</time>
      </trkpt>
      <trkpt lat="42.8567" lon="0.2461">
        <ele>1881.6</ele>
        <time>2017-02-20T09:33:07Z</time>
      </trkpt>
      <trkpt lat="42.85672" lon="0.24607">
        <ele>1880.6</ele>
        <time>2017-02-20T09:33:12Z</time>
      </trkpt>
      <trkpt lat="42.85673" lon="0.24603">
        <ele>1879.4</ele>
        <time>2017-02-20T09:33:18Z</time>
      </trkpt>
      <trkpt lat="42.85675" lon="0.246">
        <ele>1880.2</ele>
        <time>2017-02-20T09:33:23Z</time>
      </trkpt>
      <trkpt lat="42.85676" lon="0.24598">
        <ele>1881.8</ele>
        <time>2017-02-20T09:33:28Z</time>
      </trkpt>
      <trkpt lat="42.85678" lon="0.24595">
        <ele>1881.4</ele>
        <time>2017-02-20T09:33:33Z</time>
      </trkpt>
      <trkpt lat="42.85679" lon="0.24592">
        <ele>1880</ele>
        <time>2017-02-20T09:33:38Z</time>
      </trkpt>
      <trkpt lat="42.85679" lon="0.24589">
        <ele>1882.2</ele>
        <time>2017-02-20T09:33:43Z</time>
      </trkpt>
      <trkpt lat="42.85681" lon="0.24586">
        <ele>1881</ele>
        <time>2017-02-20T09:33:48Z</time>
      </trkpt>
      <trkpt lat="42.85682" lon="0.24583">
        <ele>1884.8</ele>
        <time>2017-02-20T09:33:53Z</time>
      </trkpt>
      <trkpt lat="42.85684" lon="0.24581">
        <ele>1885.6</ele>
        <time>2017-02-20T09:33:58Z</time>
      </trkpt>
      <trkpt lat="42.85686" lon="0.24578">
        <ele>1885</ele>
        <time>2017-02-20T09:34:03Z</time>
      </trkpt>
      <trkpt lat="42.85687" lon="0.24575">
        <ele>1885.4</ele>
        <time>2017-02-20T09:34:08Z</time>
      </trkpt>
      <trkpt lat="42.85688" lon="0.24573">
        <ele>1885.2</ele>
        <time>2017-02-20T09:34:13Z</time>
      </trkpt>
      <trkpt lat="42.8569" lon="0.24571">
        <ele>1888.2</ele>
        <time>2017-02-20T09:34:18Z</time>
      </trkpt>
      <trkpt lat="42.85691" lon="0.24569">
        <ele>1887</ele>
        <time>2017-02-20T09:34:23Z</time>
      </trkpt>
      <trkpt lat="42.85693" lon="0.24567">
        <ele>1887.6</ele>
        <time>2017-02-20T09:34:28Z</time>
      </trkpt>
      <trkpt lat="42.85695" lon="0.24565">
        <ele>1887.4</ele>
        <time>2017-02-20T09:34:33Z</time>
      </trkpt>
      <trkpt lat="42.85697" lon="0.24563">
        <ele>1888.8</ele>
        <time>2017-02-20T09:34:38Z</time>
      </trkpt>
      <trkpt lat="42.85699" lon="0.24561">
        <ele>1889.2</ele>
        <time>2017-02-20T09:34:43Z</time>
      </trkpt>
      <trkpt lat="42.85701" lon="0.24559">
        <ele>1890.2</ele>
        <time>2017-02-20T09:34:48Z</time>
      </trkpt>
      <trkpt lat="42.85702" lon="0.24557">
        <ele>1890.2</ele>
        <time>2017-02-20T09:34:53Z</time>
      </trkpt>
      <trkpt lat="42.85701" lon="0.24554">
        <ele>1890.6</ele>
        <time>2017-02-20T09:34:58Z</time>
      </trkpt>
      <trkpt lat="42.85699" lon="0.24552">
        <ele>1889.8</ele>
        <time>2017-02-20T09:35:03Z</time>
      </trkpt>
      <trkpt lat="42.85698" lon="0.24549">
        <ele>1890.4</ele>
        <time>2017-02-20T09:35:08Z</time>
      </trkpt>
      <trkpt lat="42.85697" lon="0.24546">
        <ele>1891.8</ele>
        <time>2017-02-20T09:35:13Z</time>
      </trkpt>
      <trkpt lat="42.85698" lon="0.24543">
        <ele>1892</ele>
        <time>2017-02-20T09:35:18Z</time>
      </trkpt>
      <trkpt lat="42.85699" lon="0.24541">
        <ele>1891.6</ele>
        <time>2017-02-20T09:35:23Z</time>
      </trkpt>
      <trkpt lat="42.857" lon="0.24539">
        <ele>1891.8</ele>
        <time>2017-02-20T09:35:28Z</time>
      </trkpt>
      <trkpt lat="42.857" lon="0.24537">
        <ele>1891.6</ele>
        <time>2017-02-20T09:35:33Z</time>
      </trkpt>
      <trkpt lat="42.85701" lon="0.24534">
        <ele>1894.4</ele>
        <time>2017-02-20T09:35:38Z</time>
      </trkpt>
      <trkpt lat="42.85702" lon="0.24531">
        <ele>1896</ele>
        <time>2017-02-20T09:35:43Z</time>
      </trkpt>
      <trkpt lat="42.85703" lon="0.24528">
        <ele>1893</ele>
        <time>2017-02-20T09:35:48Z</time>
      </trkpt>
      <trkpt lat="42.85704" lon="0.24525">
        <ele>1894.2</ele>
        <time>2017-02-20T09:35:53Z</time>
      </trkpt>
      <trkpt lat="42.85705" lon="0.24523">
        <ele>1895.4</ele>
        <time>2017-02-20T09:35:58Z</time>
      </trkpt>
      <trkpt lat="42.85707" lon="0.2452">
        <ele>1898.2</ele>
        <time>2017-02-20T09:36:03Z</time>
      </trkpt>
      <trkpt lat="42.85707" lon="0.24517">
        <ele>1897.6</ele>
        <time>2017-02-20T09:36:08Z</time>
      </trkpt>
      <trkpt lat="42.85707" lon="0.24514">
        <ele>1896.2</ele>
        <time>2017-02-20T09:36:13Z</time>
      </trkpt>
      <trkpt lat="42.85707" lon="0.2451">
        <ele>1897.8</ele>
        <time>2017-02-20T09:36:18Z</time>
      </trkpt>
      <trkpt lat="42.85705" lon="0.24508">
        <ele>1901</ele>
        <time>2017-02-20T09:36:23Z</time>
      </trkpt>
      <trkpt lat="42.85704" lon="0.24506">
        <ele>1899.8</ele>
        <time>2017-02-20T09:36:28Z</time>
      </trkpt>
      <trkpt lat="42.85702" lon="0.24503">
        <ele>1898</ele>
        <time>2017-02-20T09:36:33Z</time>
      </trkpt>
      <trkpt lat="42.857" lon="0.245">
        <ele>1899.2</ele>
        <time>2017-02-20T09:36:39Z</time>
      </trkpt>
      <trkpt lat="42.85698" lon="0.24498">
        <ele>1900</ele>
        <time>2017-02-20T09:36:44Z</time>
      </trkpt>
      <trkpt lat="42.85697" lon="0.24495">
        <ele>1902.4</ele>
        <time>2017-02-20T09:36:49Z</time>
      </trkpt>
      <trkpt lat="42.85695" lon="0.24492">
        <ele>1904.2</ele>
        <time>2017-02-20T09:36:54Z</time>
      </trkpt>
      <trkpt lat="42.85694" lon="0.24489">
        <ele>1900.8</ele>
        <time>2017-02-20T09:36:59Z</time>
      </trkpt>
      <trkpt lat="42.85695" lon="0.24487">
        <ele>1903</ele>
        <time>2017-02-20T09:37:04Z</time>
      </trkpt>
      <trkpt lat="42.85697" lon="0.24487">
        <ele>1903.6</ele>
        <time>2017-02-20T09:37:09Z</time>
      </trkpt>
      <trkpt lat="42.85699" lon="0.24486">
        <ele>1904</ele>
        <time>2017-02-20T09:37:14Z</time>
      </trkpt>
      <trkpt lat="42.85701" lon="0.24484">
        <ele>1904.2</ele>
        <time>2017-02-20T09:37:19Z</time>
      </trkpt>
      <trkpt lat="42.85702" lon="0.24483">
        <ele>1904</ele>
        <time>2017-02-20T09:37:24Z</time>
      </trkpt>
      <trkpt lat="42.85704" lon="0.24481">
        <ele>1905.6</ele>
        <time>2017-02-20T09:37:29Z</time>
      </trkpt>
      <trkpt lat="42.85705" lon="0.24479">
        <ele>1904.8</ele>
        <time>2017-02-20T09:37:34Z</time>
      </trkpt>
      <trkpt lat="42.85705" lon="0.24475">
        <ele>1908</ele>
        <time>2017-02-20T09:37:40Z</time>
      </trkpt>
      <trkpt lat="42.85705" lon="0.24472">
        <ele>1908.4</ele>
        <time>2017-02-20T09:37:45Z</time>
      </trkpt>
      <trkpt lat="42.85706" lon="0.2447">
        <ele>1909.8</ele>
        <time>2017-02-20T09:37:50Z</time>
      </trkpt>
      <trkpt lat="42.85707" lon="0.24467">
        <ele>1909.4</ele>
        <time>2017-02-20T09:37:55Z</time>
      </trkpt>
      <trkpt lat="42.85707" lon="0.24464">
        <ele>1909.2</ele>
        <time>2017-02-20T09:38:00Z</time>
      </trkpt>
      <trkpt lat="42.85709" lon="0.24462">
        <ele>1913.4</ele>
        <time>2017-02-20T09:38:05Z</time>
      </trkpt>
      <trkpt lat="42.8571" lon="0.2446">
        <ele>1914.2</ele>
        <time>2017-02-20T09:38:10Z</time>
      </trkpt>
      <trkpt lat="42.8571" lon="0.24458">
        <ele>1916.4</ele>
        <time>2017-02-20T09:38:15Z</time>
      </trkpt>
      <trkpt lat="42.85711" lon="0.24455">
        <ele>1916</ele>
        <time>2017-02-20T09:38:20Z</time>
      </trkpt>
      <trkpt lat="42.85712" lon="0.24454">
        <ele>1916.6</ele>
        <time>2017-02-20T09:38:25Z</time>
      </trkpt>
      <trkpt lat="42.85713" lon="0.2445">
        <ele>1916.4</ele>
        <time>2017-02-20T09:38:30Z</time>
      </trkpt>
      <trkpt lat="42.85714" lon="0.24447">
        <ele>1917.2</ele>
        <time>2017-02-20T09:38:35Z</time>
      </trkpt>
      <trkpt lat="42.85714" lon="0.24444">
        <ele>1919.4</ele>
        <time>2017-02-20T09:38:40Z</time>
      </trkpt>
      <trkpt lat="42.85716" lon="0.2444">
        <ele>1919</ele>
        <time>2017-02-20T09:38:46Z</time>
      </trkpt>
      <trkpt lat="42.85717" lon="0.24437">
        <ele>1919</ele>
        <time>2017-02-20T09:38:51Z</time>
      </trkpt>
      <trkpt lat="42.85717" lon="0.24435">
        <ele>1920</ele>
        <time>2017-02-20T09:38:56Z</time>
      </trkpt>
      <trkpt lat="42.85718" lon="0.24432">
        <ele>1921.8</ele>
        <time>2017-02-20T09:39:01Z</time>
      </trkpt>
      <trkpt lat="42.85719" lon="0.2443">
        <ele>1920.6</ele>
        <time>2017-02-20T09:39:06Z</time>
      </trkpt>
      <trkpt lat="42.85719" lon="0.24427">
        <ele>1923.2</ele>
        <time>2017-02-20T09:39:11Z</time>
      </trkpt>
      <trkpt lat="42.8572" lon="0.24424">
        <ele>1923.6</ele>
        <time>2017-02-20T09:39:16Z</time>
      </trkpt>
      <trkpt lat="42.8572" lon="0.24421">
        <ele>1924.6</ele>
        <time>2017-02-20T09:39:21Z</time>
      </trkpt>
      <trkpt lat="42.8572" lon="0.24416">
        <ele>1926.6</ele>
        <time>2017-02-20T09:39:31Z</time>
      </trkpt>
      <trkpt lat="42.8572" lon="0.24414">
        <ele>1927.2</ele>
        <time>2017-02-20T09:39:36Z</time>
      </trkpt>
      <trkpt lat="42.8572" lon="0.24411">
        <ele>1925.6</ele>
        <time>2017-02-20T09:39:41Z</time>
      </trkpt>
      <trkpt lat="42.8572" lon="0.24409">
        <ele>1925.2</ele>
        <time>2017-02-20T09:39:46Z</time>
      </trkpt>
      <trkpt lat="42.8572" lon="0.24406">
        <ele>1924</ele>
        <time>2017-02-20T09:39:51Z</time>
      </trkpt>
      <trkpt lat="42.85721" lon="0.24403">
        <ele>1926</ele>
        <time>2017-02-20T09:39:56Z</time>
      </trkpt>
      <trkpt lat="42.85721" lon="0.244">
        <ele>1929.4</ele>
        <time>2017-02-20T09:40:01Z</time>
      </trkpt>
      <trkpt lat="42.85721" lon="0.24393">
        <ele>1926.2</ele>
        <time>2017-02-20T09:40:11Z</time>
      </trkpt>
      <trkpt lat="42.85721" lon="0.2439">
        <ele>1929.8</ele>
        <time>2017-02-20T09:40:16Z</time>
      </trkpt>
      <trkpt lat="42.85721" lon="0.24386">
        <ele>1928.6</ele>
        <time>2017-02-20T09:40:21Z</time>
      </trkpt>
      <trkpt lat="42.85722" lon="0.24383">
        <ele>1933</ele>
        <time>2017-02-20T09:40:26Z</time>
      </trkpt>
      <trkpt lat="42.85722" lon="0.24381">
        <ele>1932</ele>
        <time>2017-02-20T09:40:31Z</time>
      </trkpt>
      <trkpt lat="42.85722" lon="0.24378">
        <ele>1934.6</ele>
        <time>2017-02-20T09:40:36Z</time>
      </trkpt>
      <trkpt lat="42.85722" lon="0.24372">
        <ele>1930</ele>
        <time>2017-02-20T09:40:46Z</time>
      </trkpt>
      <trkpt lat="42.85723" lon="0.24369">
        <ele>1935.2</ele>
        <time>2017-02-20T09:40:51Z</time>
      </trkpt>
      <trkpt lat="42.85725" lon="0.24367">
        <ele>1933.4</ele>
        <time>2017-02-20T09:40:56Z</time>
      </trkpt>
      <trkpt lat="42.85726" lon="0.24365">
        <ele>1931.2</ele>
        <time>2017-02-20T09:41:01Z</time>
      </trkpt>
      <trkpt lat="42.85728" lon="0.24363">
        <ele>1935.2</ele>
        <time>2017-02-20T09:41:06Z</time>
      </trkpt>
      <trkpt lat="42.85729" lon="0.24361">
        <ele>1933.8</ele>
        <time>2017-02-20T09:41:11Z</time>
      </trkpt>
      <trkpt lat="42.85731" lon="0.24359">
        <ele>1936.8</ele>
        <time>2017-02-20T09:41:16Z</time>
      </trkpt>
      <trkpt lat="42.85732" lon="0.24357">
        <ele>1938.4</ele>
        <time>2017-02-20T09:41:21Z</time>
      </trkpt>
      <trkpt lat="42.85734" lon="0.24355">
        <ele>1934.8</ele>
        <time>2017-02-20T09:41:26Z</time>
      </trkpt>
      <trkpt lat="42.85736" lon="0.24354">
        <ele>1935.2</ele>
        <time>2017-02-20T09:41:31Z</time>
      </trkpt>
      <trkpt lat="42.85737" lon="0.24352">
        <ele>1936.2</ele>
        <time>2017-02-20T09:41:36Z</time>
      </trkpt>
      <trkpt lat="42.8574" lon="0.2435">
        <ele>1934.8</ele>
        <time>2017-02-20T09:41:42Z</time>
      </trkpt>
      <trkpt lat="42.85739" lon="0.24348">
        <ele>1935.4</ele>
        <time>2017-02-20T09:41:47Z</time>
      </trkpt>
      <trkpt lat="42.85737" lon="0.24346">
        <ele>1938.8</ele>
        <time>2017-02-20T09:41:52Z</time>
      </trkpt>
      <trkpt lat="42.85736" lon="0.24344">
        <ele>1935.8</ele>
        <time>2017-02-20T09:41:57Z</time>
      </trkpt>
      <trkpt lat="42.85735" lon="0.24341">
        <ele>1938</ele>
        <time>2017-02-20T09:42:02Z</time>
      </trkpt>
      <trkpt lat="42.85733" lon="0.24339">
        <ele>1941.8</ele>
        <time>2017-02-20T09:42:07Z</time>
      </trkpt>
      <trkpt lat="42.85732" lon="0.24336">
        <ele>1941.6</ele>
        <time>2017-02-20T09:42:12Z</time>
      </trkpt>
      <trkpt lat="42.85731" lon="0.24333">
        <ele>1940.6</ele>
        <time>2017-02-20T09:42:17Z</time>
      </trkpt>
      <trkpt lat="42.8573" lon="0.24331">
        <ele>1943.2</ele>
        <time>2017-02-20T09:42:22Z</time>
      </trkpt>
      <trkpt lat="42.85728" lon="0.24329">
        <ele>1941.2</ele>
        <time>2017-02-20T09:42:27Z</time>
      </trkpt>
      <trkpt lat="42.85727" lon="0.24326">
        <ele>1941.6</ele>
        <time>2017-02-20T09:42:32Z</time>
      </trkpt>
      <trkpt lat="42.85726" lon="0.24325">
        <ele>1939.2</ele>
        <time>2017-02-20T09:42:37Z</time>
      </trkpt>
      <trkpt lat="42.85725" lon="0.24323">
        <ele>1942.2</ele>
        <time>2017-02-20T09:42:42Z</time>
      </trkpt>
      <trkpt lat="42.85723" lon="0.24322">
        <ele>1945.6</ele>
        <time>2017-02-20T09:42:47Z</time>
      </trkpt>
      <trkpt lat="42.85722" lon="0.2432">
        <ele>1945.8</ele>
        <time>2017-02-20T09:42:52Z</time>
      </trkpt>
      <trkpt lat="42.8572" lon="0.24318">
        <ele>1947.2</ele>
        <time>2017-02-20T09:42:57Z</time>
      </trkpt>
      <trkpt lat="42.85718" lon="0.24317">
        <ele>1945.6</ele>
        <time>2017-02-20T09:43:02Z</time>
      </trkpt>
      <trkpt lat="42.85716" lon="0.24315">
        <ele>1949.4</ele>
        <time>2017-02-20T09:43:07Z</time>
      </trkpt>
      <trkpt lat="42.85715" lon="0.24314">
        <ele>1950</ele>
        <time>2017-02-20T09:43:12Z</time>
      </trkpt>
      <trkpt lat="42.85713" lon="0.24313">
        <ele>1951.6</ele>
        <time>2017-02-20T09:43:17Z</time>
      </trkpt>
      <trkpt lat="42.85711" lon="0.24312">
        <ele>1949.2</ele>
        <time>2017-02-20T09:43:22Z</time>
      </trkpt>
      <trkpt lat="42.85709" lon="0.2431">
        <ele>1948.6</ele>
        <time>2017-02-20T09:43:27Z</time>
      </trkpt>
      <trkpt lat="42.85707" lon="0.24309">
        <ele>1947.6</ele>
        <time>2017-02-20T09:43:32Z</time>
      </trkpt>
      <trkpt lat="42.85705" lon="0.24308">
        <ele>1952.4</ele>
        <time>2017-02-20T09:43:37Z</time>
      </trkpt>
      <trkpt lat="42.85703" lon="0.24307">
        <ele>1951.6</ele>
        <time>2017-02-20T09:43:42Z</time>
      </trkpt>
      <trkpt lat="42.85702" lon="0.24307">
        <ele>1949.2</ele>
        <time>2017-02-20T09:43:47Z</time>
      </trkpt>
      <trkpt lat="42.85701" lon="0.24305">
        <ele>1953.6</ele>
        <time>2017-02-20T09:43:52Z</time>
      </trkpt>
      <trkpt lat="42.85699" lon="0.24304">
        <ele>1953.2</ele>
        <time>2017-02-20T09:43:57Z</time>
      </trkpt>
      <trkpt lat="42.85698" lon="0.24302">
        <ele>1956.2</ele>
        <time>2017-02-20T09:44:02Z</time>
      </trkpt>
      <trkpt lat="42.85697" lon="0.243">
        <ele>1957.4</ele>
        <time>2017-02-20T09:44:07Z</time>
      </trkpt>
      <trkpt lat="42.85695" lon="0.24298">
        <ele>1957.4</ele>
        <time>2017-02-20T09:44:12Z</time>
      </trkpt>
      <trkpt lat="42.85694" lon="0.24296">
        <ele>1961</ele>
        <time>2017-02-20T09:44:17Z</time>
      </trkpt>
      <trkpt lat="42.85692" lon="0.24294">
        <ele>1958.4</ele>
        <time>2017-02-20T09:44:22Z</time>
      </trkpt>
      <trkpt lat="42.85691" lon="0.24292">
        <ele>1959.2</ele>
        <time>2017-02-20T09:44:27Z</time>
      </trkpt>
      <trkpt lat="42.8569" lon="0.2429">
        <ele>1959.2</ele>
        <time>2017-02-20T09:44:32Z</time>
      </trkpt>
      <trkpt lat="42.85689" lon="0.24288">
        <ele>1961.4</ele>
        <time>2017-02-20T09:44:37Z</time>
      </trkpt>
      <trkpt lat="42.85688" lon="0.24286">
        <ele>1961.6</ele>
        <time>2017-02-20T09:44:42Z</time>
      </trkpt>
      <trkpt lat="42.85687" lon="0.24283">
        <ele>1961.8</ele>
        <time>2017-02-20T09:44:47Z</time>
      </trkpt>
      <trkpt lat="42.85686" lon="0.2428">
        <ele>1963.8</ele>
        <time>2017-02-20T09:44:52Z</time>
      </trkpt>
      <trkpt lat="42.85685" lon="0.24278">
        <ele>1961.6</ele>
        <time>2017-02-20T09:44:57Z</time>
      </trkpt>
      <trkpt lat="42.85683" lon="0.24277">
        <ele>1963</ele>
        <time>2017-02-20T09:45:02Z</time>
      </trkpt>
      <trkpt lat="42.85679" lon="0.24277">
        <ele>1961.8</ele>
        <time>2017-02-20T09:45:12Z</time>
      </trkpt>
      <trkpt lat="42.85676" lon="0.24277">
        <ele>1964.4</ele>
        <time>2017-02-20T09:45:18Z</time>
      </trkpt>
      <trkpt lat="42.85674" lon="0.24277">
        <ele>1965.8</ele>
        <time>2017-02-20T09:45:23Z</time>
      </trkpt>
      <trkpt lat="42.85671" lon="0.24278">
        <ele>1966.6</ele>
        <time>2017-02-20T09:45:28Z</time>
      </trkpt>
      <trkpt lat="42.85669" lon="0.24278">
        <ele>1966.6</ele>
        <time>2017-02-20T09:45:33Z</time>
      </trkpt>
      <trkpt lat="42.85667" lon="0.24278">
        <ele>1968</ele>
        <time>2017-02-20T09:45:38Z</time>
      </trkpt>
      <trkpt lat="42.85665" lon="0.24277">
        <ele>1970.8</ele>
        <time>2017-02-20T09:45:43Z</time>
      </trkpt>
      <trkpt lat="42.85662" lon="0.24277">
        <ele>1968.6</ele>
        <time>2017-02-20T09:45:48Z</time>
      </trkpt>
      <trkpt lat="42.8566" lon="0.24276">
        <ele>1968.8</ele>
        <time>2017-02-20T09:45:53Z</time>
      </trkpt>
      <trkpt lat="42.85658" lon="0.24275">
        <ele>1972.8</ele>
        <time>2017-02-20T09:45:58Z</time>
      </trkpt>
      <trkpt lat="42.85656" lon="0.24273">
        <ele>1971</ele>
        <time>2017-02-20T09:46:03Z</time>
      </trkpt>
      <trkpt lat="42.85655" lon="0.24271">
        <ele>1969</ele>
        <time>2017-02-20T09:46:08Z</time>
      </trkpt>
      <trkpt lat="42.85653" lon="0.24269">
        <ele>1968.6</ele>
        <time>2017-02-20T09:46:13Z</time>
      </trkpt>
      <trkpt lat="42.85652" lon="0.24267">
        <ele>1972.2</ele>
        <time>2017-02-20T09:46:18Z</time>
      </trkpt>
      <trkpt lat="42.8565" lon="0.24264">
        <ele>1974.2</ele>
        <time>2017-02-20T09:46:23Z</time>
      </trkpt>
      <trkpt lat="42.85649" lon="0.24262">
        <ele>1974.6</ele>
        <time>2017-02-20T09:46:28Z</time>
      </trkpt>
      <trkpt lat="42.85648" lon="0.24259">
        <ele>1974.8</ele>
        <time>2017-02-20T09:46:33Z</time>
      </trkpt>
      <trkpt lat="42.85647" lon="0.24256">
        <ele>1975.8</ele>
        <time>2017-02-20T09:46:38Z</time>
      </trkpt>
      <trkpt lat="42.85646" lon="0.24254">
        <ele>1980.6</ele>
        <time>2017-02-20T09:46:43Z</time>
      </trkpt>
      <trkpt lat="42.85645" lon="0.24251">
        <ele>1979.8</ele>
        <time>2017-02-20T09:46:48Z</time>
      </trkpt>
      <trkpt lat="42.85644" lon="0.24248">
        <ele>1980.4</ele>
        <time>2017-02-20T09:46:53Z</time>
      </trkpt>
      <trkpt lat="42.85643" lon="0.24245">
        <ele>1982.4</ele>
        <time>2017-02-20T09:46:58Z</time>
      </trkpt>
      <trkpt lat="42.85643" lon="0.24242">
        <ele>1978.2</ele>
        <time>2017-02-20T09:47:03Z</time>
      </trkpt>
      <trkpt lat="42.85642" lon="0.2424">
        <ele>1984</ele>
        <time>2017-02-20T09:47:08Z</time>
      </trkpt>
      <trkpt lat="42.85641" lon="0.24237">
        <ele>1984.4</ele>
        <time>2017-02-20T09:47:14Z</time>
      </trkpt>
      <trkpt lat="42.8564" lon="0.24234">
        <ele>1986</ele>
        <time>2017-02-20T09:47:19Z</time>
      </trkpt>
      <trkpt lat="42.85639" lon="0.24231">
        <ele>1987.6</ele>
        <time>2017-02-20T09:47:24Z</time>
      </trkpt>
      <trkpt lat="42.85637" lon="0.24229">
        <ele>1988.2</ele>
        <time>2017-02-20T09:47:29Z</time>
      </trkpt>
      <trkpt lat="42.85636" lon="0.24226">
        <ele>1988.6</ele>
        <time>2017-02-20T09:47:34Z</time>
      </trkpt>
      <trkpt lat="42.85634" lon="0.24224">
        <ele>1990.6</ele>
        <time>2017-02-20T09:47:39Z</time>
      </trkpt>
      <trkpt lat="42.85632" lon="0.24222">
        <ele>1989.6</ele>
        <time>2017-02-20T09:47:44Z</time>
      </trkpt>
      <trkpt lat="42.85631" lon="0.2422">
        <ele>1988.8</ele>
        <time>2017-02-20T09:47:49Z</time>
      </trkpt>
      <trkpt lat="42.85629" lon="0.24218">
        <ele>1987.8</ele>
        <time>2017-02-20T09:47:54Z</time>
      </trkpt>
      <trkpt lat="42.85628" lon="0.24216">
        <ele>1991.4</ele>
        <time>2017-02-20T09:47:59Z</time>
      </trkpt>
      <trkpt lat="42.85626" lon="0.24214">
        <ele>1990.6</ele>
        <time>2017-02-20T09:48:05Z</time>
      </trkpt>
      <trkpt lat="42.85624" lon="0.24211">
        <ele>1993.8</ele>
        <time>2017-02-20T09:48:10Z</time>
      </trkpt>
      <trkpt lat="42.85623" lon="0.24208">
        <ele>1992.4</ele>
        <time>2017-02-20T09:48:15Z</time>
      </trkpt>
      <trkpt lat="42.85622" lon="0.24206">
        <ele>1995</ele>
        <time>2017-02-20T09:48:20Z</time>
      </trkpt>
      <trkpt lat="42.85621" lon="0.24203">
        <ele>1992.8</ele>
        <time>2017-02-20T09:48:25Z</time>
      </trkpt>
      <trkpt lat="42.85621" lon="0.242">
        <ele>1993</ele>
        <time>2017-02-20T09:48:30Z</time>
      </trkpt>
      <trkpt lat="42.8562" lon="0.24197">
        <ele>1992.4</ele>
        <time>2017-02-20T09:48:35Z</time>
      </trkpt>
      <trkpt lat="42.8562" lon="0.24194">
        <ele>1991.6</ele>
        <time>2017-02-20T09:48:40Z</time>
      </trkpt>
      <trkpt lat="42.8562" lon="0.24191">
        <ele>1995.2</ele>
        <time>2017-02-20T09:48:45Z</time>
      </trkpt>
      <trkpt lat="42.85621" lon="0.24188">
        <ele>1992.8</ele>
        <time>2017-02-20T09:48:50Z</time>
      </trkpt>
      <trkpt lat="42.85621" lon="0.24186">
        <ele>1992</ele>
        <time>2017-02-20T09:48:55Z</time>
      </trkpt>
      <trkpt lat="42.85621" lon="0.24183">
        <ele>1995</ele>
        <time>2017-02-20T09:49:00Z</time>
      </trkpt>
      <trkpt lat="42.85622" lon="0.24172">
        <ele>2000.6</ele>
        <time>2017-02-20T09:49:20Z</time>
      </trkpt>
      <trkpt lat="42.85622" lon="0.24169">
        <ele>2003</ele>
        <time>2017-02-20T09:49:25Z</time>
      </trkpt>
      <trkpt lat="42.85622" lon="0.24166">
        <ele>2002</ele>
        <time>2017-02-20T09:49:30Z</time>
      </trkpt>
      <trkpt lat="42.85623" lon="0.24163">
        <ele>2002</ele>
        <time>2017-02-20T09:49:35Z</time>
      </trkpt>
      <trkpt lat="42.85623" lon="0.2416">
        <ele>2003.2</ele>
        <time>2017-02-20T09:49:40Z</time>
      </trkpt>
      <trkpt lat="42.85623" lon="0.24157">
        <ele>2007.2</ele>
        <time>2017-02-20T09:49:45Z</time>
      </trkpt>
      <trkpt lat="42.85623" lon="0.24148">
        <ele>2006</ele>
        <time>2017-02-20T09:50:00Z</time>
      </trkpt>
      <trkpt lat="42.85623" lon="0.24139">
        <ele>2008.2</ele>
        <time>2017-02-20T09:50:15Z</time>
      </trkpt>
      <trkpt lat="42.85622" lon="0.24133">
        <ele>2008.6</ele>
        <time>2017-02-20T09:50:25Z</time>
      </trkpt>
      <trkpt lat="42.85622" lon="0.2413">
        <ele>2006.6</ele>
        <time>2017-02-20T09:50:30Z</time>
      </trkpt>
      <trkpt lat="42.85622" lon="0.24127">
        <ele>2010.6</ele>
        <time>2017-02-20T09:50:35Z</time>
      </trkpt>
      <trkpt lat="42.85622" lon="0.24124">
        <ele>2010.6</ele>
        <time>2017-02-20T09:50:40Z</time>
      </trkpt>
      <trkpt lat="42.85622" lon="0.24121">
        <ele>2013.8</ele>
        <time>2017-02-20T09:50:45Z</time>
      </trkpt>
      <trkpt lat="42.85622" lon="0.24118">
        <ele>2011.2</ele>
        <time>2017-02-20T09:50:50Z</time>
      </trkpt>
      <trkpt lat="42.85621" lon="0.24115">
        <ele>2014.6</ele>
        <time>2017-02-20T09:50:55Z</time>
      </trkpt>
      <trkpt lat="42.85621" lon="0.24112">
        <ele>2013.4</ele>
        <time>2017-02-20T09:51:00Z</time>
      </trkpt>
      <trkpt lat="42.8562" lon="0.24109">
        <ele>2013.8</ele>
        <time>2017-02-20T09:51:05Z</time>
      </trkpt>
      <trkpt lat="42.8562" lon="0.24106">
        <ele>2016.2</ele>
        <time>2017-02-20T09:51:10Z</time>
      </trkpt>
      <trkpt lat="42.8562" lon="0.24103">
        <ele>2017.4</ele>
        <time>2017-02-20T09:51:15Z</time>
      </trkpt>
      <trkpt lat="42.8562" lon="0.241">
        <ele>2017</ele>
        <time>2017-02-20T09:51:20Z</time>
      </trkpt>
      <trkpt lat="42.8562" lon="0.24086">
        <ele>2021</ele>
        <time>2017-02-20T09:51:40Z</time>
      </trkpt>
      <trkpt lat="42.8562" lon="0.24083">
        <ele>2019.2</ele>
        <time>2017-02-20T09:51:45Z</time>
      </trkpt>
      <trkpt lat="42.8562" lon="0.2408">
        <ele>2022.8</ele>
        <time>2017-02-20T09:51:51Z</time>
      </trkpt>
      <trkpt lat="42.85619" lon="0.24077">
        <ele>2023.8</ele>
        <time>2017-02-20T09:51:56Z</time>
      </trkpt>
      <trkpt lat="42.85619" lon="0.24074">
        <ele>2022.4</ele>
        <time>2017-02-20T09:52:01Z</time>
      </trkpt>
      <trkpt lat="42.85619" lon="0.24071">
        <ele>2022.6</ele>
        <time>2017-02-20T09:52:06Z</time>
      </trkpt>
      <trkpt lat="42.8562" lon="0.24067">
        <ele>2024.8</ele>
        <time>2017-02-20T09:52:11Z</time>
      </trkpt>
      <trkpt lat="42.85621" lon="0.24064">
        <ele>2024.2</ele>
        <time>2017-02-20T09:52:16Z</time>
      </trkpt>
      <trkpt lat="42.85622" lon="0.24061">
        <ele>2027</ele>
        <time>2017-02-20T09:52:21Z</time>
      </trkpt>
      <trkpt lat="42.85623" lon="0.24058">
        <ele>2026.2</ele>
        <time>2017-02-20T09:52:26Z</time>
      </trkpt>
      <trkpt lat="42.85624" lon="0.24055">
        <ele>2025</ele>
        <time>2017-02-20T09:52:32Z</time>
      </trkpt>
      <trkpt lat="42.85625" lon="0.24052">
        <ele>2029</ele>
        <time>2017-02-20T09:52:37Z</time>
      </trkpt>
      <trkpt lat="42.85626" lon="0.24049">
        <ele>2026.2</ele>
        <time>2017-02-20T09:52:42Z</time>
      </trkpt>
      <trkpt lat="42.85627" lon="0.24046">
        <ele>2028.4</ele>
        <time>2017-02-20T09:52:47Z</time>
      </trkpt>
      <trkpt lat="42.85629" lon="0.24043">
        <ele>2029.8</ele>
        <time>2017-02-20T09:52:52Z</time>
      </trkpt>
      <trkpt lat="42.8563" lon="0.24041">
        <ele>2028.8</ele>
        <time>2017-02-20T09:52:57Z</time>
      </trkpt>
      <trkpt lat="42.8563" lon="0.24039">
        <ele>2028.6</ele>
        <time>2017-02-20T09:53:02Z</time>
      </trkpt>
      <trkpt lat="42.85631" lon="0.24036">
        <ele>2029.6</ele>
        <time>2017-02-20T09:53:07Z</time>
      </trkpt>
      <trkpt lat="42.85632" lon="0.24033">
        <ele>2030.2</ele>
        <time>2017-02-20T09:53:12Z</time>
      </trkpt>
      <trkpt lat="42.85633" lon="0.24031">
        <ele>2033.6</ele>
        <time>2017-02-20T09:53:17Z</time>
      </trkpt>
      <trkpt lat="42.85634" lon="0.24028">
        <ele>2035.4</ele>
        <time>2017-02-20T09:53:22Z</time>
      </trkpt>
      <trkpt lat="42.85634" lon="0.24025">
        <ele>2036</ele>
        <time>2017-02-20T09:53:27Z</time>
      </trkpt>
      <trkpt lat="42.85635" lon="0.24022">
        <ele>2037.4</ele>
        <time>2017-02-20T09:53:32Z</time>
      </trkpt>
      <trkpt lat="42.85636" lon="0.2402">
        <ele>2037.6</ele>
        <time>2017-02-20T09:53:37Z</time>
      </trkpt>
      <trkpt lat="42.85636" lon="0.24017">
        <ele>2039.2</ele>
        <time>2017-02-20T09:53:42Z</time>
      </trkpt>
      <trkpt lat="42.85636" lon="0.24014">
        <ele>2039</ele>
        <time>2017-02-20T09:53:47Z</time>
      </trkpt>
      <trkpt lat="42.85637" lon="0.2401">
        <ele>2041</ele>
        <time>2017-02-20T09:53:52Z</time>
      </trkpt>
      <trkpt lat="42.85638" lon="0.24007">
        <ele>2038</ele>
        <time>2017-02-20T09:53:57Z</time>
      </trkpt>
      <trkpt lat="42.85638" lon="0.24004">
        <ele>2041</ele>
        <time>2017-02-20T09:54:02Z</time>
      </trkpt>
      <trkpt lat="42.85639" lon="0.24001">
        <ele>2043.6</ele>
        <time>2017-02-20T09:54:07Z</time>
      </trkpt>
      <trkpt lat="42.8564" lon="0.23998">
        <ele>2042</ele>
        <time>2017-02-20T09:54:12Z</time>
      </trkpt>
      <trkpt lat="42.85641" lon="0.23995">
        <ele>2042</ele>
        <time>2017-02-20T09:54:17Z</time>
      </trkpt>
      <trkpt lat="42.85642" lon="0.23992">
        <ele>2042.2</ele>
        <time>2017-02-20T09:54:22Z</time>
      </trkpt>
      <trkpt lat="42.85642" lon="0.2399">
        <ele>2040.8</ele>
        <time>2017-02-20T09:54:27Z</time>
      </trkpt>
      <trkpt lat="42.85643" lon="0.23987">
        <ele>2044.2</ele>
        <time>2017-02-20T09:54:32Z</time>
      </trkpt>
      <trkpt lat="42.85644" lon="0.23984">
        <ele>2044.6</ele>
        <time>2017-02-20T09:54:37Z</time>
      </trkpt>
      <trkpt lat="42.85644" lon="0.2398">
        <ele>2046.2</ele>
        <time>2017-02-20T09:54:42Z</time>
      </trkpt>
      <trkpt lat="42.85644" lon="0.23977">
        <ele>2045.8</ele>
        <time>2017-02-20T09:54:47Z</time>
      </trkpt>
      <trkpt lat="42.85644" lon="0.23974">
        <ele>2046.2</ele>
        <time>2017-02-20T09:54:52Z</time>
      </trkpt>
      <trkpt lat="42.85644" lon="0.23972">
        <ele>2049.8</ele>
        <time>2017-02-20T09:54:57Z</time>
      </trkpt>
      <trkpt lat="42.85644" lon="0.23969">
        <ele>2048.4</ele>
        <time>2017-02-20T09:55:02Z</time>
      </trkpt>
      <trkpt lat="42.85643" lon="0.23967">
        <ele>2049.4</ele>
        <time>2017-02-20T09:55:07Z</time>
      </trkpt>
      <trkpt lat="42.85642" lon="0.23965">
        <ele>2051.2</ele>
        <time>2017-02-20T09:55:12Z</time>
      </trkpt>
      <trkpt lat="42.85641" lon="0.23962">
        <ele>2049</ele>
        <time>2017-02-20T09:55:17Z</time>
      </trkpt>
      <trkpt lat="42.8564" lon="0.2396">
        <ele>2051.8</ele>
        <time>2017-02-20T09:55:22Z</time>
      </trkpt>
      <trkpt lat="42.85638" lon="0.23957">
        <ele>2048.2</ele>
        <time>2017-02-20T09:55:27Z</time>
      </trkpt>
      <trkpt lat="42.85636" lon="0.23954">
        <ele>2049</ele>
        <time>2017-02-20T09:55:32Z</time>
      </trkpt>
      <trkpt lat="42.85634" lon="0.23951">
        <ele>2050.4</ele>
        <time>2017-02-20T09:55:37Z</time>
      </trkpt>
      <trkpt lat="42.85632" lon="0.23949">
        <ele>2053.8</ele>
        <time>2017-02-20T09:55:42Z</time>
      </trkpt>
      <trkpt lat="42.8563" lon="0.23946">
        <ele>2051.2</ele>
        <time>2017-02-20T09:55:47Z</time>
      </trkpt>
      <trkpt lat="42.85629" lon="0.23943">
        <ele>2052.8</ele>
        <time>2017-02-20T09:55:52Z</time>
      </trkpt>
      <trkpt lat="42.85629" lon="0.23939">
        <ele>2054.4</ele>
        <time>2017-02-20T09:55:58Z</time>
      </trkpt>
      <trkpt lat="42.85627" lon="0.23938">
        <ele>2056.6</ele>
        <time>2017-02-20T09:56:03Z</time>
      </trkpt>
      <trkpt lat="42.85625" lon="0.23938">
        <ele>2053.8</ele>
        <time>2017-02-20T09:56:08Z</time>
      </trkpt>
      <trkpt lat="42.85622" lon="0.23939">
        <ele>2057.2</ele>
        <time>2017-02-20T09:56:13Z</time>
      </trkpt>
      <trkpt lat="42.8562" lon="0.23938">
        <ele>2057.4</ele>
        <time>2017-02-20T09:56:18Z</time>
      </trkpt>
      <trkpt lat="42.85618" lon="0.23935">
        <ele>2058.8</ele>
        <time>2017-02-20T09:56:23Z</time>
      </trkpt>
      <trkpt lat="42.85618" lon="0.23932">
        <ele>2055.4</ele>
        <time>2017-02-20T09:56:28Z</time>
      </trkpt>
      <trkpt lat="42.85617" lon="0.23929">
        <ele>2054.4</ele>
        <time>2017-02-20T09:56:33Z</time>
      </trkpt>
      <trkpt lat="42.85618" lon="0.23925">
        <ele>2059.2</ele>
        <time>2017-02-20T09:56:38Z</time>
      </trkpt>
      <trkpt lat="42.85618" lon="0.23922">
        <ele>2056.2</ele>
        <time>2017-02-20T09:56:43Z</time>
      </trkpt>
      <trkpt lat="42.8562" lon="0.23919">
        <ele>2059.4</ele>
        <time>2017-02-20T09:56:48Z</time>
      </trkpt>
      <trkpt lat="42.85621" lon="0.23916">
        <ele>2061.6</ele>
        <time>2017-02-20T09:56:53Z</time>
      </trkpt>
      <trkpt lat="42.85622" lon="0.23913">
        <ele>2060.2</ele>
        <time>2017-02-20T09:56:58Z</time>
      </trkpt>
      <trkpt lat="42.85624" lon="0.23911">
        <ele>2062</ele>
        <time>2017-02-20T09:57:03Z</time>
      </trkpt>
      <trkpt lat="42.85625" lon="0.23908">
        <ele>2060.2</ele>
        <time>2017-02-20T09:57:09Z</time>
      </trkpt>
      <trkpt lat="42.85626" lon="0.23905">
        <ele>2061</ele>
        <time>2017-02-20T09:57:14Z</time>
      </trkpt>
      <trkpt lat="42.85626" lon="0.23902">
        <ele>2062.8</ele>
        <time>2017-02-20T09:57:19Z</time>
      </trkpt>
      <trkpt lat="42.85627" lon="0.23899">
        <ele>2063.6</ele>
        <time>2017-02-20T09:57:24Z</time>
      </trkpt>
      <trkpt lat="42.85628" lon="0.23895">
        <ele>2063</ele>
        <time>2017-02-20T09:57:29Z</time>
      </trkpt>
      <trkpt lat="42.85629" lon="0.23893">
        <ele>2065</ele>
        <time>2017-02-20T09:57:34Z</time>
      </trkpt>
      <trkpt lat="42.8563" lon="0.23891">
        <ele>2063</ele>
        <time>2017-02-20T09:57:39Z</time>
      </trkpt>
      <trkpt lat="42.85631" lon="0.23889">
        <ele>2065.2</ele>
        <time>2017-02-20T09:57:44Z</time>
      </trkpt>
      <trkpt lat="42.85632" lon="0.23887">
        <ele>2066</ele>
        <time>2017-02-20T09:57:49Z</time>
      </trkpt>
      <trkpt lat="42.85633" lon="0.23884">
        <ele>2068.4</ele>
        <time>2017-02-20T09:57:54Z</time>
      </trkpt>
      <trkpt lat="42.85634" lon="0.23882">
        <ele>2071</ele>
        <time>2017-02-20T09:57:59Z</time>
      </trkpt>
      <trkpt lat="42.85635" lon="0.23879">
        <ele>2072.6</ele>
        <time>2017-02-20T09:58:04Z</time>
      </trkpt>
      <trkpt lat="42.85636" lon="0.23877">
        <ele>2069.2</ele>
        <time>2017-02-20T09:58:09Z</time>
      </trkpt>
      <trkpt lat="42.85638" lon="0.23874">
        <ele>2072.8</ele>
        <time>2017-02-20T09:58:14Z</time>
      </trkpt>
      <trkpt lat="42.85639" lon="0.23871">
        <ele>2078.2</ele>
        <time>2017-02-20T09:58:19Z</time>
      </trkpt>
      <trkpt lat="42.8564" lon="0.23869">
        <ele>2077.2</ele>
        <time>2017-02-20T09:58:24Z</time>
      </trkpt>
      <trkpt lat="42.85641" lon="0.23866">
        <ele>2075.4</ele>
        <time>2017-02-20T09:58:29Z</time>
      </trkpt>
      <trkpt lat="42.85642" lon="0.23863">
        <ele>2078</ele>
        <time>2017-02-20T09:58:34Z</time>
      </trkpt>
      <trkpt lat="42.85644" lon="0.2386">
        <ele>2076.4</ele>
        <time>2017-02-20T09:58:40Z</time>
      </trkpt>
      <trkpt lat="42.85646" lon="0.23857">
        <ele>2080</ele>
        <time>2017-02-20T09:58:45Z</time>
      </trkpt>
      <trkpt lat="42.85647" lon="0.23853">
        <ele>2079.2</ele>
        <time>2017-02-20T09:58:50Z</time>
      </trkpt>
      <trkpt lat="42.85648" lon="0.2385">
        <ele>2080</ele>
        <time>2017-02-20T09:58:55Z</time>
      </trkpt>
      <trkpt lat="42.85649" lon="0.23847">
        <ele>2080.2</ele>
        <time>2017-02-20T09:59:00Z</time>
      </trkpt>
      <trkpt lat="42.85651" lon="0.23843">
        <ele>2081.4</ele>
        <time>2017-02-20T09:59:05Z</time>
      </trkpt>
      <trkpt lat="42.85652" lon="0.23839">
        <ele>2078</ele>
        <time>2017-02-20T09:59:10Z</time>
      </trkpt>
      <trkpt lat="42.85653" lon="0.23835">
        <ele>2078.4</ele>
        <time>2017-02-20T09:59:15Z</time>
      </trkpt>
      <trkpt lat="42.85654" lon="0.23831">
        <ele>2077.4</ele>
        <time>2017-02-20T09:59:20Z</time>
      </trkpt>
      <trkpt lat="42.85655" lon="0.23826">
        <ele>2078</ele>
        <time>2017-02-20T09:59:25Z</time>
      </trkpt>
      <trkpt lat="42.85656" lon="0.23822">
        <ele>2081.4</ele>
        <time>2017-02-20T09:59:30Z</time>
      </trkpt>
      <trkpt lat="42.85656" lon="0.23818">
        <ele>2080.2</ele>
        <time>2017-02-20T09:59:35Z</time>
      </trkpt>
      <trkpt lat="42.85657" lon="0.23814">
        <ele>2080</ele>
        <time>2017-02-20T09:59:40Z</time>
      </trkpt>
      <trkpt lat="42.85657" lon="0.2381">
        <ele>2081</ele>
        <time>2017-02-20T09:59:45Z</time>
      </trkpt>
      <trkpt lat="42.85657" lon="0.23799">
        <ele>2081.4</ele>
        <time>2017-02-20T10:00:00Z</time>
      </trkpt>
      <trkpt lat="42.85657" lon="0.23796">
        <ele>2084.2</ele>
        <time>2017-02-20T10:00:05Z</time>
      </trkpt>
      <trkpt lat="42.85657" lon="0.23792">
        <ele>2082.8</ele>
        <time>2017-02-20T10:00:10Z</time>
      </trkpt>
      <trkpt lat="42.85656" lon="0.23789">
        <ele>2082.6</ele>
        <time>2017-02-20T10:00:15Z</time>
      </trkpt>
      <trkpt lat="42.85656" lon="0.23786">
        <ele>2082.8</ele>
        <time>2017-02-20T10:00:20Z</time>
      </trkpt>
      <trkpt lat="42.85656" lon="0.23782">
        <ele>2085.2</ele>
        <time>2017-02-20T10:00:25Z</time>
      </trkpt>
      <trkpt lat="42.85655" lon="0.23779">
        <ele>2085.2</ele>
        <time>2017-02-20T10:00:30Z</time>
      </trkpt>
      <trkpt lat="42.85655" lon="0.23775">
        <ele>2086.2</ele>
        <time>2017-02-20T10:00:35Z</time>
      </trkpt>
      <trkpt lat="42.85654" lon="0.23771">
        <ele>2087</ele>
        <time>2017-02-20T10:00:40Z</time>
      </trkpt>
      <trkpt lat="42.85654" lon="0.23769">
        <ele>2086</ele>
        <time>2017-02-20T10:00:45Z</time>
      </trkpt>
      <trkpt lat="42.85653" lon="0.23765">
        <ele>2088</ele>
        <time>2017-02-20T10:00:50Z</time>
      </trkpt>
      <trkpt lat="42.85653" lon="0.23762">
        <ele>2087.2</ele>
        <time>2017-02-20T10:00:55Z</time>
      </trkpt>
      <trkpt lat="42.85652" lon="0.23759">
        <ele>2089</ele>
        <time>2017-02-20T10:01:00Z</time>
      </trkpt>
      <trkpt lat="42.85651" lon="0.23757">
        <ele>2089.4</ele>
        <time>2017-02-20T10:01:05Z</time>
      </trkpt>
      <trkpt lat="42.85651" lon="0.23754">
        <ele>2089</ele>
        <time>2017-02-20T10:01:10Z</time>
      </trkpt>
      <trkpt lat="42.8565" lon="0.23751">
        <ele>2090.6</ele>
        <time>2017-02-20T10:01:15Z</time>
      </trkpt>
      <trkpt lat="42.85649" lon="0.23747">
        <ele>2091.8</ele>
        <time>2017-02-20T10:01:21Z</time>
      </trkpt>
      <trkpt lat="42.85649" lon="0.23744">
        <ele>2091.2</ele>
        <time>2017-02-20T10:01:26Z</time>
      </trkpt>
      <trkpt lat="42.85648" lon="0.23741">
        <ele>2091.6</ele>
        <time>2017-02-20T10:01:31Z</time>
      </trkpt>
      <trkpt lat="42.85648" lon="0.23738">
        <ele>2094.4</ele>
        <time>2017-02-20T10:01:36Z</time>
      </trkpt>
      <trkpt lat="42.85647" lon="0.23735">
        <ele>2094.2</ele>
        <time>2017-02-20T10:01:41Z</time>
      </trkpt>
      <trkpt lat="42.85647" lon="0.23732">
        <ele>2095.2</ele>
        <time>2017-02-20T10:01:46Z</time>
      </trkpt>
      <trkpt lat="42.85647" lon="0.23729">
        <ele>2095.6</ele>
        <time>2017-02-20T10:01:51Z</time>
      </trkpt>
      <trkpt lat="42.85646" lon="0.23726">
        <ele>2096.8</ele>
        <time>2017-02-20T10:01:56Z</time>
      </trkpt>
      <trkpt lat="42.85646" lon="0.23723">
        <ele>2089.8</ele>
        <time>2017-02-20T10:02:01Z</time>
      </trkpt>
      <trkpt lat="42.85646" lon="0.2372">
        <ele>2091.8</ele>
        <time>2017-02-20T10:02:06Z</time>
      </trkpt>
      <trkpt lat="42.85645" lon="0.23717">
        <ele>2095</ele>
        <time>2017-02-20T10:02:11Z</time>
      </trkpt>
      <trkpt lat="42.85645" lon="0.23714">
        <ele>2096</ele>
        <time>2017-02-20T10:02:16Z</time>
      </trkpt>
      <trkpt lat="42.85644" lon="0.23711">
        <ele>2097</ele>
        <time>2017-02-20T10:02:22Z</time>
      </trkpt>
      <trkpt lat="42.85643" lon="0.23707">
        <ele>2097</ele>
        <time>2017-02-20T10:02:28Z</time>
      </trkpt>
      <trkpt lat="42.85643" lon="0.23704">
        <ele>2099</ele>
        <time>2017-02-20T10:02:33Z</time>
      </trkpt>
      <trkpt lat="42.85642" lon="0.23701">
        <ele>2099.4</ele>
        <time>2017-02-20T10:02:38Z</time>
      </trkpt>
      <trkpt lat="42.85641" lon="0.23699">
        <ele>2099</ele>
        <time>2017-02-20T10:02:43Z</time>
      </trkpt>
      <trkpt lat="42.8564" lon="0.23696">
        <ele>2100.6</ele>
        <time>2017-02-20T10:02:48Z</time>
      </trkpt>
      <trkpt lat="42.85638" lon="0.23694">
        <ele>2100.4</ele>
        <time>2017-02-20T10:02:53Z</time>
      </trkpt>
      <trkpt lat="42.85636" lon="0.23694">
        <ele>2102.2</ele>
        <time>2017-02-20T10:02:58Z</time>
      </trkpt>
      <trkpt lat="42.85633" lon="0.23694">
        <ele>2102</ele>
        <time>2017-02-20T10:03:03Z</time>
      </trkpt>
      <trkpt lat="42.8563" lon="0.23696">
        <ele>2102.4</ele>
        <time>2017-02-20T10:03:08Z</time>
      </trkpt>
      <trkpt lat="42.85628" lon="0.23697">
        <ele>2103.4</ele>
        <time>2017-02-20T10:03:13Z</time>
      </trkpt>
      <trkpt lat="42.85625" lon="0.23697">
        <ele>2102.8</ele>
        <time>2017-02-20T10:03:18Z</time>
      </trkpt>
      <trkpt lat="42.85622" lon="0.23697">
        <ele>2105.6</ele>
        <time>2017-02-20T10:03:23Z</time>
      </trkpt>
      <trkpt lat="42.85621" lon="0.23696">
        <ele>2107.2</ele>
        <time>2017-02-20T10:03:28Z</time>
      </trkpt>
      <trkpt lat="42.8562" lon="0.23695">
        <ele>2109</ele>
        <time>2017-02-20T10:03:33Z</time>
      </trkpt>
      <trkpt lat="42.8562" lon="0.23691">
        <ele>2107</ele>
        <time>2017-02-20T10:03:38Z</time>
      </trkpt>
      <trkpt lat="42.85619" lon="0.23688">
        <ele>2109</ele>
        <time>2017-02-20T10:03:43Z</time>
      </trkpt>
      <trkpt lat="42.8562" lon="0.23684">
        <ele>2112.4</ele>
        <time>2017-02-20T10:03:48Z</time>
      </trkpt>
      <trkpt lat="42.8562" lon="0.23681">
        <ele>2110.8</ele>
        <time>2017-02-20T10:03:53Z</time>
      </trkpt>
      <trkpt lat="42.85621" lon="0.23678">
        <ele>2108.4</ele>
        <time>2017-02-20T10:03:58Z</time>
      </trkpt>
      <trkpt lat="42.85622" lon="0.23674">
        <ele>2110.8</ele>
        <time>2017-02-20T10:04:03Z</time>
      </trkpt>
      <trkpt lat="42.85622" lon="0.23671">
        <ele>2111.8</ele>
        <time>2017-02-20T10:04:08Z</time>
      </trkpt>
      <trkpt lat="42.85622" lon="0.23668">
        <ele>2111.2</ele>
        <time>2017-02-20T10:04:13Z</time>
      </trkpt>
      <trkpt lat="42.85622" lon="0.23665">
        <ele>2113.8</ele>
        <time>2017-02-20T10:04:18Z</time>
      </trkpt>
      <trkpt lat="42.85623" lon="0.23662">
        <ele>2114</ele>
        <time>2017-02-20T10:04:23Z</time>
      </trkpt>
      <trkpt lat="42.85623" lon="0.23658">
        <ele>2112</ele>
        <time>2017-02-20T10:04:28Z</time>
      </trkpt>
      <trkpt lat="42.85623" lon="0.23655">
        <ele>2113.4</ele>
        <time>2017-02-20T10:04:33Z</time>
      </trkpt>
      <trkpt lat="42.85623" lon="0.23652">
        <ele>2111.4</ele>
        <time>2017-02-20T10:04:38Z</time>
      </trkpt>
      <trkpt lat="42.85624" lon="0.23649">
        <ele>2117.6</ele>
        <time>2017-02-20T10:04:43Z</time>
      </trkpt>
      <trkpt lat="42.85625" lon="0.23646">
        <ele>2118.6</ele>
        <time>2017-02-20T10:04:48Z</time>
      </trkpt>
      <trkpt lat="42.85625" lon="0.23643">
        <ele>2118.2</ele>
        <time>2017-02-20T10:04:53Z</time>
      </trkpt>
      <trkpt lat="42.85626" lon="0.23641">
        <ele>2119.8</ele>
        <time>2017-02-20T10:04:58Z</time>
      </trkpt>
      <trkpt lat="42.85626" lon="0.23642">
        <ele>2118.4</ele>
        <time>2017-02-20T10:05:08Z</time>
      </trkpt>
      <trkpt lat="42.85626" lon="0.23643">
        <ele>2117.2</ele>
        <time>2017-02-20T10:05:18Z</time>
      </trkpt>
      <trkpt lat="42.85626" lon="0.23644">
        <ele>2115.8</ele>
        <time>2017-02-20T10:05:53Z</time>
      </trkpt>
      <trkpt lat="42.85627" lon="0.23643">
        <ele>2115.6</ele>
        <time>2017-02-20T10:06:23Z</time>
      </trkpt>
      <trkpt lat="42.85627" lon="0.23644">
        <ele>2115.6</ele>
        <time>2017-02-20T10:06:58Z</time>
      </trkpt>
      <trkpt lat="42.85627" lon="0.23643">
        <ele>2115.6</ele>
        <time>2017-02-20T10:07:14Z</time>
      </trkpt>
      <trkpt lat="42.85628" lon="0.23644">
        <ele>2115.8</ele>
        <time>2017-02-20T10:07:39Z</time>
      </trkpt>
      <trkpt lat="42.85628" lon="0.23644">
        <ele>2116.6</ele>
        <time>2017-02-20T10:07:54Z</time>
      </trkpt>
      <trkpt lat="42.85628" lon="0.23641">
        <ele>2120.4</ele>
        <time>2017-02-20T10:08:45Z</time>
      </trkpt>
      <trkpt lat="42.85629" lon="0.23637">
        <ele>2118.2</ele>
        <time>2017-02-20T10:08:50Z</time>
      </trkpt>
      <trkpt lat="42.8563" lon="0.23633">
        <ele>2117.4</ele>
        <time>2017-02-20T10:08:55Z</time>
      </trkpt>
      <trkpt lat="42.85631" lon="0.2363">
        <ele>2117.2</ele>
        <time>2017-02-20T10:09:00Z</time>
      </trkpt>
      <trkpt lat="42.85632" lon="0.23627">
        <ele>2121.4</ele>
        <time>2017-02-20T10:09:05Z</time>
      </trkpt>
      <trkpt lat="42.85633" lon="0.23624">
        <ele>2121.6</ele>
        <time>2017-02-20T10:09:10Z</time>
      </trkpt>
      <trkpt lat="42.85634" lon="0.23622">
        <ele>2120.6</ele>
        <time>2017-02-20T10:09:15Z</time>
      </trkpt>
      <trkpt lat="42.85636" lon="0.23619">
        <ele>2123</ele>
        <time>2017-02-20T10:09:20Z</time>
      </trkpt>
      <trkpt lat="42.85637" lon="0.23616">
        <ele>2124.6</ele>
        <time>2017-02-20T10:09:25Z</time>
      </trkpt>
      <trkpt lat="42.85639" lon="0.23613">
        <ele>2125.4</ele>
        <time>2017-02-20T10:09:30Z</time>
      </trkpt>
      <trkpt lat="42.85641" lon="0.2361">
        <ele>2125.6</ele>
        <time>2017-02-20T10:09:35Z</time>
      </trkpt>
      <trkpt lat="42.85642" lon="0.23607">
        <ele>2127.2</ele>
        <time>2017-02-20T10:09:40Z</time>
      </trkpt>
      <trkpt lat="42.85643" lon="0.23606">
        <ele>2126.8</ele>
        <time>2017-02-20T10:09:45Z</time>
      </trkpt>
      <trkpt lat="42.85644" lon="0.23605">
        <ele>2126.8</ele>
        <time>2017-02-20T10:09:50Z</time>
      </trkpt>
      <trkpt lat="42.85645" lon="0.23602">
        <ele>2131.6</ele>
        <time>2017-02-20T10:09:55Z</time>
      </trkpt>
      <trkpt lat="42.85647" lon="0.23599">
        <ele>2125.4</ele>
        <time>2017-02-20T10:10:00Z</time>
      </trkpt>
      <trkpt lat="42.85649" lon="0.23597">
        <ele>2128</ele>
        <time>2017-02-20T10:10:05Z</time>
      </trkpt>
      <trkpt lat="42.85651" lon="0.23594">
        <ele>2127</ele>
        <time>2017-02-20T10:10:10Z</time>
      </trkpt>
      <trkpt lat="42.85653" lon="0.23591">
        <ele>2126.8</ele>
        <time>2017-02-20T10:10:15Z</time>
      </trkpt>
      <trkpt lat="42.85655" lon="0.23588">
        <ele>2128.8</ele>
        <time>2017-02-20T10:10:20Z</time>
      </trkpt>
      <trkpt lat="42.85657" lon="0.23585">
        <ele>2128.6</ele>
        <time>2017-02-20T10:10:25Z</time>
      </trkpt>
      <trkpt lat="42.85659" lon="0.23582">
        <ele>2130.4</ele>
        <time>2017-02-20T10:10:30Z</time>
      </trkpt>
      <trkpt lat="42.85661" lon="0.23579">
        <ele>2130.6</ele>
        <time>2017-02-20T10:10:35Z</time>
      </trkpt>
      <trkpt lat="42.85662" lon="0.23576">
        <ele>2131.2</ele>
        <time>2017-02-20T10:10:40Z</time>
      </trkpt>
      <trkpt lat="42.85664" lon="0.23572">
        <ele>2131.4</ele>
        <time>2017-02-20T10:10:45Z</time>
      </trkpt>
      <trkpt lat="42.85666" lon="0.23569">
        <ele>2131.4</ele>
        <time>2017-02-20T10:10:50Z</time>
      </trkpt>
      <trkpt lat="42.85668" lon="0.23566">
        <ele>2132.8</ele>
        <time>2017-02-20T10:10:55Z</time>
      </trkpt>
      <trkpt lat="42.8567" lon="0.23563">
        <ele>2132.6</ele>
        <time>2017-02-20T10:11:00Z</time>
      </trkpt>
      <trkpt lat="42.85672" lon="0.2356">
        <ele>2133.8</ele>
        <time>2017-02-20T10:11:05Z</time>
      </trkpt>
      <trkpt lat="42.85675" lon="0.23557">
        <ele>2136.2</ele>
        <time>2017-02-20T10:11:10Z</time>
      </trkpt>
      <trkpt lat="42.85678" lon="0.23554">
        <ele>2134.8</ele>
        <time>2017-02-20T10:11:15Z</time>
      </trkpt>
      <trkpt lat="42.8568" lon="0.23552">
        <ele>2134.4</ele>
        <time>2017-02-20T10:11:20Z</time>
      </trkpt>
      <trkpt lat="42.85683" lon="0.23549">
        <ele>2136.2</ele>
        <time>2017-02-20T10:11:25Z</time>
      </trkpt>
      <trkpt lat="42.85686" lon="0.23546">
        <ele>2135</ele>
        <time>2017-02-20T10:11:30Z</time>
      </trkpt>
      <trkpt lat="42.85688" lon="0.23543">
        <ele>2139</ele>
        <time>2017-02-20T10:11:35Z</time>
      </trkpt>
      <trkpt lat="42.85691" lon="0.23541">
        <ele>2136.6</ele>
        <time>2017-02-20T10:11:40Z</time>
      </trkpt>
      <trkpt lat="42.85694" lon="0.23538">
        <ele>2137.6</ele>
        <time>2017-02-20T10:11:45Z</time>
      </trkpt>
      <trkpt lat="42.85696" lon="0.23535">
        <ele>2139.8</ele>
        <time>2017-02-20T10:11:50Z</time>
      </trkpt>
      <trkpt lat="42.85698" lon="0.23531">
        <ele>2140</ele>
        <time>2017-02-20T10:11:55Z</time>
      </trkpt>
      <trkpt lat="42.857" lon="0.23528">
        <ele>2140.2</ele>
        <time>2017-02-20T10:12:00Z</time>
      </trkpt>
      <trkpt lat="42.85703" lon="0.23525">
        <ele>2138.8</ele>
        <time>2017-02-20T10:12:05Z</time>
      </trkpt>
      <trkpt lat="42.85705" lon="0.23521">
        <ele>2136.8</ele>
        <time>2017-02-20T10:12:10Z</time>
      </trkpt>
      <trkpt lat="42.85708" lon="0.23518">
        <ele>2140.4</ele>
        <time>2017-02-20T10:12:15Z</time>
      </trkpt>
      <trkpt lat="42.8571" lon="0.23515">
        <ele>2138.8</ele>
        <time>2017-02-20T10:12:20Z</time>
      </trkpt>
      <trkpt lat="42.85712" lon="0.23511">
        <ele>2141.4</ele>
        <time>2017-02-20T10:12:25Z</time>
      </trkpt>
      <trkpt lat="42.85715" lon="0.23507">
        <ele>2141.2</ele>
        <time>2017-02-20T10:12:30Z</time>
      </trkpt>
      <trkpt lat="42.85717" lon="0.23503">
        <ele>2144.2</ele>
        <time>2017-02-20T10:12:35Z</time>
      </trkpt>
      <trkpt lat="42.85718" lon="0.23499">
        <ele>2141.4</ele>
        <time>2017-02-20T10:12:40Z</time>
      </trkpt>
      <trkpt lat="42.8572" lon="0.23494">
        <ele>2142.8</ele>
        <time>2017-02-20T10:12:45Z</time>
      </trkpt>
      <trkpt lat="42.85722" lon="0.2349">
        <ele>2144.4</ele>
        <time>2017-02-20T10:12:50Z</time>
      </trkpt>
      <trkpt lat="42.85723" lon="0.23485">
        <ele>2142.8</ele>
        <time>2017-02-20T10:12:55Z</time>
      </trkpt>
      <trkpt lat="42.85725" lon="0.23481">
        <ele>2144.6</ele>
        <time>2017-02-20T10:13:00Z</time>
      </trkpt>
      <trkpt lat="42.85726" lon="0.23477">
        <ele>2146.6</ele>
        <time>2017-02-20T10:13:05Z</time>
      </trkpt>
      <trkpt lat="42.85727" lon="0.23473">
        <ele>2142.6</ele>
        <time>2017-02-20T10:13:11Z</time>
      </trkpt>
      <trkpt lat="42.85729" lon="0.2347">
        <ele>2142.2</ele>
        <time>2017-02-20T10:13:16Z</time>
      </trkpt>
      <trkpt lat="42.8573" lon="0.23467">
        <ele>2143.4</ele>
        <time>2017-02-20T10:13:21Z</time>
      </trkpt>
      <trkpt lat="42.85731" lon="0.23464">
        <ele>2145</ele>
        <time>2017-02-20T10:13:26Z</time>
      </trkpt>
      <trkpt lat="42.85732" lon="0.23461">
        <ele>2144.2</ele>
        <time>2017-02-20T10:13:31Z</time>
      </trkpt>
      <trkpt lat="42.85733" lon="0.23459">
        <ele>2146</ele>
        <time>2017-02-20T10:13:36Z</time>
      </trkpt>
      <trkpt lat="42.85734" lon="0.23455">
        <ele>2146.4</ele>
        <time>2017-02-20T10:13:41Z</time>
      </trkpt>
      <trkpt lat="42.85735" lon="0.23452">
        <ele>2147.6</ele>
        <time>2017-02-20T10:13:46Z</time>
      </trkpt>
      <trkpt lat="42.85736" lon="0.23449">
        <ele>2149.4</ele>
        <time>2017-02-20T10:13:51Z</time>
      </trkpt>
      <trkpt lat="42.85738" lon="0.23447">
        <ele>2148.8</ele>
        <time>2017-02-20T10:13:56Z</time>
      </trkpt>
      <trkpt lat="42.85739" lon="0.23444">
        <ele>2150.8</ele>
        <time>2017-02-20T10:14:01Z</time>
      </trkpt>
      <trkpt lat="42.8574" lon="0.23441">
        <ele>2149.2</ele>
        <time>2017-02-20T10:14:06Z</time>
      </trkpt>
      <trkpt lat="42.85741" lon="0.23438">
        <ele>2150.2</ele>
        <time>2017-02-20T10:14:11Z</time>
      </trkpt>
      <trkpt lat="42.85743" lon="0.23436">
        <ele>2151.2</ele>
        <time>2017-02-20T10:14:16Z</time>
      </trkpt>
      <trkpt lat="42.85744" lon="0.23434">
        <ele>2151</ele>
        <time>2017-02-20T10:14:21Z</time>
      </trkpt>
      <trkpt lat="42.85744" lon="0.23431">
        <ele>2151.6</ele>
        <time>2017-02-20T10:14:26Z</time>
      </trkpt>
      <trkpt lat="42.85745" lon="0.23429">
        <ele>2155.2</ele>
        <time>2017-02-20T10:14:31Z</time>
      </trkpt>
      <trkpt lat="42.85745" lon="0.23426">
        <ele>2155.4</ele>
        <time>2017-02-20T10:14:41Z</time>
      </trkpt>
      <trkpt lat="42.85746" lon="0.23423">
        <ele>2157</ele>
        <time>2017-02-20T10:14:46Z</time>
      </trkpt>
      <trkpt lat="42.85746" lon="0.2342">
        <ele>2160.2</ele>
        <time>2017-02-20T10:14:51Z</time>
      </trkpt>
      <trkpt lat="42.85747" lon="0.23417">
        <ele>2157.8</ele>
        <time>2017-02-20T10:14:56Z</time>
      </trkpt>
      <trkpt lat="42.85747" lon="0.23414">
        <ele>2158.8</ele>
        <time>2017-02-20T10:15:01Z</time>
      </trkpt>
      <trkpt lat="42.85747" lon="0.2341">
        <ele>2160</ele>
        <time>2017-02-20T10:15:06Z</time>
      </trkpt>
      <trkpt lat="42.85747" lon="0.23403">
        <ele>2163</ele>
        <time>2017-02-20T10:15:16Z</time>
      </trkpt>
      <trkpt lat="42.85747" lon="0.23399">
        <ele>2160.6</ele>
        <time>2017-02-20T10:15:21Z</time>
      </trkpt>
      <trkpt lat="42.85747" lon="0.23395">
        <ele>2163</ele>
        <time>2017-02-20T10:15:26Z</time>
      </trkpt>
      <trkpt lat="42.85747" lon="0.23392">
        <ele>2161.4</ele>
        <time>2017-02-20T10:15:31Z</time>
      </trkpt>
      <trkpt lat="42.85746" lon="0.23388">
        <ele>2164</ele>
        <time>2017-02-20T10:15:36Z</time>
      </trkpt>
      <trkpt lat="42.85745" lon="0.23384">
        <ele>2164</ele>
        <time>2017-02-20T10:15:41Z</time>
      </trkpt>
      <trkpt lat="42.85745" lon="0.23381">
        <ele>2163.8</ele>
        <time>2017-02-20T10:15:46Z</time>
      </trkpt>
      <trkpt lat="42.85744" lon="0.23378">
        <ele>2163.8</ele>
        <time>2017-02-20T10:15:51Z</time>
      </trkpt>
      <trkpt lat="42.85744" lon="0.23375">
        <ele>2164.4</ele>
        <time>2017-02-20T10:15:56Z</time>
      </trkpt>
      <trkpt lat="42.85744" lon="0.23372">
        <ele>2166.2</ele>
        <time>2017-02-20T10:16:01Z</time>
      </trkpt>
      <trkpt lat="42.85743" lon="0.23369">
        <ele>2166.8</ele>
        <time>2017-02-20T10:16:06Z</time>
      </trkpt>
      <trkpt lat="42.85743" lon="0.23366">
        <ele>2166.6</ele>
        <time>2017-02-20T10:16:11Z</time>
      </trkpt>
      <trkpt lat="42.85743" lon="0.23362">
        <ele>2169</ele>
        <time>2017-02-20T10:16:16Z</time>
      </trkpt>
      <trkpt lat="42.85742" lon="0.23359">
        <ele>2170.8</ele>
        <time>2017-02-20T10:16:21Z</time>
      </trkpt>
      <trkpt lat="42.85742" lon="0.23356">
        <ele>2169</ele>
        <time>2017-02-20T10:16:26Z</time>
      </trkpt>
      <trkpt lat="42.85742" lon="0.23352">
        <ele>2168</ele>
        <time>2017-02-20T10:16:31Z</time>
      </trkpt>
      <trkpt lat="42.85742" lon="0.23349">
        <ele>2167.6</ele>
        <time>2017-02-20T10:16:36Z</time>
      </trkpt>
      <trkpt lat="42.85742" lon="0.23346">
        <ele>2169.6</ele>
        <time>2017-02-20T10:16:41Z</time>
      </trkpt>
      <trkpt lat="42.85741" lon="0.23342">
        <ele>2170.8</ele>
        <time>2017-02-20T10:16:46Z</time>
      </trkpt>
      <trkpt lat="42.85741" lon="0.23339">
        <ele>2169.4</ele>
        <time>2017-02-20T10:16:51Z</time>
      </trkpt>
      <trkpt lat="42.85741" lon="0.23335">
        <ele>2172.4</ele>
        <time>2017-02-20T10:16:56Z</time>
      </trkpt>
      <trkpt lat="42.8574" lon="0.23332">
        <ele>2176.4</ele>
        <time>2017-02-20T10:17:01Z</time>
      </trkpt>
      <trkpt lat="42.8574" lon="0.23329">
        <ele>2176</ele>
        <time>2017-02-20T10:17:06Z</time>
      </trkpt>
      <trkpt lat="42.8574" lon="0.23325">
        <ele>2177</ele>
        <time>2017-02-20T10:17:11Z</time>
      </trkpt>
      <trkpt lat="42.8574" lon="0.23311">
        <ele>2178.2</ele>
        <time>2017-02-20T10:17:31Z</time>
      </trkpt>
      <trkpt lat="42.8574" lon="0.23307">
        <ele>2178.8</ele>
        <time>2017-02-20T10:17:36Z</time>
      </trkpt>
      <trkpt lat="42.8574" lon="0.23302">
        <ele>2176.2</ele>
        <time>2017-02-20T10:17:42Z</time>
      </trkpt>
      <trkpt lat="42.8574" lon="0.23298">
        <ele>2176.8</ele>
        <time>2017-02-20T10:17:47Z</time>
      </trkpt>
      <trkpt lat="42.85741" lon="0.23295">
        <ele>2179.6</ele>
        <time>2017-02-20T10:17:52Z</time>
      </trkpt>
      <trkpt lat="42.85743" lon="0.23292">
        <ele>2180</ele>
        <time>2017-02-20T10:18:02Z</time>
      </trkpt>
      <trkpt lat="42.85746" lon="0.2329">
        <ele>2178.6</ele>
        <time>2017-02-20T10:18:07Z</time>
      </trkpt>
      <trkpt lat="42.85749" lon="0.23288">
        <ele>2180.4</ele>
        <time>2017-02-20T10:18:12Z</time>
      </trkpt>
      <trkpt lat="42.85752" lon="0.23287">
        <ele>2178.6</ele>
        <time>2017-02-20T10:18:17Z</time>
      </trkpt>
      <trkpt lat="42.85754" lon="0.23287">
        <ele>2181.2</ele>
        <time>2017-02-20T10:18:22Z</time>
      </trkpt>
      <trkpt lat="42.85757" lon="0.23285">
        <ele>2181.6</ele>
        <time>2017-02-20T10:18:27Z</time>
      </trkpt>
      <trkpt lat="42.85759" lon="0.23283">
        <ele>2181.2</ele>
        <time>2017-02-20T10:18:32Z</time>
      </trkpt>
      <trkpt lat="42.85762" lon="0.23281">
        <ele>2183.4</ele>
        <time>2017-02-20T10:18:37Z</time>
      </trkpt>
      <trkpt lat="42.85765" lon="0.2328">
        <ele>2183.2</ele>
        <time>2017-02-20T10:18:42Z</time>
      </trkpt>
      <trkpt lat="42.85768" lon="0.23278">
        <ele>2184.2</ele>
        <time>2017-02-20T10:18:47Z</time>
      </trkpt>
      <trkpt lat="42.85771" lon="0.23276">
        <ele>2185.4</ele>
        <time>2017-02-20T10:18:52Z</time>
      </trkpt>
      <trkpt lat="42.85774" lon="0.23274">
        <ele>2185</ele>
        <time>2017-02-20T10:18:57Z</time>
      </trkpt>
      <trkpt lat="42.85777" lon="0.23272">
        <ele>2184.8</ele>
        <time>2017-02-20T10:19:02Z</time>
      </trkpt>
      <trkpt lat="42.85779" lon="0.2327">
        <ele>2187.2</ele>
        <time>2017-02-20T10:19:07Z</time>
      </trkpt>
      <trkpt lat="42.85782" lon="0.23269">
        <ele>2184.8</ele>
        <time>2017-02-20T10:19:12Z</time>
      </trkpt>
      <trkpt lat="42.85784" lon="0.23267">
        <ele>2186.6</ele>
        <time>2017-02-20T10:19:17Z</time>
      </trkpt>
      <trkpt lat="42.85787" lon="0.23265">
        <ele>2187.2</ele>
        <time>2017-02-20T10:19:22Z</time>
      </trkpt>
      <trkpt lat="42.8579" lon="0.23263">
        <ele>2184.8</ele>
        <time>2017-02-20T10:19:27Z</time>
      </trkpt>
      <trkpt lat="42.85793" lon="0.2326">
        <ele>2187.2</ele>
        <time>2017-02-20T10:19:32Z</time>
      </trkpt>
      <trkpt lat="42.85795" lon="0.23258">
        <ele>2188</ele>
        <time>2017-02-20T10:19:37Z</time>
      </trkpt>
      <trkpt lat="42.85798" lon="0.23256">
        <ele>2188.4</ele>
        <time>2017-02-20T10:19:42Z</time>
      </trkpt>
      <trkpt lat="42.858" lon="0.23254">
        <ele>2188.4</ele>
        <time>2017-02-20T10:19:47Z</time>
      </trkpt>
      <trkpt lat="42.85803" lon="0.23251">
        <ele>2193.4</ele>
        <time>2017-02-20T10:19:52Z</time>
      </trkpt>
      <trkpt lat="42.85806" lon="0.23248">
        <ele>2190.4</ele>
        <time>2017-02-20T10:19:57Z</time>
      </trkpt>
      <trkpt lat="42.85809" lon="0.23246">
        <ele>2190.6</ele>
        <time>2017-02-20T10:20:02Z</time>
      </trkpt>
      <trkpt lat="42.85812" lon="0.23243">
        <ele>2191.8</ele>
        <time>2017-02-20T10:20:07Z</time>
      </trkpt>
      <trkpt lat="42.85815" lon="0.2324">
        <ele>2191.8</ele>
        <time>2017-02-20T10:20:12Z</time>
      </trkpt>
      <trkpt lat="42.85817" lon="0.23238">
        <ele>2194.2</ele>
        <time>2017-02-20T10:20:17Z</time>
      </trkpt>
      <trkpt lat="42.85817" lon="0.23238">
        <ele>2197.4</ele>
        <time>2017-02-20T10:20:22Z</time>
      </trkpt>
      <trkpt lat="42.8582" lon="0.23234">
        <ele>2194.2</ele>
        <time>2017-02-20T10:20:27Z</time>
      </trkpt>
      <trkpt lat="42.85823" lon="0.23232">
        <ele>2195</ele>
        <time>2017-02-20T10:20:32Z</time>
      </trkpt>
      <trkpt lat="42.85825" lon="0.23231">
        <ele>2194.4</ele>
        <time>2017-02-20T10:20:37Z</time>
      </trkpt>
      <trkpt lat="42.85828" lon="0.23229">
        <ele>2196.8</ele>
        <time>2017-02-20T10:20:42Z</time>
      </trkpt>
      <trkpt lat="42.85832" lon="0.23227">
        <ele>2195.8</ele>
        <time>2017-02-20T10:20:47Z</time>
      </trkpt>
      <trkpt lat="42.85836" lon="0.23224">
        <ele>2196.8</ele>
        <time>2017-02-20T10:20:52Z</time>
      </trkpt>
      <trkpt lat="42.85839" lon="0.23222">
        <ele>2198.2</ele>
        <time>2017-02-20T10:20:57Z</time>
      </trkpt>
      <trkpt lat="42.85843" lon="0.2322">
        <ele>2198.4</ele>
        <time>2017-02-20T10:21:02Z</time>
      </trkpt>
      <trkpt lat="42.85848" lon="0.23218">
        <ele>2197.8</ele>
        <time>2017-02-20T10:21:07Z</time>
      </trkpt>
      <trkpt lat="42.85855" lon="0.23214">
        <ele>2195.4</ele>
        <time>2017-02-20T10:21:12Z</time>
      </trkpt>
      <trkpt lat="42.85859" lon="0.23212">
        <ele>2194.8</ele>
        <time>2017-02-20T10:21:17Z</time>
      </trkpt>
      <trkpt lat="42.85863" lon="0.2321">
        <ele>2197.4</ele>
        <time>2017-02-20T10:21:22Z</time>
      </trkpt>
      <trkpt lat="42.85866" lon="0.23207">
        <ele>2196.6</ele>
        <time>2017-02-20T10:21:27Z</time>
      </trkpt>
      <trkpt lat="42.8587" lon="0.23204">
        <ele>2196.8</ele>
        <time>2017-02-20T10:21:32Z</time>
      </trkpt>
      <trkpt lat="42.85875" lon="0.232">
        <ele>2196</ele>
        <time>2017-02-20T10:21:38Z</time>
      </trkpt>
      <trkpt lat="42.85878" lon="0.23196">
        <ele>2198</ele>
        <time>2017-02-20T10:21:44Z</time>
      </trkpt>
      <trkpt lat="42.8588" lon="0.23193">
        <ele>2202.4</ele>
        <time>2017-02-20T10:21:49Z</time>
      </trkpt>
      <trkpt lat="42.85883" lon="0.23189">
        <ele>2198</ele>
        <time>2017-02-20T10:21:54Z</time>
      </trkpt>
      <trkpt lat="42.85885" lon="0.23185">
        <ele>2200</ele>
        <time>2017-02-20T10:21:59Z</time>
      </trkpt>
      <trkpt lat="42.85886" lon="0.23184">
        <ele>2198.6</ele>
        <time>2017-02-20T10:22:04Z</time>
      </trkpt>
      <trkpt lat="42.85887" lon="0.23184">
        <ele>2199</ele>
        <time>2017-02-20T10:22:09Z</time>
      </trkpt>
      <trkpt lat="42.85889" lon="0.23181">
        <ele>2200</ele>
        <time>2017-02-20T10:22:14Z</time>
      </trkpt>
      <trkpt lat="42.85891" lon="0.23177">
        <ele>2199.2</ele>
        <time>2017-02-20T10:22:19Z</time>
      </trkpt>
      <trkpt lat="42.85894" lon="0.23173">
        <ele>2197.6</ele>
        <time>2017-02-20T10:22:24Z</time>
      </trkpt>
      <trkpt lat="42.85897" lon="0.23169">
        <ele>2200.8</ele>
        <time>2017-02-20T10:22:29Z</time>
      </trkpt>
      <trkpt lat="42.859" lon="0.23165">
        <ele>2199.4</ele>
        <time>2017-02-20T10:22:34Z</time>
      </trkpt>
      <trkpt lat="42.85903" lon="0.23161">
        <ele>2201.8</ele>
        <time>2017-02-20T10:22:39Z</time>
      </trkpt>
      <trkpt lat="42.85907" lon="0.23156">
        <ele>2202.2</ele>
        <time>2017-02-20T10:22:44Z</time>
      </trkpt>
      <trkpt lat="42.85911" lon="0.23152">
        <ele>2203.8</ele>
        <time>2017-02-20T10:22:49Z</time>
      </trkpt>
      <trkpt lat="42.85915" lon="0.23147">
        <ele>2203.4</ele>
        <time>2017-02-20T10:22:54Z</time>
      </trkpt>
      <trkpt lat="42.85919" lon="0.23142">
        <ele>2203</ele>
        <time>2017-02-20T10:22:59Z</time>
      </trkpt>
      <trkpt lat="42.85922" lon="0.23137">
        <ele>2200.6</ele>
        <time>2017-02-20T10:23:05Z</time>
      </trkpt>
      <trkpt lat="42.85925" lon="0.23134">
        <ele>2202.8</ele>
        <time>2017-02-20T10:23:10Z</time>
      </trkpt>
      <trkpt lat="42.85928" lon="0.2313">
        <ele>2202.8</ele>
        <time>2017-02-20T10:23:15Z</time>
      </trkpt>
      <trkpt lat="42.85929" lon="0.23129">
        <ele>2203.8</ele>
        <time>2017-02-20T10:23:20Z</time>
      </trkpt>
      <trkpt lat="42.8593" lon="0.23126">
        <ele>2202.4</ele>
        <time>2017-02-20T10:23:25Z</time>
      </trkpt>
      <trkpt lat="42.85932" lon="0.23122">
        <ele>2203.4</ele>
        <time>2017-02-20T10:23:30Z</time>
      </trkpt>
      <trkpt lat="42.85933" lon="0.23119">
        <ele>2205</ele>
        <time>2017-02-20T10:23:35Z</time>
      </trkpt>
      <trkpt lat="42.85935" lon="0.23115">
        <ele>2204</ele>
        <time>2017-02-20T10:23:40Z</time>
      </trkpt>
      <trkpt lat="42.85936" lon="0.23112">
        <ele>2205.8</ele>
        <time>2017-02-20T10:23:45Z</time>
      </trkpt>
      <trkpt lat="42.85937" lon="0.23108">
        <ele>2207.6</ele>
        <time>2017-02-20T10:23:50Z</time>
      </trkpt>
      <trkpt lat="42.85937" lon="0.23105">
        <ele>2206.8</ele>
        <time>2017-02-20T10:23:55Z</time>
      </trkpt>
      <trkpt lat="42.85938" lon="0.23102">
        <ele>2209</ele>
        <time>2017-02-20T10:24:00Z</time>
      </trkpt>
      <trkpt lat="42.85939" lon="0.23099">
        <ele>2209.4</ele>
        <time>2017-02-20T10:24:05Z</time>
      </trkpt>
      <trkpt lat="42.85939" lon="0.23096">
        <ele>2212.2</ele>
        <time>2017-02-20T10:24:10Z</time>
      </trkpt>
      <trkpt lat="42.85939" lon="0.23092">
        <ele>2211.8</ele>
        <time>2017-02-20T10:24:15Z</time>
      </trkpt>
      <trkpt lat="42.85939" lon="0.23089">
        <ele>2211.2</ele>
        <time>2017-02-20T10:24:20Z</time>
      </trkpt>
      <trkpt lat="42.8594" lon="0.23086">
        <ele>2210</ele>
        <time>2017-02-20T10:24:25Z</time>
      </trkpt>
      <trkpt lat="42.85941" lon="0.23083">
        <ele>2213.6</ele>
        <time>2017-02-20T10:24:30Z</time>
      </trkpt>
      <trkpt lat="42.85942" lon="0.23081">
        <ele>2214.4</ele>
        <time>2017-02-20T10:24:35Z</time>
      </trkpt>
      <trkpt lat="42.85942" lon="0.23078">
        <ele>2216</ele>
        <time>2017-02-20T10:24:40Z</time>
      </trkpt>
      <trkpt lat="42.85943" lon="0.23075">
        <ele>2215.2</ele>
        <time>2017-02-20T10:24:45Z</time>
      </trkpt>
      <trkpt lat="42.85944" lon="0.23073">
        <ele>2215.8</ele>
        <time>2017-02-20T10:24:50Z</time>
      </trkpt>
      <trkpt lat="42.85945" lon="0.23071">
        <ele>2217.4</ele>
        <time>2017-02-20T10:24:55Z</time>
      </trkpt>
      <trkpt lat="42.85946" lon="0.23068">
        <ele>2219.4</ele>
        <time>2017-02-20T10:25:00Z</time>
      </trkpt>
      <trkpt lat="42.85945" lon="0.23065">
        <ele>2221.2</ele>
        <time>2017-02-20T10:25:05Z</time>
      </trkpt>
      <trkpt lat="42.85945" lon="0.23062">
        <ele>2220</ele>
        <time>2017-02-20T10:25:10Z</time>
      </trkpt>
      <trkpt lat="42.85944" lon="0.23059">
        <ele>2217.8</ele>
        <time>2017-02-20T10:25:15Z</time>
      </trkpt>
      <trkpt lat="42.85943" lon="0.23056">
        <ele>2218.6</ele>
        <time>2017-02-20T10:25:20Z</time>
      </trkpt>
      <trkpt lat="42.85943" lon="0.23054">
        <ele>2219.6</ele>
        <time>2017-02-20T10:25:25Z</time>
      </trkpt>
      <trkpt lat="42.85942" lon="0.23051">
        <ele>2218.4</ele>
        <time>2017-02-20T10:25:30Z</time>
      </trkpt>
      <trkpt lat="42.85941" lon="0.23048">
        <ele>2219</ele>
        <time>2017-02-20T10:25:35Z</time>
      </trkpt>
      <trkpt lat="42.8594" lon="0.23046">
        <ele>2217.4</ele>
        <time>2017-02-20T10:25:40Z</time>
      </trkpt>
      <trkpt lat="42.8594" lon="0.23043">
        <ele>2218.2</ele>
        <time>2017-02-20T10:25:45Z</time>
      </trkpt>
      <trkpt lat="42.85939" lon="0.23041">
        <ele>2221.4</ele>
        <time>2017-02-20T10:25:50Z</time>
      </trkpt>
      <trkpt lat="42.85938" lon="0.23038">
        <ele>2221.6</ele>
        <time>2017-02-20T10:25:55Z</time>
      </trkpt>
      <trkpt lat="42.85938" lon="0.23035">
        <ele>2223.6</ele>
        <time>2017-02-20T10:26:00Z</time>
      </trkpt>
      <trkpt lat="42.85937" lon="0.23032">
        <ele>2223.4</ele>
        <time>2017-02-20T10:26:05Z</time>
      </trkpt>
      <trkpt lat="42.85937" lon="0.23029">
        <ele>2225.6</ele>
        <time>2017-02-20T10:26:10Z</time>
      </trkpt>
      <trkpt lat="42.85936" lon="0.23026">
        <ele>2227.8</ele>
        <time>2017-02-20T10:26:15Z</time>
      </trkpt>
      <trkpt lat="42.85936" lon="0.23023">
        <ele>2227.8</ele>
        <time>2017-02-20T10:26:20Z</time>
      </trkpt>
      <trkpt lat="42.85937" lon="0.2302">
        <ele>2227.2</ele>
        <time>2017-02-20T10:26:25Z</time>
      </trkpt>
      <trkpt lat="42.85937" lon="0.23017">
        <ele>2227</ele>
        <time>2017-02-20T10:26:30Z</time>
      </trkpt>
      <trkpt lat="42.85938" lon="0.23014">
        <ele>2226</ele>
        <time>2017-02-20T10:26:35Z</time>
      </trkpt>
      <trkpt lat="42.85938" lon="0.23011">
        <ele>2227.2</ele>
        <time>2017-02-20T10:26:40Z</time>
      </trkpt>
      <trkpt lat="42.85938" lon="0.2301">
        <ele>2230.4</ele>
        <time>2017-02-20T10:27:10Z</time>
      </trkpt>
      <trkpt lat="42.85939" lon="0.23007">
        <ele>2232.2</ele>
        <time>2017-02-20T10:27:15Z</time>
      </trkpt>
      <trkpt lat="42.85939" lon="0.23003">
        <ele>2233</ele>
        <time>2017-02-20T10:27:20Z</time>
      </trkpt>
      <trkpt lat="42.8594" lon="0.23001">
        <ele>2231.4</ele>
        <time>2017-02-20T10:28:26Z</time>
      </trkpt>
      <trkpt lat="42.8594" lon="0.22997">
        <ele>2234</ele>
        <time>2017-02-20T10:28:31Z</time>
      </trkpt>
      <trkpt lat="42.85941" lon="0.22993">
        <ele>2235.2</ele>
        <time>2017-02-20T10:28:36Z</time>
      </trkpt>
      <trkpt lat="42.85942" lon="0.2299">
        <ele>2233.6</ele>
        <time>2017-02-20T10:28:41Z</time>
      </trkpt>
      <trkpt lat="42.85943" lon="0.22986">
        <ele>2235.8</ele>
        <time>2017-02-20T10:28:46Z</time>
      </trkpt>
      <trkpt lat="42.85944" lon="0.22982">
        <ele>2236</ele>
        <time>2017-02-20T10:28:51Z</time>
      </trkpt>
      <trkpt lat="42.85945" lon="0.22979">
        <ele>2237</ele>
        <time>2017-02-20T10:28:56Z</time>
      </trkpt>
      <trkpt lat="42.85946" lon="0.22975">
        <ele>2237.2</ele>
        <time>2017-02-20T10:29:01Z</time>
      </trkpt>
      <trkpt lat="42.85948" lon="0.22972">
        <ele>2240</ele>
        <time>2017-02-20T10:29:06Z</time>
      </trkpt>
      <trkpt lat="42.85949" lon="0.22969">
        <ele>2241.6</ele>
        <time>2017-02-20T10:29:11Z</time>
      </trkpt>
      <trkpt lat="42.85951" lon="0.22966">
        <ele>2239.2</ele>
        <time>2017-02-20T10:29:16Z</time>
      </trkpt>
      <trkpt lat="42.85953" lon="0.22963">
        <ele>2238</ele>
        <time>2017-02-20T10:29:21Z</time>
      </trkpt>
      <trkpt lat="42.85954" lon="0.22959">
        <ele>2240</ele>
        <time>2017-02-20T10:29:26Z</time>
      </trkpt>
      <trkpt lat="42.85955" lon="0.22956">
        <ele>2241.8</ele>
        <time>2017-02-20T10:29:31Z</time>
      </trkpt>
      <trkpt lat="42.85956" lon="0.22952">
        <ele>2241.8</ele>
        <time>2017-02-20T10:29:36Z</time>
      </trkpt>
      <trkpt lat="42.85957" lon="0.22949">
        <ele>2240.8</ele>
        <time>2017-02-20T10:29:41Z</time>
      </trkpt>
      <trkpt lat="42.85958" lon="0.22945">
        <ele>2243.2</ele>
        <time>2017-02-20T10:29:46Z</time>
      </trkpt>
      <trkpt lat="42.85959" lon="0.22942">
        <ele>2242.8</ele>
        <time>2017-02-20T10:29:51Z</time>
      </trkpt>
      <trkpt lat="42.85961" lon="0.22938">
        <ele>2242.6</ele>
        <time>2017-02-20T10:29:56Z</time>
      </trkpt>
      <trkpt lat="42.85962" lon="0.22935">
        <ele>2244.8</ele>
        <time>2017-02-20T10:30:01Z</time>
      </trkpt>
      <trkpt lat="42.85963" lon="0.22931">
        <ele>2243.6</ele>
        <time>2017-02-20T10:30:06Z</time>
      </trkpt>
      <trkpt lat="42.85963" lon="0.22929">
        <ele>2249.4</ele>
        <time>2017-02-20T10:30:21Z</time>
      </trkpt>
      <trkpt lat="42.85965" lon="0.22924">
        <ele>2245.6</ele>
        <time>2017-02-20T10:30:26Z</time>
      </trkpt>
      <trkpt lat="42.85966" lon="0.22921">
        <ele>2246.4</ele>
        <time>2017-02-20T10:30:31Z</time>
      </trkpt>
      <trkpt lat="42.85967" lon="0.22917">
        <ele>2248.2</ele>
        <time>2017-02-20T10:30:36Z</time>
      </trkpt>
      <trkpt lat="42.85968" lon="0.22913">
        <ele>2248.4</ele>
        <time>2017-02-20T10:30:41Z</time>
      </trkpt>
      <trkpt lat="42.8597" lon="0.22908">
        <ele>2249.6</ele>
        <time>2017-02-20T10:30:46Z</time>
      </trkpt>
      <trkpt lat="42.85972" lon="0.22904">
        <ele>2252.2</ele>
        <time>2017-02-20T10:30:51Z</time>
      </trkpt>
      <trkpt lat="42.85973" lon="0.229">
        <ele>2249</ele>
        <time>2017-02-20T10:30:56Z</time>
      </trkpt>
      <trkpt lat="42.85974" lon="0.22896">
        <ele>2251.6</ele>
        <time>2017-02-20T10:31:01Z</time>
      </trkpt>
      <trkpt lat="42.85976" lon="0.22891">
        <ele>2251.2</ele>
        <time>2017-02-20T10:31:06Z</time>
      </trkpt>
      <trkpt lat="42.85978" lon="0.22886">
        <ele>2249.6</ele>
        <time>2017-02-20T10:31:11Z</time>
      </trkpt>
      <trkpt lat="42.85979" lon="0.22881">
        <ele>2254.2</ele>
        <time>2017-02-20T10:31:16Z</time>
      </trkpt>
      <trkpt lat="42.85981" lon="0.22876">
        <ele>2254</ele>
        <time>2017-02-20T10:31:21Z</time>
      </trkpt>
      <trkpt lat="42.85982" lon="0.22871">
        <ele>2255.4</ele>
        <time>2017-02-20T10:31:26Z</time>
      </trkpt>
      <trkpt lat="42.85984" lon="0.22865">
        <ele>2253.4</ele>
        <time>2017-02-20T10:31:32Z</time>
      </trkpt>
      <trkpt lat="42.85985" lon="0.2286">
        <ele>2254.6</ele>
        <time>2017-02-20T10:31:37Z</time>
      </trkpt>
      <trkpt lat="42.85987" lon="0.22855">
        <ele>2256.4</ele>
        <time>2017-02-20T10:31:42Z</time>
      </trkpt>
      <trkpt lat="42.85988" lon="0.22851">
        <ele>2258</ele>
        <time>2017-02-20T10:31:47Z</time>
      </trkpt>
      <trkpt lat="42.8599" lon="0.22846">
        <ele>2258.2</ele>
        <time>2017-02-20T10:31:52Z</time>
      </trkpt>
      <trkpt lat="42.85992" lon="0.22842">
        <ele>2258.6</ele>
        <time>2017-02-20T10:31:57Z</time>
      </trkpt>
      <trkpt lat="42.85993" lon="0.22838">
        <ele>2258.8</ele>
        <time>2017-02-20T10:32:02Z</time>
      </trkpt>
      <trkpt lat="42.85995" lon="0.22834">
        <ele>2260.4</ele>
        <time>2017-02-20T10:32:07Z</time>
      </trkpt>
      <trkpt lat="42.85997" lon="0.2283">
        <ele>2262.4</ele>
        <time>2017-02-20T10:32:12Z</time>
      </trkpt>
      <trkpt lat="42.85999" lon="0.22826">
        <ele>2263.8</ele>
        <time>2017-02-20T10:32:17Z</time>
      </trkpt>
      <trkpt lat="42.86" lon="0.22823">
        <ele>2265.2</ele>
        <time>2017-02-20T10:32:22Z</time>
      </trkpt>
      <trkpt lat="42.86002" lon="0.22819">
        <ele>2263.8</ele>
        <time>2017-02-20T10:32:27Z</time>
      </trkpt>
      <trkpt lat="42.86004" lon="0.22816">
        <ele>2266.4</ele>
        <time>2017-02-20T10:32:32Z</time>
      </trkpt>
      <trkpt lat="42.86006" lon="0.22813">
        <ele>2267.6</ele>
        <time>2017-02-20T10:32:37Z</time>
      </trkpt>
      <trkpt lat="42.86008" lon="0.22809">
        <ele>2266.2</ele>
        <time>2017-02-20T10:32:43Z</time>
      </trkpt>
      <trkpt lat="42.8601" lon="0.22806">
        <ele>2267</ele>
        <time>2017-02-20T10:32:49Z</time>
      </trkpt>
      <trkpt lat="42.86012" lon="0.22804">
        <ele>2266</ele>
        <time>2017-02-20T10:32:54Z</time>
      </trkpt>
      <trkpt lat="42.86014" lon="0.22802">
        <ele>2268.4</ele>
        <time>2017-02-20T10:32:59Z</time>
      </trkpt>
      <trkpt lat="42.86016" lon="0.228">
        <ele>2268.6</ele>
        <time>2017-02-20T10:33:04Z</time>
      </trkpt>
      <trkpt lat="42.86019" lon="0.22798">
        <ele>2270.2</ele>
        <time>2017-02-20T10:33:09Z</time>
      </trkpt>
      <trkpt lat="42.86021" lon="0.22797">
        <ele>2270.8</ele>
        <time>2017-02-20T10:33:14Z</time>
      </trkpt>
      <trkpt lat="42.86023" lon="0.22796">
        <ele>2270.2</ele>
        <time>2017-02-20T10:33:19Z</time>
      </trkpt>
      <trkpt lat="42.86025" lon="0.22794">
        <ele>2270.2</ele>
        <time>2017-02-20T10:33:24Z</time>
      </trkpt>
      <trkpt lat="42.86027" lon="0.22793">
        <ele>2270.8</ele>
        <time>2017-02-20T10:33:29Z</time>
      </trkpt>
      <trkpt lat="42.8603" lon="0.22792">
        <ele>2271.8</ele>
        <time>2017-02-20T10:33:34Z</time>
      </trkpt>
      <trkpt lat="42.86032" lon="0.22791">
        <ele>2271</ele>
        <time>2017-02-20T10:33:39Z</time>
      </trkpt>
      <trkpt lat="42.86035" lon="0.2279">
        <ele>2271</ele>
        <time>2017-02-20T10:33:44Z</time>
      </trkpt>
      <trkpt lat="42.86037" lon="0.22789">
        <ele>2271.4</ele>
        <time>2017-02-20T10:33:49Z</time>
      </trkpt>
      <trkpt lat="42.86039" lon="0.22789">
        <ele>2271.6</ele>
        <time>2017-02-20T10:33:54Z</time>
      </trkpt>
      <trkpt lat="42.86041" lon="0.22788">
        <ele>2272.8</ele>
        <time>2017-02-20T10:33:59Z</time>
      </trkpt>
      <trkpt lat="42.86044" lon="0.22787">
        <ele>2275.6</ele>
        <time>2017-02-20T10:34:04Z</time>
      </trkpt>
      <trkpt lat="42.86046" lon="0.22786">
        <ele>2274.6</ele>
        <time>2017-02-20T10:34:09Z</time>
      </trkpt>
      <trkpt lat="42.86048" lon="0.22786">
        <ele>2274.4</ele>
        <time>2017-02-20T10:34:14Z</time>
      </trkpt>
      <trkpt lat="42.8605" lon="0.22786">
        <ele>2277.8</ele>
        <time>2017-02-20T10:34:19Z</time>
      </trkpt>
      <trkpt lat="42.86053" lon="0.22785">
        <ele>2279</ele>
        <time>2017-02-20T10:34:24Z</time>
      </trkpt>
      <trkpt lat="42.86055" lon="0.22784">
        <ele>2279.2</ele>
        <time>2017-02-20T10:34:29Z</time>
      </trkpt>
      <trkpt lat="42.86058" lon="0.22784">
        <ele>2278</ele>
        <time>2017-02-20T10:34:34Z</time>
      </trkpt>
      <trkpt lat="42.8606" lon="0.22783">
        <ele>2281</ele>
        <time>2017-02-20T10:34:39Z</time>
      </trkpt>
      <trkpt lat="42.86063" lon="0.22783">
        <ele>2281.6</ele>
        <time>2017-02-20T10:34:44Z</time>
      </trkpt>
      <trkpt lat="42.86065" lon="0.22782">
        <ele>2283.4</ele>
        <time>2017-02-20T10:34:49Z</time>
      </trkpt>
      <trkpt lat="42.86067" lon="0.22782">
        <ele>2282.6</ele>
        <time>2017-02-20T10:34:54Z</time>
      </trkpt>
      <trkpt lat="42.8607" lon="0.22781">
        <ele>2284</ele>
        <time>2017-02-20T10:34:59Z</time>
      </trkpt>
      <trkpt lat="42.8607" lon="0.2278">
        <ele>2283.6</ele>
        <time>2017-02-20T10:35:04Z</time>
      </trkpt>
      <trkpt lat="42.8607" lon="0.22777">
        <ele>2281.8</ele>
        <time>2017-02-20T10:35:09Z</time>
      </trkpt>
      <trkpt lat="42.86069" lon="0.22773">
        <ele>2282</ele>
        <time>2017-02-20T10:35:14Z</time>
      </trkpt>
      <trkpt lat="42.86068" lon="0.22769">
        <ele>2286.4</ele>
        <time>2017-02-20T10:35:19Z</time>
      </trkpt>
      <trkpt lat="42.86067" lon="0.22764">
        <ele>2286</ele>
        <time>2017-02-20T10:35:24Z</time>
      </trkpt>
      <trkpt lat="42.86066" lon="0.22761">
        <ele>2286.4</ele>
        <time>2017-02-20T10:35:29Z</time>
      </trkpt>
      <trkpt lat="42.86065" lon="0.22757">
        <ele>2289.8</ele>
        <time>2017-02-20T10:35:35Z</time>
      </trkpt>
      <trkpt lat="42.86063" lon="0.22754">
        <ele>2288.2</ele>
        <time>2017-02-20T10:35:40Z</time>
      </trkpt>
      <trkpt lat="42.86062" lon="0.22751">
        <ele>2291.6</ele>
        <time>2017-02-20T10:35:45Z</time>
      </trkpt>
      <trkpt lat="42.8606" lon="0.22748">
        <ele>2290.6</ele>
        <time>2017-02-20T10:35:50Z</time>
      </trkpt>
      <trkpt lat="42.86059" lon="0.22745">
        <ele>2290</ele>
        <time>2017-02-20T10:35:55Z</time>
      </trkpt>
      <trkpt lat="42.86058" lon="0.22742">
        <ele>2292.8</ele>
        <time>2017-02-20T10:36:00Z</time>
      </trkpt>
      <trkpt lat="42.86057" lon="0.22739">
        <ele>2295</ele>
        <time>2017-02-20T10:36:05Z</time>
      </trkpt>
      <trkpt lat="42.86056" lon="0.22735">
        <ele>2292</ele>
        <time>2017-02-20T10:36:10Z</time>
      </trkpt>
      <trkpt lat="42.86057" lon="0.22728">
        <ele>2292.2</ele>
        <time>2017-02-20T10:36:20Z</time>
      </trkpt>
      <trkpt lat="42.86057" lon="0.22727">
        <ele>2294</ele>
        <time>2017-02-20T10:36:25Z</time>
      </trkpt>
      <trkpt lat="42.86057" lon="0.22725">
        <ele>2295.8</ele>
        <time>2017-02-20T10:36:30Z</time>
      </trkpt>
      <trkpt lat="42.86058" lon="0.22721">
        <ele>2295.6</ele>
        <time>2017-02-20T10:36:35Z</time>
      </trkpt>
      <trkpt lat="42.86058" lon="0.2272">
        <ele>2294.6</ele>
        <time>2017-02-20T10:36:40Z</time>
      </trkpt>
      <trkpt lat="42.86058" lon="0.22718">
        <ele>2293</ele>
        <time>2017-02-20T10:36:45Z</time>
      </trkpt>
      <trkpt lat="42.86059" lon="0.22713">
        <ele>2295.4</ele>
        <time>2017-02-20T10:36:51Z</time>
      </trkpt>
      <trkpt lat="42.8606" lon="0.2271">
        <ele>2295.2</ele>
        <time>2017-02-20T10:36:56Z</time>
      </trkpt>
      <trkpt lat="42.86062" lon="0.22706">
        <ele>2297</ele>
        <time>2017-02-20T10:37:01Z</time>
      </trkpt>
      <trkpt lat="42.86064" lon="0.22703">
        <ele>2300.2</ele>
        <time>2017-02-20T10:37:06Z</time>
      </trkpt>
      <trkpt lat="42.86065" lon="0.227">
        <ele>2299.2</ele>
        <time>2017-02-20T10:37:11Z</time>
      </trkpt>
      <trkpt lat="42.86067" lon="0.22696">
        <ele>2301.6</ele>
        <time>2017-02-20T10:37:16Z</time>
      </trkpt>
      <trkpt lat="42.86069" lon="0.22693">
        <ele>2299.8</ele>
        <time>2017-02-20T10:37:21Z</time>
      </trkpt>
      <trkpt lat="42.8607" lon="0.22689">
        <ele>2301.4</ele>
        <time>2017-02-20T10:37:26Z</time>
      </trkpt>
      <trkpt lat="42.8607" lon="0.22685">
        <ele>2304.4</ele>
        <time>2017-02-20T10:37:31Z</time>
      </trkpt>
      <trkpt lat="42.86072" lon="0.22681">
        <ele>2304</ele>
        <time>2017-02-20T10:37:36Z</time>
      </trkpt>
      <trkpt lat="42.86073" lon="0.22676">
        <ele>2303.8</ele>
        <time>2017-02-20T10:37:41Z</time>
      </trkpt>
      <trkpt lat="42.86075" lon="0.22672">
        <ele>2302</ele>
        <time>2017-02-20T10:37:46Z</time>
      </trkpt>
      <trkpt lat="42.86076" lon="0.22668">
        <ele>2304.8</ele>
        <time>2017-02-20T10:37:51Z</time>
      </trkpt>
      <trkpt lat="42.86077" lon="0.22664">
        <ele>2305.4</ele>
        <time>2017-02-20T10:37:56Z</time>
      </trkpt>
      <trkpt lat="42.86079" lon="0.2266">
        <ele>2305</ele>
        <time>2017-02-20T10:38:01Z</time>
      </trkpt>
      <trkpt lat="42.86082" lon="0.22657">
        <ele>2305.2</ele>
        <time>2017-02-20T10:38:06Z</time>
      </trkpt>
      <trkpt lat="42.86084" lon="0.22653">
        <ele>2304.8</ele>
        <time>2017-02-20T10:38:12Z</time>
      </trkpt>
      <trkpt lat="42.86085" lon="0.22653">
        <ele>2303.8</ele>
        <time>2017-02-20T10:38:17Z</time>
      </trkpt>
      <trkpt lat="42.86085" lon="0.22653">
        <ele>2304.6</ele>
        <time>2017-02-20T10:38:22Z</time>
      </trkpt>
      <trkpt lat="42.86086" lon="0.22653">
        <ele>2304.4</ele>
        <time>2017-02-20T10:38:27Z</time>
      </trkpt>
      <trkpt lat="42.86086" lon="0.22653">
        <ele>2306</ele>
        <time>2017-02-20T10:39:22Z</time>
      </trkpt>
      <trkpt lat="42.86086" lon="0.22654">
        <ele>2305.4</ele>
        <time>2017-02-20T10:40:12Z</time>
      </trkpt>
      <trkpt lat="42.86086" lon="0.22653">
        <ele>2305.8</ele>
        <time>2017-02-20T10:40:27Z</time>
      </trkpt>
      <trkpt lat="42.86086" lon="0.22653">
        <ele>2305.8</ele>
        <time>2017-02-20T10:40:32Z</time>
      </trkpt>
      <trkpt lat="42.86086" lon="0.22654">
        <ele>2305.8</ele>
        <time>2017-02-20T10:41:28Z</time>
      </trkpt>
      <trkpt lat="42.86086" lon="0.22654">
        <ele>2305.8</ele>
        <time>2017-02-20T10:41:58Z</time>
      </trkpt>
      <trkpt lat="42.86086" lon="0.22654">
        <ele>2305.8</ele>
        <time>2017-02-20T10:42:18Z</time>
      </trkpt>
      <trkpt lat="42.86087" lon="0.22654">
        <ele>2307.2</ele>
        <time>2017-02-20T10:42:33Z</time>
      </trkpt>
      <trkpt lat="42.86087" lon="0.22654">
        <ele>2307.8</ele>
        <time>2017-02-20T10:42:38Z</time>
      </trkpt>
      <trkpt lat="42.86087" lon="0.22654">
        <ele>2306.2</ele>
        <time>2017-02-20T10:43:03Z</time>
      </trkpt>
      <trkpt lat="42.86088" lon="0.22652">
        <ele>2305.8</ele>
        <time>2017-02-20T10:43:18Z</time>
      </trkpt>
      <trkpt lat="42.86088" lon="0.22652">
        <ele>2305.8</ele>
        <time>2017-02-20T10:43:23Z</time>
      </trkpt>
      <trkpt lat="42.86088" lon="0.22652">
        <ele>2305.8</ele>
        <time>2017-02-20T10:43:33Z</time>
      </trkpt>
      <trkpt lat="42.86089" lon="0.22647">
        <ele>2303.6</ele>
        <time>2017-02-20T10:43:43Z</time>
      </trkpt>
      <trkpt lat="42.8609" lon="0.22646">
        <ele>2304.4</ele>
        <time>2017-02-20T10:43:48Z</time>
      </trkpt>
      <trkpt lat="42.86091" lon="0.22645">
        <ele>2306</ele>
        <time>2017-02-20T10:43:58Z</time>
      </trkpt>
      <trkpt lat="42.86093" lon="0.22641">
        <ele>2307.4</ele>
        <time>2017-02-20T10:44:03Z</time>
      </trkpt>
      <trkpt lat="42.86096" lon="0.22636">
        <ele>2305.4</ele>
        <time>2017-02-20T10:44:08Z</time>
      </trkpt>
      <trkpt lat="42.86098" lon="0.22632">
        <ele>2306.4</ele>
        <time>2017-02-20T10:44:13Z</time>
      </trkpt>
      <trkpt lat="42.86101" lon="0.22626">
        <ele>2305.6</ele>
        <time>2017-02-20T10:44:18Z</time>
      </trkpt>
      <trkpt lat="42.86102" lon="0.2262">
        <ele>2306.2</ele>
        <time>2017-02-20T10:44:23Z</time>
      </trkpt>
      <trkpt lat="42.86104" lon="0.22614">
        <ele>2307.4</ele>
        <time>2017-02-20T10:44:28Z</time>
      </trkpt>
      <trkpt lat="42.86104" lon="0.22609">
        <ele>2308.6</ele>
        <time>2017-02-20T10:44:33Z</time>
      </trkpt>
      <trkpt lat="42.86105" lon="0.22604">
        <ele>2307.2</ele>
        <time>2017-02-20T10:44:38Z</time>
      </trkpt>
      <trkpt lat="42.86106" lon="0.226">
        <ele>2307.8</ele>
        <time>2017-02-20T10:44:43Z</time>
      </trkpt>
      <trkpt lat="42.86106" lon="0.22595">
        <ele>2309.6</ele>
        <time>2017-02-20T10:44:48Z</time>
      </trkpt>
      <trkpt lat="42.86107" lon="0.22591">
        <ele>2309.4</ele>
        <time>2017-02-20T10:44:53Z</time>
      </trkpt>
      <trkpt lat="42.86108" lon="0.22586">
        <ele>2312.8</ele>
        <time>2017-02-20T10:44:58Z</time>
      </trkpt>
      <trkpt lat="42.86109" lon="0.22582">
        <ele>2310.2</ele>
        <time>2017-02-20T10:45:03Z</time>
      </trkpt>
      <trkpt lat="42.86111" lon="0.22577">
        <ele>2311.6</ele>
        <time>2017-02-20T10:45:08Z</time>
      </trkpt>
      <trkpt lat="42.86112" lon="0.22573">
        <ele>2313.6</ele>
        <time>2017-02-20T10:45:13Z</time>
      </trkpt>
      <trkpt lat="42.86113" lon="0.22569">
        <ele>2310.6</ele>
        <time>2017-02-20T10:45:18Z</time>
      </trkpt>
      <trkpt lat="42.86114" lon="0.22564">
        <ele>2313.6</ele>
        <time>2017-02-20T10:45:23Z</time>
      </trkpt>
      <trkpt lat="42.86115" lon="0.22561">
        <ele>2314.8</ele>
        <time>2017-02-20T10:45:28Z</time>
      </trkpt>
      <trkpt lat="42.86115" lon="0.22557">
        <ele>2315.2</ele>
        <time>2017-02-20T10:45:33Z</time>
      </trkpt>
      <trkpt lat="42.86116" lon="0.22553">
        <ele>2313</ele>
        <time>2017-02-20T10:45:38Z</time>
      </trkpt>
      <trkpt lat="42.86116" lon="0.2255">
        <ele>2314.6</ele>
        <time>2017-02-20T10:45:43Z</time>
      </trkpt>
      <trkpt lat="42.86117" lon="0.22547">
        <ele>2316.4</ele>
        <time>2017-02-20T10:45:48Z</time>
      </trkpt>
      <trkpt lat="42.86118" lon="0.22543">
        <ele>2317.2</ele>
        <time>2017-02-20T10:45:53Z</time>
      </trkpt>
      <trkpt lat="42.86119" lon="0.22539">
        <ele>2315.4</ele>
        <time>2017-02-20T10:45:58Z</time>
      </trkpt>
      <trkpt lat="42.86121" lon="0.22536">
        <ele>2318.8</ele>
        <time>2017-02-20T10:46:04Z</time>
      </trkpt>
      <trkpt lat="42.86123" lon="0.22533">
        <ele>2318.6</ele>
        <time>2017-02-20T10:46:09Z</time>
      </trkpt>
      <trkpt lat="42.86125" lon="0.2253">
        <ele>2319.2</ele>
        <time>2017-02-20T10:46:14Z</time>
      </trkpt>
      <trkpt lat="42.86127" lon="0.22527">
        <ele>2317.8</ele>
        <time>2017-02-20T10:46:19Z</time>
      </trkpt>
      <trkpt lat="42.86129" lon="0.22524">
        <ele>2318.8</ele>
        <time>2017-02-20T10:46:24Z</time>
      </trkpt>
      <trkpt lat="42.86131" lon="0.22522">
        <ele>2319.4</ele>
        <time>2017-02-20T10:46:29Z</time>
      </trkpt>
      <trkpt lat="42.86133" lon="0.2252">
        <ele>2320.8</ele>
        <time>2017-02-20T10:46:34Z</time>
      </trkpt>
      <trkpt lat="42.86135" lon="0.22517">
        <ele>2321</ele>
        <time>2017-02-20T10:46:39Z</time>
      </trkpt>
      <trkpt lat="42.86136" lon="0.22515">
        <ele>2320.4</ele>
        <time>2017-02-20T10:46:44Z</time>
      </trkpt>
      <trkpt lat="42.86138" lon="0.22512">
        <ele>2321.8</ele>
        <time>2017-02-20T10:46:49Z</time>
      </trkpt>
      <trkpt lat="42.8614" lon="0.2251">
        <ele>2322</ele>
        <time>2017-02-20T10:46:54Z</time>
      </trkpt>
      <trkpt lat="42.86141" lon="0.22507">
        <ele>2322.6</ele>
        <time>2017-02-20T10:46:59Z</time>
      </trkpt>
      <trkpt lat="42.86143" lon="0.22505">
        <ele>2324</ele>
        <time>2017-02-20T10:47:04Z</time>
      </trkpt>
      <trkpt lat="42.86144" lon="0.22502">
        <ele>2325.2</ele>
        <time>2017-02-20T10:47:09Z</time>
      </trkpt>
      <trkpt lat="42.86145" lon="0.22499">
        <ele>2327</ele>
        <time>2017-02-20T10:47:14Z</time>
      </trkpt>
      <trkpt lat="42.86146" lon="0.22496">
        <ele>2326.4</ele>
        <time>2017-02-20T10:47:19Z</time>
      </trkpt>
      <trkpt lat="42.86148" lon="0.22493">
        <ele>2330.2</ele>
        <time>2017-02-20T10:47:24Z</time>
      </trkpt>
      <trkpt lat="42.86149" lon="0.22489">
        <ele>2327.4</ele>
        <time>2017-02-20T10:47:29Z</time>
      </trkpt>
      <trkpt lat="42.86151" lon="0.22486">
        <ele>2331.4</ele>
        <time>2017-02-20T10:47:34Z</time>
      </trkpt>
      <trkpt lat="42.86152" lon="0.22482">
        <ele>2329.2</ele>
        <time>2017-02-20T10:47:39Z</time>
      </trkpt>
      <trkpt lat="42.86153" lon="0.22479">
        <ele>2333</ele>
        <time>2017-02-20T10:47:44Z</time>
      </trkpt>
      <trkpt lat="42.86154" lon="0.22475">
        <ele>2330.2</ele>
        <time>2017-02-20T10:47:49Z</time>
      </trkpt>
      <trkpt lat="42.86155" lon="0.22472">
        <ele>2331.2</ele>
        <time>2017-02-20T10:47:54Z</time>
      </trkpt>
      <trkpt lat="42.86156" lon="0.22469">
        <ele>2331</ele>
        <time>2017-02-20T10:47:59Z</time>
      </trkpt>
      <trkpt lat="42.86157" lon="0.22466">
        <ele>2330</ele>
        <time>2017-02-20T10:48:04Z</time>
      </trkpt>
      <trkpt lat="42.86158" lon="0.22463">
        <ele>2332</ele>
        <time>2017-02-20T10:48:09Z</time>
      </trkpt>
      <trkpt lat="42.86159" lon="0.2246">
        <ele>2333.8</ele>
        <time>2017-02-20T10:48:14Z</time>
      </trkpt>
      <trkpt lat="42.8616" lon="0.22456">
        <ele>2333.4</ele>
        <time>2017-02-20T10:48:19Z</time>
      </trkpt>
      <trkpt lat="42.86161" lon="0.22453">
        <ele>2334.4</ele>
        <time>2017-02-20T10:48:24Z</time>
      </trkpt>
      <trkpt lat="42.86162" lon="0.2245">
        <ele>2336</ele>
        <time>2017-02-20T10:48:29Z</time>
      </trkpt>
      <trkpt lat="42.86164" lon="0.22446">
        <ele>2334.4</ele>
        <time>2017-02-20T10:48:34Z</time>
      </trkpt>
      <trkpt lat="42.86165" lon="0.22443">
        <ele>2335.4</ele>
        <time>2017-02-20T10:48:39Z</time>
      </trkpt>
      <trkpt lat="42.86166" lon="0.22439">
        <ele>2336.2</ele>
        <time>2017-02-20T10:48:44Z</time>
      </trkpt>
      <trkpt lat="42.86167" lon="0.22436">
        <ele>2336.8</ele>
        <time>2017-02-20T10:48:49Z</time>
      </trkpt>
      <trkpt lat="42.86168" lon="0.22432">
        <ele>2336.4</ele>
        <time>2017-02-20T10:48:54Z</time>
      </trkpt>
      <trkpt lat="42.86169" lon="0.22429">
        <ele>2338.4</ele>
        <time>2017-02-20T10:48:59Z</time>
      </trkpt>
      <trkpt lat="42.86171" lon="0.22426">
        <ele>2337.2</ele>
        <time>2017-02-20T10:49:04Z</time>
      </trkpt>
      <trkpt lat="42.86172" lon="0.22423">
        <ele>2338</ele>
        <time>2017-02-20T10:49:09Z</time>
      </trkpt>
      <trkpt lat="42.86174" lon="0.2242">
        <ele>2341</ele>
        <time>2017-02-20T10:49:14Z</time>
      </trkpt>
      <trkpt lat="42.86175" lon="0.22417">
        <ele>2340.2</ele>
        <time>2017-02-20T10:49:19Z</time>
      </trkpt>
      <trkpt lat="42.86177" lon="0.22414">
        <ele>2342</ele>
        <time>2017-02-20T10:49:24Z</time>
      </trkpt>
      <trkpt lat="42.86178" lon="0.22411">
        <ele>2338.8</ele>
        <time>2017-02-20T10:49:29Z</time>
      </trkpt>
      <trkpt lat="42.8618" lon="0.22408">
        <ele>2341.4</ele>
        <time>2017-02-20T10:49:34Z</time>
      </trkpt>
      <trkpt lat="42.86181" lon="0.22406">
        <ele>2342</ele>
        <time>2017-02-20T10:49:39Z</time>
      </trkpt>
      <trkpt lat="42.86183" lon="0.22403">
        <ele>2339.4</ele>
        <time>2017-02-20T10:49:44Z</time>
      </trkpt>
      <trkpt lat="42.86185" lon="0.224">
        <ele>2343.4</ele>
        <time>2017-02-20T10:49:49Z</time>
      </trkpt>
      <trkpt lat="42.86187" lon="0.22397">
        <ele>2344</ele>
        <time>2017-02-20T10:49:54Z</time>
      </trkpt>
      <trkpt lat="42.86188" lon="0.22394">
        <ele>2346.2</ele>
        <time>2017-02-20T10:49:59Z</time>
      </trkpt>
      <trkpt lat="42.86191" lon="0.22391">
        <ele>2344.4</ele>
        <time>2017-02-20T10:50:04Z</time>
      </trkpt>
      <trkpt lat="42.86193" lon="0.22389">
        <ele>2345.6</ele>
        <time>2017-02-20T10:50:09Z</time>
      </trkpt>
      <trkpt lat="42.86194" lon="0.22386">
        <ele>2344</ele>
        <time>2017-02-20T10:50:14Z</time>
      </trkpt>
      <trkpt lat="42.86196" lon="0.22384">
        <ele>2348.8</ele>
        <time>2017-02-20T10:50:19Z</time>
      </trkpt>
      <trkpt lat="42.86197" lon="0.22382">
        <ele>2348.4</ele>
        <time>2017-02-20T10:50:24Z</time>
      </trkpt>
      <trkpt lat="42.86199" lon="0.2238">
        <ele>2348.6</ele>
        <time>2017-02-20T10:50:29Z</time>
      </trkpt>
      <trkpt lat="42.86201" lon="0.22378">
        <ele>2347</ele>
        <time>2017-02-20T10:50:34Z</time>
      </trkpt>
      <trkpt lat="42.86203" lon="0.22376">
        <ele>2348.6</ele>
        <time>2017-02-20T10:50:39Z</time>
      </trkpt>
      <trkpt lat="42.86205" lon="0.22374">
        <ele>2348.8</ele>
        <time>2017-02-20T10:50:44Z</time>
      </trkpt>
      <trkpt lat="42.86207" lon="0.22372">
        <ele>2350.6</ele>
        <time>2017-02-20T10:50:49Z</time>
      </trkpt>
      <trkpt lat="42.86208" lon="0.2237">
        <ele>2349.2</ele>
        <time>2017-02-20T10:50:54Z</time>
      </trkpt>
      <trkpt lat="42.8621" lon="0.22368">
        <ele>2353.2</ele>
        <time>2017-02-20T10:50:59Z</time>
      </trkpt>
      <trkpt lat="42.86211" lon="0.22366">
        <ele>2354</ele>
        <time>2017-02-20T10:51:04Z</time>
      </trkpt>
      <trkpt lat="42.86213" lon="0.22364">
        <ele>2355</ele>
        <time>2017-02-20T10:51:09Z</time>
      </trkpt>
      <trkpt lat="42.86214" lon="0.22362">
        <ele>2353.6</ele>
        <time>2017-02-20T10:51:14Z</time>
      </trkpt>
      <trkpt lat="42.86215" lon="0.22359">
        <ele>2353.2</ele>
        <time>2017-02-20T10:51:19Z</time>
      </trkpt>
      <trkpt lat="42.86217" lon="0.22357">
        <ele>2353</ele>
        <time>2017-02-20T10:51:24Z</time>
      </trkpt>
      <trkpt lat="42.86216" lon="0.22357">
        <ele>2354</ele>
        <time>2017-02-20T10:51:39Z</time>
      </trkpt>
      <trkpt lat="42.86216" lon="0.22357">
        <ele>2354.4</ele>
        <time>2017-02-20T10:51:54Z</time>
      </trkpt>
      <trkpt lat="42.86218" lon="0.22355">
        <ele>2353.4</ele>
        <time>2017-02-20T10:51:59Z</time>
      </trkpt>
      <trkpt lat="42.86219" lon="0.22352">
        <ele>2352.8</ele>
        <time>2017-02-20T10:52:04Z</time>
      </trkpt>
      <trkpt lat="42.8622" lon="0.2235">
        <ele>2354.2</ele>
        <time>2017-02-20T10:52:09Z</time>
      </trkpt>
      <trkpt lat="42.86221" lon="0.22347">
        <ele>2355.4</ele>
        <time>2017-02-20T10:52:14Z</time>
      </trkpt>
      <trkpt lat="42.86222" lon="0.22345">
        <ele>2358.2</ele>
        <time>2017-02-20T10:52:19Z</time>
      </trkpt>
      <trkpt lat="42.86224" lon="0.22343">
        <ele>2359</ele>
        <time>2017-02-20T10:52:24Z</time>
      </trkpt>
      <trkpt lat="42.86225" lon="0.22341">
        <ele>2359.6</ele>
        <time>2017-02-20T10:52:29Z</time>
      </trkpt>
      <trkpt lat="42.86226" lon="0.22338">
        <ele>2361</ele>
        <time>2017-02-20T10:52:34Z</time>
      </trkpt>
      <trkpt lat="42.86228" lon="0.22336">
        <ele>2364.2</ele>
        <time>2017-02-20T10:52:39Z</time>
      </trkpt>
      <trkpt lat="42.8623" lon="0.22333">
        <ele>2361.6</ele>
        <time>2017-02-20T10:52:44Z</time>
      </trkpt>
      <trkpt lat="42.86231" lon="0.22331">
        <ele>2359.8</ele>
        <time>2017-02-20T10:52:49Z</time>
      </trkpt>
      <trkpt lat="42.86232" lon="0.22329">
        <ele>2361.4</ele>
        <time>2017-02-20T10:52:54Z</time>
      </trkpt>
      <trkpt lat="42.86233" lon="0.22327">
        <ele>2363.8</ele>
        <time>2017-02-20T10:52:59Z</time>
      </trkpt>
      <trkpt lat="42.86234" lon="0.22325">
        <ele>2366</ele>
        <time>2017-02-20T10:53:04Z</time>
      </trkpt>
      <trkpt lat="42.86235" lon="0.22323">
        <ele>2365.6</ele>
        <time>2017-02-20T10:53:09Z</time>
      </trkpt>
      <trkpt lat="42.86236" lon="0.22321">
        <ele>2366.6</ele>
        <time>2017-02-20T10:53:14Z</time>
      </trkpt>
      <trkpt lat="42.86237" lon="0.22319">
        <ele>2363.6</ele>
        <time>2017-02-20T10:53:19Z</time>
      </trkpt>
      <trkpt lat="42.86238" lon="0.22317">
        <ele>2364.8</ele>
        <time>2017-02-20T10:53:24Z</time>
      </trkpt>
      <trkpt lat="42.86239" lon="0.22315">
        <ele>2365.2</ele>
        <time>2017-02-20T10:53:29Z</time>
      </trkpt>
      <trkpt lat="42.86241" lon="0.22313">
        <ele>2365.2</ele>
        <time>2017-02-20T10:53:34Z</time>
      </trkpt>
      <trkpt lat="42.86242" lon="0.22312">
        <ele>2367.4</ele>
        <time>2017-02-20T10:53:39Z</time>
      </trkpt>
      <trkpt lat="42.86243" lon="0.2231">
        <ele>2367.4</ele>
        <time>2017-02-20T10:53:44Z</time>
      </trkpt>
      <trkpt lat="42.86245" lon="0.22308">
        <ele>2369.4</ele>
        <time>2017-02-20T10:53:49Z</time>
      </trkpt>
      <trkpt lat="42.86246" lon="0.22306">
        <ele>2369.8</ele>
        <time>2017-02-20T10:53:54Z</time>
      </trkpt>
      <trkpt lat="42.86247" lon="0.22304">
        <ele>2369</ele>
        <time>2017-02-20T10:53:59Z</time>
      </trkpt>
      <trkpt lat="42.86249" lon="0.22302">
        <ele>2370.2</ele>
        <time>2017-02-20T10:54:04Z</time>
      </trkpt>
      <trkpt lat="42.8625" lon="0.223">
        <ele>2368.8</ele>
        <time>2017-02-20T10:54:09Z</time>
      </trkpt>
      <trkpt lat="42.86251" lon="0.22298">
        <ele>2367.2</ele>
        <time>2017-02-20T10:54:14Z</time>
      </trkpt>
      <trkpt lat="42.86253" lon="0.22296">
        <ele>2369.4</ele>
        <time>2017-02-20T10:54:19Z</time>
      </trkpt>
      <trkpt lat="42.86255" lon="0.22296">
        <ele>2370</ele>
        <time>2017-02-20T10:54:24Z</time>
      </trkpt>
      <trkpt lat="42.86256" lon="0.22295">
        <ele>2372.2</ele>
        <time>2017-02-20T10:54:29Z</time>
      </trkpt>
      <trkpt lat="42.86256" lon="0.22293">
        <ele>2370</ele>
        <time>2017-02-20T10:54:34Z</time>
      </trkpt>
      <trkpt lat="42.86255" lon="0.2229">
        <ele>2372</ele>
        <time>2017-02-20T10:54:39Z</time>
      </trkpt>
      <trkpt lat="42.86255" lon="0.22288">
        <ele>2374</ele>
        <time>2017-02-20T10:54:44Z</time>
      </trkpt>
      <trkpt lat="42.86255" lon="0.22284">
        <ele>2376.2</ele>
        <time>2017-02-20T10:54:54Z</time>
      </trkpt>
      <trkpt lat="42.86255" lon="0.22283">
        <ele>2376.2</ele>
        <time>2017-02-20T10:54:59Z</time>
      </trkpt>
      <trkpt lat="42.86255" lon="0.22278">
        <ele>2378.2</ele>
        <time>2017-02-20T10:55:09Z</time>
      </trkpt>
      <trkpt lat="42.86254" lon="0.22276">
        <ele>2379.6</ele>
        <time>2017-02-20T10:55:14Z</time>
      </trkpt>
      <trkpt lat="42.86253" lon="0.22274">
        <ele>2382.2</ele>
        <time>2017-02-20T10:55:19Z</time>
      </trkpt>
      <trkpt lat="42.86252" lon="0.22272">
        <ele>2382.2</ele>
        <time>2017-02-20T10:55:24Z</time>
      </trkpt>
      <trkpt lat="42.86252" lon="0.2227">
        <ele>2381.4</ele>
        <time>2017-02-20T10:55:29Z</time>
      </trkpt>
      <trkpt lat="42.86251" lon="0.22268">
        <ele>2382.8</ele>
        <time>2017-02-20T10:55:34Z</time>
      </trkpt>
      <trkpt lat="42.86252" lon="0.22263">
        <ele>2385.4</ele>
        <time>2017-02-20T10:55:44Z</time>
      </trkpt>
      <trkpt lat="42.86252" lon="0.22261">
        <ele>2387.2</ele>
        <time>2017-02-20T10:55:50Z</time>
      </trkpt>
      <trkpt lat="42.86253" lon="0.22258">
        <ele>2386.8</ele>
        <time>2017-02-20T10:55:55Z</time>
      </trkpt>
      <trkpt lat="42.86253" lon="0.22256">
        <ele>2387.4</ele>
        <time>2017-02-20T10:56:00Z</time>
      </trkpt>
      <trkpt lat="42.86254" lon="0.22254">
        <ele>2389</ele>
        <time>2017-02-20T10:56:05Z</time>
      </trkpt>
      <trkpt lat="42.86254" lon="0.22251">
        <ele>2388.4</ele>
        <time>2017-02-20T10:56:10Z</time>
      </trkpt>
      <trkpt lat="42.86255" lon="0.22249">
        <ele>2388</ele>
        <time>2017-02-20T10:56:15Z</time>
      </trkpt>
      <trkpt lat="42.86257" lon="0.22247">
        <ele>2388.2</ele>
        <time>2017-02-20T10:56:20Z</time>
      </trkpt>
      <trkpt lat="42.86258" lon="0.22246">
        <ele>2386.6</ele>
        <time>2017-02-20T10:56:25Z</time>
      </trkpt>
      <trkpt lat="42.8626" lon="0.22246">
        <ele>2386.4</ele>
        <time>2017-02-20T10:56:30Z</time>
      </trkpt>
      <trkpt lat="42.86262" lon="0.22245">
        <ele>2387</ele>
        <time>2017-02-20T10:56:35Z</time>
      </trkpt>
      <trkpt lat="42.86264" lon="0.22244">
        <ele>2390.4</ele>
        <time>2017-02-20T10:56:40Z</time>
      </trkpt>
      <trkpt lat="42.86267" lon="0.22244">
        <ele>2388.8</ele>
        <time>2017-02-20T10:56:45Z</time>
      </trkpt>
      <trkpt lat="42.8627" lon="0.22245">
        <ele>2388.2</ele>
        <time>2017-02-20T10:56:50Z</time>
      </trkpt>
      <trkpt lat="42.86272" lon="0.22246">
        <ele>2393.6</ele>
        <time>2017-02-20T10:56:55Z</time>
      </trkpt>
      <trkpt lat="42.86274" lon="0.22247">
        <ele>2391.8</ele>
        <time>2017-02-20T10:57:00Z</time>
      </trkpt>
      <trkpt lat="42.86276" lon="0.22248">
        <ele>2390.8</ele>
        <time>2017-02-20T10:57:05Z</time>
      </trkpt>
      <trkpt lat="42.86278" lon="0.22249">
        <ele>2395.2</ele>
        <time>2017-02-20T10:57:10Z</time>
      </trkpt>
      <trkpt lat="42.86279" lon="0.22251">
        <ele>2396.6</ele>
        <time>2017-02-20T10:57:15Z</time>
      </trkpt>
      <trkpt lat="42.86281" lon="0.22252">
        <ele>2394.4</ele>
        <time>2017-02-20T10:57:20Z</time>
      </trkpt>
      <trkpt lat="42.86283" lon="0.22252">
        <ele>2394.2</ele>
        <time>2017-02-20T10:57:25Z</time>
      </trkpt>
      <trkpt lat="42.86285" lon="0.2225">
        <ele>2394</ele>
        <time>2017-02-20T10:57:30Z</time>
      </trkpt>
      <trkpt lat="42.86286" lon="0.22249">
        <ele>2396.8</ele>
        <time>2017-02-20T10:57:35Z</time>
      </trkpt>
      <trkpt lat="42.86288" lon="0.22247">
        <ele>2396.2</ele>
        <time>2017-02-20T10:57:40Z</time>
      </trkpt>
      <trkpt lat="42.86289" lon="0.22245">
        <ele>2395.8</ele>
        <time>2017-02-20T10:57:45Z</time>
      </trkpt>
      <trkpt lat="42.8629" lon="0.22245">
        <ele>2397.8</ele>
        <time>2017-02-20T10:57:50Z</time>
      </trkpt>
      <trkpt lat="42.86293" lon="0.22245">
        <ele>2395</ele>
        <time>2017-02-20T10:57:55Z</time>
      </trkpt>
      <trkpt lat="42.86295" lon="0.22246">
        <ele>2396.4</ele>
        <time>2017-02-20T10:58:00Z</time>
      </trkpt>
      <trkpt lat="42.86297" lon="0.22247">
        <ele>2397.2</ele>
        <time>2017-02-20T10:58:05Z</time>
      </trkpt>
      <trkpt lat="42.86299" lon="0.22247">
        <ele>2400.4</ele>
        <time>2017-02-20T10:58:10Z</time>
      </trkpt>
      <trkpt lat="42.86301" lon="0.22248">
        <ele>2399.2</ele>
        <time>2017-02-20T10:58:15Z</time>
      </trkpt>
      <trkpt lat="42.86303" lon="0.22248">
        <ele>2401.2</ele>
        <time>2017-02-20T10:58:20Z</time>
      </trkpt>
      <trkpt lat="42.86304" lon="0.22249">
        <ele>2400</ele>
        <time>2017-02-20T10:58:25Z</time>
      </trkpt>
      <trkpt lat="42.86306" lon="0.22251">
        <ele>2402.2</ele>
        <time>2017-02-20T10:58:30Z</time>
      </trkpt>
      <trkpt lat="42.86308" lon="0.22252">
        <ele>2404.8</ele>
        <time>2017-02-20T10:58:35Z</time>
      </trkpt>
      <trkpt lat="42.86309" lon="0.22254">
        <ele>2408.2</ele>
        <time>2017-02-20T10:58:40Z</time>
      </trkpt>
      <trkpt lat="42.86311" lon="0.22255">
        <ele>2406.6</ele>
        <time>2017-02-20T10:58:45Z</time>
      </trkpt>
      <trkpt lat="42.86313" lon="0.22257">
        <ele>2405.4</ele>
        <time>2017-02-20T10:58:50Z</time>
      </trkpt>
      <trkpt lat="42.86314" lon="0.22258">
        <ele>2406.4</ele>
        <time>2017-02-20T10:58:56Z</time>
      </trkpt>
      <trkpt lat="42.86316" lon="0.2226">
        <ele>2406.2</ele>
        <time>2017-02-20T10:59:01Z</time>
      </trkpt>
      <trkpt lat="42.86316" lon="0.2226">
        <ele>2411.2</ele>
        <time>2017-02-20T10:59:06Z</time>
      </trkpt>
      <trkpt lat="42.86316" lon="0.22259">
        <ele>2410.6</ele>
        <time>2017-02-20T10:59:11Z</time>
      </trkpt>
      <trkpt lat="42.86316" lon="0.22255">
        <ele>2408.8</ele>
        <time>2017-02-20T10:59:21Z</time>
      </trkpt>
      <trkpt lat="42.86316" lon="0.22253">
        <ele>2409</ele>
        <time>2017-02-20T10:59:26Z</time>
      </trkpt>
      <trkpt lat="42.86317" lon="0.22247">
        <ele>2411.6</ele>
        <time>2017-02-20T10:59:36Z</time>
      </trkpt>
      <trkpt lat="42.86317" lon="0.22245">
        <ele>2411.4</ele>
        <time>2017-02-20T10:59:41Z</time>
      </trkpt>
      <trkpt lat="42.86317" lon="0.22238">
        <ele>2408.4</ele>
        <time>2017-02-20T10:59:51Z</time>
      </trkpt>
      <trkpt lat="42.86317" lon="0.22236">
        <ele>2416</ele>
        <time>2017-02-20T10:59:56Z</time>
      </trkpt>
      <trkpt lat="42.86317" lon="0.22232">
        <ele>2413</ele>
        <time>2017-02-20T11:00:01Z</time>
      </trkpt>
      <trkpt lat="42.86318" lon="0.22231">
        <ele>2411.2</ele>
        <time>2017-02-20T11:00:06Z</time>
      </trkpt>
      <trkpt lat="42.86321" lon="0.22232">
        <ele>2413.4</ele>
        <time>2017-02-20T11:00:11Z</time>
      </trkpt>
      <trkpt lat="42.86322" lon="0.22234">
        <ele>2415</ele>
        <time>2017-02-20T11:00:16Z</time>
      </trkpt>
      <trkpt lat="42.86322" lon="0.22234">
        <ele>2415.6</ele>
        <time>2017-02-20T11:00:21Z</time>
      </trkpt>
      <trkpt lat="42.86324" lon="0.22235">
        <ele>2415.6</ele>
        <time>2017-02-20T11:00:31Z</time>
      </trkpt>
      <trkpt lat="42.86326" lon="0.22236">
        <ele>2416</ele>
        <time>2017-02-20T11:00:36Z</time>
      </trkpt>
      <trkpt lat="42.86328" lon="0.22237">
        <ele>2416.4</ele>
        <time>2017-02-20T11:00:41Z</time>
      </trkpt>
      <trkpt lat="42.8633" lon="0.22238">
        <ele>2419.8</ele>
        <time>2017-02-20T11:00:46Z</time>
      </trkpt>
      <trkpt lat="42.86332" lon="0.22239">
        <ele>2418.2</ele>
        <time>2017-02-20T11:00:51Z</time>
      </trkpt>
      <trkpt lat="42.86335" lon="0.2224">
        <ele>2420.2</ele>
        <time>2017-02-20T11:00:56Z</time>
      </trkpt>
      <trkpt lat="42.86337" lon="0.2224">
        <ele>2418</ele>
        <time>2017-02-20T11:01:01Z</time>
      </trkpt>
      <trkpt lat="42.8634" lon="0.22241">
        <ele>2421.6</ele>
        <time>2017-02-20T11:01:06Z</time>
      </trkpt>
      <trkpt lat="42.86341" lon="0.22242">
        <ele>2420.6</ele>
        <time>2017-02-20T11:01:11Z</time>
      </trkpt>
      <trkpt lat="42.86343" lon="0.22241">
        <ele>2416.2</ele>
        <time>2017-02-20T11:01:16Z</time>
      </trkpt>
      <trkpt lat="42.86344" lon="0.22239">
        <ele>2418.4</ele>
        <time>2017-02-20T11:01:21Z</time>
      </trkpt>
      <trkpt lat="42.86344" lon="0.22238">
        <ele>2420.2</ele>
        <time>2017-02-20T11:01:26Z</time>
      </trkpt>
      <trkpt lat="42.86344" lon="0.22238">
        <ele>2421.4</ele>
        <time>2017-02-20T11:01:36Z</time>
      </trkpt>
      <trkpt lat="42.86345" lon="0.22236">
        <ele>2419.2</ele>
        <time>2017-02-20T11:01:41Z</time>
      </trkpt>
      <trkpt lat="42.86345" lon="0.22233">
        <ele>2421.8</ele>
        <time>2017-02-20T11:01:46Z</time>
      </trkpt>
      <trkpt lat="42.86346" lon="0.22231">
        <ele>2421.4</ele>
        <time>2017-02-20T11:01:51Z</time>
      </trkpt>
      <trkpt lat="42.86346" lon="0.22227">
        <ele>2425</ele>
        <time>2017-02-20T11:01:57Z</time>
      </trkpt>
      <trkpt lat="42.86346" lon="0.22224">
        <ele>2424.2</ele>
        <time>2017-02-20T11:02:03Z</time>
      </trkpt>
      <trkpt lat="42.86346" lon="0.22221">
        <ele>2425.6</ele>
        <time>2017-02-20T11:02:08Z</time>
      </trkpt>
      <trkpt lat="42.86347" lon="0.22218">
        <ele>2428</ele>
        <time>2017-02-20T11:02:13Z</time>
      </trkpt>
      <trkpt lat="42.86347" lon="0.22216">
        <ele>2428.2</ele>
        <time>2017-02-20T11:02:18Z</time>
      </trkpt>
      <trkpt lat="42.86347" lon="0.22213">
        <ele>2426.8</ele>
        <time>2017-02-20T11:02:23Z</time>
      </trkpt>
      <trkpt lat="42.86346" lon="0.22211">
        <ele>2427.6</ele>
        <time>2017-02-20T11:02:28Z</time>
      </trkpt>
      <trkpt lat="42.86346" lon="0.22208">
        <ele>2428.6</ele>
        <time>2017-02-20T11:02:33Z</time>
      </trkpt>
      <trkpt lat="42.86346" lon="0.22205">
        <ele>2429.6</ele>
        <time>2017-02-20T11:02:38Z</time>
      </trkpt>
      <trkpt lat="42.86345" lon="0.22203">
        <ele>2435</ele>
        <time>2017-02-20T11:02:43Z</time>
      </trkpt>
      <trkpt lat="42.86345" lon="0.222">
        <ele>2435.4</ele>
        <time>2017-02-20T11:02:48Z</time>
      </trkpt>
      <trkpt lat="42.86345" lon="0.22198">
        <ele>2434.2</ele>
        <time>2017-02-20T11:02:53Z</time>
      </trkpt>
      <trkpt lat="42.86345" lon="0.22196">
        <ele>2432.8</ele>
        <time>2017-02-20T11:02:58Z</time>
      </trkpt>
      <trkpt lat="42.86345" lon="0.22193">
        <ele>2438.4</ele>
        <time>2017-02-20T11:03:03Z</time>
      </trkpt>
      <trkpt lat="42.86345" lon="0.22191">
        <ele>2438.4</ele>
        <time>2017-02-20T11:03:08Z</time>
      </trkpt>
      <trkpt lat="42.86345" lon="0.22188">
        <ele>2438.6</ele>
        <time>2017-02-20T11:03:13Z</time>
      </trkpt>
      <trkpt lat="42.86344" lon="0.22186">
        <ele>2440.4</ele>
        <time>2017-02-20T11:03:18Z</time>
      </trkpt>
      <trkpt lat="42.86344" lon="0.22184">
        <ele>2441.8</ele>
        <time>2017-02-20T11:03:23Z</time>
      </trkpt>
      <trkpt lat="42.86344" lon="0.22183">
        <ele>2438.6</ele>
        <time>2017-02-20T11:03:43Z</time>
      </trkpt>
      <trkpt lat="42.86343" lon="0.22182">
        <ele>2438.4</ele>
        <time>2017-02-20T11:03:49Z</time>
      </trkpt>
      <trkpt lat="42.86343" lon="0.22179">
        <ele>2436.8</ele>
        <time>2017-02-20T11:03:55Z</time>
      </trkpt>
      <trkpt lat="42.86342" lon="0.22176">
        <ele>2440.4</ele>
        <time>2017-02-20T11:04:00Z</time>
      </trkpt>
      <trkpt lat="42.86342" lon="0.22174">
        <ele>2440.8</ele>
        <time>2017-02-20T11:04:05Z</time>
      </trkpt>
      <trkpt lat="42.86341" lon="0.22171">
        <ele>2442</ele>
        <time>2017-02-20T11:04:10Z</time>
      </trkpt>
      <trkpt lat="42.8634" lon="0.22169">
        <ele>2442.4</ele>
        <time>2017-02-20T11:04:15Z</time>
      </trkpt>
      <trkpt lat="42.86339" lon="0.22167">
        <ele>2441.6</ele>
        <time>2017-02-20T11:04:20Z</time>
      </trkpt>
      <trkpt lat="42.86339" lon="0.22164">
        <ele>2444</ele>
        <time>2017-02-20T11:04:25Z</time>
      </trkpt>
      <trkpt lat="42.86339" lon="0.22162">
        <ele>2444</ele>
        <time>2017-02-20T11:04:30Z</time>
      </trkpt>
      <trkpt lat="42.86339" lon="0.22156">
        <ele>2440.8</ele>
        <time>2017-02-20T11:04:40Z</time>
      </trkpt>
      <trkpt lat="42.86339" lon="0.22154">
        <ele>2441.4</ele>
        <time>2017-02-20T11:04:45Z</time>
      </trkpt>
      <trkpt lat="42.86339" lon="0.22151">
        <ele>2443.6</ele>
        <time>2017-02-20T11:04:50Z</time>
      </trkpt>
      <trkpt lat="42.86341" lon="0.22149">
        <ele>2443.6</ele>
        <time>2017-02-20T11:04:55Z</time>
      </trkpt>
      <trkpt lat="42.86342" lon="0.22148">
        <ele>2444.8</ele>
        <time>2017-02-20T11:05:00Z</time>
      </trkpt>
      <trkpt lat="42.86344" lon="0.22147">
        <ele>2447</ele>
        <time>2017-02-20T11:05:05Z</time>
      </trkpt>
      <trkpt lat="42.86344" lon="0.22147">
        <ele>2448</ele>
        <time>2017-02-20T11:05:10Z</time>
      </trkpt>
      <trkpt lat="42.86345" lon="0.22147">
        <ele>2450.2</ele>
        <time>2017-02-20T11:05:20Z</time>
      </trkpt>
      <trkpt lat="42.86348" lon="0.22146">
        <ele>2451</ele>
        <time>2017-02-20T11:05:25Z</time>
      </trkpt>
      <trkpt lat="42.8635" lon="0.22145">
        <ele>2453</ele>
        <time>2017-02-20T11:05:30Z</time>
      </trkpt>
      <trkpt lat="42.86352" lon="0.22144">
        <ele>2450.4</ele>
        <time>2017-02-20T11:05:36Z</time>
      </trkpt>
      <trkpt lat="42.86354" lon="0.22144">
        <ele>2451.2</ele>
        <time>2017-02-20T11:05:41Z</time>
      </trkpt>
      <trkpt lat="42.86356" lon="0.22143">
        <ele>2451.2</ele>
        <time>2017-02-20T11:05:46Z</time>
      </trkpt>
      <trkpt lat="42.8636" lon="0.22143">
        <ele>2452</ele>
        <time>2017-02-20T11:05:56Z</time>
      </trkpt>
      <trkpt lat="42.86361" lon="0.22143">
        <ele>2452.8</ele>
        <time>2017-02-20T11:06:11Z</time>
      </trkpt>
      <trkpt lat="42.86361" lon="0.22144">
        <ele>2452.6</ele>
        <time>2017-02-20T11:06:16Z</time>
      </trkpt>
      <trkpt lat="42.86361" lon="0.22144">
        <ele>2452.4</ele>
        <time>2017-02-20T11:06:21Z</time>
      </trkpt>
      <trkpt lat="42.86362" lon="0.22144">
        <ele>2451</ele>
        <time>2017-02-20T11:07:42Z</time>
      </trkpt>
      <trkpt lat="42.86364" lon="0.22143">
        <ele>2448.6</ele>
        <time>2017-02-20T11:07:47Z</time>
      </trkpt>
      <trkpt lat="42.86366" lon="0.22142">
        <ele>2452.6</ele>
        <time>2017-02-20T11:07:52Z</time>
      </trkpt>
      <trkpt lat="42.86368" lon="0.2214">
        <ele>2452.6</ele>
        <time>2017-02-20T11:07:57Z</time>
      </trkpt>
      <trkpt lat="42.86369" lon="0.22139">
        <ele>2451.8</ele>
        <time>2017-02-20T11:08:02Z</time>
      </trkpt>
      <trkpt lat="42.86369" lon="0.22139">
        <ele>2452.6</ele>
        <time>2017-02-20T11:08:12Z</time>
      </trkpt>
      <trkpt lat="42.8637" lon="0.2214">
        <ele>2453.6</ele>
        <time>2017-02-20T11:08:17Z</time>
      </trkpt>
      <trkpt lat="42.8637" lon="0.22141">
        <ele>2454</ele>
        <time>2017-02-20T11:08:22Z</time>
      </trkpt>
      <trkpt lat="42.8637" lon="0.22141">
        <ele>2454.6</ele>
        <time>2017-02-20T11:09:42Z</time>
      </trkpt>
      <trkpt lat="42.86371" lon="0.22142">
        <ele>2455.2</ele>
        <time>2017-02-20T11:09:52Z</time>
      </trkpt>
      <trkpt lat="42.86371" lon="0.22143">
        <ele>2455.4</ele>
        <time>2017-02-20T11:09:57Z</time>
      </trkpt>
      <trkpt lat="42.86371" lon="0.22143">
        <ele>2455.6</ele>
        <time>2017-02-20T11:10:03Z</time>
      </trkpt>
      <trkpt lat="42.8637" lon="0.22144">
        <ele>2455.8</ele>
        <time>2017-02-20T11:10:08Z</time>
      </trkpt>
      <trkpt lat="42.8637" lon="0.22144">
        <ele>2456.6</ele>
        <time>2017-02-20T11:10:38Z</time>
      </trkpt>
      <trkpt lat="42.8637" lon="0.22144">
        <ele>2456.8</ele>
        <time>2017-02-20T11:11:13Z</time>
      </trkpt>
      <trkpt lat="42.8637" lon="0.22143">
        <ele>2456.8</ele>
        <time>2017-02-20T11:11:23Z</time>
      </trkpt>
      <trkpt lat="42.8637" lon="0.22143">
        <ele>2456.6</ele>
        <time>2017-02-20T11:12:03Z</time>
      </trkpt>
      <trkpt lat="42.8637" lon="0.22143">
        <ele>2456.8</ele>
        <time>2017-02-20T11:12:08Z</time>
      </trkpt>
      <trkpt lat="42.86369" lon="0.22143">
        <ele>2456.8</ele>
        <time>2017-02-20T11:12:18Z</time>
      </trkpt>
      <trkpt lat="42.86369" lon="0.22143">
        <ele>2456.8</ele>
        <time>2017-02-20T11:12:23Z</time>
      </trkpt>
      <trkpt lat="42.86369" lon="0.22142">
        <ele>2454.4</ele>
        <time>2017-02-20T11:12:28Z</time>
      </trkpt>
      <trkpt lat="42.8637" lon="0.22143">
        <ele>2456.8</ele>
        <time>2017-02-20T11:12:33Z</time>
      </trkpt>
      <trkpt lat="42.8637" lon="0.22144">
        <ele>2457</ele>
        <time>2017-02-20T11:12:38Z</time>
      </trkpt>
      <trkpt lat="42.8637" lon="0.22143">
        <ele>2457.2</ele>
        <time>2017-02-20T11:12:43Z</time>
      </trkpt>
      <trkpt lat="42.8637" lon="0.22143">
        <ele>2457.2</ele>
        <time>2017-02-20T11:12:48Z</time>
      </trkpt>
      <trkpt lat="42.8637" lon="0.22143">
        <ele>2457.2</ele>
        <time>2017-02-20T11:13:08Z</time>
      </trkpt>
      <trkpt lat="42.8637" lon="0.22143">
        <ele>2457.2</ele>
        <time>2017-02-20T11:13:13Z</time>
      </trkpt>
      <trkpt lat="42.8637" lon="0.22143">
        <ele>2457</ele>
        <time>2017-02-20T11:15:25Z</time>
      </trkpt>
      <trkpt lat="42.8637" lon="0.22142">
        <ele>2457</ele>
        <time>2017-02-20T11:15:30Z</time>
      </trkpt>
      <trkpt lat="42.86369" lon="0.22143">
        <ele>2458</ele>
        <time>2017-02-20T11:15:35Z</time>
      </trkpt>
      <trkpt lat="42.86368" lon="0.22143">
        <ele>2457.4</ele>
        <time>2017-02-20T11:15:40Z</time>
      </trkpt>
      <trkpt lat="42.86368" lon="0.22142">
        <ele>2456.4</ele>
        <time>2017-02-20T11:16:20Z</time>
      </trkpt>
      <trkpt lat="42.86368" lon="0.22141">
        <ele>2456.4</ele>
        <time>2017-02-20T11:16:25Z</time>
      </trkpt>
      <trkpt lat="42.86369" lon="0.2214">
        <ele>2459</ele>
        <time>2017-02-20T11:16:35Z</time>
      </trkpt>
      <trkpt lat="42.86371" lon="0.22137">
        <ele>2457.4</ele>
        <time>2017-02-20T11:16:40Z</time>
      </trkpt>
      <trkpt lat="42.86374" lon="0.22134">
        <ele>2454.8</ele>
        <time>2017-02-20T11:16:45Z</time>
      </trkpt>
      <trkpt lat="42.86376" lon="0.22131">
        <ele>2458.2</ele>
        <time>2017-02-20T11:16:50Z</time>
      </trkpt>
      <trkpt lat="42.86378" lon="0.22127">
        <ele>2457.8</ele>
        <time>2017-02-20T11:16:55Z</time>
      </trkpt>
      <trkpt lat="42.8638" lon="0.22122">
        <ele>2459.4</ele>
        <time>2017-02-20T11:17:00Z</time>
      </trkpt>
      <trkpt lat="42.86381" lon="0.22118">
        <ele>2458.4</ele>
        <time>2017-02-20T11:17:05Z</time>
      </trkpt>
      <trkpt lat="42.86382" lon="0.22115">
        <ele>2458</ele>
        <time>2017-02-20T11:17:10Z</time>
      </trkpt>
      <trkpt lat="42.86383" lon="0.22111">
        <ele>2459</ele>
        <time>2017-02-20T11:17:15Z</time>
      </trkpt>
      <trkpt lat="42.86385" lon="0.22108">
        <ele>2461.6</ele>
        <time>2017-02-20T11:17:20Z</time>
      </trkpt>
      <trkpt lat="42.86386" lon="0.22105">
        <ele>2462.8</ele>
        <time>2017-02-20T11:17:25Z</time>
      </trkpt>
      <trkpt lat="42.86388" lon="0.22102">
        <ele>2462.2</ele>
        <time>2017-02-20T11:17:30Z</time>
      </trkpt>
      <trkpt lat="42.86389" lon="0.221">
        <ele>2465</ele>
        <time>2017-02-20T11:17:35Z</time>
      </trkpt>
      <trkpt lat="42.86391" lon="0.22097">
        <ele>2463.2</ele>
        <time>2017-02-20T11:17:40Z</time>
      </trkpt>
      <trkpt lat="42.86392" lon="0.22094">
        <ele>2463.4</ele>
        <time>2017-02-20T11:17:45Z</time>
      </trkpt>
      <trkpt lat="42.86393" lon="0.22091">
        <ele>2464.2</ele>
        <time>2017-02-20T11:17:50Z</time>
      </trkpt>
      <trkpt lat="42.86394" lon="0.22088">
        <ele>2464.8</ele>
        <time>2017-02-20T11:17:55Z</time>
      </trkpt>
      <trkpt lat="42.86394" lon="0.22085">
        <ele>2464.6</ele>
        <time>2017-02-20T11:18:00Z</time>
      </trkpt>
      <trkpt lat="42.86395" lon="0.22083">
        <ele>2462.8</ele>
        <time>2017-02-20T11:18:05Z</time>
      </trkpt>
      <trkpt lat="42.86395" lon="0.2208">
        <ele>2463.4</ele>
        <time>2017-02-20T11:18:10Z</time>
      </trkpt>
      <trkpt lat="42.86395" lon="0.22077">
        <ele>2467.6</ele>
        <time>2017-02-20T11:18:15Z</time>
      </trkpt>
      <trkpt lat="42.86395" lon="0.22077">
        <ele>2467.4</ele>
        <time>2017-02-20T11:18:20Z</time>
      </trkpt>
      <trkpt lat="42.86395" lon="0.22075">
        <ele>2466.8</ele>
        <time>2017-02-20T11:18:25Z</time>
      </trkpt>
      <trkpt lat="42.86395" lon="0.22074">
        <ele>2468.4</ele>
        <time>2017-02-20T11:18:30Z</time>
      </trkpt>
      <trkpt lat="42.86396" lon="0.22074">
        <ele>2466.6</ele>
        <time>2017-02-20T11:19:00Z</time>
      </trkpt>
      <trkpt lat="42.86397" lon="0.22073">
        <ele>2467.6</ele>
        <time>2017-02-20T11:19:05Z</time>
      </trkpt>
      <trkpt lat="42.864" lon="0.22072">
        <ele>2467.2</ele>
        <time>2017-02-20T11:19:10Z</time>
      </trkpt>
      <trkpt lat="42.86402" lon="0.22072">
        <ele>2467.2</ele>
        <time>2017-02-20T11:19:15Z</time>
      </trkpt>
      <trkpt lat="42.86404" lon="0.22072">
        <ele>2468.8</ele>
        <time>2017-02-20T11:19:20Z</time>
      </trkpt>
      <trkpt lat="42.86409" lon="0.22072">
        <ele>2473.4</ele>
        <time>2017-02-20T11:19:30Z</time>
      </trkpt>
      <trkpt lat="42.86411" lon="0.22072">
        <ele>2472.6</ele>
        <time>2017-02-20T11:19:35Z</time>
      </trkpt>
      <trkpt lat="42.86413" lon="0.22073">
        <ele>2472.4</ele>
        <time>2017-02-20T11:19:40Z</time>
      </trkpt>
      <trkpt lat="42.86415" lon="0.22074">
        <ele>2474.8</ele>
        <time>2017-02-20T11:19:45Z</time>
      </trkpt>
      <trkpt lat="42.86418" lon="0.22075">
        <ele>2474.8</ele>
        <time>2017-02-20T11:19:50Z</time>
      </trkpt>
      <trkpt lat="42.8642" lon="0.22076">
        <ele>2474.4</ele>
        <time>2017-02-20T11:19:55Z</time>
      </trkpt>
      <trkpt lat="42.86421" lon="0.22079">
        <ele>2475.4</ele>
        <time>2017-02-20T11:20:00Z</time>
      </trkpt>
      <trkpt lat="42.86422" lon="0.2208">
        <ele>2475.4</ele>
        <time>2017-02-20T11:20:05Z</time>
      </trkpt>
      <trkpt lat="42.86424" lon="0.22079">
        <ele>2477.4</ele>
        <time>2017-02-20T11:20:10Z</time>
      </trkpt>
      <trkpt lat="42.86425" lon="0.22077">
        <ele>2478.2</ele>
        <time>2017-02-20T11:20:15Z</time>
      </trkpt>
      <trkpt lat="42.86425" lon="0.22075">
        <ele>2482.6</ele>
        <time>2017-02-20T11:20:20Z</time>
      </trkpt>
      <trkpt lat="42.86426" lon="0.22073">
        <ele>2484</ele>
        <time>2017-02-20T11:20:25Z</time>
      </trkpt>
      <trkpt lat="42.86427" lon="0.2207">
        <ele>2483</ele>
        <time>2017-02-20T11:20:30Z</time>
      </trkpt>
      <trkpt lat="42.86428" lon="0.22066">
        <ele>2483.2</ele>
        <time>2017-02-20T11:20:35Z</time>
      </trkpt>
      <trkpt lat="42.86429" lon="0.22064">
        <ele>2485.4</ele>
        <time>2017-02-20T11:20:40Z</time>
      </trkpt>
      <trkpt lat="42.86429" lon="0.22061">
        <ele>2484.4</ele>
        <time>2017-02-20T11:20:45Z</time>
      </trkpt>
      <trkpt lat="42.8643" lon="0.22058">
        <ele>2486.2</ele>
        <time>2017-02-20T11:20:50Z</time>
      </trkpt>
      <trkpt lat="42.8643" lon="0.22055">
        <ele>2480.4</ele>
        <time>2017-02-20T11:20:55Z</time>
      </trkpt>
      <trkpt lat="42.8643" lon="0.22053">
        <ele>2481.6</ele>
        <time>2017-02-20T11:21:00Z</time>
      </trkpt>
      <trkpt lat="42.8643" lon="0.2205">
        <ele>2483.6</ele>
        <time>2017-02-20T11:21:05Z</time>
      </trkpt>
      <trkpt lat="42.86432" lon="0.22049">
        <ele>2484.2</ele>
        <time>2017-02-20T11:21:10Z</time>
      </trkpt>
      <trkpt lat="42.86434" lon="0.2205">
        <ele>2483.2</ele>
        <time>2017-02-20T11:21:15Z</time>
      </trkpt>
      <trkpt lat="42.86436" lon="0.2205">
        <ele>2487.2</ele>
        <time>2017-02-20T11:21:20Z</time>
      </trkpt>
      <trkpt lat="42.86438" lon="0.2205">
        <ele>2491.4</ele>
        <time>2017-02-20T11:21:25Z</time>
      </trkpt>
      <trkpt lat="42.86441" lon="0.22051">
        <ele>2488</ele>
        <time>2017-02-20T11:21:30Z</time>
      </trkpt>
      <trkpt lat="42.86443" lon="0.22051">
        <ele>2492.4</ele>
        <time>2017-02-20T11:21:35Z</time>
      </trkpt>
      <trkpt lat="42.86445" lon="0.22051">
        <ele>2489.8</ele>
        <time>2017-02-20T11:21:40Z</time>
      </trkpt>
      <trkpt lat="42.86447" lon="0.22051">
        <ele>2491.4</ele>
        <time>2017-02-20T11:21:45Z</time>
      </trkpt>
      <trkpt lat="42.86449" lon="0.22052">
        <ele>2492</ele>
        <time>2017-02-20T11:21:50Z</time>
      </trkpt>
      <trkpt lat="42.86451" lon="0.22051">
        <ele>2490.8</ele>
        <time>2017-02-20T11:21:55Z</time>
      </trkpt>
      <trkpt lat="42.86453" lon="0.22051">
        <ele>2493</ele>
        <time>2017-02-20T11:22:00Z</time>
      </trkpt>
      <trkpt lat="42.86455" lon="0.2205">
        <ele>2493.2</ele>
        <time>2017-02-20T11:22:05Z</time>
      </trkpt>
      <trkpt lat="42.86457" lon="0.22048">
        <ele>2491.6</ele>
        <time>2017-02-20T11:22:10Z</time>
      </trkpt>
      <trkpt lat="42.86459" lon="0.22047">
        <ele>2494.2</ele>
        <time>2017-02-20T11:22:15Z</time>
      </trkpt>
      <trkpt lat="42.86461" lon="0.22046">
        <ele>2492.2</ele>
        <time>2017-02-20T11:22:20Z</time>
      </trkpt>
      <trkpt lat="42.86463" lon="0.22044">
        <ele>2491</ele>
        <time>2017-02-20T11:22:25Z</time>
      </trkpt>
      <trkpt lat="42.86465" lon="0.22044">
        <ele>2497</ele>
        <time>2017-02-20T11:22:30Z</time>
      </trkpt>
      <trkpt lat="42.86467" lon="0.22042">
        <ele>2498.2</ele>
        <time>2017-02-20T11:22:36Z</time>
      </trkpt>
      <trkpt lat="42.86469" lon="0.2204">
        <ele>2493.6</ele>
        <time>2017-02-20T11:22:41Z</time>
      </trkpt>
      <trkpt lat="42.86472" lon="0.22038">
        <ele>2496</ele>
        <time>2017-02-20T11:22:46Z</time>
      </trkpt>
      <trkpt lat="42.86474" lon="0.22036">
        <ele>2497.4</ele>
        <time>2017-02-20T11:22:51Z</time>
      </trkpt>
      <trkpt lat="42.86477" lon="0.22034">
        <ele>2496.6</ele>
        <time>2017-02-20T11:22:56Z</time>
      </trkpt>
      <trkpt lat="42.86479" lon="0.22032">
        <ele>2499.8</ele>
        <time>2017-02-20T11:23:01Z</time>
      </trkpt>
      <trkpt lat="42.86482" lon="0.2203">
        <ele>2498.8</ele>
        <time>2017-02-20T11:23:06Z</time>
      </trkpt>
      <trkpt lat="42.86485" lon="0.22028">
        <ele>2501</ele>
        <time>2017-02-20T11:23:11Z</time>
      </trkpt>
      <trkpt lat="42.86485" lon="0.22027">
        <ele>2500</ele>
        <time>2017-02-20T11:23:16Z</time>
      </trkpt>
      <trkpt lat="42.86486" lon="0.22027">
        <ele>2498.6</ele>
        <time>2017-02-20T11:23:21Z</time>
      </trkpt>
      <trkpt lat="42.86489" lon="0.22023">
        <ele>2498.8</ele>
        <time>2017-02-20T11:23:26Z</time>
      </trkpt>
      <trkpt lat="42.86491" lon="0.2202">
        <ele>2502.2</ele>
        <time>2017-02-20T11:23:31Z</time>
      </trkpt>
      <trkpt lat="42.86493" lon="0.22017">
        <ele>2498.4</ele>
        <time>2017-02-20T11:23:36Z</time>
      </trkpt>
      <trkpt lat="42.86496" lon="0.22013">
        <ele>2499</ele>
        <time>2017-02-20T11:23:41Z</time>
      </trkpt>
      <trkpt lat="42.86498" lon="0.2201">
        <ele>2503</ele>
        <time>2017-02-20T11:23:46Z</time>
      </trkpt>
      <trkpt lat="42.865" lon="0.22007">
        <ele>2501.8</ele>
        <time>2017-02-20T11:23:51Z</time>
      </trkpt>
      <trkpt lat="42.86502" lon="0.22004">
        <ele>2504.8</ele>
        <time>2017-02-20T11:23:56Z</time>
      </trkpt>
      <trkpt lat="42.86504" lon="0.22001">
        <ele>2499.6</ele>
        <time>2017-02-20T11:24:01Z</time>
      </trkpt>
      <trkpt lat="42.86507" lon="0.21997">
        <ele>2502</ele>
        <time>2017-02-20T11:24:07Z</time>
      </trkpt>
      <trkpt lat="42.86509" lon="0.21993">
        <ele>2503.8</ele>
        <time>2017-02-20T11:24:13Z</time>
      </trkpt>
      <trkpt lat="42.86511" lon="0.21989">
        <ele>2504.2</ele>
        <time>2017-02-20T11:24:18Z</time>
      </trkpt>
      <trkpt lat="42.86512" lon="0.21987">
        <ele>2505.2</ele>
        <time>2017-02-20T11:24:23Z</time>
      </trkpt>
      <trkpt lat="42.86513" lon="0.21984">
        <ele>2505.6</ele>
        <time>2017-02-20T11:24:28Z</time>
      </trkpt>
      <trkpt lat="42.86515" lon="0.21982">
        <ele>2505.4</ele>
        <time>2017-02-20T11:24:33Z</time>
      </trkpt>
      <trkpt lat="42.86516" lon="0.2198">
        <ele>2507</ele>
        <time>2017-02-20T11:24:38Z</time>
      </trkpt>
      <trkpt lat="42.86517" lon="0.21978">
        <ele>2507</ele>
        <time>2017-02-20T11:24:43Z</time>
      </trkpt>
      <trkpt lat="42.86518" lon="0.21976">
        <ele>2506.4</ele>
        <time>2017-02-20T11:24:48Z</time>
      </trkpt>
      <trkpt lat="42.86519" lon="0.21973">
        <ele>2506.2</ele>
        <time>2017-02-20T11:24:53Z</time>
      </trkpt>
      <trkpt lat="42.8652" lon="0.21971">
        <ele>2507.4</ele>
        <time>2017-02-20T11:24:58Z</time>
      </trkpt>
      <trkpt lat="42.86521" lon="0.21968">
        <ele>2509.2</ele>
        <time>2017-02-20T11:25:03Z</time>
      </trkpt>
      <trkpt lat="42.86523" lon="0.21965">
        <ele>2507.8</ele>
        <time>2017-02-20T11:25:08Z</time>
      </trkpt>
      <trkpt lat="42.86524" lon="0.21962">
        <ele>2509</ele>
        <time>2017-02-20T11:25:13Z</time>
      </trkpt>
      <trkpt lat="42.86525" lon="0.21959">
        <ele>2510.8</ele>
        <time>2017-02-20T11:25:18Z</time>
      </trkpt>
      <trkpt lat="42.86526" lon="0.21957">
        <ele>2511.6</ele>
        <time>2017-02-20T11:25:23Z</time>
      </trkpt>
      <trkpt lat="42.86527" lon="0.21954">
        <ele>2511.8</ele>
        <time>2017-02-20T11:25:28Z</time>
      </trkpt>
      <trkpt lat="42.86529" lon="0.2195">
        <ele>2513.8</ele>
        <time>2017-02-20T11:25:33Z</time>
      </trkpt>
      <trkpt lat="42.8653" lon="0.21947">
        <ele>2511.8</ele>
        <time>2017-02-20T11:25:38Z</time>
      </trkpt>
      <trkpt lat="42.86532" lon="0.21945">
        <ele>2510.4</ele>
        <time>2017-02-20T11:25:43Z</time>
      </trkpt>
      <trkpt lat="42.86534" lon="0.21942">
        <ele>2514</ele>
        <time>2017-02-20T11:25:48Z</time>
      </trkpt>
      <trkpt lat="42.86535" lon="0.21939">
        <ele>2516.2</ele>
        <time>2017-02-20T11:25:53Z</time>
      </trkpt>
      <trkpt lat="42.86536" lon="0.21937">
        <ele>2514.2</ele>
        <time>2017-02-20T11:25:58Z</time>
      </trkpt>
      <trkpt lat="42.86538" lon="0.21933">
        <ele>2513.6</ele>
        <time>2017-02-20T11:26:03Z</time>
      </trkpt>
      <trkpt lat="42.86539" lon="0.2193">
        <ele>2517.4</ele>
        <time>2017-02-20T11:26:08Z</time>
      </trkpt>
      <trkpt lat="42.86541" lon="0.21926">
        <ele>2515.4</ele>
        <time>2017-02-20T11:26:13Z</time>
      </trkpt>
      <trkpt lat="42.86542" lon="0.21922">
        <ele>2516</ele>
        <time>2017-02-20T11:26:18Z</time>
      </trkpt>
      <trkpt lat="42.86544" lon="0.21918">
        <ele>2514.2</ele>
        <time>2017-02-20T11:26:23Z</time>
      </trkpt>
      <trkpt lat="42.86545" lon="0.21914">
        <ele>2516.4</ele>
        <time>2017-02-20T11:26:28Z</time>
      </trkpt>
      <trkpt lat="42.86546" lon="0.2191">
        <ele>2519.6</ele>
        <time>2017-02-20T11:26:33Z</time>
      </trkpt>
      <trkpt lat="42.86547" lon="0.21907">
        <ele>2518</ele>
        <time>2017-02-20T11:26:38Z</time>
      </trkpt>
      <trkpt lat="42.86547" lon="0.21904">
        <ele>2521.6</ele>
        <time>2017-02-20T11:26:43Z</time>
      </trkpt>
      <trkpt lat="42.86548" lon="0.219">
        <ele>2519.2</ele>
        <time>2017-02-20T11:26:48Z</time>
      </trkpt>
      <trkpt lat="42.86549" lon="0.21897">
        <ele>2520.8</ele>
        <time>2017-02-20T11:26:53Z</time>
      </trkpt>
      <trkpt lat="42.8655" lon="0.21893">
        <ele>2522.4</ele>
        <time>2017-02-20T11:26:58Z</time>
      </trkpt>
      <trkpt lat="42.86551" lon="0.21891">
        <ele>2521.8</ele>
        <time>2017-02-20T11:27:03Z</time>
      </trkpt>
      <trkpt lat="42.86552" lon="0.21888">
        <ele>2522.8</ele>
        <time>2017-02-20T11:27:08Z</time>
      </trkpt>
      <trkpt lat="42.86554" lon="0.21886">
        <ele>2523.6</ele>
        <time>2017-02-20T11:27:13Z</time>
      </trkpt>
      <trkpt lat="42.86556" lon="0.21884">
        <ele>2527.4</ele>
        <time>2017-02-20T11:27:18Z</time>
      </trkpt>
      <trkpt lat="42.86558" lon="0.21882">
        <ele>2525.2</ele>
        <time>2017-02-20T11:27:23Z</time>
      </trkpt>
      <trkpt lat="42.8656" lon="0.2188">
        <ele>2526.2</ele>
        <time>2017-02-20T11:27:28Z</time>
      </trkpt>
      <trkpt lat="42.86563" lon="0.21878">
        <ele>2526.4</ele>
        <time>2017-02-20T11:27:33Z</time>
      </trkpt>
      <trkpt lat="42.86565" lon="0.21876">
        <ele>2527.6</ele>
        <time>2017-02-20T11:27:38Z</time>
      </trkpt>
      <trkpt lat="42.86566" lon="0.21875">
        <ele>2524</ele>
        <time>2017-02-20T11:27:43Z</time>
      </trkpt>
      <trkpt lat="42.86567" lon="0.21874">
        <ele>2523.2</ele>
        <time>2017-02-20T11:27:48Z</time>
      </trkpt>
      <trkpt lat="42.86568" lon="0.21873">
        <ele>2527</ele>
        <time>2017-02-20T11:27:53Z</time>
      </trkpt>
      <trkpt lat="42.8657" lon="0.21872">
        <ele>2527.8</ele>
        <time>2017-02-20T11:27:58Z</time>
      </trkpt>
      <trkpt lat="42.86572" lon="0.2187">
        <ele>2531</ele>
        <time>2017-02-20T11:28:03Z</time>
      </trkpt>
      <trkpt lat="42.86574" lon="0.21868">
        <ele>2529</ele>
        <time>2017-02-20T11:28:08Z</time>
      </trkpt>
      <trkpt lat="42.86576" lon="0.21866">
        <ele>2529.6</ele>
        <time>2017-02-20T11:28:13Z</time>
      </trkpt>
      <trkpt lat="42.86576" lon="0.21865">
        <ele>2529.2</ele>
        <time>2017-02-20T11:28:18Z</time>
      </trkpt>
      <trkpt lat="42.86577" lon="0.21866">
        <ele>2527.2</ele>
        <time>2017-02-20T11:28:23Z</time>
      </trkpt>
      <trkpt lat="42.86577" lon="0.21866">
        <ele>2528</ele>
        <time>2017-02-20T11:28:33Z</time>
      </trkpt>
      <trkpt lat="42.86576" lon="0.21866">
        <ele>2528.2</ele>
        <time>2017-02-20T11:28:38Z</time>
      </trkpt>
      <trkpt lat="42.86576" lon="0.21866">
        <ele>2528.4</ele>
        <time>2017-02-20T11:28:43Z</time>
      </trkpt>
      <trkpt lat="42.86576" lon="0.21866">
        <ele>2528.6</ele>
        <time>2017-02-20T11:28:48Z</time>
      </trkpt>
      <trkpt lat="42.86576" lon="0.21865">
        <ele>2528.6</ele>
        <time>2017-02-20T11:28:53Z</time>
      </trkpt>
      <trkpt lat="42.86577" lon="0.21863">
        <ele>2528.2</ele>
        <time>2017-02-20T11:28:58Z</time>
      </trkpt>
      <trkpt lat="42.86576" lon="0.21862">
        <ele>2527</ele>
        <time>2017-02-20T11:29:03Z</time>
      </trkpt>
      <trkpt lat="42.86574" lon="0.2186">
        <ele>2529.6</ele>
        <time>2017-02-20T11:29:08Z</time>
      </trkpt>
      <trkpt lat="42.86572" lon="0.21859">
        <ele>2529</ele>
        <time>2017-02-20T11:29:13Z</time>
      </trkpt>
      <trkpt lat="42.8657" lon="0.21857">
        <ele>2529.4</ele>
        <time>2017-02-20T11:29:18Z</time>
      </trkpt>
      <trkpt lat="42.86567" lon="0.21856">
        <ele>2533.2</ele>
        <time>2017-02-20T11:29:23Z</time>
      </trkpt>
      <trkpt lat="42.86565" lon="0.21854">
        <ele>2533.6</ele>
        <time>2017-02-20T11:29:28Z</time>
      </trkpt>
      <trkpt lat="42.86562" lon="0.21853">
        <ele>2535</ele>
        <time>2017-02-20T11:29:34Z</time>
      </trkpt>
      <trkpt lat="42.86564" lon="0.21847">
        <ele>2535.4</ele>
        <time>2017-02-20T11:29:44Z</time>
      </trkpt>
      <trkpt lat="42.86565" lon="0.21844">
        <ele>2538</ele>
        <time>2017-02-20T11:29:49Z</time>
      </trkpt>
      <trkpt lat="42.86566" lon="0.21841">
        <ele>2538</ele>
        <time>2017-02-20T11:29:54Z</time>
      </trkpt>
      <trkpt lat="42.86567" lon="0.21838">
        <ele>2536.4</ele>
        <time>2017-02-20T11:29:59Z</time>
      </trkpt>
      <trkpt lat="42.86569" lon="0.21836">
        <ele>2539.8</ele>
        <time>2017-02-20T11:30:04Z</time>
      </trkpt>
      <trkpt lat="42.86569" lon="0.21833">
        <ele>2536.4</ele>
        <time>2017-02-20T11:30:09Z</time>
      </trkpt>
      <trkpt lat="42.86569" lon="0.2183">
        <ele>2539.8</ele>
        <time>2017-02-20T11:30:14Z</time>
      </trkpt>
      <trkpt lat="42.8657" lon="0.21827">
        <ele>2538.2</ele>
        <time>2017-02-20T11:30:19Z</time>
      </trkpt>
      <trkpt lat="42.8657" lon="0.21825">
        <ele>2538.8</ele>
        <time>2017-02-20T11:30:24Z</time>
      </trkpt>
      <trkpt lat="42.8657" lon="0.21823">
        <ele>2539.4</ele>
        <time>2017-02-20T11:30:29Z</time>
      </trkpt>
      <trkpt lat="42.8657" lon="0.2182">
        <ele>2539.8</ele>
        <time>2017-02-20T11:30:34Z</time>
      </trkpt>
      <trkpt lat="42.8657" lon="0.21818">
        <ele>2540.8</ele>
        <time>2017-02-20T11:30:39Z</time>
      </trkpt>
      <trkpt lat="42.8657" lon="0.21815">
        <ele>2540.8</ele>
        <time>2017-02-20T11:30:44Z</time>
      </trkpt>
      <trkpt lat="42.8657" lon="0.21811">
        <ele>2541.6</ele>
        <time>2017-02-20T11:30:49Z</time>
      </trkpt>
      <trkpt lat="42.86571" lon="0.21807">
        <ele>2544</ele>
        <time>2017-02-20T11:30:54Z</time>
      </trkpt>
      <trkpt lat="42.86571" lon="0.21807">
        <ele>2544</ele>
        <time>2017-02-20T11:30:59Z</time>
      </trkpt>
      <trkpt lat="42.86573" lon="0.21803">
        <ele>2544.2</ele>
        <time>2017-02-20T11:31:14Z</time>
      </trkpt>
      <trkpt lat="42.86575" lon="0.21799">
        <ele>2544.4</ele>
        <time>2017-02-20T11:31:19Z</time>
      </trkpt>
      <trkpt lat="42.86577" lon="0.21796">
        <ele>2546.6</ele>
        <time>2017-02-20T11:31:24Z</time>
      </trkpt>
      <trkpt lat="42.86578" lon="0.21791">
        <ele>2544.6</ele>
        <time>2017-02-20T11:31:29Z</time>
      </trkpt>
      <trkpt lat="42.86578" lon="0.2179">
        <ele>2545.6</ele>
        <time>2017-02-20T11:31:34Z</time>
      </trkpt>
      <trkpt lat="42.86578" lon="0.21789">
        <ele>2543.6</ele>
        <time>2017-02-20T11:31:39Z</time>
      </trkpt>
      <trkpt lat="42.86578" lon="0.21791">
        <ele>2545.2</ele>
        <time>2017-02-20T11:31:44Z</time>
      </trkpt>
      <trkpt lat="42.86578" lon="0.21791">
        <ele>2545.4</ele>
        <time>2017-02-20T11:31:49Z</time>
      </trkpt>
      <trkpt lat="42.86577" lon="0.21792">
        <ele>2546</ele>
        <time>2017-02-20T11:31:54Z</time>
      </trkpt>
      <trkpt lat="42.86577" lon="0.21793">
        <ele>2546.6</ele>
        <time>2017-02-20T11:31:59Z</time>
      </trkpt>
      <trkpt lat="42.86578" lon="0.21793">
        <ele>2547.2</ele>
        <time>2017-02-20T11:32:09Z</time>
      </trkpt>
      <trkpt lat="42.86577" lon="0.21793">
        <ele>2549.6</ele>
        <time>2017-02-20T11:32:39Z</time>
      </trkpt>
      <trkpt lat="42.86577" lon="0.21793">
        <ele>2549.2</ele>
        <time>2017-02-20T11:32:44Z</time>
      </trkpt>
      <trkpt lat="42.86578" lon="0.21789">
        <ele>2552.2</ele>
        <time>2017-02-20T11:32:54Z</time>
      </trkpt>
      <trkpt lat="42.86579" lon="0.21785">
        <ele>2548</ele>
        <time>2017-02-20T11:32:59Z</time>
      </trkpt>
      <trkpt lat="42.8658" lon="0.21781">
        <ele>2548.4</ele>
        <time>2017-02-20T11:33:04Z</time>
      </trkpt>
      <trkpt lat="42.86581" lon="0.21776">
        <ele>2550.8</ele>
        <time>2017-02-20T11:33:09Z</time>
      </trkpt>
      <trkpt lat="42.86582" lon="0.21773">
        <ele>2549.8</ele>
        <time>2017-02-20T11:33:14Z</time>
      </trkpt>
      <trkpt lat="42.86582" lon="0.21772">
        <ele>2549.4</ele>
        <time>2017-02-20T11:33:19Z</time>
      </trkpt>
      <trkpt lat="42.86582" lon="0.21771">
        <ele>2545</ele>
        <time>2017-02-20T11:33:24Z</time>
      </trkpt>
      <trkpt lat="42.86582" lon="0.2177">
        <ele>2546.4</ele>
        <time>2017-02-20T11:33:29Z</time>
      </trkpt>
      <trkpt lat="42.86584" lon="0.21767">
        <ele>2547.2</ele>
        <time>2017-02-20T11:33:34Z</time>
      </trkpt>
      <trkpt lat="42.86585" lon="0.21764">
        <ele>2542.6</ele>
        <time>2017-02-20T11:33:39Z</time>
      </trkpt>
      <trkpt lat="42.86586" lon="0.2176">
        <ele>2545.8</ele>
        <time>2017-02-20T11:33:44Z</time>
      </trkpt>
      <trkpt lat="42.86588" lon="0.21757">
        <ele>2549.6</ele>
        <time>2017-02-20T11:33:49Z</time>
      </trkpt>
      <trkpt lat="42.86589" lon="0.21753">
        <ele>2551</ele>
        <time>2017-02-20T11:33:54Z</time>
      </trkpt>
      <trkpt lat="42.8659" lon="0.21749">
        <ele>2549.8</ele>
        <time>2017-02-20T11:33:59Z</time>
      </trkpt>
      <trkpt lat="42.86591" lon="0.21744">
        <ele>2550.8</ele>
        <time>2017-02-20T11:34:05Z</time>
      </trkpt>
      <trkpt lat="42.86592" lon="0.21741">
        <ele>2552.8</ele>
        <time>2017-02-20T11:34:10Z</time>
      </trkpt>
      <trkpt lat="42.86593" lon="0.21737">
        <ele>2553.6</ele>
        <time>2017-02-20T11:34:15Z</time>
      </trkpt>
      <trkpt lat="42.86594" lon="0.21733">
        <ele>2555</ele>
        <time>2017-02-20T11:34:20Z</time>
      </trkpt>
      <trkpt lat="42.86595" lon="0.21729">
        <ele>2554.2</ele>
        <time>2017-02-20T11:34:25Z</time>
      </trkpt>
      <trkpt lat="42.86596" lon="0.21726">
        <ele>2553</ele>
        <time>2017-02-20T11:34:30Z</time>
      </trkpt>
      <trkpt lat="42.86596" lon="0.21723">
        <ele>2553.8</ele>
        <time>2017-02-20T11:34:35Z</time>
      </trkpt>
      <trkpt lat="42.86598" lon="0.21719">
        <ele>2552.4</ele>
        <time>2017-02-20T11:34:40Z</time>
      </trkpt>
      <trkpt lat="42.86598" lon="0.21717">
        <ele>2552.4</ele>
        <time>2017-02-20T11:34:45Z</time>
      </trkpt>
      <trkpt lat="42.86599" lon="0.21713">
        <ele>2553.8</ele>
        <time>2017-02-20T11:34:50Z</time>
      </trkpt>
      <trkpt lat="42.866" lon="0.2171">
        <ele>2553.2</ele>
        <time>2017-02-20T11:34:55Z</time>
      </trkpt>
      <trkpt lat="42.86601" lon="0.21709">
        <ele>2553.4</ele>
        <time>2017-02-20T11:35:00Z</time>
      </trkpt>
      <trkpt lat="42.86602" lon="0.21705">
        <ele>2556.2</ele>
        <time>2017-02-20T11:35:05Z</time>
      </trkpt>
      <trkpt lat="42.86603" lon="0.21702">
        <ele>2555.6</ele>
        <time>2017-02-20T11:35:10Z</time>
      </trkpt>
      <trkpt lat="42.86604" lon="0.21698">
        <ele>2555</ele>
        <time>2017-02-20T11:35:15Z</time>
      </trkpt>
      <trkpt lat="42.86605" lon="0.21695">
        <ele>2556.6</ele>
        <time>2017-02-20T11:35:20Z</time>
      </trkpt>
      <trkpt lat="42.86606" lon="0.21691">
        <ele>2557.4</ele>
        <time>2017-02-20T11:35:25Z</time>
      </trkpt>
      <trkpt lat="42.86608" lon="0.21688">
        <ele>2557.6</ele>
        <time>2017-02-20T11:35:30Z</time>
      </trkpt>
      <trkpt lat="42.86609" lon="0.21684">
        <ele>2556.8</ele>
        <time>2017-02-20T11:35:35Z</time>
      </trkpt>
      <trkpt lat="42.86611" lon="0.21681">
        <ele>2557.4</ele>
        <time>2017-02-20T11:35:40Z</time>
      </trkpt>
      <trkpt lat="42.86612" lon="0.21678">
        <ele>2558.2</ele>
        <time>2017-02-20T11:35:46Z</time>
      </trkpt>
      <trkpt lat="42.86613" lon="0.21675">
        <ele>2558.4</ele>
        <time>2017-02-20T11:35:51Z</time>
      </trkpt>
      <trkpt lat="42.86614" lon="0.21672">
        <ele>2555.8</ele>
        <time>2017-02-20T11:35:56Z</time>
      </trkpt>
      <trkpt lat="42.86616" lon="0.21669">
        <ele>2558.4</ele>
        <time>2017-02-20T11:36:01Z</time>
      </trkpt>
      <trkpt lat="42.86617" lon="0.21666">
        <ele>2558.4</ele>
        <time>2017-02-20T11:36:06Z</time>
      </trkpt>
      <trkpt lat="42.86618" lon="0.21663">
        <ele>2559.8</ele>
        <time>2017-02-20T11:36:11Z</time>
      </trkpt>
      <trkpt lat="42.8662" lon="0.2166">
        <ele>2560</ele>
        <time>2017-02-20T11:36:16Z</time>
      </trkpt>
      <trkpt lat="42.86621" lon="0.21657">
        <ele>2560</ele>
        <time>2017-02-20T11:36:21Z</time>
      </trkpt>
      <trkpt lat="42.86622" lon="0.21654">
        <ele>2561.4</ele>
        <time>2017-02-20T11:36:26Z</time>
      </trkpt>
      <trkpt lat="42.86623" lon="0.21647">
        <ele>2559.6</ele>
        <time>2017-02-20T11:36:36Z</time>
      </trkpt>
      <trkpt lat="42.86624" lon="0.21645">
        <ele>2561.6</ele>
        <time>2017-02-20T11:36:41Z</time>
      </trkpt>
      <trkpt lat="42.86625" lon="0.21643">
        <ele>2561.6</ele>
        <time>2017-02-20T11:36:46Z</time>
      </trkpt>
      <trkpt lat="42.86626" lon="0.2164">
        <ele>2562.4</ele>
        <time>2017-02-20T11:36:51Z</time>
      </trkpt>
      <trkpt lat="42.86626" lon="0.21637">
        <ele>2562.4</ele>
        <time>2017-02-20T11:36:56Z</time>
      </trkpt>
      <trkpt lat="42.86627" lon="0.21635">
        <ele>2560.6</ele>
        <time>2017-02-20T11:37:01Z</time>
      </trkpt>
      <trkpt lat="42.86627" lon="0.21632">
        <ele>2561.6</ele>
        <time>2017-02-20T11:37:06Z</time>
      </trkpt>
      <trkpt lat="42.86628" lon="0.2163">
        <ele>2563.4</ele>
        <time>2017-02-20T11:37:11Z</time>
      </trkpt>
      <trkpt lat="42.86628" lon="0.21627">
        <ele>2563.8</ele>
        <time>2017-02-20T11:37:16Z</time>
      </trkpt>
      <trkpt lat="42.8663" lon="0.21624">
        <ele>2567</ele>
        <time>2017-02-20T11:37:21Z</time>
      </trkpt>
      <trkpt lat="42.86632" lon="0.21622">
        <ele>2563.8</ele>
        <time>2017-02-20T11:37:26Z</time>
      </trkpt>
      <trkpt lat="42.86634" lon="0.2162">
        <ele>2566.6</ele>
        <time>2017-02-20T11:37:31Z</time>
      </trkpt>
      <trkpt lat="42.86634" lon="0.2162">
        <ele>2566.6</ele>
        <time>2017-02-20T11:37:36Z</time>
      </trkpt>
      <trkpt lat="42.86633" lon="0.2162">
        <ele>2566.6</ele>
        <time>2017-02-20T11:37:41Z</time>
      </trkpt>
      <trkpt lat="42.86634" lon="0.21619">
        <ele>2567</ele>
        <time>2017-02-20T11:37:46Z</time>
      </trkpt>
      <trkpt lat="42.86635" lon="0.21616">
        <ele>2565.4</ele>
        <time>2017-02-20T11:37:51Z</time>
      </trkpt>
      <trkpt lat="42.86637" lon="0.21614">
        <ele>2567</ele>
        <time>2017-02-20T11:37:56Z</time>
      </trkpt>
      <trkpt lat="42.8664" lon="0.21612">
        <ele>2569.8</ele>
        <time>2017-02-20T11:38:01Z</time>
      </trkpt>
      <trkpt lat="42.86642" lon="0.21611">
        <ele>2570.4</ele>
        <time>2017-02-20T11:38:06Z</time>
      </trkpt>
      <trkpt lat="42.86645" lon="0.21609">
        <ele>2572.2</ele>
        <time>2017-02-20T11:38:11Z</time>
      </trkpt>
      <trkpt lat="42.86646" lon="0.21607">
        <ele>2568.4</ele>
        <time>2017-02-20T11:38:16Z</time>
      </trkpt>
      <trkpt lat="42.86647" lon="0.21604">
        <ele>2565.8</ele>
        <time>2017-02-20T11:38:21Z</time>
      </trkpt>
      <trkpt lat="42.86648" lon="0.21601">
        <ele>2567.6</ele>
        <time>2017-02-20T11:38:27Z</time>
      </trkpt>
      <trkpt lat="42.8665" lon="0.21599">
        <ele>2569.4</ele>
        <time>2017-02-20T11:38:32Z</time>
      </trkpt>
      <trkpt lat="42.86651" lon="0.21596">
        <ele>2567.6</ele>
        <time>2017-02-20T11:38:37Z</time>
      </trkpt>
      <trkpt lat="42.86652" lon="0.21594">
        <ele>2570</ele>
        <time>2017-02-20T11:38:42Z</time>
      </trkpt>
      <trkpt lat="42.86653" lon="0.21592">
        <ele>2570.2</ele>
        <time>2017-02-20T11:38:47Z</time>
      </trkpt>
      <trkpt lat="42.86654" lon="0.2159">
        <ele>2571</ele>
        <time>2017-02-20T11:38:52Z</time>
      </trkpt>
      <trkpt lat="42.86655" lon="0.21589">
        <ele>2570.8</ele>
        <time>2017-02-20T11:38:57Z</time>
      </trkpt>
      <trkpt lat="42.86655" lon="0.21589">
        <ele>2571.2</ele>
        <time>2017-02-20T11:39:02Z</time>
      </trkpt>
      <trkpt lat="42.86656" lon="0.21587">
        <ele>2571.8</ele>
        <time>2017-02-20T11:39:07Z</time>
      </trkpt>
      <trkpt lat="42.86657" lon="0.21587">
        <ele>2572.2</ele>
        <time>2017-02-20T11:39:12Z</time>
      </trkpt>
      <trkpt lat="42.86657" lon="0.21587">
        <ele>2572.6</ele>
        <time>2017-02-20T11:39:22Z</time>
      </trkpt>
      <trkpt lat="42.86657" lon="0.21587">
        <ele>2572.8</ele>
        <time>2017-02-20T11:39:27Z</time>
      </trkpt>
      <trkpt lat="42.86657" lon="0.21587">
        <ele>2573</ele>
        <time>2017-02-20T11:39:32Z</time>
      </trkpt>
      <trkpt lat="42.86657" lon="0.21587">
        <ele>2573.2</ele>
        <time>2017-02-20T11:39:53Z</time>
      </trkpt>
      <trkpt lat="42.86657" lon="0.21587">
        <ele>2573.2</ele>
        <time>2017-02-20T11:40:03Z</time>
      </trkpt>
      <trkpt lat="42.86658" lon="0.21587">
        <ele>2573.2</ele>
        <time>2017-02-20T11:40:08Z</time>
      </trkpt>
      <trkpt lat="42.86657" lon="0.21587">
        <ele>2573.2</ele>
        <time>2017-02-20T11:40:13Z</time>
      </trkpt>
      <trkpt lat="42.86657" lon="0.21587">
        <ele>2573</ele>
        <time>2017-02-20T11:40:23Z</time>
      </trkpt>
      <trkpt lat="42.86657" lon="0.21587">
        <ele>2573</ele>
        <time>2017-02-20T11:40:28Z</time>
      </trkpt>
      <trkpt lat="42.86658" lon="0.21587">
        <ele>2573</ele>
        <time>2017-02-20T11:40:33Z</time>
      </trkpt>
      <trkpt lat="42.86658" lon="0.21587">
        <ele>2573.2</ele>
        <time>2017-02-20T11:40:38Z</time>
      </trkpt>
      <trkpt lat="42.86658" lon="0.21587">
        <ele>2573.4</ele>
        <time>2017-02-20T11:40:48Z</time>
      </trkpt>
      <trkpt lat="42.86657" lon="0.21587">
        <ele>2573.4</ele>
        <time>2017-02-20T11:40:53Z</time>
      </trkpt>
      <trkpt lat="42.86658" lon="0.21586">
        <ele>2573.6</ele>
        <time>2017-02-20T11:41:14Z</time>
      </trkpt>
      <trkpt lat="42.86658" lon="0.21584">
        <ele>2574.2</ele>
        <time>2017-02-20T11:41:19Z</time>
      </trkpt>
      <trkpt lat="42.8666" lon="0.21582">
        <ele>2575.2</ele>
        <time>2017-02-20T11:41:24Z</time>
      </trkpt>
      <trkpt lat="42.8666" lon="0.21579">
        <ele>2575.4</ele>
        <time>2017-02-20T11:41:29Z</time>
      </trkpt>
      <trkpt lat="42.86659" lon="0.21576">
        <ele>2578.2</ele>
        <time>2017-02-20T11:41:34Z</time>
      </trkpt>
      <trkpt lat="42.86659" lon="0.21574">
        <ele>2577</ele>
        <time>2017-02-20T11:41:39Z</time>
      </trkpt>
      <trkpt lat="42.86658" lon="0.21572">
        <ele>2583.4</ele>
        <time>2017-02-20T11:41:44Z</time>
      </trkpt>
      <trkpt lat="42.86657" lon="0.21569">
        <ele>2581.6</ele>
        <time>2017-02-20T11:41:49Z</time>
      </trkpt>
      <trkpt lat="42.86656" lon="0.21567">
        <ele>2580.2</ele>
        <time>2017-02-20T11:41:54Z</time>
      </trkpt>
      <trkpt lat="42.86654" lon="0.21565">
        <ele>2582.2</ele>
        <time>2017-02-20T11:41:59Z</time>
      </trkpt>
      <trkpt lat="42.86655" lon="0.21563">
        <ele>2580.6</ele>
        <time>2017-02-20T11:42:04Z</time>
      </trkpt>
      <trkpt lat="42.86655" lon="0.21562">
        <ele>2580.6</ele>
        <time>2017-02-20T11:42:09Z</time>
      </trkpt>
      <trkpt lat="42.86656" lon="0.21558">
        <ele>2580</ele>
        <time>2017-02-20T11:42:14Z</time>
      </trkpt>
      <trkpt lat="42.86655" lon="0.21555">
        <ele>2582.2</ele>
        <time>2017-02-20T11:42:19Z</time>
      </trkpt>
      <trkpt lat="42.86654" lon="0.21554">
        <ele>2580.4</ele>
        <time>2017-02-20T11:42:24Z</time>
      </trkpt>
      <trkpt lat="42.86652" lon="0.21552">
        <ele>2582.8</ele>
        <time>2017-02-20T11:42:29Z</time>
      </trkpt>
      <trkpt lat="42.86651" lon="0.2155">
        <ele>2583.8</ele>
        <time>2017-02-20T11:42:34Z</time>
      </trkpt>
      <trkpt lat="42.86649" lon="0.21548">
        <ele>2583.4</ele>
        <time>2017-02-20T11:42:39Z</time>
      </trkpt>
      <trkpt lat="42.86647" lon="0.21546">
        <ele>2586.8</ele>
        <time>2017-02-20T11:42:44Z</time>
      </trkpt>
      <trkpt lat="42.86645" lon="0.21545">
        <ele>2584.8</ele>
        <time>2017-02-20T11:42:49Z</time>
      </trkpt>
      <trkpt lat="42.86643" lon="0.21544">
        <ele>2584.8</ele>
        <time>2017-02-20T11:42:54Z</time>
      </trkpt>
      <trkpt lat="42.86641" lon="0.21542">
        <ele>2585.8</ele>
        <time>2017-02-20T11:42:59Z</time>
      </trkpt>
      <trkpt lat="42.86639" lon="0.21542">
        <ele>2586</ele>
        <time>2017-02-20T11:43:04Z</time>
      </trkpt>
      <trkpt lat="42.86637" lon="0.21541">
        <ele>2585.8</ele>
        <time>2017-02-20T11:43:09Z</time>
      </trkpt>
      <trkpt lat="42.86636" lon="0.21541">
        <ele>2587.2</ele>
        <time>2017-02-20T11:43:14Z</time>
      </trkpt>
      <trkpt lat="42.86636" lon="0.21538">
        <ele>2588.4</ele>
        <time>2017-02-20T11:43:19Z</time>
      </trkpt>
      <trkpt lat="42.86637" lon="0.21536">
        <ele>2587.2</ele>
        <time>2017-02-20T11:43:24Z</time>
      </trkpt>
      <trkpt lat="42.86638" lon="0.21533">
        <ele>2589.2</ele>
        <time>2017-02-20T11:43:29Z</time>
      </trkpt>
      <trkpt lat="42.86638" lon="0.21531">
        <ele>2589</ele>
        <time>2017-02-20T11:43:34Z</time>
      </trkpt>
      <trkpt lat="42.86639" lon="0.21528">
        <ele>2589.2</ele>
        <time>2017-02-20T11:43:39Z</time>
      </trkpt>
      <trkpt lat="42.8664" lon="0.21526">
        <ele>2590.2</ele>
        <time>2017-02-20T11:43:44Z</time>
      </trkpt>
      <trkpt lat="42.8664" lon="0.21524">
        <ele>2588.4</ele>
        <time>2017-02-20T11:43:49Z</time>
      </trkpt>
      <trkpt lat="42.86641" lon="0.21521">
        <ele>2587.2</ele>
        <time>2017-02-20T11:43:54Z</time>
      </trkpt>
      <trkpt lat="42.86642" lon="0.21518">
        <ele>2591.6</ele>
        <time>2017-02-20T11:43:59Z</time>
      </trkpt>
      <trkpt lat="42.86642" lon="0.21516">
        <ele>2590.2</ele>
        <time>2017-02-20T11:44:04Z</time>
      </trkpt>
      <trkpt lat="42.86643" lon="0.21513">
        <ele>2588.2</ele>
        <time>2017-02-20T11:44:09Z</time>
      </trkpt>
      <trkpt lat="42.86643" lon="0.2151">
        <ele>2592</ele>
        <time>2017-02-20T11:44:14Z</time>
      </trkpt>
      <trkpt lat="42.86645" lon="0.21507">
        <ele>2594.2</ele>
        <time>2017-02-20T11:44:19Z</time>
      </trkpt>
      <trkpt lat="42.86645" lon="0.21504">
        <ele>2591.2</ele>
        <time>2017-02-20T11:44:24Z</time>
      </trkpt>
      <trkpt lat="42.86647" lon="0.21502">
        <ele>2589.8</ele>
        <time>2017-02-20T11:44:29Z</time>
      </trkpt>
      <trkpt lat="42.86648" lon="0.21499">
        <ele>2591.6</ele>
        <time>2017-02-20T11:44:34Z</time>
      </trkpt>
      <trkpt lat="42.86648" lon="0.21496">
        <ele>2593.2</ele>
        <time>2017-02-20T11:44:39Z</time>
      </trkpt>
      <trkpt lat="42.86649" lon="0.21494">
        <ele>2595</ele>
        <time>2017-02-20T11:44:44Z</time>
      </trkpt>
      <trkpt lat="42.8665" lon="0.21491">
        <ele>2593.2</ele>
        <time>2017-02-20T11:44:49Z</time>
      </trkpt>
      <trkpt lat="42.86651" lon="0.21488">
        <ele>2593.4</ele>
        <time>2017-02-20T11:44:54Z</time>
      </trkpt>
      <trkpt lat="42.86651" lon="0.21485">
        <ele>2591</ele>
        <time>2017-02-20T11:44:59Z</time>
      </trkpt>
      <trkpt lat="42.86652" lon="0.21482">
        <ele>2594.2</ele>
        <time>2017-02-20T11:45:04Z</time>
      </trkpt>
      <trkpt lat="42.86652" lon="0.21479">
        <ele>2595.2</ele>
        <time>2017-02-20T11:45:09Z</time>
      </trkpt>
      <trkpt lat="42.86653" lon="0.21477">
        <ele>2595.4</ele>
        <time>2017-02-20T11:45:14Z</time>
      </trkpt>
      <trkpt lat="42.86654" lon="0.21474">
        <ele>2598.2</ele>
        <time>2017-02-20T11:45:19Z</time>
      </trkpt>
      <trkpt lat="42.86655" lon="0.21471">
        <ele>2598</ele>
        <time>2017-02-20T11:45:24Z</time>
      </trkpt>
      <trkpt lat="42.86656" lon="0.21468">
        <ele>2597.2</ele>
        <time>2017-02-20T11:45:29Z</time>
      </trkpt>
      <trkpt lat="42.86656" lon="0.21465">
        <ele>2599</ele>
        <time>2017-02-20T11:45:34Z</time>
      </trkpt>
      <trkpt lat="42.86657" lon="0.21463">
        <ele>2598</ele>
        <time>2017-02-20T11:45:39Z</time>
      </trkpt>
      <trkpt lat="42.86658" lon="0.2146">
        <ele>2599.2</ele>
        <time>2017-02-20T11:45:44Z</time>
      </trkpt>
      <trkpt lat="42.86659" lon="0.21458">
        <ele>2601.4</ele>
        <time>2017-02-20T11:45:49Z</time>
      </trkpt>
      <trkpt lat="42.8666" lon="0.21456">
        <ele>2601.6</ele>
        <time>2017-02-20T11:45:54Z</time>
      </trkpt>
      <trkpt lat="42.86661" lon="0.21453">
        <ele>2602.8</ele>
        <time>2017-02-20T11:45:59Z</time>
      </trkpt>
      <trkpt lat="42.86662" lon="0.21451">
        <ele>2601.2</ele>
        <time>2017-02-20T11:46:04Z</time>
      </trkpt>
      <trkpt lat="42.86663" lon="0.21448">
        <ele>2599.2</ele>
        <time>2017-02-20T11:46:09Z</time>
      </trkpt>
      <trkpt lat="42.86664" lon="0.21446">
        <ele>2601.6</ele>
        <time>2017-02-20T11:46:14Z</time>
      </trkpt>
      <trkpt lat="42.86665" lon="0.21444">
        <ele>2600.6</ele>
        <time>2017-02-20T11:46:19Z</time>
      </trkpt>
      <trkpt lat="42.86666" lon="0.21442">
        <ele>2601.8</ele>
        <time>2017-02-20T11:46:24Z</time>
      </trkpt>
      <trkpt lat="42.86667" lon="0.2144">
        <ele>2601</ele>
        <time>2017-02-20T11:46:29Z</time>
      </trkpt>
      <trkpt lat="42.86668" lon="0.21438">
        <ele>2601.6</ele>
        <time>2017-02-20T11:46:34Z</time>
      </trkpt>
      <trkpt lat="42.86669" lon="0.21437">
        <ele>2601.8</ele>
        <time>2017-02-20T11:46:39Z</time>
      </trkpt>
      <trkpt lat="42.8667" lon="0.21435">
        <ele>2601.6</ele>
        <time>2017-02-20T11:46:44Z</time>
      </trkpt>
      <trkpt lat="42.8667" lon="0.21433">
        <ele>2605</ele>
        <time>2017-02-20T11:46:49Z</time>
      </trkpt>
      <trkpt lat="42.86671" lon="0.21431">
        <ele>2607.2</ele>
        <time>2017-02-20T11:46:54Z</time>
      </trkpt>
      <trkpt lat="42.86673" lon="0.21429">
        <ele>2607.4</ele>
        <time>2017-02-20T11:46:59Z</time>
      </trkpt>
      <trkpt lat="42.86674" lon="0.21427">
        <ele>2608.6</ele>
        <time>2017-02-20T11:47:04Z</time>
      </trkpt>
      <trkpt lat="42.86676" lon="0.21426">
        <ele>2610</ele>
        <time>2017-02-20T11:47:09Z</time>
      </trkpt>
      <trkpt lat="42.86677" lon="0.21424">
        <ele>2609.4</ele>
        <time>2017-02-20T11:47:14Z</time>
      </trkpt>
      <trkpt lat="42.86679" lon="0.21423">
        <ele>2609.2</ele>
        <time>2017-02-20T11:47:19Z</time>
      </trkpt>
      <trkpt lat="42.8668" lon="0.21421">
        <ele>2608.8</ele>
        <time>2017-02-20T11:47:24Z</time>
      </trkpt>
      <trkpt lat="42.86681" lon="0.21421">
        <ele>2606.8</ele>
        <time>2017-02-20T11:47:29Z</time>
      </trkpt>
      <trkpt lat="42.86683" lon="0.21419">
        <ele>2606.8</ele>
        <time>2017-02-20T11:47:34Z</time>
      </trkpt>
      <trkpt lat="42.86684" lon="0.21418">
        <ele>2607.4</ele>
        <time>2017-02-20T11:47:39Z</time>
      </trkpt>
      <trkpt lat="42.86683" lon="0.21416">
        <ele>2608.2</ele>
        <time>2017-02-20T11:47:44Z</time>
      </trkpt>
      <trkpt lat="42.86683" lon="0.21414">
        <ele>2606.6</ele>
        <time>2017-02-20T11:47:49Z</time>
      </trkpt>
      <trkpt lat="42.86681" lon="0.21412">
        <ele>2611.8</ele>
        <time>2017-02-20T11:47:54Z</time>
      </trkpt>
      <trkpt lat="42.8668" lon="0.2141">
        <ele>2612.6</ele>
        <time>2017-02-20T11:47:59Z</time>
      </trkpt>
      <trkpt lat="42.86677" lon="0.21408">
        <ele>2613.8</ele>
        <time>2017-02-20T11:48:05Z</time>
      </trkpt>
      <trkpt lat="42.86675" lon="0.21406">
        <ele>2611.2</ele>
        <time>2017-02-20T11:48:10Z</time>
      </trkpt>
      <trkpt lat="42.86673" lon="0.21404">
        <ele>2613.6</ele>
        <time>2017-02-20T11:48:15Z</time>
      </trkpt>
      <trkpt lat="42.86671" lon="0.21403">
        <ele>2614.2</ele>
        <time>2017-02-20T11:48:20Z</time>
      </trkpt>
      <trkpt lat="42.86669" lon="0.21401">
        <ele>2617</ele>
        <time>2017-02-20T11:48:25Z</time>
      </trkpt>
      <trkpt lat="42.86668" lon="0.214">
        <ele>2617.6</ele>
        <time>2017-02-20T11:48:30Z</time>
      </trkpt>
      <trkpt lat="42.86666" lon="0.21399">
        <ele>2617.4</ele>
        <time>2017-02-20T11:48:35Z</time>
      </trkpt>
      <trkpt lat="42.86664" lon="0.21398">
        <ele>2617</ele>
        <time>2017-02-20T11:48:40Z</time>
      </trkpt>
      <trkpt lat="42.86662" lon="0.21397">
        <ele>2617.6</ele>
        <time>2017-02-20T11:48:45Z</time>
      </trkpt>
      <trkpt lat="42.8666" lon="0.21395">
        <ele>2617</ele>
        <time>2017-02-20T11:48:50Z</time>
      </trkpt>
      <trkpt lat="42.86658" lon="0.21395">
        <ele>2618.4</ele>
        <time>2017-02-20T11:48:55Z</time>
      </trkpt>
      <trkpt lat="42.86656" lon="0.21394">
        <ele>2620.2</ele>
        <time>2017-02-20T11:49:00Z</time>
      </trkpt>
      <trkpt lat="42.86655" lon="0.21393">
        <ele>2619.4</ele>
        <time>2017-02-20T11:49:05Z</time>
      </trkpt>
      <trkpt lat="42.86653" lon="0.21392">
        <ele>2619.8</ele>
        <time>2017-02-20T11:49:10Z</time>
      </trkpt>
      <trkpt lat="42.86651" lon="0.21392">
        <ele>2620</ele>
        <time>2017-02-20T11:49:15Z</time>
      </trkpt>
      <trkpt lat="42.86649" lon="0.21391">
        <ele>2619.6</ele>
        <time>2017-02-20T11:49:20Z</time>
      </trkpt>
      <trkpt lat="42.8665" lon="0.2139">
        <ele>2620</ele>
        <time>2017-02-20T11:49:25Z</time>
      </trkpt>
      <trkpt lat="42.86651" lon="0.21388">
        <ele>2621.4</ele>
        <time>2017-02-20T11:49:30Z</time>
      </trkpt>
      <trkpt lat="42.86651" lon="0.21388">
        <ele>2621.8</ele>
        <time>2017-02-20T11:49:35Z</time>
      </trkpt>
      <trkpt lat="42.86652" lon="0.21386">
        <ele>2624</ele>
        <time>2017-02-20T11:49:40Z</time>
      </trkpt>
      <trkpt lat="42.86654" lon="0.21384">
        <ele>2621.4</ele>
        <time>2017-02-20T11:49:45Z</time>
      </trkpt>
      <trkpt lat="42.86655" lon="0.21383">
        <ele>2619.6</ele>
        <time>2017-02-20T11:49:50Z</time>
      </trkpt>
      <trkpt lat="42.86657" lon="0.21381">
        <ele>2622.4</ele>
        <time>2017-02-20T11:49:55Z</time>
      </trkpt>
      <trkpt lat="42.86659" lon="0.21379">
        <ele>2622.2</ele>
        <time>2017-02-20T11:50:00Z</time>
      </trkpt>
      <trkpt lat="42.8666" lon="0.21378">
        <ele>2623.4</ele>
        <time>2017-02-20T11:50:05Z</time>
      </trkpt>
      <trkpt lat="42.8666" lon="0.21378">
        <ele>2624.4</ele>
        <time>2017-02-20T11:50:20Z</time>
      </trkpt>
      <trkpt lat="42.86661" lon="0.21376">
        <ele>2626.6</ele>
        <time>2017-02-20T11:50:25Z</time>
      </trkpt>
      <trkpt lat="42.86663" lon="0.21375">
        <ele>2628.8</ele>
        <time>2017-02-20T11:50:30Z</time>
      </trkpt>
      <trkpt lat="42.86665" lon="0.21373">
        <ele>2627</ele>
        <time>2017-02-20T11:50:35Z</time>
      </trkpt>
      <trkpt lat="42.86666" lon="0.21371">
        <ele>2628.8</ele>
        <time>2017-02-20T11:50:40Z</time>
      </trkpt>
      <trkpt lat="42.86668" lon="0.2137">
        <ele>2626</ele>
        <time>2017-02-20T11:50:45Z</time>
      </trkpt>
      <trkpt lat="42.86669" lon="0.21368">
        <ele>2626.4</ele>
        <time>2017-02-20T11:50:50Z</time>
      </trkpt>
      <trkpt lat="42.86671" lon="0.21367">
        <ele>2626</ele>
        <time>2017-02-20T11:50:56Z</time>
      </trkpt>
      <trkpt lat="42.86673" lon="0.21365">
        <ele>2628.6</ele>
        <time>2017-02-20T11:51:01Z</time>
      </trkpt>
      <trkpt lat="42.86674" lon="0.21364">
        <ele>2628.8</ele>
        <time>2017-02-20T11:51:06Z</time>
      </trkpt>
      <trkpt lat="42.86675" lon="0.21363">
        <ele>2627.8</ele>
        <time>2017-02-20T11:51:11Z</time>
      </trkpt>
      <trkpt lat="42.86676" lon="0.21362">
        <ele>2628.8</ele>
        <time>2017-02-20T11:51:16Z</time>
      </trkpt>
      <trkpt lat="42.86678" lon="0.21361">
        <ele>2626.8</ele>
        <time>2017-02-20T11:51:21Z</time>
      </trkpt>
      <trkpt lat="42.86679" lon="0.2136">
        <ele>2626.8</ele>
        <time>2017-02-20T11:51:26Z</time>
      </trkpt>
      <trkpt lat="42.86681" lon="0.21359">
        <ele>2629</ele>
        <time>2017-02-20T11:51:31Z</time>
      </trkpt>
      <trkpt lat="42.86682" lon="0.21358">
        <ele>2631.8</ele>
        <time>2017-02-20T11:51:36Z</time>
      </trkpt>
      <trkpt lat="42.86681" lon="0.21357">
        <ele>2633.8</ele>
        <time>2017-02-20T11:51:41Z</time>
      </trkpt>
      <trkpt lat="42.86679" lon="0.21356">
        <ele>2634.6</ele>
        <time>2017-02-20T11:51:46Z</time>
      </trkpt>
      <trkpt lat="42.86678" lon="0.21355">
        <ele>2633.8</ele>
        <time>2017-02-20T11:51:51Z</time>
      </trkpt>
      <trkpt lat="42.86676" lon="0.21354">
        <ele>2636.6</ele>
        <time>2017-02-20T11:51:56Z</time>
      </trkpt>
      <trkpt lat="42.86674" lon="0.21353">
        <ele>2633</ele>
        <time>2017-02-20T11:52:01Z</time>
      </trkpt>
      <trkpt lat="42.86671" lon="0.21352">
        <ele>2634</ele>
        <time>2017-02-20T11:52:06Z</time>
      </trkpt>
      <trkpt lat="42.86669" lon="0.21351">
        <ele>2635.2</ele>
        <time>2017-02-20T11:52:11Z</time>
      </trkpt>
      <trkpt lat="42.86667" lon="0.21351">
        <ele>2637.4</ele>
        <time>2017-02-20T11:52:16Z</time>
      </trkpt>
      <trkpt lat="42.86665" lon="0.2135">
        <ele>2636.2</ele>
        <time>2017-02-20T11:52:21Z</time>
      </trkpt>
      <trkpt lat="42.86662" lon="0.21349">
        <ele>2637.4</ele>
        <time>2017-02-20T11:52:26Z</time>
      </trkpt>
      <trkpt lat="42.86661" lon="0.21349">
        <ele>2635.8</ele>
        <time>2017-02-20T11:52:31Z</time>
      </trkpt>
      <trkpt lat="42.86659" lon="0.21348">
        <ele>2636.4</ele>
        <time>2017-02-20T11:52:36Z</time>
      </trkpt>
      <trkpt lat="42.86657" lon="0.21347">
        <ele>2639</ele>
        <time>2017-02-20T11:52:41Z</time>
      </trkpt>
      <trkpt lat="42.86655" lon="0.21347">
        <ele>2638.6</ele>
        <time>2017-02-20T11:52:46Z</time>
      </trkpt>
      <trkpt lat="42.86655" lon="0.21347">
        <ele>2638.6</ele>
        <time>2017-02-20T11:52:51Z</time>
      </trkpt>
      <trkpt lat="42.86652" lon="0.21346">
        <ele>2640.4</ele>
        <time>2017-02-20T11:52:56Z</time>
      </trkpt>
      <trkpt lat="42.86651" lon="0.21346">
        <ele>2640.2</ele>
        <time>2017-02-20T11:53:01Z</time>
      </trkpt>
      <trkpt lat="42.86648" lon="0.21345">
        <ele>2640.2</ele>
        <time>2017-02-20T11:53:06Z</time>
      </trkpt>
      <trkpt lat="42.86646" lon="0.21345">
        <ele>2642</ele>
        <time>2017-02-20T11:53:11Z</time>
      </trkpt>
      <trkpt lat="42.86643" lon="0.21344">
        <ele>2638.4</ele>
        <time>2017-02-20T11:53:16Z</time>
      </trkpt>
      <trkpt lat="42.86641" lon="0.21343">
        <ele>2642.4</ele>
        <time>2017-02-20T11:53:21Z</time>
      </trkpt>
      <trkpt lat="42.86639" lon="0.21341">
        <ele>2642.8</ele>
        <time>2017-02-20T11:53:26Z</time>
      </trkpt>
      <trkpt lat="42.86639" lon="0.21341">
        <ele>2642.4</ele>
        <time>2017-02-20T11:53:31Z</time>
      </trkpt>
      <trkpt lat="42.86636" lon="0.21338">
        <ele>2642.8</ele>
        <time>2017-02-20T11:53:41Z</time>
      </trkpt>
      <trkpt lat="42.86633" lon="0.21337">
        <ele>2643.4</ele>
        <time>2017-02-20T11:53:46Z</time>
      </trkpt>
      <trkpt lat="42.86631" lon="0.21336">
        <ele>2641.8</ele>
        <time>2017-02-20T11:53:51Z</time>
      </trkpt>
      <trkpt lat="42.86629" lon="0.21336">
        <ele>2643.2</ele>
        <time>2017-02-20T11:53:56Z</time>
      </trkpt>
      <trkpt lat="42.86627" lon="0.21335">
        <ele>2644.8</ele>
        <time>2017-02-20T11:54:01Z</time>
      </trkpt>
      <trkpt lat="42.86624" lon="0.21334">
        <ele>2645.4</ele>
        <time>2017-02-20T11:54:06Z</time>
      </trkpt>
      <trkpt lat="42.86621" lon="0.21333">
        <ele>2647.4</ele>
        <time>2017-02-20T11:54:11Z</time>
      </trkpt>
      <trkpt lat="42.86619" lon="0.21332">
        <ele>2646.2</ele>
        <time>2017-02-20T11:54:16Z</time>
      </trkpt>
      <trkpt lat="42.86617" lon="0.21331">
        <ele>2648</ele>
        <time>2017-02-20T11:54:21Z</time>
      </trkpt>
      <trkpt lat="42.86615" lon="0.21331">
        <ele>2646.4</ele>
        <time>2017-02-20T11:54:26Z</time>
      </trkpt>
      <trkpt lat="42.86613" lon="0.2133">
        <ele>2646</ele>
        <time>2017-02-20T11:54:31Z</time>
      </trkpt>
      <trkpt lat="42.8661" lon="0.21329">
        <ele>2649.6</ele>
        <time>2017-02-20T11:54:36Z</time>
      </trkpt>
      <trkpt lat="42.86608" lon="0.21328">
        <ele>2646.6</ele>
        <time>2017-02-20T11:54:41Z</time>
      </trkpt>
      <trkpt lat="42.86605" lon="0.21327">
        <ele>2647.2</ele>
        <time>2017-02-20T11:54:46Z</time>
      </trkpt>
      <trkpt lat="42.86603" lon="0.21327">
        <ele>2646.6</ele>
        <time>2017-02-20T11:54:51Z</time>
      </trkpt>
      <trkpt lat="42.866" lon="0.21326">
        <ele>2649.8</ele>
        <time>2017-02-20T11:54:56Z</time>
      </trkpt>
      <trkpt lat="42.86597" lon="0.21325">
        <ele>2648.4</ele>
        <time>2017-02-20T11:55:01Z</time>
      </trkpt>
      <trkpt lat="42.86595" lon="0.21323">
        <ele>2650.2</ele>
        <time>2017-02-20T11:55:06Z</time>
      </trkpt>
      <trkpt lat="42.86593" lon="0.21322">
        <ele>2648.4</ele>
        <time>2017-02-20T11:55:11Z</time>
      </trkpt>
      <trkpt lat="42.86592" lon="0.21319">
        <ele>2651.8</ele>
        <time>2017-02-20T11:55:16Z</time>
      </trkpt>
      <trkpt lat="42.86592" lon="0.21317">
        <ele>2652.8</ele>
        <time>2017-02-20T11:55:21Z</time>
      </trkpt>
      <trkpt lat="42.86592" lon="0.21316">
        <ele>2653.8</ele>
        <time>2017-02-20T11:55:26Z</time>
      </trkpt>
      <trkpt lat="42.86593" lon="0.21315">
        <ele>2656</ele>
        <time>2017-02-20T11:55:41Z</time>
      </trkpt>
      <trkpt lat="42.86596" lon="0.21313">
        <ele>2656.4</ele>
        <time>2017-02-20T11:55:46Z</time>
      </trkpt>
      <trkpt lat="42.86599" lon="0.2131">
        <ele>2658.6</ele>
        <time>2017-02-20T11:55:51Z</time>
      </trkpt>
      <trkpt lat="42.86601" lon="0.21309">
        <ele>2656</ele>
        <time>2017-02-20T11:55:56Z</time>
      </trkpt>
      <trkpt lat="42.86603" lon="0.21307">
        <ele>2658.2</ele>
        <time>2017-02-20T11:56:01Z</time>
      </trkpt>
      <trkpt lat="42.86607" lon="0.21306">
        <ele>2657</ele>
        <time>2017-02-20T11:56:06Z</time>
      </trkpt>
      <trkpt lat="42.86611" lon="0.21304">
        <ele>2659.6</ele>
        <time>2017-02-20T11:56:12Z</time>
      </trkpt>
      <trkpt lat="42.86614" lon="0.21303">
        <ele>2657.8</ele>
        <time>2017-02-20T11:56:17Z</time>
      </trkpt>
      <trkpt lat="42.86616" lon="0.21302">
        <ele>2659.2</ele>
        <time>2017-02-20T11:56:22Z</time>
      </trkpt>
      <trkpt lat="42.86619" lon="0.213">
        <ele>2662.6</ele>
        <time>2017-02-20T11:56:27Z</time>
      </trkpt>
      <trkpt lat="42.86621" lon="0.21299">
        <ele>2662.4</ele>
        <time>2017-02-20T11:56:32Z</time>
      </trkpt>
      <trkpt lat="42.86623" lon="0.21298">
        <ele>2659.4</ele>
        <time>2017-02-20T11:56:37Z</time>
      </trkpt>
      <trkpt lat="42.86625" lon="0.21296">
        <ele>2658.8</ele>
        <time>2017-02-20T11:56:42Z</time>
      </trkpt>
      <trkpt lat="42.86625" lon="0.21296">
        <ele>2661.8</ele>
        <time>2017-02-20T11:56:47Z</time>
      </trkpt>
      <trkpt lat="42.86627" lon="0.21294">
        <ele>2661.8</ele>
        <time>2017-02-20T11:56:52Z</time>
      </trkpt>
      <trkpt lat="42.86629" lon="0.21292">
        <ele>2661.4</ele>
        <time>2017-02-20T11:56:57Z</time>
      </trkpt>
      <trkpt lat="42.86632" lon="0.2129">
        <ele>2660</ele>
        <time>2017-02-20T11:57:02Z</time>
      </trkpt>
      <trkpt lat="42.86635" lon="0.21289">
        <ele>2659.4</ele>
        <time>2017-02-20T11:57:07Z</time>
      </trkpt>
      <trkpt lat="42.86636" lon="0.21288">
        <ele>2661</ele>
        <time>2017-02-20T11:57:12Z</time>
      </trkpt>
      <trkpt lat="42.86636" lon="0.21289">
        <ele>2661</ele>
        <time>2017-02-20T11:57:17Z</time>
      </trkpt>
      <trkpt lat="42.86639" lon="0.21287">
        <ele>2659.6</ele>
        <time>2017-02-20T11:57:47Z</time>
      </trkpt>
      <trkpt lat="42.86642" lon="0.21285">
        <ele>2662</ele>
        <time>2017-02-20T11:57:52Z</time>
      </trkpt>
      <trkpt lat="42.86644" lon="0.21282">
        <ele>2661</ele>
        <time>2017-02-20T11:57:57Z</time>
      </trkpt>
      <trkpt lat="42.86646" lon="0.2128">
        <ele>2664.6</ele>
        <time>2017-02-20T11:58:02Z</time>
      </trkpt>
      <trkpt lat="42.86648" lon="0.21279">
        <ele>2663.6</ele>
        <time>2017-02-20T11:58:07Z</time>
      </trkpt>
      <trkpt lat="42.8665" lon="0.21277">
        <ele>2665.2</ele>
        <time>2017-02-20T11:58:12Z</time>
      </trkpt>
      <trkpt lat="42.86652" lon="0.21275">
        <ele>2665</ele>
        <time>2017-02-20T11:58:17Z</time>
      </trkpt>
      <trkpt lat="42.86654" lon="0.21272">
        <ele>2666.6</ele>
        <time>2017-02-20T11:58:22Z</time>
      </trkpt>
      <trkpt lat="42.86656" lon="0.21272">
        <ele>2665</ele>
        <time>2017-02-20T11:58:27Z</time>
      </trkpt>
      <trkpt lat="42.86657" lon="0.2127">
        <ele>2664.6</ele>
        <time>2017-02-20T11:58:32Z</time>
      </trkpt>
      <trkpt lat="42.86659" lon="0.21268">
        <ele>2669.4</ele>
        <time>2017-02-20T11:58:37Z</time>
      </trkpt>
      <trkpt lat="42.86659" lon="0.21268">
        <ele>2669.4</ele>
        <time>2017-02-20T11:58:42Z</time>
      </trkpt>
      <trkpt lat="42.86659" lon="0.21267">
        <ele>2668.2</ele>
        <time>2017-02-20T11:58:52Z</time>
      </trkpt>
      <trkpt lat="42.86659" lon="0.21267">
        <ele>2667.4</ele>
        <time>2017-02-20T11:58:57Z</time>
      </trkpt>
      <trkpt lat="42.8666" lon="0.21265">
        <ele>2667.4</ele>
        <time>2017-02-20T11:59:07Z</time>
      </trkpt>
      <trkpt lat="42.86661" lon="0.21263">
        <ele>2668.4</ele>
        <time>2017-02-20T11:59:12Z</time>
      </trkpt>
      <trkpt lat="42.86662" lon="0.2126">
        <ele>2668.4</ele>
        <time>2017-02-20T11:59:17Z</time>
      </trkpt>
      <trkpt lat="42.86663" lon="0.21258">
        <ele>2670.6</ele>
        <time>2017-02-20T11:59:22Z</time>
      </trkpt>
      <trkpt lat="42.86665" lon="0.21255">
        <ele>2670.6</ele>
        <time>2017-02-20T11:59:27Z</time>
      </trkpt>
      <trkpt lat="42.86665" lon="0.21252">
        <ele>2672</ele>
        <time>2017-02-20T11:59:32Z</time>
      </trkpt>
      <trkpt lat="42.86666" lon="0.2125">
        <ele>2669.4</ele>
        <time>2017-02-20T11:59:37Z</time>
      </trkpt>
      <trkpt lat="42.86668" lon="0.21247">
        <ele>2670.6</ele>
        <time>2017-02-20T11:59:43Z</time>
      </trkpt>
      <trkpt lat="42.86669" lon="0.21245">
        <ele>2669.2</ele>
        <time>2017-02-20T11:59:48Z</time>
      </trkpt>
      <trkpt lat="42.86671" lon="0.21244">
        <ele>2673.8</ele>
        <time>2017-02-20T11:59:53Z</time>
      </trkpt>
      <trkpt lat="42.86673" lon="0.21241">
        <ele>2672.6</ele>
        <time>2017-02-20T11:59:58Z</time>
      </trkpt>
      <trkpt lat="42.86675" lon="0.21239">
        <ele>2676.6</ele>
        <time>2017-02-20T12:00:03Z</time>
      </trkpt>
      <trkpt lat="42.86676" lon="0.21237">
        <ele>2679</ele>
        <time>2017-02-20T12:00:08Z</time>
      </trkpt>
      <trkpt lat="42.86676" lon="0.21235">
        <ele>2677.2</ele>
        <time>2017-02-20T12:00:13Z</time>
      </trkpt>
      <trkpt lat="42.86676" lon="0.21232">
        <ele>2679</ele>
        <time>2017-02-20T12:00:18Z</time>
      </trkpt>
      <trkpt lat="42.86675" lon="0.2123">
        <ele>2679.8</ele>
        <time>2017-02-20T12:00:23Z</time>
      </trkpt>
      <trkpt lat="42.86674" lon="0.21227">
        <ele>2680.8</ele>
        <time>2017-02-20T12:00:28Z</time>
      </trkpt>
      <trkpt lat="42.86673" lon="0.21225">
        <ele>2680</ele>
        <time>2017-02-20T12:00:33Z</time>
      </trkpt>
      <trkpt lat="42.86673" lon="0.21221">
        <ele>2677.4</ele>
        <time>2017-02-20T12:00:39Z</time>
      </trkpt>
      <trkpt lat="42.86674" lon="0.2122">
        <ele>2683</ele>
        <time>2017-02-20T12:00:45Z</time>
      </trkpt>
      <trkpt lat="42.86675" lon="0.2122">
        <ele>2681.2</ele>
        <time>2017-02-20T12:01:00Z</time>
      </trkpt>
      <trkpt lat="42.86678" lon="0.21217">
        <ele>2681.6</ele>
        <time>2017-02-20T12:01:05Z</time>
      </trkpt>
      <trkpt lat="42.86677" lon="0.21214">
        <ele>2681</ele>
        <time>2017-02-20T12:01:10Z</time>
      </trkpt>
      <trkpt lat="42.86676" lon="0.21211">
        <ele>2684.4</ele>
        <time>2017-02-20T12:01:15Z</time>
      </trkpt>
      <trkpt lat="42.86674" lon="0.21208">
        <ele>2682.4</ele>
        <time>2017-02-20T12:01:20Z</time>
      </trkpt>
      <trkpt lat="42.86673" lon="0.21206">
        <ele>2683.4</ele>
        <time>2017-02-20T12:01:25Z</time>
      </trkpt>
      <trkpt lat="42.86671" lon="0.21203">
        <ele>2685.2</ele>
        <time>2017-02-20T12:01:30Z</time>
      </trkpt>
      <trkpt lat="42.86671" lon="0.212">
        <ele>2686.6</ele>
        <time>2017-02-20T12:01:35Z</time>
      </trkpt>
      <trkpt lat="42.86672" lon="0.21198">
        <ele>2687.2</ele>
        <time>2017-02-20T12:01:40Z</time>
      </trkpt>
      <trkpt lat="42.86674" lon="0.21196">
        <ele>2689</ele>
        <time>2017-02-20T12:01:45Z</time>
      </trkpt>
      <trkpt lat="42.86675" lon="0.21193">
        <ele>2687.4</ele>
        <time>2017-02-20T12:01:50Z</time>
      </trkpt>
      <trkpt lat="42.86676" lon="0.21191">
        <ele>2686.2</ele>
        <time>2017-02-20T12:01:55Z</time>
      </trkpt>
      <trkpt lat="42.86676" lon="0.21188">
        <ele>2686.2</ele>
        <time>2017-02-20T12:02:00Z</time>
      </trkpt>
      <trkpt lat="42.86677" lon="0.21185">
        <ele>2689.2</ele>
        <time>2017-02-20T12:02:05Z</time>
      </trkpt>
      <trkpt lat="42.86679" lon="0.21183">
        <ele>2690.2</ele>
        <time>2017-02-20T12:02:10Z</time>
      </trkpt>
      <trkpt lat="42.86681" lon="0.21181">
        <ele>2690.4</ele>
        <time>2017-02-20T12:02:15Z</time>
      </trkpt>
      <trkpt lat="42.86683" lon="0.21179">
        <ele>2689.8</ele>
        <time>2017-02-20T12:02:20Z</time>
      </trkpt>
      <trkpt lat="42.86684" lon="0.21176">
        <ele>2690</ele>
        <time>2017-02-20T12:02:25Z</time>
      </trkpt>
      <trkpt lat="42.86686" lon="0.21174">
        <ele>2692.2</ele>
        <time>2017-02-20T12:02:30Z</time>
      </trkpt>
      <trkpt lat="42.86687" lon="0.21171">
        <ele>2691.8</ele>
        <time>2017-02-20T12:02:35Z</time>
      </trkpt>
      <trkpt lat="42.86687" lon="0.21168">
        <ele>2694.2</ele>
        <time>2017-02-20T12:02:40Z</time>
      </trkpt>
      <trkpt lat="42.86685" lon="0.21165">
        <ele>2692.8</ele>
        <time>2017-02-20T12:02:45Z</time>
      </trkpt>
      <trkpt lat="42.86683" lon="0.21163">
        <ele>2692</ele>
        <time>2017-02-20T12:02:50Z</time>
      </trkpt>
      <trkpt lat="42.86682" lon="0.21162">
        <ele>2691</ele>
        <time>2017-02-20T12:02:55Z</time>
      </trkpt>
      <trkpt lat="42.8668" lon="0.21159">
        <ele>2694.2</ele>
        <time>2017-02-20T12:03:00Z</time>
      </trkpt>
      <trkpt lat="42.86679" lon="0.21157">
        <ele>2695.6</ele>
        <time>2017-02-20T12:03:05Z</time>
      </trkpt>
      <trkpt lat="42.86678" lon="0.21155">
        <ele>2696.2</ele>
        <time>2017-02-20T12:03:10Z</time>
      </trkpt>
      <trkpt lat="42.86678" lon="0.21155">
        <ele>2696.4</ele>
        <time>2017-02-20T12:03:15Z</time>
      </trkpt>
      <trkpt lat="42.86678" lon="0.21155">
        <ele>2696.6</ele>
        <time>2017-02-20T12:03:20Z</time>
      </trkpt>
      <trkpt lat="42.86678" lon="0.21154">
        <ele>2695.6</ele>
        <time>2017-02-20T12:03:25Z</time>
      </trkpt>
      <trkpt lat="42.86679" lon="0.21154">
        <ele>2696.6</ele>
        <time>2017-02-20T12:03:30Z</time>
      </trkpt>
      <trkpt lat="42.86679" lon="0.21154">
        <ele>2696.2</ele>
        <time>2017-02-20T12:03:40Z</time>
      </trkpt>
      <trkpt lat="42.86678" lon="0.21154">
        <ele>2696.8</ele>
        <time>2017-02-20T12:03:55Z</time>
      </trkpt>
      <trkpt lat="42.86679" lon="0.21154">
        <ele>2696.8</ele>
        <time>2017-02-20T12:04:10Z</time>
      </trkpt>
      <trkpt lat="42.86679" lon="0.21154">
        <ele>2696.8</ele>
        <time>2017-02-20T12:05:01Z</time>
      </trkpt>
      <trkpt lat="42.86679" lon="0.21154">
        <ele>2697.2</ele>
        <time>2017-02-20T12:07:48Z</time>
      </trkpt>
      <trkpt lat="42.86679" lon="0.21154">
        <ele>2697.4</ele>
        <time>2017-02-20T12:12:19Z</time>
      </trkpt>
      <trkpt lat="42.86679" lon="0.21154">
        <ele>2697.6</ele>
        <time>2017-02-20T12:12:49Z</time>
      </trkpt>
      <trkpt lat="42.86679" lon="0.21154">
        <ele>2697.6</ele>
        <time>2017-02-20T12:13:54Z</time>
      </trkpt>
      <trkpt lat="42.86679" lon="0.21155">
        <ele>2697.8</ele>
        <time>2017-02-20T12:16:04Z</time>
      </trkpt>
      <trkpt lat="42.86679" lon="0.21155">
        <ele>2697.8</ele>
        <time>2017-02-20T12:19:22Z</time>
      </trkpt>
      <trkpt lat="42.86679" lon="0.21154">
        <ele>2698</ele>
        <time>2017-02-20T12:19:52Z</time>
      </trkpt>
      <trkpt lat="42.86679" lon="0.21154">
        <ele>2698</ele>
        <time>2017-02-20T12:20:42Z</time>
      </trkpt>
      <trkpt lat="42.86679" lon="0.21154">
        <ele>2698</ele>
        <time>2017-02-20T12:21:43Z</time>
      </trkpt>
      <trkpt lat="42.86679" lon="0.21155">
        <ele>2697.8</ele>
        <time>2017-02-20T12:22:30Z</time>
      </trkpt>
      <trkpt lat="42.86678" lon="0.21155">
        <ele>2697.6</ele>
        <time>2017-02-20T12:22:50Z</time>
      </trkpt>
      <trkpt lat="42.86679" lon="0.21157">
        <ele>2697.4</ele>
        <time>2017-02-20T12:22:55Z</time>
      </trkpt>
      <trkpt lat="42.86679" lon="0.21157">
        <ele>2697.6</ele>
        <time>2017-02-20T12:25:06Z</time>
      </trkpt>
      <trkpt lat="42.86679" lon="0.21157">
        <ele>2693.2</ele>
        <time>2017-02-20T12:26:17Z</time>
      </trkpt>
      <trkpt lat="42.86679" lon="0.21157">
        <ele>2695.2</ele>
        <time>2017-02-20T12:26:27Z</time>
      </trkpt>
      <trkpt lat="42.8668" lon="0.21156">
        <ele>2695.8</ele>
        <time>2017-02-20T12:26:32Z</time>
      </trkpt>
      <trkpt lat="42.86679" lon="0.21155">
        <ele>2696</ele>
        <time>2017-02-20T12:26:37Z</time>
      </trkpt>
      <trkpt lat="42.86679" lon="0.21155">
        <ele>2697</ele>
        <time>2017-02-20T12:28:27Z</time>
      </trkpt>
      <trkpt lat="42.86679" lon="0.21155">
        <ele>2697</ele>
        <time>2017-02-20T12:29:52Z</time>
      </trkpt>
      <trkpt lat="42.86678" lon="0.21155">
        <ele>2697</ele>
        <time>2017-02-20T12:31:42Z</time>
      </trkpt>
      <trkpt lat="42.86678" lon="0.21155">
        <ele>2696.8</ele>
        <time>2017-02-20T12:31:52Z</time>
      </trkpt>
      <trkpt lat="42.86676" lon="0.21156">
        <ele>2696.4</ele>
        <time>2017-02-20T12:31:57Z</time>
      </trkpt>
      <trkpt lat="42.86676" lon="0.21157">
        <ele>2696.2</ele>
        <time>2017-02-20T12:32:02Z</time>
      </trkpt>
      <trkpt lat="42.86676" lon="0.21157">
        <ele>2696.4</ele>
        <time>2017-02-20T12:32:07Z</time>
      </trkpt>
      <trkpt lat="42.86677" lon="0.21157">
        <ele>2696.6</ele>
        <time>2017-02-20T12:32:17Z</time>
      </trkpt>
      <trkpt lat="42.86677" lon="0.21157">
        <ele>2695.6</ele>
        <time>2017-02-20T12:32:22Z</time>
      </trkpt>
      <trkpt lat="42.86678" lon="0.21157">
        <ele>2696.8</ele>
        <time>2017-02-20T12:32:27Z</time>
      </trkpt>
      <trkpt lat="42.86678" lon="0.21158">
        <ele>2697.6</ele>
        <time>2017-02-20T12:32:47Z</time>
      </trkpt>
      <trkpt lat="42.86678" lon="0.21158">
        <ele>2696.4</ele>
        <time>2017-02-20T12:32:52Z</time>
      </trkpt>
      <trkpt lat="42.86678" lon="0.21158">
        <ele>2696.6</ele>
        <time>2017-02-20T12:32:57Z</time>
      </trkpt>
      <trkpt lat="42.86678" lon="0.21157">
        <ele>2698</ele>
        <time>2017-02-20T12:33:38Z</time>
      </trkpt>
      <trkpt lat="42.86676" lon="0.21157">
        <ele>2696.8</ele>
        <time>2017-02-20T12:33:43Z</time>
      </trkpt>
      <trkpt lat="42.86677" lon="0.21157">
        <ele>2697</ele>
        <time>2017-02-20T12:33:48Z</time>
      </trkpt>
      <trkpt lat="42.86677" lon="0.21157">
        <ele>2697</ele>
        <time>2017-02-20T12:33:53Z</time>
      </trkpt>
      <trkpt lat="42.86678" lon="0.21158">
        <ele>2697</ele>
        <time>2017-02-20T12:34:03Z</time>
      </trkpt>
      <trkpt lat="42.86679" lon="0.2116">
        <ele>2698</ele>
        <time>2017-02-20T12:34:08Z</time>
      </trkpt>
      <trkpt lat="42.86674" lon="0.21171">
        <ele>2695.4</ele>
        <time>2017-02-20T12:34:13Z</time>
      </trkpt>
      <trkpt lat="42.86677" lon="0.21183">
        <ele>2691.2</ele>
        <time>2017-02-20T12:34:18Z</time>
      </trkpt>
      <trkpt lat="42.86677" lon="0.21183">
        <ele>2692</ele>
        <time>2017-02-20T12:34:23Z</time>
      </trkpt>
      <trkpt lat="42.86676" lon="0.21195">
        <ele>2692.2</ele>
        <time>2017-02-20T12:34:28Z</time>
      </trkpt>
      <trkpt lat="42.86677" lon="0.21217">
        <ele>2685.8</ele>
        <time>2017-02-20T12:34:33Z</time>
      </trkpt>
      <trkpt lat="42.86675" lon="0.21236">
        <ele>2681</ele>
        <time>2017-02-20T12:34:38Z</time>
      </trkpt>
      <trkpt lat="42.86671" lon="0.21247">
        <ele>2677.8</ele>
        <time>2017-02-20T12:34:43Z</time>
      </trkpt>
      <trkpt lat="42.8666" lon="0.21263">
        <ele>2673.2</ele>
        <time>2017-02-20T12:34:48Z</time>
      </trkpt>
      <trkpt lat="42.86647" lon="0.21282">
        <ele>2669</ele>
        <time>2017-02-20T12:34:53Z</time>
      </trkpt>
      <trkpt lat="42.86628" lon="0.21296">
        <ele>2662.6</ele>
        <time>2017-02-20T12:34:58Z</time>
      </trkpt>
      <trkpt lat="42.86625" lon="0.21295">
        <ele>2662.2</ele>
        <time>2017-02-20T12:35:03Z</time>
      </trkpt>
      <trkpt lat="42.86623" lon="0.21299">
        <ele>2661.6</ele>
        <time>2017-02-20T12:35:13Z</time>
      </trkpt>
      <trkpt lat="42.86609" lon="0.2132">
        <ele>2654</ele>
        <time>2017-02-20T12:35:18Z</time>
      </trkpt>
      <trkpt lat="42.86618" lon="0.21346">
        <ele>2647.8</ele>
        <time>2017-02-20T12:35:23Z</time>
      </trkpt>
      <trkpt lat="42.86626" lon="0.21369">
        <ele>2638.4</ele>
        <time>2017-02-20T12:35:28Z</time>
      </trkpt>
      <trkpt lat="42.86637" lon="0.21389">
        <ele>2632.8</ele>
        <time>2017-02-20T12:35:33Z</time>
      </trkpt>
      <trkpt lat="42.86651" lon="0.21413">
        <ele>2626.6</ele>
        <time>2017-02-20T12:35:38Z</time>
      </trkpt>
      <trkpt lat="42.86651" lon="0.21441">
        <ele>2622.4</ele>
        <time>2017-02-20T12:35:43Z</time>
      </trkpt>
      <trkpt lat="42.86646" lon="0.21467">
        <ele>2622.2</ele>
        <time>2017-02-20T12:35:48Z</time>
      </trkpt>
      <trkpt lat="42.86642" lon="0.21466">
        <ele>2623.4</ele>
        <time>2017-02-20T12:35:53Z</time>
      </trkpt>
      <trkpt lat="42.86642" lon="0.21466">
        <ele>2622.2</ele>
        <time>2017-02-20T12:36:18Z</time>
      </trkpt>
      <trkpt lat="42.86641" lon="0.21465">
        <ele>2620.6</ele>
        <time>2017-02-20T12:36:23Z</time>
      </trkpt>
      <trkpt lat="42.86642" lon="0.21465">
        <ele>2620.2</ele>
        <time>2017-02-20T12:36:28Z</time>
      </trkpt>
      <trkpt lat="42.86643" lon="0.21465">
        <ele>2618.4</ele>
        <time>2017-02-20T12:36:43Z</time>
      </trkpt>
      <trkpt lat="42.86643" lon="0.21467">
        <ele>2614.6</ele>
        <time>2017-02-20T12:37:13Z</time>
      </trkpt>
      <trkpt lat="42.86642" lon="0.21467">
        <ele>2611</ele>
        <time>2017-02-20T12:37:38Z</time>
      </trkpt>
      <trkpt lat="42.86642" lon="0.21467">
        <ele>2610</ele>
        <time>2017-02-20T12:37:48Z</time>
      </trkpt>
      <trkpt lat="42.86642" lon="0.21468">
        <ele>2608.8</ele>
        <time>2017-02-20T12:38:08Z</time>
      </trkpt>
      <trkpt lat="42.86642" lon="0.21468">
        <ele>2607.8</ele>
        <time>2017-02-20T12:38:28Z</time>
      </trkpt>
      <trkpt lat="42.86641" lon="0.21466">
        <ele>2606.8</ele>
        <time>2017-02-20T12:38:58Z</time>
      </trkpt>
      <trkpt lat="42.86641" lon="0.21467">
        <ele>2606.4</ele>
        <time>2017-02-20T12:39:03Z</time>
      </trkpt>
      <trkpt lat="42.86639" lon="0.21471">
        <ele>2609</ele>
        <time>2017-02-20T12:39:08Z</time>
      </trkpt>
      <trkpt lat="42.86639" lon="0.21473">
        <ele>2608.2</ele>
        <time>2017-02-20T12:39:13Z</time>
      </trkpt>
      <trkpt lat="42.86638" lon="0.21477">
        <ele>2603.8</ele>
        <time>2017-02-20T12:39:18Z</time>
      </trkpt>
      <trkpt lat="42.86643" lon="0.21494">
        <ele>2601.8</ele>
        <time>2017-02-20T12:39:23Z</time>
      </trkpt>
      <trkpt lat="42.86636" lon="0.21521">
        <ele>2601</ele>
        <time>2017-02-20T12:39:28Z</time>
      </trkpt>
      <trkpt lat="42.86638" lon="0.21546">
        <ele>2594.8</ele>
        <time>2017-02-20T12:39:33Z</time>
      </trkpt>
      <trkpt lat="42.86642" lon="0.2157">
        <ele>2589.6</ele>
        <time>2017-02-20T12:39:38Z</time>
      </trkpt>
      <trkpt lat="42.86633" lon="0.21595">
        <ele>2587.4</ele>
        <time>2017-02-20T12:39:43Z</time>
      </trkpt>
      <trkpt lat="42.8663" lon="0.21623">
        <ele>2586</ele>
        <time>2017-02-20T12:39:48Z</time>
      </trkpt>
      <trkpt lat="42.86618" lon="0.21646">
        <ele>2586.6</ele>
        <time>2017-02-20T12:39:53Z</time>
      </trkpt>
      <trkpt lat="42.86607" lon="0.21674">
        <ele>2582.4</ele>
        <time>2017-02-20T12:39:58Z</time>
      </trkpt>
      <trkpt lat="42.86597" lon="0.21706">
        <ele>2579.8</ele>
        <time>2017-02-20T12:40:03Z</time>
      </trkpt>
      <trkpt lat="42.86587" lon="0.21733">
        <ele>2580</ele>
        <time>2017-02-20T12:40:08Z</time>
      </trkpt>
      <trkpt lat="42.86574" lon="0.21755">
        <ele>2574.2</ele>
        <time>2017-02-20T12:40:13Z</time>
      </trkpt>
      <trkpt lat="42.86562" lon="0.21774">
        <ele>2576</ele>
        <time>2017-02-20T12:40:18Z</time>
      </trkpt>
      <trkpt lat="42.86551" lon="0.21795">
        <ele>2573.6</ele>
        <time>2017-02-20T12:40:23Z</time>
      </trkpt>
      <trkpt lat="42.86535" lon="0.21821">
        <ele>2569.6</ele>
        <time>2017-02-20T12:40:28Z</time>
      </trkpt>
      <trkpt lat="42.86521" lon="0.2185">
        <ele>2565.4</ele>
        <time>2017-02-20T12:40:33Z</time>
      </trkpt>
      <trkpt lat="42.86505" lon="0.2186">
        <ele>2564</ele>
        <time>2017-02-20T12:40:38Z</time>
      </trkpt>
      <trkpt lat="42.86506" lon="0.21859">
        <ele>2561.6</ele>
        <time>2017-02-20T12:40:43Z</time>
      </trkpt>
      <trkpt lat="42.86507" lon="0.21861">
        <ele>2556</ele>
        <time>2017-02-20T12:41:03Z</time>
      </trkpt>
      <trkpt lat="42.86509" lon="0.21882">
        <ele>2549</ele>
        <time>2017-02-20T12:41:08Z</time>
      </trkpt>
      <trkpt lat="42.86513" lon="0.21898">
        <ele>2548.4</ele>
        <time>2017-02-20T12:41:13Z</time>
      </trkpt>
      <trkpt lat="42.86512" lon="0.21923">
        <ele>2542.6</ele>
        <time>2017-02-20T12:41:18Z</time>
      </trkpt>
      <trkpt lat="42.86504" lon="0.2195">
        <ele>2537.4</ele>
        <time>2017-02-20T12:41:24Z</time>
      </trkpt>
      <trkpt lat="42.86488" lon="0.21966">
        <ele>2529.8</ele>
        <time>2017-02-20T12:41:29Z</time>
      </trkpt>
      <trkpt lat="42.86473" lon="0.21988">
        <ele>2530.4</ele>
        <time>2017-02-20T12:41:34Z</time>
      </trkpt>
      <trkpt lat="42.86463" lon="0.22013">
        <ele>2525</ele>
        <time>2017-02-20T12:41:39Z</time>
      </trkpt>
      <trkpt lat="42.86458" lon="0.22009">
        <ele>2522.4</ele>
        <time>2017-02-20T12:41:44Z</time>
      </trkpt>
      <trkpt lat="42.86458" lon="0.2201">
        <ele>2522</ele>
        <time>2017-02-20T12:41:49Z</time>
      </trkpt>
      <trkpt lat="42.86457" lon="0.2201">
        <ele>2520.2</ele>
        <time>2017-02-20T12:42:04Z</time>
      </trkpt>
      <trkpt lat="42.86457" lon="0.2201">
        <ele>2517.8</ele>
        <time>2017-02-20T12:42:19Z</time>
      </trkpt>
      <trkpt lat="42.86457" lon="0.22009">
        <ele>2517</ele>
        <time>2017-02-20T12:42:24Z</time>
      </trkpt>
      <trkpt lat="42.86458" lon="0.22009">
        <ele>2516</ele>
        <time>2017-02-20T12:42:29Z</time>
      </trkpt>
      <trkpt lat="42.86457" lon="0.22008">
        <ele>2513</ele>
        <time>2017-02-20T12:42:39Z</time>
      </trkpt>
      <trkpt lat="42.86457" lon="0.22008">
        <ele>2511.4</ele>
        <time>2017-02-20T12:42:44Z</time>
      </trkpt>
      <trkpt lat="42.86457" lon="0.22008">
        <ele>2508.6</ele>
        <time>2017-02-20T12:42:59Z</time>
      </trkpt>
      <trkpt lat="42.86457" lon="0.22008">
        <ele>2507.8</ele>
        <time>2017-02-20T12:43:09Z</time>
      </trkpt>
      <trkpt lat="42.86457" lon="0.22008">
        <ele>2507.2</ele>
        <time>2017-02-20T12:43:19Z</time>
      </trkpt>
      <trkpt lat="42.86457" lon="0.22008">
        <ele>2508.2</ele>
        <time>2017-02-20T12:43:44Z</time>
      </trkpt>
      <trkpt lat="42.86455" lon="0.22008">
        <ele>2508</ele>
        <time>2017-02-20T12:43:49Z</time>
      </trkpt>
      <trkpt lat="42.86454" lon="0.22008">
        <ele>2502.6</ele>
        <time>2017-02-20T12:43:54Z</time>
      </trkpt>
      <trkpt lat="42.8645" lon="0.2201">
        <ele>2502.4</ele>
        <time>2017-02-20T12:44:04Z</time>
      </trkpt>
      <trkpt lat="42.8645" lon="0.2201">
        <ele>2501.4</ele>
        <time>2017-02-20T12:44:09Z</time>
      </trkpt>
      <trkpt lat="42.86442" lon="0.22014">
        <ele>2497.6</ele>
        <time>2017-02-20T12:44:14Z</time>
      </trkpt>
      <trkpt lat="42.86437" lon="0.22032">
        <ele>2497.4</ele>
        <time>2017-02-20T12:44:19Z</time>
      </trkpt>
      <trkpt lat="42.86428" lon="0.22047">
        <ele>2492</ele>
        <time>2017-02-20T12:44:24Z</time>
      </trkpt>
      <trkpt lat="42.86422" lon="0.22066">
        <ele>2484.8</ele>
        <time>2017-02-20T12:44:29Z</time>
      </trkpt>
      <trkpt lat="42.86394" lon="0.22057">
        <ele>2481.6</ele>
        <time>2017-02-20T12:44:34Z</time>
      </trkpt>
      <trkpt lat="42.86384" lon="0.22093">
        <ele>2476.2</ele>
        <time>2017-02-20T12:44:39Z</time>
      </trkpt>
      <trkpt lat="42.8638" lon="0.22128">
        <ele>2471.6</ele>
        <time>2017-02-20T12:44:44Z</time>
      </trkpt>
      <trkpt lat="42.86377" lon="0.22146">
        <ele>2469.6</ele>
        <time>2017-02-20T12:44:49Z</time>
      </trkpt>
      <trkpt lat="42.86374" lon="0.22151">
        <ele>2470.6</ele>
        <time>2017-02-20T12:44:54Z</time>
      </trkpt>
      <trkpt lat="42.86374" lon="0.2215">
        <ele>2470.2</ele>
        <time>2017-02-20T12:44:59Z</time>
      </trkpt>
      <trkpt lat="42.86372" lon="0.22151">
        <ele>2468.8</ele>
        <time>2017-02-20T12:45:09Z</time>
      </trkpt>
      <trkpt lat="42.86371" lon="0.22153">
        <ele>2467.8</ele>
        <time>2017-02-20T12:45:14Z</time>
      </trkpt>
      <trkpt lat="42.86371" lon="0.22153">
        <ele>2467.2</ele>
        <time>2017-02-20T12:45:36Z</time>
      </trkpt>
      <trkpt lat="42.86368" lon="0.22159">
        <ele>2466.4</ele>
        <time>2017-02-20T12:45:51Z</time>
      </trkpt>
      <trkpt lat="42.86339" lon="0.22148">
        <ele>2463.2</ele>
        <time>2017-02-20T12:45:56Z</time>
      </trkpt>
      <trkpt lat="42.86312" lon="0.22138">
        <ele>2461.4</ele>
        <time>2017-02-20T12:46:01Z</time>
      </trkpt>
      <trkpt lat="42.86295" lon="0.22164">
        <ele>2448.6</ele>
        <time>2017-02-20T12:46:06Z</time>
      </trkpt>
      <trkpt lat="42.86291" lon="0.22172">
        <ele>2442.2</ele>
        <time>2017-02-20T12:46:11Z</time>
      </trkpt>
      <trkpt lat="42.86287" lon="0.2216">
        <ele>2440.4</ele>
        <time>2017-02-20T12:46:16Z</time>
      </trkpt>
      <trkpt lat="42.86281" lon="0.22163">
        <ele>2435.4</ele>
        <time>2017-02-20T12:46:21Z</time>
      </trkpt>
      <trkpt lat="42.86271" lon="0.22162">
        <ele>2434.6</ele>
        <time>2017-02-20T12:46:26Z</time>
      </trkpt>
      <trkpt lat="42.86235" lon="0.22158">
        <ele>2428.2</ele>
        <time>2017-02-20T12:46:32Z</time>
      </trkpt>
      <trkpt lat="42.8622" lon="0.22165">
        <ele>2423.8</ele>
        <time>2017-02-20T12:46:37Z</time>
      </trkpt>
      <trkpt lat="42.86205" lon="0.22173">
        <ele>2421.8</ele>
        <time>2017-02-20T12:46:42Z</time>
      </trkpt>
      <trkpt lat="42.86193" lon="0.22193">
        <ele>2415.4</ele>
        <time>2017-02-20T12:46:47Z</time>
      </trkpt>
      <trkpt lat="42.86197" lon="0.22225">
        <ele>2405</ele>
        <time>2017-02-20T12:46:52Z</time>
      </trkpt>
      <trkpt lat="42.86174" lon="0.22246">
        <ele>2400.8</ele>
        <time>2017-02-20T12:46:57Z</time>
      </trkpt>
      <trkpt lat="42.86145" lon="0.22259">
        <ele>2399</ele>
        <time>2017-02-20T12:47:02Z</time>
      </trkpt>
      <trkpt lat="42.8612" lon="0.22268">
        <ele>2397.2</ele>
        <time>2017-02-20T12:47:07Z</time>
      </trkpt>
      <trkpt lat="42.86122" lon="0.22269">
        <ele>2396.4</ele>
        <time>2017-02-20T12:47:12Z</time>
      </trkpt>
      <trkpt lat="42.86122" lon="0.22269">
        <ele>2395.8</ele>
        <time>2017-02-20T12:47:17Z</time>
      </trkpt>
      <trkpt lat="42.86122" lon="0.2227">
        <ele>2393.6</ele>
        <time>2017-02-20T12:47:52Z</time>
      </trkpt>
      <trkpt lat="42.86122" lon="0.2227">
        <ele>2392.8</ele>
        <time>2017-02-20T12:48:07Z</time>
      </trkpt>
      <trkpt lat="42.86122" lon="0.2227">
        <ele>2392.2</ele>
        <time>2017-02-20T12:48:27Z</time>
      </trkpt>
      <trkpt lat="42.86122" lon="0.2227">
        <ele>2391.8</ele>
        <time>2017-02-20T12:48:57Z</time>
      </trkpt>
      <trkpt lat="42.86122" lon="0.2227">
        <ele>2391.6</ele>
        <time>2017-02-20T12:49:17Z</time>
      </trkpt>
      <trkpt lat="42.86122" lon="0.2227">
        <ele>2389.6</ele>
        <time>2017-02-20T12:49:42Z</time>
      </trkpt>
      <trkpt lat="42.86123" lon="0.22272">
        <ele>2388.6</ele>
        <time>2017-02-20T12:49:47Z</time>
      </trkpt>
      <trkpt lat="42.86123" lon="0.22272">
        <ele>2385.2</ele>
        <time>2017-02-20T12:50:07Z</time>
      </trkpt>
      <trkpt lat="42.86116" lon="0.22276">
        <ele>2382.2</ele>
        <time>2017-02-20T12:50:12Z</time>
      </trkpt>
      <trkpt lat="42.86105" lon="0.22283">
        <ele>2377.4</ele>
        <time>2017-02-20T12:50:17Z</time>
      </trkpt>
      <trkpt lat="42.86093" lon="0.22291">
        <ele>2373.6</ele>
        <time>2017-02-20T12:50:22Z</time>
      </trkpt>
      <trkpt lat="42.86079" lon="0.22297">
        <ele>2369.2</ele>
        <time>2017-02-20T12:50:27Z</time>
      </trkpt>
      <trkpt lat="42.86068" lon="0.22297">
        <ele>2366.8</ele>
        <time>2017-02-20T12:50:37Z</time>
      </trkpt>
      <trkpt lat="42.86069" lon="0.22297">
        <ele>2364.8</ele>
        <time>2017-02-20T12:50:42Z</time>
      </trkpt>
      <trkpt lat="42.86071" lon="0.22295">
        <ele>2363.2</ele>
        <time>2017-02-20T12:50:47Z</time>
      </trkpt>
      <trkpt lat="42.86072" lon="0.22295">
        <ele>2360.2</ele>
        <time>2017-02-20T12:51:22Z</time>
      </trkpt>
      <trkpt lat="42.86073" lon="0.22295">
        <ele>2360.4</ele>
        <time>2017-02-20T12:51:27Z</time>
      </trkpt>
      <trkpt lat="42.86073" lon="0.22295">
        <ele>2360.4</ele>
        <time>2017-02-20T12:51:32Z</time>
      </trkpt>
      <trkpt lat="42.86073" lon="0.22294">
        <ele>2360.4</ele>
        <time>2017-02-20T12:51:42Z</time>
      </trkpt>
      <trkpt lat="42.86069" lon="0.22295">
        <ele>2358</ele>
        <time>2017-02-20T12:51:52Z</time>
      </trkpt>
      <trkpt lat="42.86069" lon="0.22295">
        <ele>2358</ele>
        <time>2017-02-20T12:51:57Z</time>
      </trkpt>
      <trkpt lat="42.86041" lon="0.22315">
        <ele>2344.6</ele>
        <time>2017-02-20T12:52:08Z</time>
      </trkpt>
      <trkpt lat="42.86033" lon="0.22335">
        <ele>2341</ele>
        <time>2017-02-20T12:52:13Z</time>
      </trkpt>
      <trkpt lat="42.86044" lon="0.22361">
        <ele>2338.2</ele>
        <time>2017-02-20T12:52:18Z</time>
      </trkpt>
      <trkpt lat="42.86034" lon="0.22382">
        <ele>2329.8</ele>
        <time>2017-02-20T12:52:23Z</time>
      </trkpt>
      <trkpt lat="42.8602" lon="0.22394">
        <ele>2325</ele>
        <time>2017-02-20T12:52:28Z</time>
      </trkpt>
      <trkpt lat="42.86023" lon="0.22422">
        <ele>2323.2</ele>
        <time>2017-02-20T12:52:33Z</time>
      </trkpt>
      <trkpt lat="42.86022" lon="0.22439">
        <ele>2323.8</ele>
        <time>2017-02-20T12:52:38Z</time>
      </trkpt>
      <trkpt lat="42.86022" lon="0.2244">
        <ele>2328.2</ele>
        <time>2017-02-20T12:52:53Z</time>
      </trkpt>
      <trkpt lat="42.86023" lon="0.22453">
        <ele>2323.2</ele>
        <time>2017-02-20T12:52:58Z</time>
      </trkpt>
      <trkpt lat="42.86006" lon="0.22473">
        <ele>2312.2</ele>
        <time>2017-02-20T12:53:03Z</time>
      </trkpt>
      <trkpt lat="42.85991" lon="0.22502">
        <ele>2307.6</ele>
        <time>2017-02-20T12:53:08Z</time>
      </trkpt>
      <trkpt lat="42.85981" lon="0.22549">
        <ele>2306.2</ele>
        <time>2017-02-20T12:53:13Z</time>
      </trkpt>
      <trkpt lat="42.85977" lon="0.22588">
        <ele>2302.8</ele>
        <time>2017-02-20T12:53:18Z</time>
      </trkpt>
      <trkpt lat="42.85977" lon="0.22612">
        <ele>2299.2</ele>
        <time>2017-02-20T12:53:23Z</time>
      </trkpt>
      <trkpt lat="42.85987" lon="0.22633">
        <ele>2298</ele>
        <time>2017-02-20T12:53:28Z</time>
      </trkpt>
      <trkpt lat="42.86002" lon="0.2266">
        <ele>2294.8</ele>
        <time>2017-02-20T12:53:33Z</time>
      </trkpt>
      <trkpt lat="42.86011" lon="0.22687">
        <ele>2291.8</ele>
        <time>2017-02-20T12:53:38Z</time>
      </trkpt>
      <trkpt lat="42.85999" lon="0.22718">
        <ele>2283.2</ele>
        <time>2017-02-20T12:53:43Z</time>
      </trkpt>
      <trkpt lat="42.85989" lon="0.22769">
        <ele>2279.2</ele>
        <time>2017-02-20T12:53:48Z</time>
      </trkpt>
      <trkpt lat="42.85973" lon="0.22814">
        <ele>2268.4</ele>
        <time>2017-02-20T12:53:53Z</time>
      </trkpt>
      <trkpt lat="42.85961" lon="0.22855">
        <ele>2262</ele>
        <time>2017-02-20T12:53:58Z</time>
      </trkpt>
      <trkpt lat="42.85957" lon="0.22884">
        <ele>2257.2</ele>
        <time>2017-02-20T12:54:03Z</time>
      </trkpt>
      <trkpt lat="42.85936" lon="0.22902">
        <ele>2246.8</ele>
        <time>2017-02-20T12:54:09Z</time>
      </trkpt>
      <trkpt lat="42.85916" lon="0.22913">
        <ele>2239.2</ele>
        <time>2017-02-20T12:54:14Z</time>
      </trkpt>
      <trkpt lat="42.85897" lon="0.22921">
        <ele>2231.4</ele>
        <time>2017-02-20T12:54:19Z</time>
      </trkpt>
      <trkpt lat="42.85894" lon="0.22956">
        <ele>2226.8</ele>
        <time>2017-02-20T12:54:24Z</time>
      </trkpt>
      <trkpt lat="42.85888" lon="0.22983">
        <ele>2223.6</ele>
        <time>2017-02-20T12:54:29Z</time>
      </trkpt>
      <trkpt lat="42.8588" lon="0.23021">
        <ele>2215.2</ele>
        <time>2017-02-20T12:54:34Z</time>
      </trkpt>
      <trkpt lat="42.85843" lon="0.2302">
        <ele>2209.6</ele>
        <time>2017-02-20T12:54:39Z</time>
      </trkpt>
      <trkpt lat="42.85819" lon="0.23039">
        <ele>2206.6</ele>
        <time>2017-02-20T12:54:44Z</time>
      </trkpt>
      <trkpt lat="42.85799" lon="0.23048">
        <ele>2200.8</ele>
        <time>2017-02-20T12:54:49Z</time>
      </trkpt>
      <trkpt lat="42.85783" lon="0.23057">
        <ele>2197.8</ele>
        <time>2017-02-20T12:54:54Z</time>
      </trkpt>
      <trkpt lat="42.85762" lon="0.23065">
        <ele>2192.6</ele>
        <time>2017-02-20T12:54:59Z</time>
      </trkpt>
      <trkpt lat="42.8575" lon="0.23079">
        <ele>2189.4</ele>
        <time>2017-02-20T12:55:04Z</time>
      </trkpt>
      <trkpt lat="42.85736" lon="0.23115">
        <ele>2185</ele>
        <time>2017-02-20T12:55:09Z</time>
      </trkpt>
      <trkpt lat="42.85718" lon="0.2316">
        <ele>2175.2</ele>
        <time>2017-02-20T12:55:14Z</time>
      </trkpt>
      <trkpt lat="42.85707" lon="0.23193">
        <ele>2175.2</ele>
        <time>2017-02-20T12:55:19Z</time>
      </trkpt>
      <trkpt lat="42.85697" lon="0.23211">
        <ele>2174.6</ele>
        <time>2017-02-20T12:55:24Z</time>
      </trkpt>
      <trkpt lat="42.8569" lon="0.23223">
        <ele>2171.8</ele>
        <time>2017-02-20T12:55:29Z</time>
      </trkpt>
      <trkpt lat="42.85681" lon="0.23239">
        <ele>2170.2</ele>
        <time>2017-02-20T12:55:34Z</time>
      </trkpt>
      <trkpt lat="42.85671" lon="0.23255">
        <ele>2165</ele>
        <time>2017-02-20T12:55:39Z</time>
      </trkpt>
      <trkpt lat="42.85667" lon="0.23262">
        <ele>2161.4</ele>
        <time>2017-02-20T12:55:44Z</time>
      </trkpt>
      <trkpt lat="42.85666" lon="0.23264">
        <ele>2162.4</ele>
        <time>2017-02-20T12:55:49Z</time>
      </trkpt>
      <trkpt lat="42.85663" lon="0.23275">
        <ele>2162.6</ele>
        <time>2017-02-20T12:55:54Z</time>
      </trkpt>
      <trkpt lat="42.85657" lon="0.23279">
        <ele>2161.4</ele>
        <time>2017-02-20T12:55:59Z</time>
      </trkpt>
      <trkpt lat="42.85651" lon="0.2328">
        <ele>2160.6</ele>
        <time>2017-02-20T12:56:04Z</time>
      </trkpt>
      <trkpt lat="42.8565" lon="0.2328">
        <ele>2160.8</ele>
        <time>2017-02-20T12:56:09Z</time>
      </trkpt>
      <trkpt lat="42.8565" lon="0.2328">
        <ele>2160.6</ele>
        <time>2017-02-20T12:56:19Z</time>
      </trkpt>
      <trkpt lat="42.85651" lon="0.2328">
        <ele>2160.4</ele>
        <time>2017-02-20T12:56:40Z</time>
      </trkpt>
      <trkpt lat="42.8565" lon="0.2328">
        <ele>2160.2</ele>
        <time>2017-02-20T12:57:11Z</time>
      </trkpt>
      <trkpt lat="42.85648" lon="0.2328">
        <ele>2159.2</ele>
        <time>2017-02-20T12:57:21Z</time>
      </trkpt>
      <trkpt lat="42.85635" lon="0.23283">
        <ele>2159.6</ele>
        <time>2017-02-20T12:57:26Z</time>
      </trkpt>
      <trkpt lat="42.85618" lon="0.23285">
        <ele>2160.2</ele>
        <time>2017-02-20T12:57:31Z</time>
      </trkpt>
      <trkpt lat="42.85608" lon="0.23287">
        <ele>2153.6</ele>
        <time>2017-02-20T12:57:36Z</time>
      </trkpt>
      <trkpt lat="42.85607" lon="0.23287">
        <ele>2154.4</ele>
        <time>2017-02-20T12:57:46Z</time>
      </trkpt>
      <trkpt lat="42.85608" lon="0.23287">
        <ele>2154.8</ele>
        <time>2017-02-20T12:57:56Z</time>
      </trkpt>
      <trkpt lat="42.85607" lon="0.23287">
        <ele>2154.8</ele>
        <time>2017-02-20T12:58:06Z</time>
      </trkpt>
      <trkpt lat="42.85586" lon="0.2329">
        <ele>2152.4</ele>
        <time>2017-02-20T12:58:11Z</time>
      </trkpt>
      <trkpt lat="42.85569" lon="0.23315">
        <ele>2142.8</ele>
        <time>2017-02-20T12:58:16Z</time>
      </trkpt>
      <trkpt lat="42.85549" lon="0.23331">
        <ele>2138</ele>
        <time>2017-02-20T12:58:21Z</time>
      </trkpt>
      <trkpt lat="42.85523" lon="0.23338">
        <ele>2133.6</ele>
        <time>2017-02-20T12:58:26Z</time>
      </trkpt>
      <trkpt lat="42.855" lon="0.23342">
        <ele>2129.6</ele>
        <time>2017-02-20T12:58:31Z</time>
      </trkpt>
      <trkpt lat="42.85493" lon="0.23363">
        <ele>2120.8</ele>
        <time>2017-02-20T12:58:36Z</time>
      </trkpt>
      <trkpt lat="42.8547" lon="0.23383">
        <ele>2110</ele>
        <time>2017-02-20T12:58:41Z</time>
      </trkpt>
      <trkpt lat="42.85482" lon="0.2343">
        <ele>2104</ele>
        <time>2017-02-20T12:58:47Z</time>
      </trkpt>
      <trkpt lat="42.8548" lon="0.23467">
        <ele>2098.4</ele>
        <time>2017-02-20T12:58:52Z</time>
      </trkpt>
      <trkpt lat="42.85477" lon="0.23515">
        <ele>2092.2</ele>
        <time>2017-02-20T12:58:58Z</time>
      </trkpt>
      <trkpt lat="42.85469" lon="0.23555">
        <ele>2085.4</ele>
        <time>2017-02-20T12:59:03Z</time>
      </trkpt>
      <trkpt lat="42.8546" lon="0.23593">
        <ele>2082.4</ele>
        <time>2017-02-20T12:59:08Z</time>
      </trkpt>
      <trkpt lat="42.85447" lon="0.23621">
        <ele>2076.2</ele>
        <time>2017-02-20T12:59:13Z</time>
      </trkpt>
      <trkpt lat="42.85434" lon="0.23626">
        <ele>2073.8</ele>
        <time>2017-02-20T12:59:18Z</time>
      </trkpt>
      <trkpt lat="42.85433" lon="0.23627">
        <ele>2071</ele>
        <time>2017-02-20T12:59:23Z</time>
      </trkpt>
      <trkpt lat="42.85433" lon="0.23627">
        <ele>2070</ele>
        <time>2017-02-20T12:59:28Z</time>
      </trkpt>
      <trkpt lat="42.85433" lon="0.23627">
        <ele>2068.6</ele>
        <time>2017-02-20T12:59:38Z</time>
      </trkpt>
      <trkpt lat="42.85433" lon="0.23627">
        <ele>2067.4</ele>
        <time>2017-02-20T12:59:53Z</time>
      </trkpt>
      <trkpt lat="42.85433" lon="0.23628">
        <ele>2066</ele>
        <time>2017-02-20T13:00:13Z</time>
      </trkpt>
      <trkpt lat="42.85429" lon="0.2363">
        <ele>2066.8</ele>
        <time>2017-02-20T13:00:18Z</time>
      </trkpt>
      <trkpt lat="42.85429" lon="0.2363">
        <ele>2067.4</ele>
        <time>2017-02-20T13:00:23Z</time>
      </trkpt>
      <trkpt lat="42.8542" lon="0.23643">
        <ele>2062.6</ele>
        <time>2017-02-20T13:00:28Z</time>
      </trkpt>
      <trkpt lat="42.8542" lon="0.23674">
        <ele>2057.2</ele>
        <time>2017-02-20T13:00:33Z</time>
      </trkpt>
      <trkpt lat="42.85417" lon="0.23714">
        <ele>2049.8</ele>
        <time>2017-02-20T13:00:38Z</time>
      </trkpt>
      <trkpt lat="42.8541" lon="0.23753">
        <ele>2048.4</ele>
        <time>2017-02-20T13:00:43Z</time>
      </trkpt>
      <trkpt lat="42.85423" lon="0.23767">
        <ele>2046.4</ele>
        <time>2017-02-20T13:00:48Z</time>
      </trkpt>
      <trkpt lat="42.85413" lon="0.23785">
        <ele>2047</ele>
        <time>2017-02-20T13:00:53Z</time>
      </trkpt>
      <trkpt lat="42.85416" lon="0.23807">
        <ele>2041.4</ele>
        <time>2017-02-20T13:00:58Z</time>
      </trkpt>
      <trkpt lat="42.85413" lon="0.23837">
        <ele>2040.6</ele>
        <time>2017-02-20T13:01:03Z</time>
      </trkpt>
      <trkpt lat="42.8542" lon="0.23862">
        <ele>2034.8</ele>
        <time>2017-02-20T13:01:08Z</time>
      </trkpt>
      <trkpt lat="42.85438" lon="0.23908">
        <ele>2029.8</ele>
        <time>2017-02-20T13:01:13Z</time>
      </trkpt>
      <trkpt lat="42.85444" lon="0.23947">
        <ele>2025.6</ele>
        <time>2017-02-20T13:01:18Z</time>
      </trkpt>
      <trkpt lat="42.85445" lon="0.23977">
        <ele>2023.6</ele>
        <time>2017-02-20T13:01:23Z</time>
      </trkpt>
      <trkpt lat="42.85442" lon="0.23999">
        <ele>2023</ele>
        <time>2017-02-20T13:01:28Z</time>
      </trkpt>
      <trkpt lat="42.85439" lon="0.24009">
        <ele>2022.4</ele>
        <time>2017-02-20T13:01:33Z</time>
      </trkpt>
      <trkpt lat="42.85442" lon="0.2402">
        <ele>2018.2</ele>
        <time>2017-02-20T13:01:38Z</time>
      </trkpt>
      <trkpt lat="42.85447" lon="0.24042">
        <ele>2018.6</ele>
        <time>2017-02-20T13:01:43Z</time>
      </trkpt>
      <trkpt lat="42.85453" lon="0.24072">
        <ele>2014.4</ele>
        <time>2017-02-20T13:01:48Z</time>
      </trkpt>
      <trkpt lat="42.85466" lon="0.24106">
        <ele>2006.4</ele>
        <time>2017-02-20T13:01:53Z</time>
      </trkpt>
      <trkpt lat="42.85471" lon="0.2415">
        <ele>2004</ele>
        <time>2017-02-20T13:01:58Z</time>
      </trkpt>
      <trkpt lat="42.8547" lon="0.24188">
        <ele>2003.2</ele>
        <time>2017-02-20T13:02:03Z</time>
      </trkpt>
      <trkpt lat="42.85467" lon="0.24202">
        <ele>2004.8</ele>
        <time>2017-02-20T13:02:08Z</time>
      </trkpt>
      <trkpt lat="42.85462" lon="0.24217">
        <ele>1999.8</ele>
        <time>2017-02-20T13:02:13Z</time>
      </trkpt>
      <trkpt lat="42.85455" lon="0.2423">
        <ele>2001</ele>
        <time>2017-02-20T13:02:18Z</time>
      </trkpt>
      <trkpt lat="42.85446" lon="0.24242">
        <ele>2001.2</ele>
        <time>2017-02-20T13:02:23Z</time>
      </trkpt>
      <trkpt lat="42.85433" lon="0.24265">
        <ele>2000.4</ele>
        <time>2017-02-20T13:02:28Z</time>
      </trkpt>
      <trkpt lat="42.85431" lon="0.24296">
        <ele>1998.4</ele>
        <time>2017-02-20T13:02:34Z</time>
      </trkpt>
      <trkpt lat="42.85432" lon="0.24307">
        <ele>1999</ele>
        <time>2017-02-20T13:02:39Z</time>
      </trkpt>
      <trkpt lat="42.85431" lon="0.2432">
        <ele>1998.8</ele>
        <time>2017-02-20T13:02:44Z</time>
      </trkpt>
      <trkpt lat="42.85428" lon="0.24338">
        <ele>1998.4</ele>
        <time>2017-02-20T13:02:49Z</time>
      </trkpt>
      <trkpt lat="42.85421" lon="0.24358">
        <ele>2001</ele>
        <time>2017-02-20T13:02:54Z</time>
      </trkpt>
      <trkpt lat="42.85414" lon="0.24374">
        <ele>1996.4</ele>
        <time>2017-02-20T13:02:59Z</time>
      </trkpt>
      <trkpt lat="42.8541" lon="0.24383">
        <ele>1998.2</ele>
        <time>2017-02-20T13:03:04Z</time>
      </trkpt>
      <trkpt lat="42.8541" lon="0.24383">
        <ele>1998</ele>
        <time>2017-02-20T13:03:09Z</time>
      </trkpt>
      <trkpt lat="42.85411" lon="0.24382">
        <ele>1997.6</ele>
        <time>2017-02-20T13:03:14Z</time>
      </trkpt>
      <trkpt lat="42.85411" lon="0.24382">
        <ele>1997.2</ele>
        <time>2017-02-20T13:03:19Z</time>
      </trkpt>
      <trkpt lat="42.8541" lon="0.24382">
        <ele>1996.8</ele>
        <time>2017-02-20T13:03:24Z</time>
      </trkpt>
      <trkpt lat="42.85419" lon="0.24385">
        <ele>1991.4</ele>
        <time>2017-02-20T13:03:44Z</time>
      </trkpt>
      <trkpt lat="42.85437" lon="0.24404">
        <ele>1982.8</ele>
        <time>2017-02-20T13:03:49Z</time>
      </trkpt>
      <trkpt lat="42.85448" lon="0.24434">
        <ele>1978.4</ele>
        <time>2017-02-20T13:03:54Z</time>
      </trkpt>
      <trkpt lat="42.85444" lon="0.24455">
        <ele>1971.2</ele>
        <time>2017-02-20T13:03:59Z</time>
      </trkpt>
      <trkpt lat="42.85465" lon="0.24456">
        <ele>1973.2</ele>
        <time>2017-02-20T13:04:04Z</time>
      </trkpt>
      <trkpt lat="42.85484" lon="0.24449">
        <ele>1968.6</ele>
        <time>2017-02-20T13:04:09Z</time>
      </trkpt>
      <trkpt lat="42.85497" lon="0.2445">
        <ele>1963.2</ele>
        <time>2017-02-20T13:04:14Z</time>
      </trkpt>
      <trkpt lat="42.85501" lon="0.2445">
        <ele>1963.2</ele>
        <time>2017-02-20T13:04:19Z</time>
      </trkpt>
      <trkpt lat="42.85501" lon="0.24449">
        <ele>1958.6</ele>
        <time>2017-02-20T13:04:34Z</time>
      </trkpt>
      <trkpt lat="42.85502" lon="0.24447">
        <ele>1957.2</ele>
        <time>2017-02-20T13:04:39Z</time>
      </trkpt>
      <trkpt lat="42.85511" lon="0.24435">
        <ele>1952.8</ele>
        <time>2017-02-20T13:04:44Z</time>
      </trkpt>
      <trkpt lat="42.85518" lon="0.24442">
        <ele>1946.2</ele>
        <time>2017-02-20T13:04:49Z</time>
      </trkpt>
      <trkpt lat="42.85532" lon="0.24452">
        <ele>1935.8</ele>
        <time>2017-02-20T13:04:54Z</time>
      </trkpt>
      <trkpt lat="42.85524" lon="0.24475">
        <ele>1928.6</ele>
        <time>2017-02-20T13:04:59Z</time>
      </trkpt>
      <trkpt lat="42.85511" lon="0.24505">
        <ele>1913.6</ele>
        <time>2017-02-20T13:05:14Z</time>
      </trkpt>
      <trkpt lat="42.85514" lon="0.24531">
        <ele>1906</ele>
        <time>2017-02-20T13:05:19Z</time>
      </trkpt>
      <trkpt lat="42.85518" lon="0.24559">
        <ele>1899.8</ele>
        <time>2017-02-20T13:05:24Z</time>
      </trkpt>
      <trkpt lat="42.85519" lon="0.24564">
        <ele>1900.2</ele>
        <time>2017-02-20T13:05:29Z</time>
      </trkpt>
      <trkpt lat="42.85518" lon="0.24563">
        <ele>1900.4</ele>
        <time>2017-02-20T13:05:34Z</time>
      </trkpt>
      <trkpt lat="42.85519" lon="0.24563">
        <ele>1900</ele>
        <time>2017-02-20T13:05:39Z</time>
      </trkpt>
      <trkpt lat="42.85518" lon="0.24563">
        <ele>1899</ele>
        <time>2017-02-20T13:06:14Z</time>
      </trkpt>
      <trkpt lat="42.85515" lon="0.24574">
        <ele>1895.4</ele>
        <time>2017-02-20T13:06:24Z</time>
      </trkpt>
      <trkpt lat="42.85535" lon="0.24602">
        <ele>1893.8</ele>
        <time>2017-02-20T13:06:29Z</time>
      </trkpt>
      <trkpt lat="42.85559" lon="0.24612">
        <ele>1892.8</ele>
        <time>2017-02-20T13:06:34Z</time>
      </trkpt>
      <trkpt lat="42.85564" lon="0.24644">
        <ele>1881.4</ele>
        <time>2017-02-20T13:06:39Z</time>
      </trkpt>
      <trkpt lat="42.85563" lon="0.24695">
        <ele>1877.6</ele>
        <time>2017-02-20T13:06:44Z</time>
      </trkpt>
      <trkpt lat="42.85577" lon="0.24731">
        <ele>1876.8</ele>
        <time>2017-02-20T13:06:49Z</time>
      </trkpt>
      <trkpt lat="42.8558" lon="0.24762">
        <ele>1874.4</ele>
        <time>2017-02-20T13:06:54Z</time>
      </trkpt>
      <trkpt lat="42.85579" lon="0.24778">
        <ele>1873.8</ele>
        <time>2017-02-20T13:06:59Z</time>
      </trkpt>
      <trkpt lat="42.85578" lon="0.24779">
        <ele>1870.8</ele>
        <time>2017-02-20T13:07:04Z</time>
      </trkpt>
      <trkpt lat="42.85578" lon="0.24779">
        <ele>1867.4</ele>
        <time>2017-02-20T13:07:19Z</time>
      </trkpt>
      <trkpt lat="42.85578" lon="0.24779">
        <ele>1866.6</ele>
        <time>2017-02-20T13:07:24Z</time>
      </trkpt>
      <trkpt lat="42.85575" lon="0.24783">
        <ele>1864.4</ele>
        <time>2017-02-20T13:07:29Z</time>
      </trkpt>
      <trkpt lat="42.85572" lon="0.24788">
        <ele>1865.2</ele>
        <time>2017-02-20T13:07:34Z</time>
      </trkpt>
      <trkpt lat="42.8557" lon="0.24793">
        <ele>1863.4</ele>
        <time>2017-02-20T13:07:39Z</time>
      </trkpt>
      <trkpt lat="42.85568" lon="0.24797">
        <ele>1860</ele>
        <time>2017-02-20T13:07:44Z</time>
      </trkpt>
      <trkpt lat="42.85568" lon="0.24799">
        <ele>1861.4</ele>
        <time>2017-02-20T13:07:49Z</time>
      </trkpt>
      <trkpt lat="42.85568" lon="0.248">
        <ele>1860.2</ele>
        <time>2017-02-20T13:07:54Z</time>
      </trkpt>
      <trkpt lat="42.85568" lon="0.24802">
        <ele>1859</ele>
        <time>2017-02-20T13:07:59Z</time>
      </trkpt>
      <trkpt lat="42.85569" lon="0.24803">
        <ele>1858.6</ele>
        <time>2017-02-20T13:08:04Z</time>
      </trkpt>
      <trkpt lat="42.85568" lon="0.24803">
        <ele>1857.2</ele>
        <time>2017-02-20T13:08:09Z</time>
      </trkpt>
      <trkpt lat="42.85569" lon="0.24807">
        <ele>1858.6</ele>
        <time>2017-02-20T13:08:14Z</time>
      </trkpt>
      <trkpt lat="42.85573" lon="0.24825">
        <ele>1854.8</ele>
        <time>2017-02-20T13:08:19Z</time>
      </trkpt>
      <trkpt lat="42.85582" lon="0.24849">
        <ele>1855.2</ele>
        <time>2017-02-20T13:08:24Z</time>
      </trkpt>
      <trkpt lat="42.85591" lon="0.24877">
        <ele>1850.6</ele>
        <time>2017-02-20T13:08:29Z</time>
      </trkpt>
      <trkpt lat="42.85594" lon="0.2491">
        <ele>1847</ele>
        <time>2017-02-20T13:08:34Z</time>
      </trkpt>
      <trkpt lat="42.85607" lon="0.2495">
        <ele>1845</ele>
        <time>2017-02-20T13:08:39Z</time>
      </trkpt>
      <trkpt lat="42.85606" lon="0.25035">
        <ele>1836.8</ele>
        <time>2017-02-20T13:08:49Z</time>
      </trkpt>
      <trkpt lat="42.85611" lon="0.25075">
        <ele>1835.8</ele>
        <time>2017-02-20T13:08:54Z</time>
      </trkpt>
      <trkpt lat="42.85627" lon="0.25088">
        <ele>1836.4</ele>
        <time>2017-02-20T13:08:59Z</time>
      </trkpt>
      <trkpt lat="42.85628" lon="0.25088">
        <ele>1838</ele>
        <time>2017-02-20T13:09:04Z</time>
      </trkpt>
      <trkpt lat="42.8563" lon="0.25089">
        <ele>1836.4</ele>
        <time>2017-02-20T13:09:09Z</time>
      </trkpt>
      <trkpt lat="42.85647" lon="0.25103">
        <ele>1835.6</ele>
        <time>2017-02-20T13:09:14Z</time>
      </trkpt>
      <trkpt lat="42.85659" lon="0.2513">
        <ele>1835.2</ele>
        <time>2017-02-20T13:09:19Z</time>
      </trkpt>
      <trkpt lat="42.85663" lon="0.25138">
        <ele>1837.2</ele>
        <time>2017-02-20T13:09:24Z</time>
      </trkpt>
      <trkpt lat="42.85667" lon="0.25151">
        <ele>1837.8</ele>
        <time>2017-02-20T13:09:39Z</time>
      </trkpt>
      <trkpt lat="42.85677" lon="0.25177">
        <ele>1830.6</ele>
        <time>2017-02-20T13:09:44Z</time>
      </trkpt>
      <trkpt lat="42.85689" lon="0.25198">
        <ele>1830</ele>
        <time>2017-02-20T13:09:49Z</time>
      </trkpt>
      <trkpt lat="42.85701" lon="0.25213">
        <ele>1828.8</ele>
        <time>2017-02-20T13:09:54Z</time>
      </trkpt>
      <trkpt lat="42.85709" lon="0.25229">
        <ele>1825.8</ele>
        <time>2017-02-20T13:09:59Z</time>
      </trkpt>
      <trkpt lat="42.85697" lon="0.25251">
        <ele>1817.6</ele>
        <time>2017-02-20T13:10:04Z</time>
      </trkpt>
      <trkpt lat="42.85698" lon="0.25258">
        <ele>1818.4</ele>
        <time>2017-02-20T13:10:09Z</time>
      </trkpt>
      <trkpt lat="42.85698" lon="0.25258">
        <ele>1819.2</ele>
        <time>2017-02-20T13:10:14Z</time>
      </trkpt>
      <trkpt lat="42.85699" lon="0.25258">
        <ele>1820.2</ele>
        <time>2017-02-20T13:10:34Z</time>
      </trkpt>
      <trkpt lat="42.85699" lon="0.25257">
        <ele>1818.6</ele>
        <time>2017-02-20T13:10:44Z</time>
      </trkpt>
      <trkpt lat="42.85699" lon="0.25257">
        <ele>1816.6</ele>
        <time>2017-02-20T13:10:59Z</time>
      </trkpt>
      <trkpt lat="42.85699" lon="0.25256">
        <ele>1816.6</ele>
        <time>2017-02-20T13:11:04Z</time>
      </trkpt>
      <trkpt lat="42.85699" lon="0.25257">
        <ele>1816.2</ele>
        <time>2017-02-20T13:11:39Z</time>
      </trkpt>
      <trkpt lat="42.85699" lon="0.25257">
        <ele>1815</ele>
        <time>2017-02-20T13:12:30Z</time>
      </trkpt>
      <trkpt lat="42.85702" lon="0.25257">
        <ele>1815.4</ele>
        <time>2017-02-20T13:12:35Z</time>
      </trkpt>
      <trkpt lat="42.85703" lon="0.25257">
        <ele>1812.4</ele>
        <time>2017-02-20T13:13:00Z</time>
      </trkpt>
      <trkpt lat="42.85706" lon="0.25258">
        <ele>1810.8</ele>
        <time>2017-02-20T13:13:05Z</time>
      </trkpt>
      <trkpt lat="42.85717" lon="0.25264">
        <ele>1807.6</ele>
        <time>2017-02-20T13:13:10Z</time>
      </trkpt>
      <trkpt lat="42.85734" lon="0.25289">
        <ele>1801.6</ele>
        <time>2017-02-20T13:13:15Z</time>
      </trkpt>
      <trkpt lat="42.85753" lon="0.25314">
        <ele>1800</ele>
        <time>2017-02-20T13:13:20Z</time>
      </trkpt>
      <trkpt lat="42.85763" lon="0.25347">
        <ele>1794.2</ele>
        <time>2017-02-20T13:13:25Z</time>
      </trkpt>
      <trkpt lat="42.85784" lon="0.2538">
        <ele>1791.8</ele>
        <time>2017-02-20T13:13:30Z</time>
      </trkpt>
      <trkpt lat="42.85777" lon="0.25405">
        <ele>1777.2</ele>
        <time>2017-02-20T13:13:35Z</time>
      </trkpt>
      <trkpt lat="42.85798" lon="0.25437">
        <ele>1775</ele>
        <time>2017-02-20T13:13:40Z</time>
      </trkpt>
      <trkpt lat="42.858" lon="0.25466">
        <ele>1766.8</ele>
        <time>2017-02-20T13:13:45Z</time>
      </trkpt>
      <trkpt lat="42.858" lon="0.25478">
        <ele>1763.8</ele>
        <time>2017-02-20T13:13:50Z</time>
      </trkpt>
      <trkpt lat="42.85808" lon="0.25486">
        <ele>1761.4</ele>
        <time>2017-02-20T13:13:55Z</time>
      </trkpt>
      <trkpt lat="42.85808" lon="0.25513">
        <ele>1755.4</ele>
        <time>2017-02-20T13:14:00Z</time>
      </trkpt>
      <trkpt lat="42.85814" lon="0.2551">
        <ele>1752.6</ele>
        <time>2017-02-20T13:14:05Z</time>
      </trkpt>
      <trkpt lat="42.85814" lon="0.2551">
        <ele>1749.2</ele>
        <time>2017-02-20T13:14:15Z</time>
      </trkpt>
      <trkpt lat="42.85814" lon="0.25509">
        <ele>1747.8</ele>
        <time>2017-02-20T13:14:20Z</time>
      </trkpt>
      <trkpt lat="42.85815" lon="0.25509">
        <ele>1746.6</ele>
        <time>2017-02-20T13:14:25Z</time>
      </trkpt>
      <trkpt lat="42.85821" lon="0.25511">
        <ele>1746.8</ele>
        <time>2017-02-20T13:14:30Z</time>
      </trkpt>
      <trkpt lat="42.85824" lon="0.25511">
        <ele>1745.6</ele>
        <time>2017-02-20T13:14:35Z</time>
      </trkpt>
      <trkpt lat="42.85825" lon="0.2551">
        <ele>1743.2</ele>
        <time>2017-02-20T13:14:45Z</time>
      </trkpt>
      <trkpt lat="42.85826" lon="0.2551">
        <ele>1741.4</ele>
        <time>2017-02-20T13:14:55Z</time>
      </trkpt>
      <trkpt lat="42.85829" lon="0.25511">
        <ele>1742.8</ele>
        <time>2017-02-20T13:15:05Z</time>
      </trkpt>
      <trkpt lat="42.8583" lon="0.25511">
        <ele>1740.6</ele>
        <time>2017-02-20T13:15:10Z</time>
      </trkpt>
      <trkpt lat="42.8583" lon="0.25511">
        <ele>1739.6</ele>
        <time>2017-02-20T13:15:15Z</time>
      </trkpt>
      <trkpt lat="42.85839" lon="0.25515">
        <ele>1739.6</ele>
        <time>2017-02-20T13:15:20Z</time>
      </trkpt>
      <trkpt lat="42.85852" lon="0.25523">
        <ele>1735.8</ele>
        <time>2017-02-20T13:15:25Z</time>
      </trkpt>
      <trkpt lat="42.85864" lon="0.25533">
        <ele>1731.6</ele>
        <time>2017-02-20T13:15:30Z</time>
      </trkpt>
      <trkpt lat="42.8588" lon="0.25545">
        <ele>1727.6</ele>
        <time>2017-02-20T13:15:35Z</time>
      </trkpt>
      <trkpt lat="42.85872" lon="0.25562">
        <ele>1719</ele>
        <time>2017-02-20T13:15:40Z</time>
      </trkpt>
      <trkpt lat="42.85882" lon="0.25585">
        <ele>1714.4</ele>
        <time>2017-02-20T13:15:45Z</time>
      </trkpt>
      <trkpt lat="42.85897" lon="0.2561">
        <ele>1709.6</ele>
        <time>2017-02-20T13:15:50Z</time>
      </trkpt>
      <trkpt lat="42.85916" lon="0.2565">
        <ele>1707.6</ele>
        <time>2017-02-20T13:15:56Z</time>
      </trkpt>
      <trkpt lat="42.85925" lon="0.25672">
        <ele>1708</ele>
        <time>2017-02-20T13:16:01Z</time>
      </trkpt>
      <trkpt lat="42.85934" lon="0.25699">
        <ele>1706.8</ele>
        <time>2017-02-20T13:16:06Z</time>
      </trkpt>
      <trkpt lat="42.85943" lon="0.25729">
        <ele>1702.6</ele>
        <time>2017-02-20T13:16:11Z</time>
      </trkpt>
      <trkpt lat="42.85952" lon="0.25755">
        <ele>1703.6</ele>
        <time>2017-02-20T13:16:16Z</time>
      </trkpt>
      <trkpt lat="42.85946" lon="0.25775">
        <ele>1692</ele>
        <time>2017-02-20T13:16:21Z</time>
      </trkpt>
      <trkpt lat="42.85939" lon="0.258">
        <ele>1681.2</ele>
        <time>2017-02-20T13:16:26Z</time>
      </trkpt>
      <trkpt lat="42.85948" lon="0.25831">
        <ele>1673.4</ele>
        <time>2017-02-20T13:16:31Z</time>
      </trkpt>
      <trkpt lat="42.85945" lon="0.25843">
        <ele>1665.2</ele>
        <time>2017-02-20T13:16:36Z</time>
      </trkpt>
      <trkpt lat="42.85946" lon="0.25842">
        <ele>1663.6</ele>
        <time>2017-02-20T13:16:41Z</time>
      </trkpt>
      <trkpt lat="42.85949" lon="0.2586">
        <ele>1656.6</ele>
        <time>2017-02-20T13:16:46Z</time>
      </trkpt>
      <trkpt lat="42.85953" lon="0.25904">
        <ele>1654.2</ele>
        <time>2017-02-20T13:16:51Z</time>
      </trkpt>
      <trkpt lat="42.85937" lon="0.25945">
        <ele>1648.8</ele>
        <time>2017-02-20T13:16:57Z</time>
      </trkpt>
      <trkpt lat="42.85928" lon="0.25988">
        <ele>1640.6</ele>
        <time>2017-02-20T13:17:02Z</time>
      </trkpt>
      <trkpt lat="42.85917" lon="0.26025">
        <ele>1638</ele>
        <time>2017-02-20T13:17:07Z</time>
      </trkpt>
      <trkpt lat="42.85892" lon="0.26028">
        <ele>1629.8</ele>
        <time>2017-02-20T13:17:12Z</time>
      </trkpt>
      <trkpt lat="42.85871" lon="0.26018">
        <ele>1621.2</ele>
        <time>2017-02-20T13:17:17Z</time>
      </trkpt>
      <trkpt lat="42.85848" lon="0.26016">
        <ele>1611.6</ele>
        <time>2017-02-20T13:17:22Z</time>
      </trkpt>
      <trkpt lat="42.85838" lon="0.26026">
        <ele>1605.6</ele>
        <time>2017-02-20T13:17:27Z</time>
      </trkpt>
      <trkpt lat="42.85839" lon="0.26026">
        <ele>1605.6</ele>
        <time>2017-02-20T13:17:32Z</time>
      </trkpt>
      <trkpt lat="42.8584" lon="0.26026">
        <ele>1605.4</ele>
        <time>2017-02-20T13:17:37Z</time>
      </trkpt>
      <trkpt lat="42.85839" lon="0.26026">
        <ele>1604.2</ele>
        <time>2017-02-20T13:17:52Z</time>
      </trkpt>
      <trkpt lat="42.8584" lon="0.26026">
        <ele>1602.8</ele>
        <time>2017-02-20T13:18:17Z</time>
      </trkpt>
      <trkpt lat="42.8584" lon="0.26026">
        <ele>1602.4</ele>
        <time>2017-02-20T13:18:22Z</time>
      </trkpt>
      <trkpt lat="42.85839" lon="0.26028">
        <ele>1602.4</ele>
        <time>2017-02-20T13:18:27Z</time>
      </trkpt>
      <trkpt lat="42.85842" lon="0.26049">
        <ele>1598.4</ele>
        <time>2017-02-20T13:18:32Z</time>
      </trkpt>
      <trkpt lat="42.85836" lon="0.26055">
        <ele>1598.4</ele>
        <time>2017-02-20T13:18:37Z</time>
      </trkpt>
      <trkpt lat="42.85835" lon="0.26054">
        <ele>1599.2</ele>
        <time>2017-02-20T13:18:42Z</time>
      </trkpt>
      <trkpt lat="42.85834" lon="0.26053">
        <ele>1599</ele>
        <time>2017-02-20T13:18:47Z</time>
      </trkpt>
      <trkpt lat="42.85834" lon="0.26054">
        <ele>1599.2</ele>
        <time>2017-02-20T13:19:07Z</time>
      </trkpt>
      <trkpt lat="42.85834" lon="0.26053">
        <ele>1599.2</ele>
        <time>2017-02-20T13:19:12Z</time>
      </trkpt>
      <trkpt lat="42.85834" lon="0.26053">
        <ele>1599.2</ele>
        <time>2017-02-20T13:19:17Z</time>
      </trkpt>
      <trkpt lat="42.85835" lon="0.26052">
        <ele>1599.2</ele>
        <time>2017-02-20T13:19:27Z</time>
      </trkpt>
      <trkpt lat="42.85835" lon="0.26051">
        <ele>1599.2</ele>
        <time>2017-02-20T13:19:32Z</time>
      </trkpt>
      <trkpt lat="42.85836" lon="0.26057">
        <ele>1597.8</ele>
        <time>2017-02-20T13:19:37Z</time>
      </trkpt>
      <trkpt lat="42.85826" lon="0.26064">
        <ele>1594.4</ele>
        <time>2017-02-20T13:19:42Z</time>
      </trkpt>
      <trkpt lat="42.85815" lon="0.26081">
        <ele>1588.4</ele>
        <time>2017-02-20T13:19:47Z</time>
      </trkpt>
      <trkpt lat="42.85802" lon="0.26102">
        <ele>1591.2</ele>
        <time>2017-02-20T13:19:52Z</time>
      </trkpt>
      <trkpt lat="42.85791" lon="0.26117">
        <ele>1586.8</ele>
        <time>2017-02-20T13:19:57Z</time>
      </trkpt>
      <trkpt lat="42.8578" lon="0.26129">
        <ele>1584</ele>
        <time>2017-02-20T13:20:02Z</time>
      </trkpt>
      <trkpt lat="42.85773" lon="0.2614">
        <ele>1584.6</ele>
        <time>2017-02-20T13:20:07Z</time>
      </trkpt>
      <trkpt lat="42.85769" lon="0.26143">
        <ele>1578.8</ele>
        <time>2017-02-20T13:20:12Z</time>
      </trkpt>
      <trkpt lat="42.85764" lon="0.26154">
        <ele>1578.2</ele>
        <time>2017-02-20T13:20:17Z</time>
      </trkpt>
      <trkpt lat="42.85763" lon="0.26156">
        <ele>1577.4</ele>
        <time>2017-02-20T13:20:22Z</time>
      </trkpt>
      <trkpt lat="42.85761" lon="0.26155">
        <ele>1575.8</ele>
        <time>2017-02-20T13:20:27Z</time>
      </trkpt>
      <trkpt lat="42.8576" lon="0.26155">
        <ele>1573.8</ele>
        <time>2017-02-20T13:20:32Z</time>
      </trkpt>
      <trkpt lat="42.8576" lon="0.26155">
        <ele>1570.8</ele>
        <time>2017-02-20T13:20:42Z</time>
      </trkpt>
      <trkpt lat="42.85763" lon="0.26156">
        <ele>1570.8</ele>
        <time>2017-02-20T13:20:47Z</time>
      </trkpt>
      <trkpt lat="42.85764" lon="0.26158">
        <ele>1569.4</ele>
        <time>2017-02-20T13:20:52Z</time>
      </trkpt>
      <trkpt lat="42.85762" lon="0.26164">
        <ele>1564</ele>
        <time>2017-02-20T13:20:57Z</time>
      </trkpt>
      <trkpt lat="42.85758" lon="0.26169">
        <ele>1564</ele>
        <time>2017-02-20T13:21:02Z</time>
      </trkpt>
      <trkpt lat="42.85753" lon="0.26175">
        <ele>1560.4</ele>
        <time>2017-02-20T13:21:07Z</time>
      </trkpt>
      <trkpt lat="42.85753" lon="0.26174">
        <ele>1559.6</ele>
        <time>2017-02-20T13:21:12Z</time>
      </trkpt>
      <trkpt lat="42.85749" lon="0.26176">
        <ele>1558.6</ele>
        <time>2017-02-20T13:21:17Z</time>
      </trkpt>
      <trkpt lat="42.85743" lon="0.26186">
        <ele>1552.6</ele>
        <time>2017-02-20T13:21:22Z</time>
      </trkpt>
      <trkpt lat="42.85734" lon="0.26195">
        <ele>1554.6</ele>
        <time>2017-02-20T13:21:27Z</time>
      </trkpt>
      <trkpt lat="42.85721" lon="0.26204">
        <ele>1552.6</ele>
        <time>2017-02-20T13:21:32Z</time>
      </trkpt>
      <trkpt lat="42.85721" lon="0.26206">
        <ele>1553.6</ele>
        <time>2017-02-20T13:21:37Z</time>
      </trkpt>
      <trkpt lat="42.85723" lon="0.26211">
        <ele>1556</ele>
        <time>2017-02-20T13:21:42Z</time>
      </trkpt>
      <trkpt lat="42.8572" lon="0.26218">
        <ele>1550.8</ele>
        <time>2017-02-20T13:21:47Z</time>
      </trkpt>
      <trkpt lat="42.85718" lon="0.26222">
        <ele>1549</ele>
        <time>2017-02-20T13:21:52Z</time>
      </trkpt>
      <trkpt lat="42.85711" lon="0.26225">
        <ele>1553.4</ele>
        <time>2017-02-20T13:21:57Z</time>
      </trkpt>
      <trkpt lat="42.85709" lon="0.26227">
        <ele>1553.6</ele>
        <time>2017-02-20T13:22:02Z</time>
      </trkpt>
      <trkpt lat="42.85709" lon="0.26228">
        <ele>1553</ele>
        <time>2017-02-20T13:22:07Z</time>
      </trkpt>
      <trkpt lat="42.85708" lon="0.26231">
        <ele>1555.8</ele>
        <time>2017-02-20T13:22:12Z</time>
      </trkpt>
      <trkpt lat="42.85708" lon="0.26231">
        <ele>1553.4</ele>
        <time>2017-02-20T13:22:22Z</time>
      </trkpt>
      <trkpt lat="42.85707" lon="0.26233">
        <ele>1553</ele>
        <time>2017-02-20T13:22:32Z</time>
      </trkpt>
      <trkpt lat="42.85706" lon="0.26234">
        <ele>1554</ele>
        <time>2017-02-20T13:22:37Z</time>
      </trkpt>
      <trkpt lat="42.85705" lon="0.26236">
        <ele>1553.6</ele>
        <time>2017-02-20T13:22:43Z</time>
      </trkpt>
      <trkpt lat="42.85702" lon="0.26239">
        <ele>1553.2</ele>
        <time>2017-02-20T13:22:48Z</time>
      </trkpt>
      <trkpt lat="42.85701" lon="0.26245">
        <ele>1550</ele>
        <time>2017-02-20T13:22:53Z</time>
      </trkpt>
      <trkpt lat="42.85701" lon="0.26248">
        <ele>1550.4</ele>
        <time>2017-02-20T13:22:58Z</time>
      </trkpt>
      <trkpt lat="42.85701" lon="0.26247">
        <ele>1550.2</ele>
        <time>2017-02-20T13:23:03Z</time>
      </trkpt>
      <trkpt lat="42.85701" lon="0.26247">
        <ele>1550</ele>
        <time>2017-02-20T13:23:08Z</time>
      </trkpt>
      <trkpt lat="42.85702" lon="0.26248">
        <ele>1549.8</ele>
        <time>2017-02-20T13:23:18Z</time>
      </trkpt>
      <trkpt lat="42.85703" lon="0.26249">
        <ele>1548</ele>
        <time>2017-02-20T13:23:23Z</time>
      </trkpt>
      <trkpt lat="42.85701" lon="0.2625">
        <ele>1544.8</ele>
        <time>2017-02-20T13:23:28Z</time>
      </trkpt>
      <trkpt lat="42.85696" lon="0.26254">
        <ele>1543.6</ele>
        <time>2017-02-20T13:23:33Z</time>
      </trkpt>
      <trkpt lat="42.85693" lon="0.2626">
        <ele>1542.8</ele>
        <time>2017-02-20T13:23:38Z</time>
      </trkpt>
      <trkpt lat="42.85691" lon="0.26267">
        <ele>1543.2</ele>
        <time>2017-02-20T13:23:43Z</time>
      </trkpt>
      <trkpt lat="42.85686" lon="0.26278">
        <ele>1559.6</ele>
        <time>2017-02-20T13:23:49Z</time>
      </trkpt>
      <trkpt lat="42.85681" lon="0.2629">
        <ele>1554</ele>
        <time>2017-02-20T13:23:54Z</time>
      </trkpt>
      <trkpt lat="42.85675" lon="0.26302">
        <ele>1548</ele>
        <time>2017-02-20T13:23:59Z</time>
      </trkpt>
      <trkpt lat="42.85662" lon="0.26308">
        <ele>1543.6</ele>
        <time>2017-02-20T13:24:04Z</time>
      </trkpt>
      <trkpt lat="42.85662" lon="0.26309">
        <ele>1541.2</ele>
        <time>2017-02-20T13:24:09Z</time>
      </trkpt>
      <trkpt lat="42.8566" lon="0.26309">
        <ele>1537.6</ele>
        <time>2017-02-20T13:24:19Z</time>
      </trkpt>
      <trkpt lat="42.85661" lon="0.26316">
        <ele>1528.8</ele>
        <time>2017-02-20T13:24:29Z</time>
      </trkpt>
      <trkpt lat="42.85662" lon="0.26316">
        <ele>1528.8</ele>
        <time>2017-02-20T13:24:39Z</time>
      </trkpt>
      <trkpt lat="42.85662" lon="0.26315">
        <ele>1529.2</ele>
        <time>2017-02-20T13:24:44Z</time>
      </trkpt>
      <trkpt lat="42.85663" lon="0.26314">
        <ele>1527.6</ele>
        <time>2017-02-20T13:24:59Z</time>
      </trkpt>
      <trkpt lat="42.85663" lon="0.26314">
        <ele>1527</ele>
        <time>2017-02-20T13:25:09Z</time>
      </trkpt>
      <trkpt lat="42.85664" lon="0.26315">
        <ele>1528.8</ele>
        <time>2017-02-20T13:25:14Z</time>
      </trkpt>
      <trkpt lat="42.85664" lon="0.26318">
        <ele>1528</ele>
        <time>2017-02-20T13:25:19Z</time>
      </trkpt>
      <trkpt lat="42.85663" lon="0.26321">
        <ele>1527.6</ele>
        <time>2017-02-20T13:25:24Z</time>
      </trkpt>
      <trkpt lat="42.85663" lon="0.2632">
        <ele>1527.4</ele>
        <time>2017-02-20T13:25:29Z</time>
      </trkpt>
      <trkpt lat="42.85663" lon="0.2632">
        <ele>1527</ele>
        <time>2017-02-20T13:25:34Z</time>
      </trkpt>
      <trkpt lat="42.85663" lon="0.2632">
        <ele>1525.8</ele>
        <time>2017-02-20T13:25:44Z</time>
      </trkpt>
      <trkpt lat="42.85664" lon="0.2632">
        <ele>1525.2</ele>
        <time>2017-02-20T13:26:00Z</time>
      </trkpt>
      <trkpt lat="42.85664" lon="0.26319">
        <ele>1525.2</ele>
        <time>2017-02-20T13:26:10Z</time>
      </trkpt>
      <trkpt lat="42.85665" lon="0.26319">
        <ele>1524.8</ele>
        <time>2017-02-20T13:26:15Z</time>
      </trkpt>
      <trkpt lat="42.85665" lon="0.26318">
        <ele>1524.4</ele>
        <time>2017-02-20T13:26:25Z</time>
      </trkpt>
      <trkpt lat="42.85666" lon="0.26317">
        <ele>1523.8</ele>
        <time>2017-02-20T13:26:30Z</time>
      </trkpt>
      <trkpt lat="42.85667" lon="0.26317">
        <ele>1523.2</ele>
        <time>2017-02-20T13:26:35Z</time>
      </trkpt>
      <trkpt lat="42.85668" lon="0.26317">
        <ele>1523</ele>
        <time>2017-02-20T13:26:40Z</time>
      </trkpt>
      <trkpt lat="42.85668" lon="0.26317">
        <ele>1523</ele>
        <time>2017-02-20T13:26:45Z</time>
      </trkpt>
      <trkpt lat="42.85667" lon="0.26317">
        <ele>1524.4</ele>
        <time>2017-02-20T13:26:55Z</time>
      </trkpt>
      <trkpt lat="42.85666" lon="0.26318">
        <ele>1525.2</ele>
        <time>2017-02-20T13:27:00Z</time>
      </trkpt>
      <trkpt lat="42.85666" lon="0.26319">
        <ele>1525.8</ele>
        <time>2017-02-20T13:27:05Z</time>
      </trkpt>
      <trkpt lat="42.85666" lon="0.26319">
        <ele>1526.4</ele>
        <time>2017-02-20T13:27:10Z</time>
      </trkpt>
      <trkpt lat="42.85664" lon="0.26321">
        <ele>1527.4</ele>
        <time>2017-02-20T13:27:15Z</time>
      </trkpt>
      <trkpt lat="42.85664" lon="0.26324">
        <ele>1525.4</ele>
        <time>2017-02-20T13:27:30Z</time>
      </trkpt>
      <trkpt lat="42.85664" lon="0.26325">
        <ele>1527.4</ele>
        <time>2017-02-20T13:27:35Z</time>
      </trkpt>
      <trkpt lat="42.85665" lon="0.26325">
        <ele>1527.2</ele>
        <time>2017-02-20T13:27:40Z</time>
      </trkpt>
      <trkpt lat="42.85665" lon="0.26325">
        <ele>1526</ele>
        <time>2017-02-20T13:27:55Z</time>
      </trkpt>
      <trkpt lat="42.85666" lon="0.26323">
        <ele>1525.2</ele>
        <time>2017-02-20T13:28:00Z</time>
      </trkpt>
      <trkpt lat="42.85667" lon="0.26323">
        <ele>1523.2</ele>
        <time>2017-02-20T13:28:05Z</time>
      </trkpt>
      <trkpt lat="42.85668" lon="0.26322">
        <ele>1521.2</ele>
        <time>2017-02-20T13:28:10Z</time>
      </trkpt>
      <trkpt lat="42.85668" lon="0.26322">
        <ele>1519.4</ele>
        <time>2017-02-20T13:28:15Z</time>
      </trkpt>
      <trkpt lat="42.85668" lon="0.26322">
        <ele>1518</ele>
        <time>2017-02-20T13:28:20Z</time>
      </trkpt>
      <trkpt lat="42.85668" lon="0.26322">
        <ele>1516.8</ele>
        <time>2017-02-20T13:28:25Z</time>
      </trkpt>
      <trkpt lat="42.85669" lon="0.26322">
        <ele>1515.8</ele>
        <time>2017-02-20T13:28:30Z</time>
      </trkpt>
      <trkpt lat="42.85669" lon="0.26321">
        <ele>1514.8</ele>
        <time>2017-02-20T13:28:35Z</time>
      </trkpt>
      <trkpt lat="42.85669" lon="0.26322">
        <ele>1512.6</ele>
        <time>2017-02-20T13:28:50Z</time>
      </trkpt>
      <trkpt lat="42.8567" lon="0.26322">
        <ele>1511.8</ele>
        <time>2017-02-20T13:28:55Z</time>
      </trkpt>
      <trkpt lat="42.8567" lon="0.26322">
        <ele>1511</ele>
        <time>2017-02-20T13:29:00Z</time>
      </trkpt>
      <trkpt lat="42.8567" lon="0.26321">
        <ele>1510.4</ele>
        <time>2017-02-20T13:29:10Z</time>
      </trkpt>
      <trkpt lat="42.8567" lon="0.26321">
        <ele>1510</ele>
        <time>2017-02-20T13:29:16Z</time>
      </trkpt>
      <trkpt lat="42.8567" lon="0.26321">
        <ele>1510.2</ele>
        <time>2017-02-20T13:29:21Z</time>
      </trkpt>
      <trkpt lat="42.8567" lon="0.26322">
        <ele>1510.6</ele>
        <time>2017-02-20T13:29:26Z</time>
      </trkpt>
      <trkpt lat="42.8567" lon="0.26322">
        <ele>1511.4</ele>
        <time>2017-02-20T13:29:36Z</time>
      </trkpt>
      <trkpt lat="42.8567" lon="0.26323">
        <ele>1513.4</ele>
        <time>2017-02-20T13:29:51Z</time>
      </trkpt>
      <trkpt lat="42.8567" lon="0.26324">
        <ele>1514.8</ele>
        <time>2017-02-20T13:30:01Z</time>
      </trkpt>
      <trkpt lat="42.85669" lon="0.26324">
        <ele>1514.8</ele>
        <time>2017-02-20T13:30:06Z</time>
      </trkpt>
      <trkpt lat="42.8567" lon="0.26324">
        <ele>1515.4</ele>
        <time>2017-02-20T13:30:11Z</time>
      </trkpt>
      <trkpt lat="42.8567" lon="0.26323">
        <ele>1514.8</ele>
        <time>2017-02-20T13:30:16Z</time>
      </trkpt>
      <trkpt lat="42.85671" lon="0.26322">
        <ele>1515.6</ele>
        <time>2017-02-20T13:30:21Z</time>
      </trkpt>
      <trkpt lat="42.85671" lon="0.26321">
        <ele>1515.6</ele>
        <time>2017-02-20T13:30:26Z</time>
      </trkpt>
      <trkpt lat="42.85671" lon="0.26326">
        <ele>1515.6</ele>
        <time>2017-02-20T13:30:36Z</time>
      </trkpt>
      <trkpt lat="42.8567" lon="0.26327">
        <ele>1515.8</ele>
        <time>2017-02-20T13:30:41Z</time>
      </trkpt>
      <trkpt lat="42.8567" lon="0.26328">
        <ele>1516</ele>
        <time>2017-02-20T13:30:46Z</time>
      </trkpt>
      <trkpt lat="42.85669" lon="0.26329">
        <ele>1517.2</ele>
        <time>2017-02-20T13:30:56Z</time>
      </trkpt>
      <trkpt lat="42.8567" lon="0.2633">
        <ele>1519.4</ele>
        <time>2017-02-20T13:31:01Z</time>
      </trkpt>
      <trkpt lat="42.85673" lon="0.2633">
        <ele>1519.2</ele>
        <time>2017-02-20T13:31:06Z</time>
      </trkpt>
      <trkpt lat="42.85675" lon="0.26332">
        <ele>1522.2</ele>
        <time>2017-02-20T13:31:11Z</time>
      </trkpt>
      <trkpt lat="42.85675" lon="0.26332">
        <ele>1522.4</ele>
        <time>2017-02-20T13:31:16Z</time>
      </trkpt>
      <trkpt lat="42.85675" lon="0.26332">
        <ele>1522.6</ele>
        <time>2017-02-20T13:31:21Z</time>
      </trkpt>
      <trkpt lat="42.85675" lon="0.26332">
        <ele>1523</ele>
        <time>2017-02-20T13:31:26Z</time>
      </trkpt>
      <trkpt lat="42.85675" lon="0.26333">
        <ele>1523.4</ele>
        <time>2017-02-20T13:31:31Z</time>
      </trkpt>
      <trkpt lat="42.85675" lon="0.26332">
        <ele>1523.4</ele>
        <time>2017-02-20T13:31:36Z</time>
      </trkpt>
      <trkpt lat="42.85675" lon="0.26332">
        <ele>1523.6</ele>
        <time>2017-02-20T13:31:41Z</time>
      </trkpt>
      <trkpt lat="42.85676" lon="0.26331">
        <ele>1523.8</ele>
        <time>2017-02-20T13:31:46Z</time>
      </trkpt>
      <trkpt lat="42.85676" lon="0.26331">
        <ele>1524</ele>
        <time>2017-02-20T13:31:52Z</time>
      </trkpt>
      <trkpt lat="42.85676" lon="0.2633">
        <ele>1524.2</ele>
        <time>2017-02-20T13:32:02Z</time>
      </trkpt>
      <trkpt lat="42.85676" lon="0.26331">
        <ele>1524.2</ele>
        <time>2017-02-20T13:32:07Z</time>
      </trkpt>
      <trkpt lat="42.85676" lon="0.26332">
        <ele>1524.2</ele>
        <time>2017-02-20T13:32:12Z</time>
      </trkpt>
      <trkpt lat="42.85676" lon="0.26332">
        <ele>1524.2</ele>
        <time>2017-02-20T13:32:17Z</time>
      </trkpt>
      <trkpt lat="42.85676" lon="0.26332">
        <ele>1524</ele>
        <time>2017-02-20T13:32:22Z</time>
      </trkpt>
      <trkpt lat="42.85676" lon="0.26332">
        <ele>1523.8</ele>
        <time>2017-02-20T13:32:32Z</time>
      </trkpt>
      <trkpt lat="42.85676" lon="0.26332">
        <ele>1520.6</ele>
        <time>2017-02-20T13:32:37Z</time>
      </trkpt>
      <trkpt lat="42.85676" lon="0.26331">
        <ele>1525.4</ele>
        <time>2017-02-20T13:32:52Z</time>
      </trkpt>
      <trkpt lat="42.85675" lon="0.26331">
        <ele>1525</ele>
        <time>2017-02-20T13:32:57Z</time>
      </trkpt>
      <trkpt lat="42.85675" lon="0.26333">
        <ele>1524.4</ele>
        <time>2017-02-20T13:33:02Z</time>
      </trkpt>
      <trkpt lat="42.85674" lon="0.26335">
        <ele>1526.8</ele>
        <time>2017-02-20T13:33:07Z</time>
      </trkpt>
      <trkpt lat="42.85674" lon="0.2634">
        <ele>1524.2</ele>
        <time>2017-02-20T13:33:12Z</time>
      </trkpt>
      <trkpt lat="42.85674" lon="0.26345">
        <ele>1522.6</ele>
        <time>2017-02-20T13:33:17Z</time>
      </trkpt>
      <trkpt lat="42.85673" lon="0.26357">
        <ele>1524</ele>
        <time>2017-02-20T13:33:22Z</time>
      </trkpt>
      <trkpt lat="42.8566" lon="0.26365">
        <ele>1519.2</ele>
        <time>2017-02-20T13:33:27Z</time>
      </trkpt>
      <trkpt lat="42.85656" lon="0.26365">
        <ele>1520.8</ele>
        <time>2017-02-20T13:33:32Z</time>
      </trkpt>
      <trkpt lat="42.85657" lon="0.26366">
        <ele>1521.2</ele>
        <time>2017-02-20T13:33:52Z</time>
      </trkpt>
      <trkpt lat="42.85655" lon="0.26366">
        <ele>1521.2</ele>
        <time>2017-02-20T13:33:58Z</time>
      </trkpt>
      <trkpt lat="42.85649" lon="0.2638">
        <ele>1521.2</ele>
        <time>2017-02-20T13:34:03Z</time>
      </trkpt>
      <trkpt lat="42.85649" lon="0.26399">
        <ele>1521.2</ele>
        <time>2017-02-20T13:34:08Z</time>
      </trkpt>
      <trkpt lat="42.8564" lon="0.2643">
        <ele>1519.2</ele>
        <time>2017-02-20T13:34:13Z</time>
      </trkpt>
      <trkpt lat="42.85626" lon="0.26465">
        <ele>1517.2</ele>
        <time>2017-02-20T13:34:18Z</time>
      </trkpt>
      <trkpt lat="42.85613" lon="0.26485">
        <ele>1513.4</ele>
        <time>2017-02-20T13:34:23Z</time>
      </trkpt>
      <trkpt lat="42.85601" lon="0.26507">
        <ele>1514.6</ele>
        <time>2017-02-20T13:34:28Z</time>
      </trkpt>
      <trkpt lat="42.85592" lon="0.26524">
        <ele>1511.8</ele>
        <time>2017-02-20T13:34:33Z</time>
      </trkpt>
      <trkpt lat="42.85584" lon="0.2654">
        <ele>1513</ele>
        <time>2017-02-20T13:34:38Z</time>
      </trkpt>
      <trkpt lat="42.85573" lon="0.26561">
        <ele>1513</ele>
        <time>2017-02-20T13:34:43Z</time>
      </trkpt>
      <trkpt lat="42.85563" lon="0.2658">
        <ele>1508.2</ele>
        <time>2017-02-20T13:34:48Z</time>
      </trkpt>
      <trkpt lat="42.85557" lon="0.266">
        <ele>1507</ele>
        <time>2017-02-20T13:34:53Z</time>
      </trkpt>
      <trkpt lat="42.85552" lon="0.26611">
        <ele>1505</ele>
        <time>2017-02-20T13:34:58Z</time>
      </trkpt>
      <trkpt lat="42.8555" lon="0.26615">
        <ele>1505.2</ele>
        <time>2017-02-20T13:35:03Z</time>
      </trkpt>
      <trkpt lat="42.85544" lon="0.26625">
        <ele>1502.4</ele>
        <time>2017-02-20T13:35:08Z</time>
      </trkpt>
      <trkpt lat="42.8554" lon="0.26643">
        <ele>1501.6</ele>
        <time>2017-02-20T13:35:13Z</time>
      </trkpt>
      <trkpt lat="42.85528" lon="0.26654">
        <ele>1495.8</ele>
        <time>2017-02-20T13:35:18Z</time>
      </trkpt>
      <trkpt lat="42.85508" lon="0.26659">
        <ele>1491</ele>
        <time>2017-02-20T13:35:23Z</time>
      </trkpt>
      <trkpt lat="42.85492" lon="0.26687">
        <ele>1486.2</ele>
        <time>2017-02-20T13:35:28Z</time>
      </trkpt>
      <trkpt lat="42.8548" lon="0.26725">
        <ele>1479.6</ele>
        <time>2017-02-20T13:35:33Z</time>
      </trkpt>
      <trkpt lat="42.85474" lon="0.26758">
        <ele>1475.6</ele>
        <time>2017-02-20T13:35:38Z</time>
      </trkpt>
      <trkpt lat="42.85468" lon="0.26782">
        <ele>1474.6</ele>
        <time>2017-02-20T13:35:43Z</time>
      </trkpt>
      <trkpt lat="42.85463" lon="0.26808">
        <ele>1471.6</ele>
        <time>2017-02-20T13:35:48Z</time>
      </trkpt>
      <trkpt lat="42.85451" lon="0.26831">
        <ele>1468.2</ele>
        <time>2017-02-20T13:35:53Z</time>
      </trkpt>
      <trkpt lat="42.85443" lon="0.26855">
        <ele>1463.6</ele>
        <time>2017-02-20T13:35:58Z</time>
      </trkpt>
      <trkpt lat="42.85443" lon="0.26883">
        <ele>1458.6</ele>
        <time>2017-02-20T13:36:03Z</time>
      </trkpt>
      <trkpt lat="42.85433" lon="0.26902">
        <ele>1452.6</ele>
        <time>2017-02-20T13:36:08Z</time>
      </trkpt>
      <trkpt lat="42.85429" lon="0.26919">
        <ele>1452</ele>
        <time>2017-02-20T13:36:13Z</time>
      </trkpt>
      <trkpt lat="42.85429" lon="0.26919">
        <ele>1451.4</ele>
        <time>2017-02-20T13:36:18Z</time>
      </trkpt>
      <trkpt lat="42.85429" lon="0.26919">
        <ele>1449.6</ele>
        <time>2017-02-20T13:36:48Z</time>
      </trkpt>
      <trkpt lat="42.8543" lon="0.2692">
        <ele>1450.6</ele>
        <time>2017-02-20T13:36:58Z</time>
      </trkpt>
      <trkpt lat="42.85431" lon="0.26925">
        <ele>1450</ele>
        <time>2017-02-20T13:37:03Z</time>
      </trkpt>
      <trkpt lat="42.85433" lon="0.26933">
        <ele>1446</ele>
        <time>2017-02-20T13:37:08Z</time>
      </trkpt>
      <trkpt lat="42.85435" lon="0.26936">
        <ele>1446.6</ele>
        <time>2017-02-20T13:37:13Z</time>
      </trkpt>
      <trkpt lat="42.85436" lon="0.26938">
        <ele>1448.8</ele>
        <time>2017-02-20T13:37:18Z</time>
      </trkpt>
      <trkpt lat="42.85439" lon="0.2694">
        <ele>1447.2</ele>
        <time>2017-02-20T13:37:48Z</time>
      </trkpt>
      <trkpt lat="42.85444" lon="0.26941">
        <ele>1448.4</ele>
        <time>2017-02-20T13:37:53Z</time>
      </trkpt>
      <trkpt lat="42.85445" lon="0.26944">
        <ele>1450</ele>
        <time>2017-02-20T13:37:58Z</time>
      </trkpt>
      <trkpt lat="42.85443" lon="0.26949">
        <ele>1448</ele>
        <time>2017-02-20T13:38:03Z</time>
      </trkpt>
      <trkpt lat="42.85442" lon="0.26954">
        <ele>1447.6</ele>
        <time>2017-02-20T13:38:08Z</time>
      </trkpt>
      <trkpt lat="42.85441" lon="0.26958">
        <ele>1450.2</ele>
        <time>2017-02-20T13:38:13Z</time>
      </trkpt>
      <trkpt lat="42.85439" lon="0.2696">
        <ele>1449.8</ele>
        <time>2017-02-20T13:38:18Z</time>
      </trkpt>
      <trkpt lat="42.85439" lon="0.26961">
        <ele>1449.6</ele>
        <time>2017-02-20T13:38:28Z</time>
      </trkpt>
      <trkpt lat="42.85439" lon="0.26961">
        <ele>1450.2</ele>
        <time>2017-02-20T13:38:33Z</time>
      </trkpt>
      <trkpt lat="42.8544" lon="0.26961">
        <ele>1450.4</ele>
        <time>2017-02-20T13:38:38Z</time>
      </trkpt>
      <trkpt lat="42.8544" lon="0.26961">
        <ele>1450.8</ele>
        <time>2017-02-20T13:38:53Z</time>
      </trkpt>
      <trkpt lat="42.8544" lon="0.26961">
        <ele>1450.8</ele>
        <time>2017-02-20T13:39:13Z</time>
      </trkpt>
      <trkpt lat="42.8544" lon="0.26961">
        <ele>1450.8</ele>
        <time>2017-02-20T13:39:23Z</time>
      </trkpt>
      <trkpt lat="42.8544" lon="0.2696">
        <ele>1450.6</ele>
        <time>2017-02-20T13:39:33Z</time>
      </trkpt>
      <trkpt lat="42.85438" lon="0.26961">
        <ele>1451</ele>
        <time>2017-02-20T13:39:38Z</time>
      </trkpt>
      <trkpt lat="42.85438" lon="0.26961">
        <ele>1451.4</ele>
        <time>2017-02-20T13:39:43Z</time>
      </trkpt>
      <trkpt lat="42.85438" lon="0.26961">
        <ele>1451.6</ele>
        <time>2017-02-20T13:39:48Z</time>
      </trkpt>
      <trkpt lat="42.85438" lon="0.26962">
        <ele>1451.8</ele>
        <time>2017-02-20T13:39:58Z</time>
      </trkpt>
      <trkpt lat="42.85439" lon="0.26962">
        <ele>1451.8</ele>
        <time>2017-02-20T13:40:03Z</time>
      </trkpt>
      <trkpt lat="42.85439" lon="0.26962">
        <ele>1451.8</ele>
        <time>2017-02-20T13:40:14Z</time>
      </trkpt>
      <trkpt lat="42.85438" lon="0.26964">
        <ele>1451.6</ele>
        <time>2017-02-20T13:40:29Z</time>
      </trkpt>
      <trkpt lat="42.8543" lon="0.2699">
        <ele>1450</ele>
        <time>2017-02-20T13:40:34Z</time>
      </trkpt>
      <trkpt lat="42.8542" lon="0.27019">
        <ele>1444.6</ele>
        <time>2017-02-20T13:40:39Z</time>
      </trkpt>
      <trkpt lat="42.85415" lon="0.27051">
        <ele>1444</ele>
        <time>2017-02-20T13:40:44Z</time>
      </trkpt>
      <trkpt lat="42.85397" lon="0.27063">
        <ele>1434.8</ele>
        <time>2017-02-20T13:40:49Z</time>
      </trkpt>
      <trkpt lat="42.85381" lon="0.27083">
        <ele>1434</ele>
        <time>2017-02-20T13:40:54Z</time>
      </trkpt>
      <trkpt lat="42.85358" lon="0.27093">
        <ele>1432</ele>
        <time>2017-02-20T13:40:59Z</time>
      </trkpt>
      <trkpt lat="42.85347" lon="0.27124">
        <ele>1424.4</ele>
        <time>2017-02-20T13:41:04Z</time>
      </trkpt>
      <trkpt lat="42.85331" lon="0.27151">
        <ele>1420.8</ele>
        <time>2017-02-20T13:41:09Z</time>
      </trkpt>
      <trkpt lat="42.85326" lon="0.27179">
        <ele>1414.6</ele>
        <time>2017-02-20T13:41:14Z</time>
      </trkpt>
      <trkpt lat="42.8532" lon="0.27171">
        <ele>1414</ele>
        <time>2017-02-20T13:41:19Z</time>
      </trkpt>
      <trkpt lat="42.85305" lon="0.27164">
        <ele>1413.6</ele>
        <time>2017-02-20T13:41:24Z</time>
      </trkpt>
      <trkpt lat="42.85287" lon="0.27166">
        <ele>1410.2</ele>
        <time>2017-02-20T13:41:29Z</time>
      </trkpt>
      <trkpt lat="42.85288" lon="0.27176">
        <ele>1411.2</ele>
        <time>2017-02-20T13:41:34Z</time>
      </trkpt>
      <trkpt lat="42.85284" lon="0.27197">
        <ele>1408.2</ele>
        <time>2017-02-20T13:41:39Z</time>
      </trkpt>
      <trkpt lat="42.85264" lon="0.27209">
        <ele>1405.4</ele>
        <time>2017-02-20T13:41:44Z</time>
      </trkpt>
      <trkpt lat="42.85253" lon="0.27218">
        <ele>1401.2</ele>
        <time>2017-02-20T13:41:49Z</time>
      </trkpt>
      <trkpt lat="42.85252" lon="0.27222">
        <ele>1400.2</ele>
        <time>2017-02-20T13:41:54Z</time>
      </trkpt>
      <trkpt lat="42.85252" lon="0.27219">
        <ele>1399.8</ele>
        <time>2017-02-20T13:41:59Z</time>
      </trkpt>
      <trkpt lat="42.85253" lon="0.27217">
        <ele>1400.6</ele>
        <time>2017-02-20T13:42:05Z</time>
      </trkpt>
      <trkpt lat="42.85253" lon="0.27217">
        <ele>1399.6</ele>
        <time>2017-02-20T13:42:15Z</time>
      </trkpt>
      <trkpt lat="42.85252" lon="0.27217">
        <ele>1400.4</ele>
        <time>2017-02-20T13:42:20Z</time>
      </trkpt>
      <trkpt lat="42.85249" lon="0.27213">
        <ele>1400</ele>
        <time>2017-02-20T13:42:25Z</time>
      </trkpt>
      <trkpt lat="42.85247" lon="0.27204">
        <ele>1398.6</ele>
        <time>2017-02-20T13:42:30Z</time>
      </trkpt>
      <trkpt lat="42.85245" lon="0.27195">
        <ele>1397.4</ele>
        <time>2017-02-20T13:42:35Z</time>
      </trkpt>
      <trkpt lat="42.85244" lon="0.27187">
        <ele>1395.6</ele>
        <time>2017-02-20T13:42:40Z</time>
      </trkpt>
      <trkpt lat="42.85241" lon="0.27178">
        <ele>1396.4</ele>
        <time>2017-02-20T13:42:45Z</time>
      </trkpt>
      <trkpt lat="42.8524" lon="0.27172">
        <ele>1394.4</ele>
        <time>2017-02-20T13:42:50Z</time>
      </trkpt>
      <trkpt lat="42.85236" lon="0.27166">
        <ele>1394</ele>
        <time>2017-02-20T13:42:55Z</time>
      </trkpt>
      <trkpt lat="42.85235" lon="0.2716">
        <ele>1393</ele>
        <time>2017-02-20T13:43:00Z</time>
      </trkpt>
      <trkpt lat="42.85233" lon="0.27155">
        <ele>1392.8</ele>
        <time>2017-02-20T13:43:05Z</time>
      </trkpt>
      <trkpt lat="42.85231" lon="0.27153">
        <ele>1392</ele>
        <time>2017-02-20T13:43:10Z</time>
      </trkpt>
      <trkpt lat="42.85231" lon="0.27153">
        <ele>1391.8</ele>
        <time>2017-02-20T13:43:20Z</time>
      </trkpt>
      <trkpt lat="42.85231" lon="0.27153">
        <ele>1391.8</ele>
        <time>2017-02-20T13:43:25Z</time>
      </trkpt>
      <trkpt lat="42.85226" lon="0.27158">
        <ele>1391.2</ele>
        <time>2017-02-20T13:43:30Z</time>
      </trkpt>
      <trkpt lat="42.85218" lon="0.27167">
        <ele>1392.6</ele>
        <time>2017-02-20T13:43:35Z</time>
      </trkpt>
      <trkpt lat="42.85204" lon="0.27176">
        <ele>1388.6</ele>
        <time>2017-02-20T13:43:40Z</time>
      </trkpt>
      <trkpt lat="42.85188" lon="0.27195">
        <ele>1388.4</ele>
        <time>2017-02-20T13:43:45Z</time>
      </trkpt>
      <trkpt lat="42.85177" lon="0.27219">
        <ele>1384.6</ele>
        <time>2017-02-20T13:43:51Z</time>
      </trkpt>
      <trkpt lat="42.85162" lon="0.27243">
        <ele>1381.8</ele>
        <time>2017-02-20T13:43:56Z</time>
      </trkpt>
      <trkpt lat="42.85144" lon="0.2726">
        <ele>1380.4</ele>
        <time>2017-02-20T13:44:01Z</time>
      </trkpt>
      <trkpt lat="42.85133" lon="0.27282">
        <ele>1375.4</ele>
        <time>2017-02-20T13:44:06Z</time>
      </trkpt>
      <trkpt lat="42.85137" lon="0.27295">
        <ele>1374.4</ele>
        <time>2017-02-20T13:44:11Z</time>
      </trkpt>
      <trkpt lat="42.85137" lon="0.27295">
        <ele>1374.6</ele>
        <time>2017-02-20T13:44:16Z</time>
      </trkpt>
      <trkpt lat="42.85137" lon="0.27294">
        <ele>1374.8</ele>
        <time>2017-02-20T13:44:26Z</time>
      </trkpt>
      <trkpt lat="42.85137" lon="0.27294">
        <ele>1374.8</ele>
        <time>2017-02-20T13:44:36Z</time>
      </trkpt>
      <trkpt lat="42.85137" lon="0.27294">
        <ele>1374.6</ele>
        <time>2017-02-20T13:44:41Z</time>
      </trkpt>
      <trkpt lat="42.85137" lon="0.27294">
        <ele>1374.4</ele>
        <time>2017-02-20T13:44:46Z</time>
      </trkpt>
      <trkpt lat="42.85138" lon="0.27294">
        <ele>1375.4</ele>
        <time>2017-02-20T13:44:51Z</time>
      </trkpt>
      <trkpt lat="42.8514" lon="0.27296">
        <ele>1372.2</ele>
        <time>2017-02-20T13:44:56Z</time>
      </trkpt>
      <trkpt lat="42.85143" lon="0.27298">
        <ele>1374.8</ele>
        <time>2017-02-20T13:45:01Z</time>
      </trkpt>
      <trkpt lat="42.85148" lon="0.27301">
        <ele>1372.2</ele>
        <time>2017-02-20T13:45:06Z</time>
      </trkpt>
      <trkpt lat="42.85153" lon="0.27306">
        <ele>1373.2</ele>
        <time>2017-02-20T13:45:11Z</time>
      </trkpt>
      <trkpt lat="42.85152" lon="0.27314">
        <ele>1369.8</ele>
        <time>2017-02-20T13:45:16Z</time>
      </trkpt>
      <trkpt lat="42.85149" lon="0.27319">
        <ele>1373</ele>
        <time>2017-02-20T13:45:21Z</time>
      </trkpt>
      <trkpt lat="42.85146" lon="0.27323">
        <ele>1374.4</ele>
        <time>2017-02-20T13:45:26Z</time>
      </trkpt>
      <trkpt lat="42.85146" lon="0.27323">
        <ele>1373</ele>
        <time>2017-02-20T13:45:31Z</time>
      </trkpt>
      <trkpt lat="42.85145" lon="0.27323">
        <ele>1373</ele>
        <time>2017-02-20T13:45:36Z</time>
      </trkpt>
      <trkpt lat="42.85145" lon="0.27323">
        <ele>1373</ele>
        <time>2017-02-20T13:45:41Z</time>
      </trkpt>
      <trkpt lat="42.85144" lon="0.27324">
        <ele>1376.4</ele>
        <time>2017-02-20T13:45:46Z</time>
      </trkpt>
      <trkpt lat="42.85142" lon="0.27325">
        <ele>1375.4</ele>
        <time>2017-02-20T13:45:51Z</time>
      </trkpt>
      <trkpt lat="42.85142" lon="0.27325">
        <ele>1373.2</ele>
        <time>2017-02-20T13:45:56Z</time>
      </trkpt>
      <trkpt lat="42.85142" lon="0.27325">
        <ele>1372</ele>
        <time>2017-02-20T13:46:06Z</time>
      </trkpt>
      <trkpt lat="42.85143" lon="0.27325">
        <ele>1373</ele>
        <time>2017-02-20T13:46:16Z</time>
      </trkpt>
      <trkpt lat="42.85142" lon="0.27324">
        <ele>1372.4</ele>
        <time>2017-02-20T13:46:21Z</time>
      </trkpt>
    </trkseg>
  </trk>
</gpx>